<?xml version="1.0" encoding="UTF-8"?>
<gpx creator="StravaGPX Android" version="1.1" xmlns="http://www.topografix.com/GPX/1/1" xmlns:xsi="http://www.w3.org/2001/XMLSchema-instance" xsi:schemaLocation="http://www.topografix.com/GPX/1/1 http://www.topografix.com/GPX/1/1/gpx.xsd">
  <metadata>
    <name>Feierabend</name>
    <link href="https://www.strava.com/activities/17532200095"></link>
    <bounds minlat="48.822103" minlon="10.095564" maxlat="48.853441" maxlon="10.199700"></bounds>
    <keywords>activities:17532200095</keywords>
    <time>2026-02-26T15:55:51Z</time>
  </metadata>
  <trk>
    <name>Feierabend</name>
    <trkseg>
      <trkpt lat="48.841664" lon="10.095593">
        <ele>432.6</ele>
        <time>2026-02-26T15:57:26Z</time>
      </trkpt>
      <trkpt lat="48.841698" lon="10.095581">
        <ele>432.6</ele>
        <time>2026-02-26T15:57:27Z</time>
      </trkpt>
      <trkpt lat="48.841730" lon="10.095571">
        <ele>432.7</ele>
        <time>2026-02-26T15:57:28Z</time>
      </trkpt>
      <trkpt lat="48.841759" lon="10.095564">
        <ele>432.7</ele>
        <time>2026-02-26T15:57:29Z</time>
      </trkpt>
      <trkpt lat="48.841792" lon="10.095567">
        <ele>432.9</ele>
        <time>2026-02-26T15:57:30Z</time>
      </trkpt>
      <trkpt lat="48.841800" lon="10.095569">
        <ele>433</ele>
        <time>2026-02-26T15:57:31Z</time>
      </trkpt>
      <trkpt lat="48.841810" lon="10.095577">
        <ele>433.1</ele>
        <time>2026-02-26T15:57:32Z</time>
      </trkpt>
      <trkpt lat="48.841830" lon="10.095596">
        <ele>433.2</ele>
        <time>2026-02-26T15:57:33Z</time>
      </trkpt>
      <trkpt lat="48.841828" lon="10.095605">
        <ele>433.3</ele>
        <time>2026-02-26T15:57:34Z</time>
      </trkpt>
      <trkpt lat="48.841829" lon="10.095615">
        <ele>433.4</ele>
        <time>2026-02-26T15:57:35Z</time>
      </trkpt>
      <trkpt lat="48.841834" lon="10.095627">
        <ele>433.5</ele>
        <time>2026-02-26T15:57:36Z</time>
      </trkpt>
      <trkpt lat="48.841837" lon="10.095630">
        <ele>433.6</ele>
        <time>2026-02-26T15:57:37Z</time>
      </trkpt>
      <trkpt lat="48.841841" lon="10.095639">
        <ele>433.7</ele>
        <time>2026-02-26T15:57:38Z</time>
      </trkpt>
      <trkpt lat="48.841844" lon="10.095649">
        <ele>433.8</ele>
        <time>2026-02-26T15:57:39Z</time>
      </trkpt>
      <trkpt lat="48.841851" lon="10.095668">
        <ele>434.9</ele>
        <time>2026-02-26T15:57:40Z</time>
      </trkpt>
      <trkpt lat="48.841860" lon="10.095686">
        <ele>435.5</ele>
        <time>2026-02-26T15:57:41Z</time>
      </trkpt>
      <trkpt lat="48.841869" lon="10.095694">
        <ele>435.8</ele>
        <time>2026-02-26T15:57:42Z</time>
      </trkpt>
      <trkpt lat="48.841871" lon="10.095696">
        <ele>435.9</ele>
        <time>2026-02-26T15:57:43Z</time>
      </trkpt>
      <trkpt lat="48.841874" lon="10.095697">
        <ele>436</ele>
        <time>2026-02-26T15:57:44Z</time>
      </trkpt>
      <trkpt lat="48.841877" lon="10.095699">
        <ele>436.1</ele>
        <time>2026-02-26T15:57:45Z</time>
      </trkpt>
      <trkpt lat="48.841880" lon="10.095700">
        <ele>436.2</ele>
        <time>2026-02-26T15:57:46Z</time>
      </trkpt>
      <trkpt lat="48.841882" lon="10.095702">
        <ele>436.3</ele>
        <time>2026-02-26T15:57:47Z</time>
      </trkpt>
      <trkpt lat="48.841885" lon="10.095703">
        <ele>436.5</ele>
        <time>2026-02-26T15:57:48Z</time>
      </trkpt>
      <trkpt lat="48.841888" lon="10.095705">
        <ele>436.8</ele>
        <time>2026-02-26T15:57:49Z</time>
      </trkpt>
      <trkpt lat="48.841891" lon="10.095706">
        <ele>437</ele>
        <time>2026-02-26T15:57:50Z</time>
      </trkpt>
      <trkpt lat="48.841893" lon="10.095708">
        <ele>437.2</ele>
        <time>2026-02-26T15:57:51Z</time>
      </trkpt>
      <trkpt lat="48.841896" lon="10.095709">
        <ele>437.5</ele>
        <time>2026-02-26T15:57:52Z</time>
      </trkpt>
      <trkpt lat="48.841899" lon="10.095711">
        <ele>437.8</ele>
        <time>2026-02-26T15:57:53Z</time>
      </trkpt>
      <trkpt lat="48.841901" lon="10.095712">
        <ele>437.9</ele>
        <time>2026-02-26T15:57:54Z</time>
      </trkpt>
      <trkpt lat="48.841904" lon="10.095714">
        <ele>438.2</ele>
        <time>2026-02-26T15:57:55Z</time>
      </trkpt>
      <trkpt lat="48.841907" lon="10.095715">
        <ele>438.4</ele>
        <time>2026-02-26T15:58:58Z</time>
      </trkpt>
      <trkpt lat="48.841910" lon="10.095717">
        <ele>438.7</ele>
        <time>2026-02-26T15:58:59Z</time>
      </trkpt>
      <trkpt lat="48.841912" lon="10.095718">
        <ele>438.9</ele>
        <time>2026-02-26T15:59:00Z</time>
      </trkpt>
      <trkpt lat="48.841915" lon="10.095720">
        <ele>439.1</ele>
        <time>2026-02-26T15:59:01Z</time>
      </trkpt>
      <trkpt lat="48.841917" lon="10.095736">
        <ele>439.2</ele>
        <time>2026-02-26T15:59:02Z</time>
      </trkpt>
      <trkpt lat="48.841920" lon="10.095752">
        <ele>439.2</ele>
        <time>2026-02-26T15:59:03Z</time>
      </trkpt>
      <trkpt lat="48.841922" lon="10.095768">
        <ele>439.3</ele>
        <time>2026-02-26T15:59:04Z</time>
      </trkpt>
      <trkpt lat="48.841923" lon="10.095776">
        <ele>439.3</ele>
        <time>2026-02-26T15:59:05Z</time>
      </trkpt>
      <trkpt lat="48.841925" lon="10.095780">
        <ele>439.4</ele>
        <time>2026-02-26T15:59:06Z</time>
      </trkpt>
      <trkpt lat="48.841927" lon="10.095782">
        <ele>439.4</ele>
        <time>2026-02-26T15:59:07Z</time>
      </trkpt>
      <trkpt lat="48.841930" lon="10.095786">
        <ele>439.4</ele>
        <time>2026-02-26T15:59:08Z</time>
      </trkpt>
      <trkpt lat="48.841931" lon="10.095789">
        <ele>439.4</ele>
        <time>2026-02-26T15:59:09Z</time>
      </trkpt>
      <trkpt lat="48.841930" lon="10.095802">
        <ele>439.4</ele>
        <time>2026-02-26T15:59:10Z</time>
      </trkpt>
      <trkpt lat="48.841932" lon="10.095817">
        <ele>439.5</ele>
        <time>2026-02-26T15:59:11Z</time>
      </trkpt>
      <trkpt lat="48.841938" lon="10.095840">
        <ele>439.6</ele>
        <time>2026-02-26T15:59:12Z</time>
      </trkpt>
      <trkpt lat="48.841942" lon="10.095868">
        <ele>439.7</ele>
        <time>2026-02-26T15:59:13Z</time>
      </trkpt>
      <trkpt lat="48.841949" lon="10.095914">
        <ele>439.8</ele>
        <time>2026-02-26T15:59:14Z</time>
      </trkpt>
      <trkpt lat="48.841950" lon="10.095930">
        <ele>439.8</ele>
        <time>2026-02-26T15:59:15Z</time>
      </trkpt>
      <trkpt lat="48.841956" lon="10.095980">
        <ele>439.9</ele>
        <time>2026-02-26T15:59:16Z</time>
      </trkpt>
      <trkpt lat="48.841958" lon="10.095997">
        <ele>440</ele>
        <time>2026-02-26T15:59:17Z</time>
      </trkpt>
      <trkpt lat="48.841973" lon="10.096048">
        <ele>440.1</ele>
        <time>2026-02-26T15:59:18Z</time>
      </trkpt>
      <trkpt lat="48.841981" lon="10.096065">
        <ele>440.1</ele>
        <time>2026-02-26T15:59:19Z</time>
      </trkpt>
      <trkpt lat="48.841986" lon="10.096110">
        <ele>440.2</ele>
        <time>2026-02-26T15:59:20Z</time>
      </trkpt>
      <trkpt lat="48.841989" lon="10.096125">
        <ele>440.2</ele>
        <time>2026-02-26T15:59:21Z</time>
      </trkpt>
      <trkpt lat="48.841998" lon="10.096170">
        <ele>440.3</ele>
        <time>2026-02-26T15:59:22Z</time>
      </trkpt>
      <trkpt lat="48.842000" lon="10.096184">
        <ele>440.3</ele>
        <time>2026-02-26T15:59:23Z</time>
      </trkpt>
      <trkpt lat="48.842004" lon="10.096212">
        <ele>440.3</ele>
        <time>2026-02-26T15:59:24Z</time>
      </trkpt>
      <trkpt lat="48.842008" lon="10.096238">
        <ele>440.3</ele>
        <time>2026-02-26T15:59:25Z</time>
      </trkpt>
      <trkpt lat="48.842011" lon="10.096261">
        <ele>440.3</ele>
        <time>2026-02-26T15:59:26Z</time>
      </trkpt>
      <trkpt lat="48.842013" lon="10.096284">
        <ele>440.3</ele>
        <time>2026-02-26T15:59:27Z</time>
      </trkpt>
      <trkpt lat="48.842016" lon="10.096309">
        <ele>440.4</ele>
        <time>2026-02-26T15:59:28Z</time>
      </trkpt>
      <trkpt lat="48.842019" lon="10.096330">
        <ele>440.4</ele>
        <time>2026-02-26T15:59:29Z</time>
      </trkpt>
      <trkpt lat="48.842021" lon="10.096347">
        <ele>440.4</ele>
        <time>2026-02-26T15:59:30Z</time>
      </trkpt>
      <trkpt lat="48.842021" lon="10.096359">
        <ele>440.4</ele>
        <time>2026-02-26T15:59:31Z</time>
      </trkpt>
      <trkpt lat="48.842020" lon="10.096361">
        <ele>440.4</ele>
        <time>2026-02-26T15:59:32Z</time>
      </trkpt>
      <trkpt lat="48.842020" lon="10.096361">
        <ele>440.4</ele>
        <time>2026-02-26T15:59:33Z</time>
      </trkpt>
      <trkpt lat="48.842020" lon="10.096362">
        <ele>440.4</ele>
        <time>2026-02-26T15:59:34Z</time>
      </trkpt>
      <trkpt lat="48.842019" lon="10.096363">
        <ele>440.4</ele>
        <time>2026-02-26T15:59:35Z</time>
      </trkpt>
      <trkpt lat="48.842019" lon="10.096360">
        <ele>440.4</ele>
        <time>2026-02-26T15:59:36Z</time>
      </trkpt>
      <trkpt lat="48.842018" lon="10.096358">
        <ele>440.4</ele>
        <time>2026-02-26T15:59:37Z</time>
      </trkpt>
      <trkpt lat="48.842019" lon="10.096357">
        <ele>440.4</ele>
        <time>2026-02-26T15:59:38Z</time>
      </trkpt>
      <trkpt lat="48.842019" lon="10.096357">
        <ele>440.4</ele>
        <time>2026-02-26T15:59:39Z</time>
      </trkpt>
      <trkpt lat="48.842019" lon="10.096357">
        <ele>440.4</ele>
        <time>2026-02-26T15:59:40Z</time>
      </trkpt>
      <trkpt lat="48.842020" lon="10.096357">
        <ele>440.4</ele>
        <time>2026-02-26T15:59:41Z</time>
      </trkpt>
      <trkpt lat="48.842022" lon="10.096375">
        <ele>440.4</ele>
        <time>2026-02-26T15:59:51Z</time>
      </trkpt>
      <trkpt lat="48.842024" lon="10.096396">
        <ele>440.4</ele>
        <time>2026-02-26T15:59:52Z</time>
      </trkpt>
      <trkpt lat="48.842026" lon="10.096416">
        <ele>440.4</ele>
        <time>2026-02-26T15:59:53Z</time>
      </trkpt>
      <trkpt lat="48.842030" lon="10.096440">
        <ele>440.4</ele>
        <time>2026-02-26T15:59:54Z</time>
      </trkpt>
      <trkpt lat="48.842034" lon="10.096466">
        <ele>440.5</ele>
        <time>2026-02-26T15:59:55Z</time>
      </trkpt>
      <trkpt lat="48.842033" lon="10.096511">
        <ele>440.5</ele>
        <time>2026-02-26T15:59:56Z</time>
      </trkpt>
      <trkpt lat="48.842033" lon="10.096526">
        <ele>440.5</ele>
        <time>2026-02-26T15:59:57Z</time>
      </trkpt>
      <trkpt lat="48.842039" lon="10.096571">
        <ele>440.5</ele>
        <time>2026-02-26T15:59:58Z</time>
      </trkpt>
      <trkpt lat="48.842041" lon="10.096585">
        <ele>440.5</ele>
        <time>2026-02-26T15:59:59Z</time>
      </trkpt>
      <trkpt lat="48.842044" lon="10.096628">
        <ele>440.5</ele>
        <time>2026-02-26T16:00:00Z</time>
      </trkpt>
      <trkpt lat="48.842044" lon="10.096642">
        <ele>440.5</ele>
        <time>2026-02-26T16:00:01Z</time>
      </trkpt>
      <trkpt lat="48.842048" lon="10.096685">
        <ele>440.5</ele>
        <time>2026-02-26T16:00:02Z</time>
      </trkpt>
      <trkpt lat="48.842050" lon="10.096700">
        <ele>440.5</ele>
        <time>2026-02-26T16:00:03Z</time>
      </trkpt>
      <trkpt lat="48.842054" lon="10.096728">
        <ele>440.5</ele>
        <time>2026-02-26T16:00:04Z</time>
      </trkpt>
      <trkpt lat="48.842056" lon="10.096754">
        <ele>440.5</ele>
        <time>2026-02-26T16:00:05Z</time>
      </trkpt>
      <trkpt lat="48.842057" lon="10.096781">
        <ele>440.5</ele>
        <time>2026-02-26T16:00:06Z</time>
      </trkpt>
      <trkpt lat="48.842060" lon="10.096807">
        <ele>440.5</ele>
        <time>2026-02-26T16:00:07Z</time>
      </trkpt>
      <trkpt lat="48.842063" lon="10.096835">
        <ele>440.5</ele>
        <time>2026-02-26T16:00:08Z</time>
      </trkpt>
      <trkpt lat="48.842065" lon="10.096859">
        <ele>440.5</ele>
        <time>2026-02-26T16:00:09Z</time>
      </trkpt>
      <trkpt lat="48.842068" lon="10.096882">
        <ele>440.5</ele>
        <time>2026-02-26T16:00:10Z</time>
      </trkpt>
      <trkpt lat="48.842071" lon="10.096908">
        <ele>440.5</ele>
        <time>2026-02-26T16:00:11Z</time>
      </trkpt>
      <trkpt lat="48.842076" lon="10.096949">
        <ele>440.5</ele>
        <time>2026-02-26T16:00:12Z</time>
      </trkpt>
      <trkpt lat="48.842078" lon="10.096963">
        <ele>440.5</ele>
        <time>2026-02-26T16:00:13Z</time>
      </trkpt>
      <trkpt lat="48.842082" lon="10.097007">
        <ele>440.5</ele>
        <time>2026-02-26T16:00:14Z</time>
      </trkpt>
      <trkpt lat="48.842083" lon="10.097022">
        <ele>440.5</ele>
        <time>2026-02-26T16:00:15Z</time>
      </trkpt>
      <trkpt lat="48.842086" lon="10.097063">
        <ele>440.5</ele>
        <time>2026-02-26T16:00:16Z</time>
      </trkpt>
      <trkpt lat="48.842087" lon="10.097077">
        <ele>440.4</ele>
        <time>2026-02-26T16:00:17Z</time>
      </trkpt>
      <trkpt lat="48.842089" lon="10.097104">
        <ele>440.4</ele>
        <time>2026-02-26T16:00:18Z</time>
      </trkpt>
      <trkpt lat="48.842092" lon="10.097130">
        <ele>440.4</ele>
        <time>2026-02-26T16:00:19Z</time>
      </trkpt>
      <trkpt lat="48.842096" lon="10.097155">
        <ele>440.4</ele>
        <time>2026-02-26T16:00:20Z</time>
      </trkpt>
      <trkpt lat="48.842098" lon="10.097182">
        <ele>440.4</ele>
        <time>2026-02-26T16:00:21Z</time>
      </trkpt>
      <trkpt lat="48.842100" lon="10.097207">
        <ele>440.4</ele>
        <time>2026-02-26T16:00:22Z</time>
      </trkpt>
      <trkpt lat="48.842102" lon="10.097232">
        <ele>440.4</ele>
        <time>2026-02-26T16:00:23Z</time>
      </trkpt>
      <trkpt lat="48.842106" lon="10.097259">
        <ele>440.3</ele>
        <time>2026-02-26T16:00:24Z</time>
      </trkpt>
      <trkpt lat="48.842109" lon="10.097287">
        <ele>440.3</ele>
        <time>2026-02-26T16:00:25Z</time>
      </trkpt>
      <trkpt lat="48.842111" lon="10.097319">
        <ele>440.3</ele>
        <time>2026-02-26T16:00:26Z</time>
      </trkpt>
      <trkpt lat="48.842112" lon="10.097330">
        <ele>440.3</ele>
        <time>2026-02-26T16:00:27Z</time>
      </trkpt>
      <trkpt lat="48.842112" lon="10.097342">
        <ele>440.3</ele>
        <time>2026-02-26T16:00:28Z</time>
      </trkpt>
      <trkpt lat="48.842114" lon="10.097363">
        <ele>440.2</ele>
        <time>2026-02-26T16:00:29Z</time>
      </trkpt>
      <trkpt lat="48.842116" lon="10.097387">
        <ele>440.2</ele>
        <time>2026-02-26T16:00:30Z</time>
      </trkpt>
      <trkpt lat="48.842115" lon="10.097405">
        <ele>440.2</ele>
        <time>2026-02-26T16:00:31Z</time>
      </trkpt>
      <trkpt lat="48.842115" lon="10.097421">
        <ele>440.2</ele>
        <time>2026-02-26T16:00:32Z</time>
      </trkpt>
      <trkpt lat="48.842119" lon="10.097432">
        <ele>440.2</ele>
        <time>2026-02-26T16:00:33Z</time>
      </trkpt>
      <trkpt lat="48.842121" lon="10.097441">
        <ele>440.1</ele>
        <time>2026-02-26T16:00:34Z</time>
      </trkpt>
      <trkpt lat="48.842122" lon="10.097440">
        <ele>440.1</ele>
        <time>2026-02-26T16:00:35Z</time>
      </trkpt>
      <trkpt lat="48.842117" lon="10.097438">
        <ele>440.1</ele>
        <time>2026-02-26T16:00:36Z</time>
      </trkpt>
      <trkpt lat="48.842111" lon="10.097442">
        <ele>440.1</ele>
        <time>2026-02-26T16:00:37Z</time>
      </trkpt>
      <trkpt lat="48.842109" lon="10.097444">
        <ele>440.1</ele>
        <time>2026-02-26T16:00:38Z</time>
      </trkpt>
      <trkpt lat="48.842111" lon="10.097441">
        <ele>440.1</ele>
        <time>2026-02-26T16:00:39Z</time>
      </trkpt>
      <trkpt lat="48.842112" lon="10.097438">
        <ele>440.1</ele>
        <time>2026-02-26T16:00:40Z</time>
      </trkpt>
      <trkpt lat="48.842113" lon="10.097436">
        <ele>440.1</ele>
        <time>2026-02-26T16:00:41Z</time>
      </trkpt>
      <trkpt lat="48.842115" lon="10.097437">
        <ele>440.1</ele>
        <time>2026-02-26T16:00:42Z</time>
      </trkpt>
      <trkpt lat="48.842118" lon="10.097436">
        <ele>440.1</ele>
        <time>2026-02-26T16:00:43Z</time>
      </trkpt>
      <trkpt lat="48.842119" lon="10.097436">
        <ele>440.1</ele>
        <time>2026-02-26T16:00:44Z</time>
      </trkpt>
      <trkpt lat="48.842118" lon="10.097436">
        <ele>440.1</ele>
        <time>2026-02-26T16:00:45Z</time>
      </trkpt>
      <trkpt lat="48.842120" lon="10.097436">
        <ele>440.1</ele>
        <time>2026-02-26T16:00:46Z</time>
      </trkpt>
      <trkpt lat="48.842119" lon="10.097436">
        <ele>440.1</ele>
        <time>2026-02-26T16:00:47Z</time>
      </trkpt>
      <trkpt lat="48.842124" lon="10.097473">
        <ele>440</ele>
        <time>2026-02-26T16:00:51Z</time>
      </trkpt>
      <trkpt lat="48.842126" lon="10.097487">
        <ele>440</ele>
        <time>2026-02-26T16:00:52Z</time>
      </trkpt>
      <trkpt lat="48.842128" lon="10.097503">
        <ele>440</ele>
        <time>2026-02-26T16:00:53Z</time>
      </trkpt>
      <trkpt lat="48.842128" lon="10.097507">
        <ele>440</ele>
        <time>2026-02-26T16:00:54Z</time>
      </trkpt>
      <trkpt lat="48.842136" lon="10.097516">
        <ele>439.9</ele>
        <time>2026-02-26T16:00:55Z</time>
      </trkpt>
      <trkpt lat="48.842146" lon="10.097519">
        <ele>439.9</ele>
        <time>2026-02-26T16:00:56Z</time>
      </trkpt>
      <trkpt lat="48.842153" lon="10.097518">
        <ele>439.9</ele>
        <time>2026-02-26T16:00:57Z</time>
      </trkpt>
      <trkpt lat="48.842156" lon="10.097515">
        <ele>439.9</ele>
        <time>2026-02-26T16:00:58Z</time>
      </trkpt>
      <trkpt lat="48.842158" lon="10.097508">
        <ele>439.9</ele>
        <time>2026-02-26T16:00:59Z</time>
      </trkpt>
      <trkpt lat="48.842159" lon="10.097506">
        <ele>439.9</ele>
        <time>2026-02-26T16:01:00Z</time>
      </trkpt>
      <trkpt lat="48.842158" lon="10.097507">
        <ele>439.9</ele>
        <time>2026-02-26T16:01:01Z</time>
      </trkpt>
      <trkpt lat="48.842158" lon="10.097507">
        <ele>439.9</ele>
        <time>2026-02-26T16:01:02Z</time>
      </trkpt>
      <trkpt lat="48.842157" lon="10.097506">
        <ele>439.9</ele>
        <time>2026-02-26T16:01:03Z</time>
      </trkpt>
      <trkpt lat="48.842156" lon="10.097506">
        <ele>439.9</ele>
        <time>2026-02-26T16:01:04Z</time>
      </trkpt>
      <trkpt lat="48.842155" lon="10.097506">
        <ele>439.9</ele>
        <time>2026-02-26T16:01:05Z</time>
      </trkpt>
      <trkpt lat="48.842155" lon="10.097506">
        <ele>439.9</ele>
        <time>2026-02-26T16:01:06Z</time>
      </trkpt>
      <trkpt lat="48.842154" lon="10.097506">
        <ele>439.9</ele>
        <time>2026-02-26T16:01:07Z</time>
      </trkpt>
      <trkpt lat="48.842154" lon="10.097505">
        <ele>439.9</ele>
        <time>2026-02-26T16:01:08Z</time>
      </trkpt>
      <trkpt lat="48.842154" lon="10.097504">
        <ele>439.9</ele>
        <time>2026-02-26T16:01:09Z</time>
      </trkpt>
      <trkpt lat="48.842157" lon="10.097486">
        <ele>439.9</ele>
        <time>2026-02-26T16:01:56Z</time>
      </trkpt>
      <trkpt lat="48.842166" lon="10.097481">
        <ele>439.9</ele>
        <time>2026-02-26T16:01:57Z</time>
      </trkpt>
      <trkpt lat="48.842170" lon="10.097479">
        <ele>439.9</ele>
        <time>2026-02-26T16:01:58Z</time>
      </trkpt>
      <trkpt lat="48.842172" lon="10.097478">
        <ele>439.9</ele>
        <time>2026-02-26T16:01:59Z</time>
      </trkpt>
      <trkpt lat="48.842173" lon="10.097479">
        <ele>439.9</ele>
        <time>2026-02-26T16:02:00Z</time>
      </trkpt>
      <trkpt lat="48.842175" lon="10.097482">
        <ele>439.9</ele>
        <time>2026-02-26T16:02:01Z</time>
      </trkpt>
      <trkpt lat="48.842179" lon="10.097485">
        <ele>439.9</ele>
        <time>2026-02-26T16:02:02Z</time>
      </trkpt>
      <trkpt lat="48.842182" lon="10.097489">
        <ele>439.9</ele>
        <time>2026-02-26T16:02:03Z</time>
      </trkpt>
      <trkpt lat="48.842185" lon="10.097492">
        <ele>439.9</ele>
        <time>2026-02-26T16:02:04Z</time>
      </trkpt>
      <trkpt lat="48.842190" lon="10.097496">
        <ele>439.9</ele>
        <time>2026-02-26T16:02:05Z</time>
      </trkpt>
      <trkpt lat="48.842195" lon="10.097507">
        <ele>439.9</ele>
        <time>2026-02-26T16:02:06Z</time>
      </trkpt>
      <trkpt lat="48.842199" lon="10.097531">
        <ele>439.9</ele>
        <time>2026-02-26T16:02:07Z</time>
      </trkpt>
      <trkpt lat="48.842193" lon="10.097554">
        <ele>437.7</ele>
        <time>2026-02-26T16:02:08Z</time>
      </trkpt>
      <trkpt lat="48.842177" lon="10.097566">
        <ele>435.2</ele>
        <time>2026-02-26T16:02:09Z</time>
      </trkpt>
      <trkpt lat="48.842151" lon="10.097592">
        <ele>434.4</ele>
        <time>2026-02-26T16:02:10Z</time>
      </trkpt>
      <trkpt lat="48.842144" lon="10.097603">
        <ele>434.2</ele>
        <time>2026-02-26T16:02:11Z</time>
      </trkpt>
      <trkpt lat="48.842144" lon="10.097645">
        <ele>433.9</ele>
        <time>2026-02-26T16:02:12Z</time>
      </trkpt>
      <trkpt lat="48.842155" lon="10.097691">
        <ele>433.6</ele>
        <time>2026-02-26T16:02:13Z</time>
      </trkpt>
      <trkpt lat="48.842225" lon="10.097821">
        <ele>433.2</ele>
        <time>2026-02-26T16:02:14Z</time>
      </trkpt>
      <trkpt lat="48.842254" lon="10.097868">
        <ele>433.2</ele>
        <time>2026-02-26T16:02:15Z</time>
      </trkpt>
      <trkpt lat="48.842265" lon="10.097884">
        <ele>433.3</ele>
        <time>2026-02-26T16:02:16Z</time>
      </trkpt>
      <trkpt lat="48.842295" lon="10.097904">
        <ele>433.3</ele>
        <time>2026-02-26T16:02:17Z</time>
      </trkpt>
      <trkpt lat="48.842323" lon="10.097930">
        <ele>433.4</ele>
        <time>2026-02-26T16:02:18Z</time>
      </trkpt>
      <trkpt lat="48.842353" lon="10.097951">
        <ele>433.4</ele>
        <time>2026-02-26T16:02:19Z</time>
      </trkpt>
      <trkpt lat="48.842386" lon="10.097958">
        <ele>433.5</ele>
        <time>2026-02-26T16:02:20Z</time>
      </trkpt>
      <trkpt lat="48.842421" lon="10.097948">
        <ele>433.5</ele>
        <time>2026-02-26T16:02:21Z</time>
      </trkpt>
      <trkpt lat="48.842455" lon="10.097932">
        <ele>433.6</ele>
        <time>2026-02-26T16:02:22Z</time>
      </trkpt>
      <trkpt lat="48.842489" lon="10.097926">
        <ele>433.6</ele>
        <time>2026-02-26T16:02:23Z</time>
      </trkpt>
      <trkpt lat="48.842523" lon="10.097942">
        <ele>433.6</ele>
        <time>2026-02-26T16:02:24Z</time>
      </trkpt>
      <trkpt lat="48.842555" lon="10.097974">
        <ele>433.7</ele>
        <time>2026-02-26T16:02:25Z</time>
      </trkpt>
      <trkpt lat="48.842584" lon="10.098011">
        <ele>433.7</ele>
        <time>2026-02-26T16:02:26Z</time>
      </trkpt>
      <trkpt lat="48.842615" lon="10.098036">
        <ele>433.8</ele>
        <time>2026-02-26T16:02:27Z</time>
      </trkpt>
      <trkpt lat="48.842645" lon="10.098046">
        <ele>433.8</ele>
        <time>2026-02-26T16:02:28Z</time>
      </trkpt>
      <trkpt lat="48.842675" lon="10.098049">
        <ele>433.9</ele>
        <time>2026-02-26T16:02:29Z</time>
      </trkpt>
      <trkpt lat="48.842703" lon="10.098064">
        <ele>433.9</ele>
        <time>2026-02-26T16:02:30Z</time>
      </trkpt>
      <trkpt lat="48.842724" lon="10.098097">
        <ele>434</ele>
        <time>2026-02-26T16:02:31Z</time>
      </trkpt>
      <trkpt lat="48.842739" lon="10.098141">
        <ele>434.1</ele>
        <time>2026-02-26T16:02:32Z</time>
      </trkpt>
      <trkpt lat="48.842752" lon="10.098185">
        <ele>434.1</ele>
        <time>2026-02-26T16:02:33Z</time>
      </trkpt>
      <trkpt lat="48.842753" lon="10.098199">
        <ele>434.1</ele>
        <time>2026-02-26T16:02:34Z</time>
      </trkpt>
      <trkpt lat="48.842759" lon="10.098241">
        <ele>434.2</ele>
        <time>2026-02-26T16:02:35Z</time>
      </trkpt>
      <trkpt lat="48.842767" lon="10.098292">
        <ele>434.2</ele>
        <time>2026-02-26T16:02:36Z</time>
      </trkpt>
      <trkpt lat="48.842772" lon="10.098346">
        <ele>434.2</ele>
        <time>2026-02-26T16:02:37Z</time>
      </trkpt>
      <trkpt lat="48.842777" lon="10.098401">
        <ele>434.3</ele>
        <time>2026-02-26T16:02:38Z</time>
      </trkpt>
      <trkpt lat="48.842781" lon="10.098457">
        <ele>434.3</ele>
        <time>2026-02-26T16:02:39Z</time>
      </trkpt>
      <trkpt lat="48.842789" lon="10.098505">
        <ele>434.4</ele>
        <time>2026-02-26T16:02:40Z</time>
      </trkpt>
      <trkpt lat="48.842797" lon="10.098556">
        <ele>434.4</ele>
        <time>2026-02-26T16:02:41Z</time>
      </trkpt>
      <trkpt lat="48.842807" lon="10.098612">
        <ele>434.5</ele>
        <time>2026-02-26T16:02:42Z</time>
      </trkpt>
      <trkpt lat="48.842814" lon="10.098665">
        <ele>434.6</ele>
        <time>2026-02-26T16:02:43Z</time>
      </trkpt>
      <trkpt lat="48.842821" lon="10.098717">
        <ele>434.8</ele>
        <time>2026-02-26T16:02:44Z</time>
      </trkpt>
      <trkpt lat="48.842829" lon="10.098762">
        <ele>434.8</ele>
        <time>2026-02-26T16:02:45Z</time>
      </trkpt>
      <trkpt lat="48.842842" lon="10.098800">
        <ele>434.9</ele>
        <time>2026-02-26T16:02:46Z</time>
      </trkpt>
      <trkpt lat="48.842859" lon="10.098856">
        <ele>435.1</ele>
        <time>2026-02-26T16:02:47Z</time>
      </trkpt>
      <trkpt lat="48.842863" lon="10.098877">
        <ele>435.1</ele>
        <time>2026-02-26T16:02:48Z</time>
      </trkpt>
      <trkpt lat="48.842875" lon="10.098928">
        <ele>435.3</ele>
        <time>2026-02-26T16:02:49Z</time>
      </trkpt>
      <trkpt lat="48.842880" lon="10.098945">
        <ele>435.3</ele>
        <time>2026-02-26T16:02:50Z</time>
      </trkpt>
      <trkpt lat="48.842900" lon="10.098995">
        <ele>435.5</ele>
        <time>2026-02-26T16:02:51Z</time>
      </trkpt>
      <trkpt lat="48.842908" lon="10.099011">
        <ele>435.5</ele>
        <time>2026-02-26T16:02:52Z</time>
      </trkpt>
      <trkpt lat="48.842911" lon="10.099054">
        <ele>435.7</ele>
        <time>2026-02-26T16:02:53Z</time>
      </trkpt>
      <trkpt lat="48.842912" lon="10.099101">
        <ele>435.8</ele>
        <time>2026-02-26T16:02:54Z</time>
      </trkpt>
      <trkpt lat="48.842909" lon="10.099116">
        <ele>435.8</ele>
        <time>2026-02-26T16:02:55Z</time>
      </trkpt>
      <trkpt lat="48.842900" lon="10.099158">
        <ele>436</ele>
        <time>2026-02-26T16:02:56Z</time>
      </trkpt>
      <trkpt lat="48.842899" lon="10.099172">
        <ele>436</ele>
        <time>2026-02-26T16:02:57Z</time>
      </trkpt>
      <trkpt lat="48.842908" lon="10.099233">
        <ele>436.2</ele>
        <time>2026-02-26T16:02:58Z</time>
      </trkpt>
      <trkpt lat="48.842910" lon="10.099254">
        <ele>436.2</ele>
        <time>2026-02-26T16:02:59Z</time>
      </trkpt>
      <trkpt lat="48.842906" lon="10.099320">
        <ele>436.3</ele>
        <time>2026-02-26T16:03:00Z</time>
      </trkpt>
      <trkpt lat="48.842912" lon="10.099372">
        <ele>436.4</ele>
        <time>2026-02-26T16:03:01Z</time>
      </trkpt>
      <trkpt lat="48.842913" lon="10.099422">
        <ele>436.4</ele>
        <time>2026-02-26T16:03:02Z</time>
      </trkpt>
      <trkpt lat="48.842912" lon="10.099435">
        <ele>436.4</ele>
        <time>2026-02-26T16:03:03Z</time>
      </trkpt>
      <trkpt lat="48.842909" lon="10.099451">
        <ele>436.5</ele>
        <time>2026-02-26T16:03:04Z</time>
      </trkpt>
      <trkpt lat="48.842908" lon="10.099456">
        <ele>436.5</ele>
        <time>2026-02-26T16:03:05Z</time>
      </trkpt>
      <trkpt lat="48.842908" lon="10.099458">
        <ele>436.5</ele>
        <time>2026-02-26T16:03:06Z</time>
      </trkpt>
      <trkpt lat="48.842908" lon="10.099458">
        <ele>436.5</ele>
        <time>2026-02-26T16:03:07Z</time>
      </trkpt>
      <trkpt lat="48.842908" lon="10.099459">
        <ele>436.5</ele>
        <time>2026-02-26T16:03:08Z</time>
      </trkpt>
      <trkpt lat="48.842908" lon="10.099459">
        <ele>436.5</ele>
        <time>2026-02-26T16:03:09Z</time>
      </trkpt>
      <trkpt lat="48.842908" lon="10.099459">
        <ele>436.5</ele>
        <time>2026-02-26T16:03:10Z</time>
      </trkpt>
      <trkpt lat="48.842908" lon="10.099459">
        <ele>436.5</ele>
        <time>2026-02-26T16:03:11Z</time>
      </trkpt>
      <trkpt lat="48.842908" lon="10.099460">
        <ele>436.5</ele>
        <time>2026-02-26T16:03:12Z</time>
      </trkpt>
      <trkpt lat="48.842908" lon="10.099460">
        <ele>436.5</ele>
        <time>2026-02-26T16:03:13Z</time>
      </trkpt>
      <trkpt lat="48.842908" lon="10.099460">
        <ele>436.5</ele>
        <time>2026-02-26T16:03:14Z</time>
      </trkpt>
      <trkpt lat="48.842904" lon="10.099475">
        <ele>436.5</ele>
        <time>2026-02-26T16:03:30Z</time>
      </trkpt>
      <trkpt lat="48.842900" lon="10.099491">
        <ele>436.5</ele>
        <time>2026-02-26T16:03:31Z</time>
      </trkpt>
      <trkpt lat="48.842888" lon="10.099512">
        <ele>436.6</ele>
        <time>2026-02-26T16:03:32Z</time>
      </trkpt>
      <trkpt lat="48.842856" lon="10.099543">
        <ele>436.7</ele>
        <time>2026-02-26T16:03:33Z</time>
      </trkpt>
      <trkpt lat="48.842844" lon="10.099553">
        <ele>436.7</ele>
        <time>2026-02-26T16:03:34Z</time>
      </trkpt>
      <trkpt lat="48.842825" lon="10.099585">
        <ele>436.8</ele>
        <time>2026-02-26T16:03:35Z</time>
      </trkpt>
      <trkpt lat="48.842809" lon="10.099638">
        <ele>436.8</ele>
        <time>2026-02-26T16:03:36Z</time>
      </trkpt>
      <trkpt lat="48.842800" lon="10.099696">
        <ele>436.7</ele>
        <time>2026-02-26T16:03:37Z</time>
      </trkpt>
      <trkpt lat="48.842765" lon="10.099767">
        <ele>436.6</ele>
        <time>2026-02-26T16:03:38Z</time>
      </trkpt>
      <trkpt lat="48.842790" lon="10.099813">
        <ele>436.7</ele>
        <time>2026-02-26T16:03:39Z</time>
      </trkpt>
      <trkpt lat="48.842801" lon="10.099852">
        <ele>436.8</ele>
        <time>2026-02-26T16:03:40Z</time>
      </trkpt>
      <trkpt lat="48.842817" lon="10.099885">
        <ele>436.8</ele>
        <time>2026-02-26T16:03:41Z</time>
      </trkpt>
      <trkpt lat="48.842835" lon="10.099922">
        <ele>436.9</ele>
        <time>2026-02-26T16:03:42Z</time>
      </trkpt>
      <trkpt lat="48.842846" lon="10.099965">
        <ele>437</ele>
        <time>2026-02-26T16:03:43Z</time>
      </trkpt>
      <trkpt lat="48.842856" lon="10.100008">
        <ele>437</ele>
        <time>2026-02-26T16:03:44Z</time>
      </trkpt>
      <trkpt lat="48.842868" lon="10.100052">
        <ele>437.1</ele>
        <time>2026-02-26T16:03:45Z</time>
      </trkpt>
      <trkpt lat="48.842885" lon="10.100097">
        <ele>437.2</ele>
        <time>2026-02-26T16:03:46Z</time>
      </trkpt>
      <trkpt lat="48.842899" lon="10.100149">
        <ele>437.2</ele>
        <time>2026-02-26T16:03:47Z</time>
      </trkpt>
      <trkpt lat="48.842916" lon="10.100198">
        <ele>437.3</ele>
        <time>2026-02-26T16:03:48Z</time>
      </trkpt>
      <trkpt lat="48.842934" lon="10.100242">
        <ele>437.4</ele>
        <time>2026-02-26T16:03:49Z</time>
      </trkpt>
      <trkpt lat="48.842948" lon="10.100290">
        <ele>437.5</ele>
        <time>2026-02-26T16:03:50Z</time>
      </trkpt>
      <trkpt lat="48.842962" lon="10.100338">
        <ele>437.6</ele>
        <time>2026-02-26T16:03:51Z</time>
      </trkpt>
      <trkpt lat="48.842975" lon="10.100401">
        <ele>437.7</ele>
        <time>2026-02-26T16:03:52Z</time>
      </trkpt>
      <trkpt lat="48.842989" lon="10.100453">
        <ele>437.8</ele>
        <time>2026-02-26T16:03:53Z</time>
      </trkpt>
      <trkpt lat="48.843017" lon="10.100508">
        <ele>437.9</ele>
        <time>2026-02-26T16:03:54Z</time>
      </trkpt>
      <trkpt lat="48.843045" lon="10.100560">
        <ele>438</ele>
        <time>2026-02-26T16:03:55Z</time>
      </trkpt>
      <trkpt lat="48.843078" lon="10.100609">
        <ele>438.1</ele>
        <time>2026-02-26T16:03:56Z</time>
      </trkpt>
      <trkpt lat="48.843113" lon="10.100648">
        <ele>438.2</ele>
        <time>2026-02-26T16:03:57Z</time>
      </trkpt>
      <trkpt lat="48.843133" lon="10.100702">
        <ele>438.2</ele>
        <time>2026-02-26T16:03:58Z</time>
      </trkpt>
      <trkpt lat="48.843146" lon="10.100758">
        <ele>438.3</ele>
        <time>2026-02-26T16:03:59Z</time>
      </trkpt>
      <trkpt lat="48.843161" lon="10.100812">
        <ele>438.3</ele>
        <time>2026-02-26T16:04:00Z</time>
      </trkpt>
      <trkpt lat="48.843174" lon="10.100865">
        <ele>438.4</ele>
        <time>2026-02-26T16:04:01Z</time>
      </trkpt>
      <trkpt lat="48.843188" lon="10.100915">
        <ele>438.5</ele>
        <time>2026-02-26T16:04:02Z</time>
      </trkpt>
      <trkpt lat="48.843206" lon="10.100964">
        <ele>438.5</ele>
        <time>2026-02-26T16:04:03Z</time>
      </trkpt>
      <trkpt lat="48.843222" lon="10.101008">
        <ele>438.5</ele>
        <time>2026-02-26T16:04:04Z</time>
      </trkpt>
      <trkpt lat="48.843237" lon="10.101045">
        <ele>438.6</ele>
        <time>2026-02-26T16:04:05Z</time>
      </trkpt>
      <trkpt lat="48.843246" lon="10.101102">
        <ele>438.6</ele>
        <time>2026-02-26T16:04:06Z</time>
      </trkpt>
      <trkpt lat="48.843253" lon="10.101166">
        <ele>438.6</ele>
        <time>2026-02-26T16:04:07Z</time>
      </trkpt>
      <trkpt lat="48.843263" lon="10.101224">
        <ele>438.7</ele>
        <time>2026-02-26T16:04:08Z</time>
      </trkpt>
      <trkpt lat="48.843282" lon="10.101277">
        <ele>438.7</ele>
        <time>2026-02-26T16:04:09Z</time>
      </trkpt>
      <trkpt lat="48.843305" lon="10.101328">
        <ele>438.8</ele>
        <time>2026-02-26T16:04:10Z</time>
      </trkpt>
      <trkpt lat="48.843323" lon="10.101379">
        <ele>438.8</ele>
        <time>2026-02-26T16:04:11Z</time>
      </trkpt>
      <trkpt lat="48.843341" lon="10.101422">
        <ele>438.8</ele>
        <time>2026-02-26T16:04:12Z</time>
      </trkpt>
      <trkpt lat="48.843365" lon="10.101465">
        <ele>438.8</ele>
        <time>2026-02-26T16:04:13Z</time>
      </trkpt>
      <trkpt lat="48.843392" lon="10.101510">
        <ele>438.8</ele>
        <time>2026-02-26T16:04:14Z</time>
      </trkpt>
      <trkpt lat="48.843412" lon="10.101552">
        <ele>438.9</ele>
        <time>2026-02-26T16:04:15Z</time>
      </trkpt>
      <trkpt lat="48.843425" lon="10.101593">
        <ele>438.9</ele>
        <time>2026-02-26T16:04:16Z</time>
      </trkpt>
      <trkpt lat="48.843460" lon="10.101637">
        <ele>438.9</ele>
        <time>2026-02-26T16:04:17Z</time>
      </trkpt>
      <trkpt lat="48.843483" lon="10.101653">
        <ele>438.9</ele>
        <time>2026-02-26T16:04:18Z</time>
      </trkpt>
      <trkpt lat="48.843519" lon="10.101695">
        <ele>439</ele>
        <time>2026-02-26T16:04:19Z</time>
      </trkpt>
      <trkpt lat="48.843546" lon="10.101740">
        <ele>439</ele>
        <time>2026-02-26T16:04:20Z</time>
      </trkpt>
      <trkpt lat="48.843570" lon="10.101778">
        <ele>439.1</ele>
        <time>2026-02-26T16:04:21Z</time>
      </trkpt>
      <trkpt lat="48.843592" lon="10.101819">
        <ele>439.1</ele>
        <time>2026-02-26T16:04:22Z</time>
      </trkpt>
      <trkpt lat="48.843619" lon="10.101852">
        <ele>439.2</ele>
        <time>2026-02-26T16:04:23Z</time>
      </trkpt>
      <trkpt lat="48.843643" lon="10.101894">
        <ele>439.2</ele>
        <time>2026-02-26T16:04:24Z</time>
      </trkpt>
      <trkpt lat="48.843667" lon="10.101936">
        <ele>439.3</ele>
        <time>2026-02-26T16:04:25Z</time>
      </trkpt>
      <trkpt lat="48.843690" lon="10.101978">
        <ele>439.4</ele>
        <time>2026-02-26T16:04:26Z</time>
      </trkpt>
      <trkpt lat="48.843714" lon="10.102018">
        <ele>439.5</ele>
        <time>2026-02-26T16:04:27Z</time>
      </trkpt>
      <trkpt lat="48.843732" lon="10.102067">
        <ele>439.6</ele>
        <time>2026-02-26T16:04:28Z</time>
      </trkpt>
      <trkpt lat="48.843740" lon="10.102117">
        <ele>439.7</ele>
        <time>2026-02-26T16:04:29Z</time>
      </trkpt>
      <trkpt lat="48.843757" lon="10.102177">
        <ele>439.8</ele>
        <time>2026-02-26T16:04:30Z</time>
      </trkpt>
      <trkpt lat="48.843781" lon="10.102228">
        <ele>440</ele>
        <time>2026-02-26T16:04:31Z</time>
      </trkpt>
      <trkpt lat="48.843798" lon="10.102284">
        <ele>440.1</ele>
        <time>2026-02-26T16:04:32Z</time>
      </trkpt>
      <trkpt lat="48.843820" lon="10.102334">
        <ele>440.2</ele>
        <time>2026-02-26T16:04:33Z</time>
      </trkpt>
      <trkpt lat="48.843839" lon="10.102391">
        <ele>440.3</ele>
        <time>2026-02-26T16:04:34Z</time>
      </trkpt>
      <trkpt lat="48.843856" lon="10.102441">
        <ele>440.4</ele>
        <time>2026-02-26T16:04:35Z</time>
      </trkpt>
      <trkpt lat="48.843871" lon="10.102490">
        <ele>440.6</ele>
        <time>2026-02-26T16:04:36Z</time>
      </trkpt>
      <trkpt lat="48.843886" lon="10.102538">
        <ele>440.7</ele>
        <time>2026-02-26T16:04:37Z</time>
      </trkpt>
      <trkpt lat="48.843904" lon="10.102583">
        <ele>440.9</ele>
        <time>2026-02-26T16:04:38Z</time>
      </trkpt>
      <trkpt lat="48.843921" lon="10.102627">
        <ele>441</ele>
        <time>2026-02-26T16:04:39Z</time>
      </trkpt>
      <trkpt lat="48.843938" lon="10.102668">
        <ele>441.1</ele>
        <time>2026-02-26T16:04:40Z</time>
      </trkpt>
      <trkpt lat="48.843949" lon="10.102708">
        <ele>441.3</ele>
        <time>2026-02-26T16:04:41Z</time>
      </trkpt>
      <trkpt lat="48.843961" lon="10.102751">
        <ele>441.4</ele>
        <time>2026-02-26T16:04:42Z</time>
      </trkpt>
      <trkpt lat="48.843974" lon="10.102796">
        <ele>441.5</ele>
        <time>2026-02-26T16:04:43Z</time>
      </trkpt>
      <trkpt lat="48.843990" lon="10.102841">
        <ele>441.6</ele>
        <time>2026-02-26T16:04:44Z</time>
      </trkpt>
      <trkpt lat="48.844007" lon="10.102886">
        <ele>441.8</ele>
        <time>2026-02-26T16:04:45Z</time>
      </trkpt>
      <trkpt lat="48.844021" lon="10.102934">
        <ele>441.9</ele>
        <time>2026-02-26T16:04:46Z</time>
      </trkpt>
      <trkpt lat="48.844035" lon="10.102978">
        <ele>442</ele>
        <time>2026-02-26T16:04:47Z</time>
      </trkpt>
      <trkpt lat="48.844052" lon="10.103023">
        <ele>442.1</ele>
        <time>2026-02-26T16:04:48Z</time>
      </trkpt>
      <trkpt lat="48.844069" lon="10.103067">
        <ele>442.3</ele>
        <time>2026-02-26T16:04:49Z</time>
      </trkpt>
      <trkpt lat="48.844089" lon="10.103108">
        <ele>442.4</ele>
        <time>2026-02-26T16:04:50Z</time>
      </trkpt>
      <trkpt lat="48.844106" lon="10.103155">
        <ele>442.6</ele>
        <time>2026-02-26T16:04:51Z</time>
      </trkpt>
      <trkpt lat="48.844124" lon="10.103199">
        <ele>442.8</ele>
        <time>2026-02-26T16:04:52Z</time>
      </trkpt>
      <trkpt lat="48.844145" lon="10.103243">
        <ele>442.9</ele>
        <time>2026-02-26T16:04:53Z</time>
      </trkpt>
      <trkpt lat="48.844164" lon="10.103290">
        <ele>443.1</ele>
        <time>2026-02-26T16:04:54Z</time>
      </trkpt>
      <trkpt lat="48.844182" lon="10.103340">
        <ele>443.3</ele>
        <time>2026-02-26T16:04:55Z</time>
      </trkpt>
      <trkpt lat="48.844199" lon="10.103386">
        <ele>443.5</ele>
        <time>2026-02-26T16:04:56Z</time>
      </trkpt>
      <trkpt lat="48.844216" lon="10.103431">
        <ele>443.6</ele>
        <time>2026-02-26T16:04:57Z</time>
      </trkpt>
      <trkpt lat="48.844237" lon="10.103474">
        <ele>443.7</ele>
        <time>2026-02-26T16:04:58Z</time>
      </trkpt>
      <trkpt lat="48.844252" lon="10.103524">
        <ele>443.8</ele>
        <time>2026-02-26T16:04:59Z</time>
      </trkpt>
      <trkpt lat="48.844266" lon="10.103579">
        <ele>443.9</ele>
        <time>2026-02-26T16:05:00Z</time>
      </trkpt>
      <trkpt lat="48.844279" lon="10.103633">
        <ele>444.1</ele>
        <time>2026-02-26T16:05:01Z</time>
      </trkpt>
      <trkpt lat="48.844292" lon="10.103684">
        <ele>444.2</ele>
        <time>2026-02-26T16:05:02Z</time>
      </trkpt>
      <trkpt lat="48.844306" lon="10.103732">
        <ele>444.3</ele>
        <time>2026-02-26T16:05:03Z</time>
      </trkpt>
      <trkpt lat="48.844322" lon="10.103777">
        <ele>444.4</ele>
        <time>2026-02-26T16:05:04Z</time>
      </trkpt>
      <trkpt lat="48.844339" lon="10.103817">
        <ele>444.6</ele>
        <time>2026-02-26T16:05:05Z</time>
      </trkpt>
      <trkpt lat="48.844356" lon="10.103853">
        <ele>444.7</ele>
        <time>2026-02-26T16:05:06Z</time>
      </trkpt>
      <trkpt lat="48.844374" lon="10.103891">
        <ele>444.8</ele>
        <time>2026-02-26T16:05:07Z</time>
      </trkpt>
      <trkpt lat="48.844390" lon="10.103928">
        <ele>445</ele>
        <time>2026-02-26T16:05:08Z</time>
      </trkpt>
      <trkpt lat="48.844404" lon="10.103976">
        <ele>445.1</ele>
        <time>2026-02-26T16:05:09Z</time>
      </trkpt>
      <trkpt lat="48.844417" lon="10.104028">
        <ele>445.3</ele>
        <time>2026-02-26T16:05:10Z</time>
      </trkpt>
      <trkpt lat="48.844436" lon="10.104074">
        <ele>445.5</ele>
        <time>2026-02-26T16:05:11Z</time>
      </trkpt>
      <trkpt lat="48.844456" lon="10.104113">
        <ele>445.6</ele>
        <time>2026-02-26T16:05:12Z</time>
      </trkpt>
      <trkpt lat="48.844478" lon="10.104146">
        <ele>445.8</ele>
        <time>2026-02-26T16:05:13Z</time>
      </trkpt>
      <trkpt lat="48.844496" lon="10.104196">
        <ele>446</ele>
        <time>2026-02-26T16:05:14Z</time>
      </trkpt>
      <trkpt lat="48.844512" lon="10.104251">
        <ele>446.2</ele>
        <time>2026-02-26T16:05:15Z</time>
      </trkpt>
      <trkpt lat="48.844529" lon="10.104299">
        <ele>446.5</ele>
        <time>2026-02-26T16:05:16Z</time>
      </trkpt>
      <trkpt lat="48.844554" lon="10.104351">
        <ele>446.7</ele>
        <time>2026-02-26T16:05:17Z</time>
      </trkpt>
      <trkpt lat="48.844562" lon="10.104374">
        <ele>446.8</ele>
        <time>2026-02-26T16:05:18Z</time>
      </trkpt>
      <trkpt lat="48.844576" lon="10.104421">
        <ele>447</ele>
        <time>2026-02-26T16:05:19Z</time>
      </trkpt>
      <trkpt lat="48.844590" lon="10.104463">
        <ele>447.2</ele>
        <time>2026-02-26T16:05:20Z</time>
      </trkpt>
      <trkpt lat="48.844606" lon="10.104503">
        <ele>447.4</ele>
        <time>2026-02-26T16:05:21Z</time>
      </trkpt>
      <trkpt lat="48.844623" lon="10.104535">
        <ele>447.6</ele>
        <time>2026-02-26T16:05:22Z</time>
      </trkpt>
      <trkpt lat="48.844651" lon="10.104569">
        <ele>447.8</ele>
        <time>2026-02-26T16:05:23Z</time>
      </trkpt>
      <trkpt lat="48.844661" lon="10.104583">
        <ele>447.9</ele>
        <time>2026-02-26T16:05:24Z</time>
      </trkpt>
      <trkpt lat="48.844680" lon="10.104617">
        <ele>448.1</ele>
        <time>2026-02-26T16:05:25Z</time>
      </trkpt>
      <trkpt lat="48.844699" lon="10.104669">
        <ele>448.4</ele>
        <time>2026-02-26T16:05:26Z</time>
      </trkpt>
      <trkpt lat="48.844703" lon="10.104687">
        <ele>448.5</ele>
        <time>2026-02-26T16:05:27Z</time>
      </trkpt>
      <trkpt lat="48.844716" lon="10.104732">
        <ele>448.7</ele>
        <time>2026-02-26T16:05:28Z</time>
      </trkpt>
      <trkpt lat="48.844721" lon="10.104749">
        <ele>448.8</ele>
        <time>2026-02-26T16:05:29Z</time>
      </trkpt>
      <trkpt lat="48.844741" lon="10.104791">
        <ele>449</ele>
        <time>2026-02-26T16:05:30Z</time>
      </trkpt>
      <trkpt lat="48.844748" lon="10.104804">
        <ele>449.1</ele>
        <time>2026-02-26T16:05:31Z</time>
      </trkpt>
      <trkpt lat="48.844779" lon="10.104833">
        <ele>449.3</ele>
        <time>2026-02-26T16:05:32Z</time>
      </trkpt>
      <trkpt lat="48.844788" lon="10.104843">
        <ele>449.4</ele>
        <time>2026-02-26T16:05:33Z</time>
      </trkpt>
      <trkpt lat="48.844819" lon="10.104884">
        <ele>449.7</ele>
        <time>2026-02-26T16:05:34Z</time>
      </trkpt>
      <trkpt lat="48.844830" lon="10.104898">
        <ele>449.8</ele>
        <time>2026-02-26T16:05:35Z</time>
      </trkpt>
      <trkpt lat="48.844850" lon="10.104930">
        <ele>450</ele>
        <time>2026-02-26T16:05:36Z</time>
      </trkpt>
      <trkpt lat="48.844876" lon="10.104963">
        <ele>450.2</ele>
        <time>2026-02-26T16:05:37Z</time>
      </trkpt>
      <trkpt lat="48.844884" lon="10.104974">
        <ele>450.3</ele>
        <time>2026-02-26T16:05:38Z</time>
      </trkpt>
      <trkpt lat="48.844906" lon="10.105019">
        <ele>450.5</ele>
        <time>2026-02-26T16:05:39Z</time>
      </trkpt>
      <trkpt lat="48.844912" lon="10.105036">
        <ele>450.6</ele>
        <time>2026-02-26T16:05:40Z</time>
      </trkpt>
      <trkpt lat="48.844939" lon="10.105080">
        <ele>450.9</ele>
        <time>2026-02-26T16:05:41Z</time>
      </trkpt>
      <trkpt lat="48.844949" lon="10.105096">
        <ele>451</ele>
        <time>2026-02-26T16:05:42Z</time>
      </trkpt>
      <trkpt lat="48.844975" lon="10.105140">
        <ele>451.2</ele>
        <time>2026-02-26T16:05:43Z</time>
      </trkpt>
      <trkpt lat="48.844985" lon="10.105155">
        <ele>451.3</ele>
        <time>2026-02-26T16:05:44Z</time>
      </trkpt>
      <trkpt lat="48.845008" lon="10.105180">
        <ele>451.5</ele>
        <time>2026-02-26T16:05:45Z</time>
      </trkpt>
      <trkpt lat="48.845040" lon="10.105214">
        <ele>451.7</ele>
        <time>2026-02-26T16:05:46Z</time>
      </trkpt>
      <trkpt lat="48.845050" lon="10.105228">
        <ele>451.8</ele>
        <time>2026-02-26T16:05:47Z</time>
      </trkpt>
      <trkpt lat="48.845081" lon="10.105263">
        <ele>452.1</ele>
        <time>2026-02-26T16:05:48Z</time>
      </trkpt>
      <trkpt lat="48.845091" lon="10.105275">
        <ele>452.2</ele>
        <time>2026-02-26T16:05:49Z</time>
      </trkpt>
      <trkpt lat="48.845115" lon="10.105293">
        <ele>452.3</ele>
        <time>2026-02-26T16:05:50Z</time>
      </trkpt>
      <trkpt lat="48.845147" lon="10.105316">
        <ele>452.6</ele>
        <time>2026-02-26T16:05:51Z</time>
      </trkpt>
      <trkpt lat="48.845157" lon="10.105324">
        <ele>452.7</ele>
        <time>2026-02-26T16:05:52Z</time>
      </trkpt>
      <trkpt lat="48.845188" lon="10.105337">
        <ele>452.9</ele>
        <time>2026-02-26T16:05:53Z</time>
      </trkpt>
      <trkpt lat="48.845200" lon="10.105342">
        <ele>453</ele>
        <time>2026-02-26T16:05:54Z</time>
      </trkpt>
      <trkpt lat="48.845228" lon="10.105384">
        <ele>453.2</ele>
        <time>2026-02-26T16:05:55Z</time>
      </trkpt>
      <trkpt lat="48.845236" lon="10.105401">
        <ele>453.3</ele>
        <time>2026-02-26T16:05:56Z</time>
      </trkpt>
      <trkpt lat="48.845250" lon="10.105438">
        <ele>453.5</ele>
        <time>2026-02-26T16:05:57Z</time>
      </trkpt>
      <trkpt lat="48.845273" lon="10.105480">
        <ele>453.7</ele>
        <time>2026-02-26T16:05:58Z</time>
      </trkpt>
      <trkpt lat="48.845282" lon="10.105491">
        <ele>453.8</ele>
        <time>2026-02-26T16:05:59Z</time>
      </trkpt>
      <trkpt lat="48.845312" lon="10.105507">
        <ele>454</ele>
        <time>2026-02-26T16:06:00Z</time>
      </trkpt>
      <trkpt lat="48.845321" lon="10.105511">
        <ele>454</ele>
        <time>2026-02-26T16:06:01Z</time>
      </trkpt>
      <trkpt lat="48.845347" lon="10.105543">
        <ele>454.2</ele>
        <time>2026-02-26T16:06:02Z</time>
      </trkpt>
      <trkpt lat="48.845354" lon="10.105555">
        <ele>454.2</ele>
        <time>2026-02-26T16:06:03Z</time>
      </trkpt>
      <trkpt lat="48.845376" lon="10.105594">
        <ele>454.4</ele>
        <time>2026-02-26T16:06:04Z</time>
      </trkpt>
      <trkpt lat="48.845382" lon="10.105606">
        <ele>454.4</ele>
        <time>2026-02-26T16:06:05Z</time>
      </trkpt>
      <trkpt lat="48.845401" lon="10.105657">
        <ele>454.6</ele>
        <time>2026-02-26T16:06:06Z</time>
      </trkpt>
      <trkpt lat="48.845406" lon="10.105676">
        <ele>454.6</ele>
        <time>2026-02-26T16:06:07Z</time>
      </trkpt>
      <trkpt lat="48.845418" lon="10.105735">
        <ele>454.8</ele>
        <time>2026-02-26T16:06:08Z</time>
      </trkpt>
      <trkpt lat="48.845421" lon="10.105756">
        <ele>454.9</ele>
        <time>2026-02-26T16:06:09Z</time>
      </trkpt>
      <trkpt lat="48.845429" lon="10.105796">
        <ele>455</ele>
        <time>2026-02-26T16:06:10Z</time>
      </trkpt>
      <trkpt lat="48.845436" lon="10.105836">
        <ele>455</ele>
        <time>2026-02-26T16:06:11Z</time>
      </trkpt>
      <trkpt lat="48.845446" lon="10.105896">
        <ele>454.9</ele>
        <time>2026-02-26T16:06:12Z</time>
      </trkpt>
      <trkpt lat="48.845448" lon="10.105918">
        <ele>454.9</ele>
        <time>2026-02-26T16:06:13Z</time>
      </trkpt>
      <trkpt lat="48.845450" lon="10.105964">
        <ele>454.8</ele>
        <time>2026-02-26T16:06:14Z</time>
      </trkpt>
      <trkpt lat="48.845452" lon="10.106012">
        <ele>454.7</ele>
        <time>2026-02-26T16:06:15Z</time>
      </trkpt>
      <trkpt lat="48.845455" lon="10.106059">
        <ele>454.5</ele>
        <time>2026-02-26T16:06:16Z</time>
      </trkpt>
      <trkpt lat="48.845458" lon="10.106107">
        <ele>454.4</ele>
        <time>2026-02-26T16:06:17Z</time>
      </trkpt>
      <trkpt lat="48.845466" lon="10.106160">
        <ele>454.2</ele>
        <time>2026-02-26T16:06:18Z</time>
      </trkpt>
      <trkpt lat="48.845468" lon="10.106212">
        <ele>453.9</ele>
        <time>2026-02-26T16:06:19Z</time>
      </trkpt>
      <trkpt lat="48.845473" lon="10.106262">
        <ele>453.7</ele>
        <time>2026-02-26T16:06:20Z</time>
      </trkpt>
      <trkpt lat="48.845480" lon="10.106307">
        <ele>453.5</ele>
        <time>2026-02-26T16:06:21Z</time>
      </trkpt>
      <trkpt lat="48.845483" lon="10.106364">
        <ele>453.2</ele>
        <time>2026-02-26T16:06:22Z</time>
      </trkpt>
      <trkpt lat="48.845485" lon="10.106431">
        <ele>452.9</ele>
        <time>2026-02-26T16:06:23Z</time>
      </trkpt>
      <trkpt lat="48.845486" lon="10.106502">
        <ele>452.6</ele>
        <time>2026-02-26T16:06:24Z</time>
      </trkpt>
      <trkpt lat="48.845489" lon="10.106577">
        <ele>452.3</ele>
        <time>2026-02-26T16:06:25Z</time>
      </trkpt>
      <trkpt lat="48.845497" lon="10.106648">
        <ele>452</ele>
        <time>2026-02-26T16:06:26Z</time>
      </trkpt>
      <trkpt lat="48.845512" lon="10.106719">
        <ele>451.7</ele>
        <time>2026-02-26T16:06:27Z</time>
      </trkpt>
      <trkpt lat="48.845540" lon="10.106787">
        <ele>451.5</ele>
        <time>2026-02-26T16:06:28Z</time>
      </trkpt>
      <trkpt lat="48.845572" lon="10.106835">
        <ele>451.4</ele>
        <time>2026-02-26T16:06:29Z</time>
      </trkpt>
      <trkpt lat="48.845610" lon="10.106885">
        <ele>451.4</ele>
        <time>2026-02-26T16:06:30Z</time>
      </trkpt>
      <trkpt lat="48.845634" lon="10.106945">
        <ele>451.3</ele>
        <time>2026-02-26T16:06:31Z</time>
      </trkpt>
      <trkpt lat="48.845653" lon="10.107007">
        <ele>451.2</ele>
        <time>2026-02-26T16:06:32Z</time>
      </trkpt>
      <trkpt lat="48.845661" lon="10.107078">
        <ele>451.1</ele>
        <time>2026-02-26T16:06:33Z</time>
      </trkpt>
      <trkpt lat="48.845659" lon="10.107151">
        <ele>451.1</ele>
        <time>2026-02-26T16:06:34Z</time>
      </trkpt>
      <trkpt lat="48.845656" lon="10.107226">
        <ele>451</ele>
        <time>2026-02-26T16:06:35Z</time>
      </trkpt>
      <trkpt lat="48.845634" lon="10.107303">
        <ele>450.9</ele>
        <time>2026-02-26T16:06:36Z</time>
      </trkpt>
      <trkpt lat="48.845617" lon="10.107367">
        <ele>450.9</ele>
        <time>2026-02-26T16:06:37Z</time>
      </trkpt>
      <trkpt lat="48.845599" lon="10.107443">
        <ele>451</ele>
        <time>2026-02-26T16:06:38Z</time>
      </trkpt>
      <trkpt lat="48.845592" lon="10.107502">
        <ele>451</ele>
        <time>2026-02-26T16:06:39Z</time>
      </trkpt>
      <trkpt lat="48.845596" lon="10.107555">
        <ele>451</ele>
        <time>2026-02-26T16:06:40Z</time>
      </trkpt>
      <trkpt lat="48.845609" lon="10.107609">
        <ele>451.1</ele>
        <time>2026-02-26T16:06:41Z</time>
      </trkpt>
      <trkpt lat="48.845618" lon="10.107694">
        <ele>451.2</ele>
        <time>2026-02-26T16:06:42Z</time>
      </trkpt>
      <trkpt lat="48.845640" lon="10.107779">
        <ele>451.4</ele>
        <time>2026-02-26T16:06:43Z</time>
      </trkpt>
      <trkpt lat="48.845657" lon="10.107857">
        <ele>451.5</ele>
        <time>2026-02-26T16:06:44Z</time>
      </trkpt>
      <trkpt lat="48.845685" lon="10.107931">
        <ele>451.7</ele>
        <time>2026-02-26T16:06:45Z</time>
      </trkpt>
      <trkpt lat="48.845698" lon="10.108012">
        <ele>451.8</ele>
        <time>2026-02-26T16:06:46Z</time>
      </trkpt>
      <trkpt lat="48.845715" lon="10.108075">
        <ele>452</ele>
        <time>2026-02-26T16:06:47Z</time>
      </trkpt>
      <trkpt lat="48.845729" lon="10.108134">
        <ele>452.1</ele>
        <time>2026-02-26T16:06:48Z</time>
      </trkpt>
      <trkpt lat="48.845742" lon="10.108191">
        <ele>452.2</ele>
        <time>2026-02-26T16:06:49Z</time>
      </trkpt>
      <trkpt lat="48.845754" lon="10.108249">
        <ele>452.3</ele>
        <time>2026-02-26T16:06:50Z</time>
      </trkpt>
      <trkpt lat="48.845765" lon="10.108307">
        <ele>452.4</ele>
        <time>2026-02-26T16:06:51Z</time>
      </trkpt>
      <trkpt lat="48.845778" lon="10.108365">
        <ele>452.5</ele>
        <time>2026-02-26T16:06:52Z</time>
      </trkpt>
      <trkpt lat="48.845793" lon="10.108416">
        <ele>452.6</ele>
        <time>2026-02-26T16:06:53Z</time>
      </trkpt>
      <trkpt lat="48.845803" lon="10.108459">
        <ele>452.7</ele>
        <time>2026-02-26T16:06:54Z</time>
      </trkpt>
      <trkpt lat="48.845812" lon="10.108505">
        <ele>452.8</ele>
        <time>2026-02-26T16:06:55Z</time>
      </trkpt>
      <trkpt lat="48.845822" lon="10.108564">
        <ele>452.9</ele>
        <time>2026-02-26T16:06:56Z</time>
      </trkpt>
      <trkpt lat="48.845833" lon="10.108624">
        <ele>453</ele>
        <time>2026-02-26T16:06:57Z</time>
      </trkpt>
      <trkpt lat="48.845849" lon="10.108676">
        <ele>453.1</ele>
        <time>2026-02-26T16:06:58Z</time>
      </trkpt>
      <trkpt lat="48.845865" lon="10.108726">
        <ele>453.2</ele>
        <time>2026-02-26T16:06:59Z</time>
      </trkpt>
      <trkpt lat="48.845882" lon="10.108774">
        <ele>453.3</ele>
        <time>2026-02-26T16:07:00Z</time>
      </trkpt>
      <trkpt lat="48.845902" lon="10.108824">
        <ele>453.4</ele>
        <time>2026-02-26T16:07:01Z</time>
      </trkpt>
      <trkpt lat="48.845919" lon="10.108883">
        <ele>453.5</ele>
        <time>2026-02-26T16:07:02Z</time>
      </trkpt>
      <trkpt lat="48.845932" lon="10.108937">
        <ele>453.6</ele>
        <time>2026-02-26T16:07:03Z</time>
      </trkpt>
      <trkpt lat="48.845944" lon="10.108985">
        <ele>453.7</ele>
        <time>2026-02-26T16:07:04Z</time>
      </trkpt>
      <trkpt lat="48.845959" lon="10.109040">
        <ele>453.8</ele>
        <time>2026-02-26T16:07:05Z</time>
      </trkpt>
      <trkpt lat="48.845977" lon="10.109091">
        <ele>453.9</ele>
        <time>2026-02-26T16:07:06Z</time>
      </trkpt>
      <trkpt lat="48.845997" lon="10.109136">
        <ele>454</ele>
        <time>2026-02-26T16:07:07Z</time>
      </trkpt>
      <trkpt lat="48.846018" lon="10.109180">
        <ele>454.1</ele>
        <time>2026-02-26T16:07:08Z</time>
      </trkpt>
      <trkpt lat="48.846033" lon="10.109227">
        <ele>454.2</ele>
        <time>2026-02-26T16:07:09Z</time>
      </trkpt>
      <trkpt lat="48.846037" lon="10.109302">
        <ele>454.3</ele>
        <time>2026-02-26T16:07:10Z</time>
      </trkpt>
      <trkpt lat="48.846046" lon="10.109382">
        <ele>454.4</ele>
        <time>2026-02-26T16:07:11Z</time>
      </trkpt>
      <trkpt lat="48.846068" lon="10.109446">
        <ele>454.5</ele>
        <time>2026-02-26T16:07:12Z</time>
      </trkpt>
      <trkpt lat="48.846084" lon="10.109502">
        <ele>454.7</ele>
        <time>2026-02-26T16:07:13Z</time>
      </trkpt>
      <trkpt lat="48.846097" lon="10.109551">
        <ele>454.7</ele>
        <time>2026-02-26T16:07:14Z</time>
      </trkpt>
      <trkpt lat="48.846110" lon="10.109596">
        <ele>454.8</ele>
        <time>2026-02-26T16:07:15Z</time>
      </trkpt>
      <trkpt lat="48.846137" lon="10.109639">
        <ele>454.9</ele>
        <time>2026-02-26T16:07:16Z</time>
      </trkpt>
      <trkpt lat="48.846153" lon="10.109680">
        <ele>455</ele>
        <time>2026-02-26T16:07:17Z</time>
      </trkpt>
      <trkpt lat="48.846164" lon="10.109729">
        <ele>455.1</ele>
        <time>2026-02-26T16:07:18Z</time>
      </trkpt>
      <trkpt lat="48.846167" lon="10.109746">
        <ele>455.1</ele>
        <time>2026-02-26T16:07:19Z</time>
      </trkpt>
      <trkpt lat="48.846181" lon="10.109805">
        <ele>455.3</ele>
        <time>2026-02-26T16:07:20Z</time>
      </trkpt>
      <trkpt lat="48.846186" lon="10.109827">
        <ele>455.3</ele>
        <time>2026-02-26T16:07:21Z</time>
      </trkpt>
      <trkpt lat="48.846196" lon="10.109872">
        <ele>455.4</ele>
        <time>2026-02-26T16:07:22Z</time>
      </trkpt>
      <trkpt lat="48.846208" lon="10.109917">
        <ele>455.4</ele>
        <time>2026-02-26T16:07:23Z</time>
      </trkpt>
      <trkpt lat="48.846225" lon="10.109960">
        <ele>455.5</ele>
        <time>2026-02-26T16:07:24Z</time>
      </trkpt>
      <trkpt lat="48.846241" lon="10.110004">
        <ele>455.6</ele>
        <time>2026-02-26T16:07:25Z</time>
      </trkpt>
      <trkpt lat="48.846260" lon="10.110050">
        <ele>455.7</ele>
        <time>2026-02-26T16:07:26Z</time>
      </trkpt>
      <trkpt lat="48.846277" lon="10.110093">
        <ele>455.8</ele>
        <time>2026-02-26T16:07:27Z</time>
      </trkpt>
      <trkpt lat="48.846293" lon="10.110144">
        <ele>455.9</ele>
        <time>2026-02-26T16:07:28Z</time>
      </trkpt>
      <trkpt lat="48.846307" lon="10.110196">
        <ele>455.9</ele>
        <time>2026-02-26T16:07:29Z</time>
      </trkpt>
      <trkpt lat="48.846318" lon="10.110242">
        <ele>456</ele>
        <time>2026-02-26T16:07:30Z</time>
      </trkpt>
      <trkpt lat="48.846328" lon="10.110282">
        <ele>456.1</ele>
        <time>2026-02-26T16:07:31Z</time>
      </trkpt>
      <trkpt lat="48.846342" lon="10.110321">
        <ele>456.2</ele>
        <time>2026-02-26T16:07:32Z</time>
      </trkpt>
      <trkpt lat="48.846356" lon="10.110359">
        <ele>456.2</ele>
        <time>2026-02-26T16:07:33Z</time>
      </trkpt>
      <trkpt lat="48.846373" lon="10.110419">
        <ele>456.4</ele>
        <time>2026-02-26T16:07:34Z</time>
      </trkpt>
      <trkpt lat="48.846379" lon="10.110444">
        <ele>456.4</ele>
        <time>2026-02-26T16:07:35Z</time>
      </trkpt>
      <trkpt lat="48.846399" lon="10.110505">
        <ele>456.5</ele>
        <time>2026-02-26T16:07:36Z</time>
      </trkpt>
      <trkpt lat="48.846425" lon="10.110570">
        <ele>456.7</ele>
        <time>2026-02-26T16:07:37Z</time>
      </trkpt>
      <trkpt lat="48.846452" lon="10.110637">
        <ele>456.8</ele>
        <time>2026-02-26T16:07:38Z</time>
      </trkpt>
      <trkpt lat="48.846476" lon="10.110702">
        <ele>456.9</ele>
        <time>2026-02-26T16:07:39Z</time>
      </trkpt>
      <trkpt lat="48.846497" lon="10.110766">
        <ele>457</ele>
        <time>2026-02-26T16:07:40Z</time>
      </trkpt>
      <trkpt lat="48.846516" lon="10.110823">
        <ele>457</ele>
        <time>2026-02-26T16:07:41Z</time>
      </trkpt>
      <trkpt lat="48.846536" lon="10.110889">
        <ele>457.1</ele>
        <time>2026-02-26T16:07:42Z</time>
      </trkpt>
      <trkpt lat="48.846556" lon="10.110951">
        <ele>457.2</ele>
        <time>2026-02-26T16:07:43Z</time>
      </trkpt>
      <trkpt lat="48.846573" lon="10.111013">
        <ele>457.4</ele>
        <time>2026-02-26T16:07:44Z</time>
      </trkpt>
      <trkpt lat="48.846584" lon="10.111076">
        <ele>457.4</ele>
        <time>2026-02-26T16:07:45Z</time>
      </trkpt>
      <trkpt lat="48.846597" lon="10.111137">
        <ele>457.5</ele>
        <time>2026-02-26T16:07:46Z</time>
      </trkpt>
      <trkpt lat="48.846615" lon="10.111200">
        <ele>457.6</ele>
        <time>2026-02-26T16:07:47Z</time>
      </trkpt>
      <trkpt lat="48.846636" lon="10.111262">
        <ele>457.8</ele>
        <time>2026-02-26T16:07:48Z</time>
      </trkpt>
      <trkpt lat="48.846652" lon="10.111322">
        <ele>457.8</ele>
        <time>2026-02-26T16:07:49Z</time>
      </trkpt>
      <trkpt lat="48.846667" lon="10.111380">
        <ele>457.9</ele>
        <time>2026-02-26T16:07:50Z</time>
      </trkpt>
      <trkpt lat="48.846681" lon="10.111435">
        <ele>458</ele>
        <time>2026-02-26T16:07:51Z</time>
      </trkpt>
      <trkpt lat="48.846693" lon="10.111491">
        <ele>458.1</ele>
        <time>2026-02-26T16:07:52Z</time>
      </trkpt>
      <trkpt lat="48.846703" lon="10.111547">
        <ele>458.2</ele>
        <time>2026-02-26T16:07:53Z</time>
      </trkpt>
      <trkpt lat="48.846714" lon="10.111602">
        <ele>458.3</ele>
        <time>2026-02-26T16:07:54Z</time>
      </trkpt>
      <trkpt lat="48.846723" lon="10.111652">
        <ele>458.3</ele>
        <time>2026-02-26T16:07:55Z</time>
      </trkpt>
      <trkpt lat="48.846730" lon="10.111703">
        <ele>458.4</ele>
        <time>2026-02-26T16:07:56Z</time>
      </trkpt>
      <trkpt lat="48.846732" lon="10.111757">
        <ele>458.5</ele>
        <time>2026-02-26T16:07:57Z</time>
      </trkpt>
      <trkpt lat="48.846736" lon="10.111811">
        <ele>458.6</ele>
        <time>2026-02-26T16:07:58Z</time>
      </trkpt>
      <trkpt lat="48.846741" lon="10.111865">
        <ele>458.6</ele>
        <time>2026-02-26T16:07:59Z</time>
      </trkpt>
      <trkpt lat="48.846744" lon="10.111918">
        <ele>458.7</ele>
        <time>2026-02-26T16:08:00Z</time>
      </trkpt>
      <trkpt lat="48.846750" lon="10.111972">
        <ele>458.8</ele>
        <time>2026-02-26T16:08:01Z</time>
      </trkpt>
      <trkpt lat="48.846756" lon="10.112025">
        <ele>458.8</ele>
        <time>2026-02-26T16:08:02Z</time>
      </trkpt>
      <trkpt lat="48.846761" lon="10.112078">
        <ele>458.9</ele>
        <time>2026-02-26T16:08:03Z</time>
      </trkpt>
      <trkpt lat="48.846767" lon="10.112134">
        <ele>459</ele>
        <time>2026-02-26T16:08:04Z</time>
      </trkpt>
      <trkpt lat="48.846775" lon="10.112191">
        <ele>459.1</ele>
        <time>2026-02-26T16:08:05Z</time>
      </trkpt>
      <trkpt lat="48.846785" lon="10.112251">
        <ele>459.2</ele>
        <time>2026-02-26T16:08:06Z</time>
      </trkpt>
      <trkpt lat="48.846795" lon="10.112310">
        <ele>459.3</ele>
        <time>2026-02-26T16:08:07Z</time>
      </trkpt>
      <trkpt lat="48.846801" lon="10.112368">
        <ele>459.4</ele>
        <time>2026-02-26T16:08:08Z</time>
      </trkpt>
      <trkpt lat="48.846807" lon="10.112426">
        <ele>459.6</ele>
        <time>2026-02-26T16:08:09Z</time>
      </trkpt>
      <trkpt lat="48.846814" lon="10.112481">
        <ele>459.7</ele>
        <time>2026-02-26T16:08:10Z</time>
      </trkpt>
      <trkpt lat="48.846819" lon="10.112533">
        <ele>459.8</ele>
        <time>2026-02-26T16:08:11Z</time>
      </trkpt>
      <trkpt lat="48.846822" lon="10.112584">
        <ele>459.9</ele>
        <time>2026-02-26T16:08:12Z</time>
      </trkpt>
      <trkpt lat="48.846823" lon="10.112628">
        <ele>460</ele>
        <time>2026-02-26T16:08:13Z</time>
      </trkpt>
      <trkpt lat="48.846822" lon="10.112670">
        <ele>460.1</ele>
        <time>2026-02-26T16:08:14Z</time>
      </trkpt>
      <trkpt lat="48.846828" lon="10.112727">
        <ele>460.2</ele>
        <time>2026-02-26T16:08:15Z</time>
      </trkpt>
      <trkpt lat="48.846830" lon="10.112747">
        <ele>460.3</ele>
        <time>2026-02-26T16:08:16Z</time>
      </trkpt>
      <trkpt lat="48.846839" lon="10.112802">
        <ele>460.4</ele>
        <time>2026-02-26T16:08:17Z</time>
      </trkpt>
      <trkpt lat="48.846841" lon="10.112823">
        <ele>460.4</ele>
        <time>2026-02-26T16:08:18Z</time>
      </trkpt>
      <trkpt lat="48.846851" lon="10.112877">
        <ele>460.6</ele>
        <time>2026-02-26T16:08:19Z</time>
      </trkpt>
      <trkpt lat="48.846853" lon="10.112896">
        <ele>460.6</ele>
        <time>2026-02-26T16:08:20Z</time>
      </trkpt>
      <trkpt lat="48.846865" lon="10.112933">
        <ele>460.7</ele>
        <time>2026-02-26T16:08:21Z</time>
      </trkpt>
      <trkpt lat="48.846870" lon="10.112945">
        <ele>460.7</ele>
        <time>2026-02-26T16:08:22Z</time>
      </trkpt>
      <trkpt lat="48.846880" lon="10.113000">
        <ele>460.8</ele>
        <time>2026-02-26T16:08:23Z</time>
      </trkpt>
      <trkpt lat="48.846883" lon="10.113020">
        <ele>460.8</ele>
        <time>2026-02-26T16:08:24Z</time>
      </trkpt>
      <trkpt lat="48.846892" lon="10.113064">
        <ele>460.9</ele>
        <time>2026-02-26T16:08:25Z</time>
      </trkpt>
      <trkpt lat="48.846906" lon="10.113107">
        <ele>461</ele>
        <time>2026-02-26T16:08:26Z</time>
      </trkpt>
      <trkpt lat="48.846925" lon="10.113158">
        <ele>461.1</ele>
        <time>2026-02-26T16:08:27Z</time>
      </trkpt>
      <trkpt lat="48.846929" lon="10.113179">
        <ele>461.2</ele>
        <time>2026-02-26T16:08:28Z</time>
      </trkpt>
      <trkpt lat="48.846933" lon="10.113232">
        <ele>461.2</ele>
        <time>2026-02-26T16:08:29Z</time>
      </trkpt>
      <trkpt lat="48.846937" lon="10.113280">
        <ele>461.3</ele>
        <time>2026-02-26T16:08:30Z</time>
      </trkpt>
      <trkpt lat="48.846942" lon="10.113330">
        <ele>461.4</ele>
        <time>2026-02-26T16:08:31Z</time>
      </trkpt>
      <trkpt lat="48.846944" lon="10.113378">
        <ele>461.5</ele>
        <time>2026-02-26T16:08:32Z</time>
      </trkpt>
      <trkpt lat="48.846948" lon="10.113423">
        <ele>461.6</ele>
        <time>2026-02-26T16:08:33Z</time>
      </trkpt>
      <trkpt lat="48.846957" lon="10.113473">
        <ele>461.7</ele>
        <time>2026-02-26T16:08:34Z</time>
      </trkpt>
      <trkpt lat="48.846959" lon="10.113491">
        <ele>461.8</ele>
        <time>2026-02-26T16:08:35Z</time>
      </trkpt>
      <trkpt lat="48.846966" lon="10.113550">
        <ele>461.9</ele>
        <time>2026-02-26T16:08:36Z</time>
      </trkpt>
      <trkpt lat="48.846970" lon="10.113569">
        <ele>461.9</ele>
        <time>2026-02-26T16:08:37Z</time>
      </trkpt>
      <trkpt lat="48.846978" lon="10.113613">
        <ele>462</ele>
        <time>2026-02-26T16:08:38Z</time>
      </trkpt>
      <trkpt lat="48.846981" lon="10.113662">
        <ele>462.1</ele>
        <time>2026-02-26T16:08:39Z</time>
      </trkpt>
      <trkpt lat="48.846986" lon="10.113712">
        <ele>462.2</ele>
        <time>2026-02-26T16:08:40Z</time>
      </trkpt>
      <trkpt lat="48.846994" lon="10.113762">
        <ele>462.3</ele>
        <time>2026-02-26T16:08:41Z</time>
      </trkpt>
      <trkpt lat="48.847002" lon="10.113814">
        <ele>462.4</ele>
        <time>2026-02-26T16:08:42Z</time>
      </trkpt>
      <trkpt lat="48.847007" lon="10.113861">
        <ele>462.4</ele>
        <time>2026-02-26T16:08:43Z</time>
      </trkpt>
      <trkpt lat="48.847009" lon="10.113911">
        <ele>462.5</ele>
        <time>2026-02-26T16:08:44Z</time>
      </trkpt>
      <trkpt lat="48.847012" lon="10.113963">
        <ele>462.6</ele>
        <time>2026-02-26T16:08:45Z</time>
      </trkpt>
      <trkpt lat="48.847015" lon="10.114016">
        <ele>462.7</ele>
        <time>2026-02-26T16:08:46Z</time>
      </trkpt>
      <trkpt lat="48.847022" lon="10.114064">
        <ele>462.8</ele>
        <time>2026-02-26T16:08:47Z</time>
      </trkpt>
      <trkpt lat="48.847032" lon="10.114117">
        <ele>462.9</ele>
        <time>2026-02-26T16:08:48Z</time>
      </trkpt>
      <trkpt lat="48.847041" lon="10.114168">
        <ele>463</ele>
        <time>2026-02-26T16:08:49Z</time>
      </trkpt>
      <trkpt lat="48.847047" lon="10.114218">
        <ele>463.1</ele>
        <time>2026-02-26T16:08:50Z</time>
      </trkpt>
      <trkpt lat="48.847054" lon="10.114268">
        <ele>463.2</ele>
        <time>2026-02-26T16:08:51Z</time>
      </trkpt>
      <trkpt lat="48.847056" lon="10.114323">
        <ele>463.3</ele>
        <time>2026-02-26T16:08:52Z</time>
      </trkpt>
      <trkpt lat="48.847061" lon="10.114372">
        <ele>463.4</ele>
        <time>2026-02-26T16:08:53Z</time>
      </trkpt>
      <trkpt lat="48.847073" lon="10.114417">
        <ele>463.5</ele>
        <time>2026-02-26T16:08:54Z</time>
      </trkpt>
      <trkpt lat="48.847083" lon="10.114471">
        <ele>463.6</ele>
        <time>2026-02-26T16:08:55Z</time>
      </trkpt>
      <trkpt lat="48.847092" lon="10.114532">
        <ele>463.7</ele>
        <time>2026-02-26T16:08:56Z</time>
      </trkpt>
      <trkpt lat="48.847106" lon="10.114588">
        <ele>463.8</ele>
        <time>2026-02-26T16:08:57Z</time>
      </trkpt>
      <trkpt lat="48.847116" lon="10.114640">
        <ele>463.9</ele>
        <time>2026-02-26T16:08:58Z</time>
      </trkpt>
      <trkpt lat="48.847126" lon="10.114696">
        <ele>464.1</ele>
        <time>2026-02-26T16:08:59Z</time>
      </trkpt>
      <trkpt lat="48.847138" lon="10.114752">
        <ele>464.2</ele>
        <time>2026-02-26T16:09:00Z</time>
      </trkpt>
      <trkpt lat="48.847147" lon="10.114812">
        <ele>464.3</ele>
        <time>2026-02-26T16:09:01Z</time>
      </trkpt>
      <trkpt lat="48.847154" lon="10.114876">
        <ele>464.4</ele>
        <time>2026-02-26T16:09:02Z</time>
      </trkpt>
      <trkpt lat="48.847157" lon="10.114934">
        <ele>464.5</ele>
        <time>2026-02-26T16:09:03Z</time>
      </trkpt>
      <trkpt lat="48.847161" lon="10.114998">
        <ele>464.6</ele>
        <time>2026-02-26T16:09:04Z</time>
      </trkpt>
      <trkpt lat="48.847163" lon="10.115055">
        <ele>464.7</ele>
        <time>2026-02-26T16:09:05Z</time>
      </trkpt>
      <trkpt lat="48.847165" lon="10.115113">
        <ele>464.8</ele>
        <time>2026-02-26T16:09:06Z</time>
      </trkpt>
      <trkpt lat="48.847174" lon="10.115168">
        <ele>464.9</ele>
        <time>2026-02-26T16:09:07Z</time>
      </trkpt>
      <trkpt lat="48.847183" lon="10.115216">
        <ele>465</ele>
        <time>2026-02-26T16:09:08Z</time>
      </trkpt>
      <trkpt lat="48.847192" lon="10.115258">
        <ele>465.1</ele>
        <time>2026-02-26T16:09:09Z</time>
      </trkpt>
      <trkpt lat="48.847202" lon="10.115301">
        <ele>465.2</ele>
        <time>2026-02-26T16:09:10Z</time>
      </trkpt>
      <trkpt lat="48.847215" lon="10.115343">
        <ele>465.3</ele>
        <time>2026-02-26T16:09:11Z</time>
      </trkpt>
      <trkpt lat="48.847222" lon="10.115397">
        <ele>465.4</ele>
        <time>2026-02-26T16:09:12Z</time>
      </trkpt>
      <trkpt lat="48.847227" lon="10.115447">
        <ele>465.5</ele>
        <time>2026-02-26T16:09:13Z</time>
      </trkpt>
      <trkpt lat="48.847236" lon="10.115501">
        <ele>465.7</ele>
        <time>2026-02-26T16:09:14Z</time>
      </trkpt>
      <trkpt lat="48.847247" lon="10.115554">
        <ele>465.8</ele>
        <time>2026-02-26T16:09:15Z</time>
      </trkpt>
      <trkpt lat="48.847256" lon="10.115599">
        <ele>465.9</ele>
        <time>2026-02-26T16:09:16Z</time>
      </trkpt>
      <trkpt lat="48.847266" lon="10.115644">
        <ele>466</ele>
        <time>2026-02-26T16:09:17Z</time>
      </trkpt>
      <trkpt lat="48.847276" lon="10.115691">
        <ele>466.1</ele>
        <time>2026-02-26T16:09:18Z</time>
      </trkpt>
      <trkpt lat="48.847286" lon="10.115739">
        <ele>466.2</ele>
        <time>2026-02-26T16:09:19Z</time>
      </trkpt>
      <trkpt lat="48.847295" lon="10.115782">
        <ele>466.3</ele>
        <time>2026-02-26T16:09:20Z</time>
      </trkpt>
      <trkpt lat="48.847299" lon="10.115827">
        <ele>466.4</ele>
        <time>2026-02-26T16:09:21Z</time>
      </trkpt>
      <trkpt lat="48.847302" lon="10.115872">
        <ele>466.5</ele>
        <time>2026-02-26T16:09:22Z</time>
      </trkpt>
      <trkpt lat="48.847307" lon="10.115916">
        <ele>466.6</ele>
        <time>2026-02-26T16:09:23Z</time>
      </trkpt>
      <trkpt lat="48.847309" lon="10.115957">
        <ele>466.7</ele>
        <time>2026-02-26T16:09:24Z</time>
      </trkpt>
      <trkpt lat="48.847309" lon="10.115999">
        <ele>466.8</ele>
        <time>2026-02-26T16:09:25Z</time>
      </trkpt>
      <trkpt lat="48.847310" lon="10.116045">
        <ele>466.9</ele>
        <time>2026-02-26T16:09:26Z</time>
      </trkpt>
      <trkpt lat="48.847312" lon="10.116094">
        <ele>467</ele>
        <time>2026-02-26T16:09:27Z</time>
      </trkpt>
      <trkpt lat="48.847317" lon="10.116140">
        <ele>467.1</ele>
        <time>2026-02-26T16:09:28Z</time>
      </trkpt>
      <trkpt lat="48.847321" lon="10.116186">
        <ele>467.2</ele>
        <time>2026-02-26T16:09:29Z</time>
      </trkpt>
      <trkpt lat="48.847326" lon="10.116235">
        <ele>467.3</ele>
        <time>2026-02-26T16:09:30Z</time>
      </trkpt>
      <trkpt lat="48.847336" lon="10.116281">
        <ele>467.3</ele>
        <time>2026-02-26T16:09:31Z</time>
      </trkpt>
      <trkpt lat="48.847344" lon="10.116327">
        <ele>467.4</ele>
        <time>2026-02-26T16:09:32Z</time>
      </trkpt>
      <trkpt lat="48.847351" lon="10.116376">
        <ele>467.5</ele>
        <time>2026-02-26T16:09:33Z</time>
      </trkpt>
      <trkpt lat="48.847356" lon="10.116423">
        <ele>467.5</ele>
        <time>2026-02-26T16:09:34Z</time>
      </trkpt>
      <trkpt lat="48.847362" lon="10.116470">
        <ele>467.6</ele>
        <time>2026-02-26T16:09:35Z</time>
      </trkpt>
      <trkpt lat="48.847365" lon="10.116519">
        <ele>467.6</ele>
        <time>2026-02-26T16:09:36Z</time>
      </trkpt>
      <trkpt lat="48.847368" lon="10.116568">
        <ele>467.7</ele>
        <time>2026-02-26T16:09:37Z</time>
      </trkpt>
      <trkpt lat="48.847372" lon="10.116615">
        <ele>467.8</ele>
        <time>2026-02-26T16:09:38Z</time>
      </trkpt>
      <trkpt lat="48.847378" lon="10.116663">
        <ele>467.8</ele>
        <time>2026-02-26T16:09:39Z</time>
      </trkpt>
      <trkpt lat="48.847382" lon="10.116715">
        <ele>467.9</ele>
        <time>2026-02-26T16:09:40Z</time>
      </trkpt>
      <trkpt lat="48.847385" lon="10.116766">
        <ele>468</ele>
        <time>2026-02-26T16:09:41Z</time>
      </trkpt>
      <trkpt lat="48.847386" lon="10.116816">
        <ele>468</ele>
        <time>2026-02-26T16:09:42Z</time>
      </trkpt>
      <trkpt lat="48.847390" lon="10.116866">
        <ele>468.1</ele>
        <time>2026-02-26T16:09:43Z</time>
      </trkpt>
      <trkpt lat="48.847394" lon="10.116919">
        <ele>468.2</ele>
        <time>2026-02-26T16:09:44Z</time>
      </trkpt>
      <trkpt lat="48.847399" lon="10.116970">
        <ele>468.2</ele>
        <time>2026-02-26T16:09:45Z</time>
      </trkpt>
      <trkpt lat="48.847403" lon="10.117020">
        <ele>468.3</ele>
        <time>2026-02-26T16:09:46Z</time>
      </trkpt>
      <trkpt lat="48.847405" lon="10.117067">
        <ele>468.4</ele>
        <time>2026-02-26T16:09:47Z</time>
      </trkpt>
      <trkpt lat="48.847409" lon="10.117115">
        <ele>468.5</ele>
        <time>2026-02-26T16:09:48Z</time>
      </trkpt>
      <trkpt lat="48.847414" lon="10.117163">
        <ele>468.6</ele>
        <time>2026-02-26T16:09:49Z</time>
      </trkpt>
      <trkpt lat="48.847419" lon="10.117210">
        <ele>468.7</ele>
        <time>2026-02-26T16:09:50Z</time>
      </trkpt>
      <trkpt lat="48.847424" lon="10.117256">
        <ele>468.8</ele>
        <time>2026-02-26T16:09:51Z</time>
      </trkpt>
      <trkpt lat="48.847429" lon="10.117304">
        <ele>468.9</ele>
        <time>2026-02-26T16:09:52Z</time>
      </trkpt>
      <trkpt lat="48.847435" lon="10.117352">
        <ele>469</ele>
        <time>2026-02-26T16:09:53Z</time>
      </trkpt>
      <trkpt lat="48.847444" lon="10.117401">
        <ele>469.1</ele>
        <time>2026-02-26T16:09:54Z</time>
      </trkpt>
      <trkpt lat="48.847452" lon="10.117450">
        <ele>469.2</ele>
        <time>2026-02-26T16:09:55Z</time>
      </trkpt>
      <trkpt lat="48.847460" lon="10.117501">
        <ele>469.3</ele>
        <time>2026-02-26T16:09:56Z</time>
      </trkpt>
      <trkpt lat="48.847466" lon="10.117547">
        <ele>469.4</ele>
        <time>2026-02-26T16:09:57Z</time>
      </trkpt>
      <trkpt lat="48.847469" lon="10.117594">
        <ele>469.5</ele>
        <time>2026-02-26T16:09:58Z</time>
      </trkpt>
      <trkpt lat="48.847472" lon="10.117641">
        <ele>469.6</ele>
        <time>2026-02-26T16:09:59Z</time>
      </trkpt>
      <trkpt lat="48.847477" lon="10.117688">
        <ele>469.7</ele>
        <time>2026-02-26T16:10:00Z</time>
      </trkpt>
      <trkpt lat="48.847485" lon="10.117738">
        <ele>469.8</ele>
        <time>2026-02-26T16:10:01Z</time>
      </trkpt>
      <trkpt lat="48.847493" lon="10.117787">
        <ele>469.9</ele>
        <time>2026-02-26T16:10:02Z</time>
      </trkpt>
      <trkpt lat="48.847503" lon="10.117836">
        <ele>470</ele>
        <time>2026-02-26T16:10:03Z</time>
      </trkpt>
      <trkpt lat="48.847513" lon="10.117886">
        <ele>470.1</ele>
        <time>2026-02-26T16:10:04Z</time>
      </trkpt>
      <trkpt lat="48.847519" lon="10.117937">
        <ele>470.2</ele>
        <time>2026-02-26T16:10:05Z</time>
      </trkpt>
      <trkpt lat="48.847522" lon="10.117987">
        <ele>470.3</ele>
        <time>2026-02-26T16:10:06Z</time>
      </trkpt>
      <trkpt lat="48.847526" lon="10.118037">
        <ele>470.4</ele>
        <time>2026-02-26T16:10:07Z</time>
      </trkpt>
      <trkpt lat="48.847531" lon="10.118087">
        <ele>470.5</ele>
        <time>2026-02-26T16:10:08Z</time>
      </trkpt>
      <trkpt lat="48.847537" lon="10.118138">
        <ele>470.6</ele>
        <time>2026-02-26T16:10:09Z</time>
      </trkpt>
      <trkpt lat="48.847542" lon="10.118188">
        <ele>470.7</ele>
        <time>2026-02-26T16:10:10Z</time>
      </trkpt>
      <trkpt lat="48.847547" lon="10.118238">
        <ele>470.8</ele>
        <time>2026-02-26T16:10:11Z</time>
      </trkpt>
      <trkpt lat="48.847554" lon="10.118289">
        <ele>470.9</ele>
        <time>2026-02-26T16:10:12Z</time>
      </trkpt>
      <trkpt lat="48.847562" lon="10.118339">
        <ele>471</ele>
        <time>2026-02-26T16:10:13Z</time>
      </trkpt>
      <trkpt lat="48.847570" lon="10.118390">
        <ele>471.1</ele>
        <time>2026-02-26T16:10:14Z</time>
      </trkpt>
      <trkpt lat="48.847577" lon="10.118439">
        <ele>471.2</ele>
        <time>2026-02-26T16:10:15Z</time>
      </trkpt>
      <trkpt lat="48.847584" lon="10.118489">
        <ele>471.3</ele>
        <time>2026-02-26T16:10:16Z</time>
      </trkpt>
      <trkpt lat="48.847591" lon="10.118538">
        <ele>471.4</ele>
        <time>2026-02-26T16:10:17Z</time>
      </trkpt>
      <trkpt lat="48.847597" lon="10.118589">
        <ele>471.5</ele>
        <time>2026-02-26T16:10:18Z</time>
      </trkpt>
      <trkpt lat="48.847603" lon="10.118639">
        <ele>471.6</ele>
        <time>2026-02-26T16:10:19Z</time>
      </trkpt>
      <trkpt lat="48.847608" lon="10.118688">
        <ele>471.7</ele>
        <time>2026-02-26T16:10:20Z</time>
      </trkpt>
      <trkpt lat="48.847618" lon="10.118735">
        <ele>471.8</ele>
        <time>2026-02-26T16:10:21Z</time>
      </trkpt>
      <trkpt lat="48.847632" lon="10.118781">
        <ele>471.9</ele>
        <time>2026-02-26T16:10:22Z</time>
      </trkpt>
      <trkpt lat="48.847646" lon="10.118831">
        <ele>472</ele>
        <time>2026-02-26T16:10:23Z</time>
      </trkpt>
      <trkpt lat="48.847660" lon="10.118879">
        <ele>472.1</ele>
        <time>2026-02-26T16:10:24Z</time>
      </trkpt>
      <trkpt lat="48.847674" lon="10.118926">
        <ele>472.2</ele>
        <time>2026-02-26T16:10:25Z</time>
      </trkpt>
      <trkpt lat="48.847687" lon="10.118972">
        <ele>472.3</ele>
        <time>2026-02-26T16:10:26Z</time>
      </trkpt>
      <trkpt lat="48.847700" lon="10.119019">
        <ele>472.4</ele>
        <time>2026-02-26T16:10:27Z</time>
      </trkpt>
      <trkpt lat="48.847714" lon="10.119066">
        <ele>472.5</ele>
        <time>2026-02-26T16:10:28Z</time>
      </trkpt>
      <trkpt lat="48.847727" lon="10.119113">
        <ele>472.6</ele>
        <time>2026-02-26T16:10:29Z</time>
      </trkpt>
      <trkpt lat="48.847735" lon="10.119159">
        <ele>472.7</ele>
        <time>2026-02-26T16:10:30Z</time>
      </trkpt>
      <trkpt lat="48.847744" lon="10.119202">
        <ele>472.8</ele>
        <time>2026-02-26T16:10:31Z</time>
      </trkpt>
      <trkpt lat="48.847752" lon="10.119242">
        <ele>472.9</ele>
        <time>2026-02-26T16:10:32Z</time>
      </trkpt>
      <trkpt lat="48.847763" lon="10.119301">
        <ele>473</ele>
        <time>2026-02-26T16:10:33Z</time>
      </trkpt>
      <trkpt lat="48.847766" lon="10.119322">
        <ele>473.1</ele>
        <time>2026-02-26T16:10:34Z</time>
      </trkpt>
      <trkpt lat="48.847776" lon="10.119362">
        <ele>473.1</ele>
        <time>2026-02-26T16:10:35Z</time>
      </trkpt>
      <trkpt lat="48.847793" lon="10.119418">
        <ele>473.3</ele>
        <time>2026-02-26T16:10:36Z</time>
      </trkpt>
      <trkpt lat="48.847798" lon="10.119438">
        <ele>473.3</ele>
        <time>2026-02-26T16:10:37Z</time>
      </trkpt>
      <trkpt lat="48.847809" lon="10.119479">
        <ele>473.5</ele>
        <time>2026-02-26T16:10:38Z</time>
      </trkpt>
      <trkpt lat="48.847820" lon="10.119527">
        <ele>473.6</ele>
        <time>2026-02-26T16:10:39Z</time>
      </trkpt>
      <trkpt lat="48.847834" lon="10.119567">
        <ele>473.7</ele>
        <time>2026-02-26T16:10:40Z</time>
      </trkpt>
      <trkpt lat="48.847849" lon="10.119615">
        <ele>473.8</ele>
        <time>2026-02-26T16:10:41Z</time>
      </trkpt>
      <trkpt lat="48.847853" lon="10.119632">
        <ele>473.9</ele>
        <time>2026-02-26T16:10:42Z</time>
      </trkpt>
      <trkpt lat="48.847873" lon="10.119682">
        <ele>474</ele>
        <time>2026-02-26T16:10:43Z</time>
      </trkpt>
      <trkpt lat="48.847878" lon="10.119699">
        <ele>474.1</ele>
        <time>2026-02-26T16:10:44Z</time>
      </trkpt>
      <trkpt lat="48.847891" lon="10.119751">
        <ele>474.2</ele>
        <time>2026-02-26T16:10:45Z</time>
      </trkpt>
      <trkpt lat="48.847896" lon="10.119768">
        <ele>474.2</ele>
        <time>2026-02-26T16:10:46Z</time>
      </trkpt>
      <trkpt lat="48.847909" lon="10.119824">
        <ele>474.3</ele>
        <time>2026-02-26T16:10:47Z</time>
      </trkpt>
      <trkpt lat="48.847913" lon="10.119844">
        <ele>474.4</ele>
        <time>2026-02-26T16:10:48Z</time>
      </trkpt>
      <trkpt lat="48.847927" lon="10.119900">
        <ele>474.5</ele>
        <time>2026-02-26T16:10:49Z</time>
      </trkpt>
      <trkpt lat="48.847930" lon="10.119918">
        <ele>474.5</ele>
        <time>2026-02-26T16:10:50Z</time>
      </trkpt>
      <trkpt lat="48.847943" lon="10.119967">
        <ele>474.6</ele>
        <time>2026-02-26T16:10:51Z</time>
      </trkpt>
      <trkpt lat="48.847946" lon="10.119982">
        <ele>474.6</ele>
        <time>2026-02-26T16:10:52Z</time>
      </trkpt>
      <trkpt lat="48.847949" lon="10.120006">
        <ele>474.7</ele>
        <time>2026-02-26T16:10:53Z</time>
      </trkpt>
      <trkpt lat="48.847952" lon="10.120023">
        <ele>474.7</ele>
        <time>2026-02-26T16:10:54Z</time>
      </trkpt>
      <trkpt lat="48.847962" lon="10.120038">
        <ele>474.7</ele>
        <time>2026-02-26T16:10:55Z</time>
      </trkpt>
      <trkpt lat="48.847972" lon="10.120058">
        <ele>474.7</ele>
        <time>2026-02-26T16:10:56Z</time>
      </trkpt>
      <trkpt lat="48.847983" lon="10.120101">
        <ele>474.8</ele>
        <time>2026-02-26T16:10:57Z</time>
      </trkpt>
      <trkpt lat="48.847986" lon="10.120117">
        <ele>474.8</ele>
        <time>2026-02-26T16:10:58Z</time>
      </trkpt>
      <trkpt lat="48.847995" lon="10.120170">
        <ele>474.9</ele>
        <time>2026-02-26T16:10:59Z</time>
      </trkpt>
      <trkpt lat="48.847998" lon="10.120190">
        <ele>474.9</ele>
        <time>2026-02-26T16:11:00Z</time>
      </trkpt>
      <trkpt lat="48.848007" lon="10.120246">
        <ele>475</ele>
        <time>2026-02-26T16:11:01Z</time>
      </trkpt>
      <trkpt lat="48.848010" lon="10.120264">
        <ele>475.1</ele>
        <time>2026-02-26T16:11:02Z</time>
      </trkpt>
      <trkpt lat="48.848025" lon="10.120319">
        <ele>475.2</ele>
        <time>2026-02-26T16:11:03Z</time>
      </trkpt>
      <trkpt lat="48.848030" lon="10.120338">
        <ele>475.2</ele>
        <time>2026-02-26T16:11:04Z</time>
      </trkpt>
      <trkpt lat="48.848043" lon="10.120394">
        <ele>475.3</ele>
        <time>2026-02-26T16:11:05Z</time>
      </trkpt>
      <trkpt lat="48.848047" lon="10.120414">
        <ele>475.3</ele>
        <time>2026-02-26T16:11:06Z</time>
      </trkpt>
      <trkpt lat="48.848064" lon="10.120466">
        <ele>475.4</ele>
        <time>2026-02-26T16:11:07Z</time>
      </trkpt>
      <trkpt lat="48.848070" lon="10.120484">
        <ele>475.5</ele>
        <time>2026-02-26T16:11:08Z</time>
      </trkpt>
      <trkpt lat="48.848086" lon="10.120539">
        <ele>475.6</ele>
        <time>2026-02-26T16:11:09Z</time>
      </trkpt>
      <trkpt lat="48.848091" lon="10.120558">
        <ele>475.6</ele>
        <time>2026-02-26T16:11:10Z</time>
      </trkpt>
      <trkpt lat="48.848105" lon="10.120607">
        <ele>475.7</ele>
        <time>2026-02-26T16:11:11Z</time>
      </trkpt>
      <trkpt lat="48.848110" lon="10.120623">
        <ele>475.7</ele>
        <time>2026-02-26T16:11:12Z</time>
      </trkpt>
      <trkpt lat="48.848125" lon="10.120664">
        <ele>475.8</ele>
        <time>2026-02-26T16:11:13Z</time>
      </trkpt>
      <trkpt lat="48.848130" lon="10.120677">
        <ele>475.9</ele>
        <time>2026-02-26T16:11:14Z</time>
      </trkpt>
      <trkpt lat="48.848137" lon="10.120702">
        <ele>475.9</ele>
        <time>2026-02-26T16:11:15Z</time>
      </trkpt>
      <trkpt lat="48.848144" lon="10.120724">
        <ele>475.9</ele>
        <time>2026-02-26T16:11:16Z</time>
      </trkpt>
      <trkpt lat="48.848151" lon="10.120748">
        <ele>476</ele>
        <time>2026-02-26T16:11:17Z</time>
      </trkpt>
      <trkpt lat="48.848155" lon="10.120773">
        <ele>476</ele>
        <time>2026-02-26T16:11:18Z</time>
      </trkpt>
      <trkpt lat="48.848160" lon="10.120796">
        <ele>476.1</ele>
        <time>2026-02-26T16:11:19Z</time>
      </trkpt>
      <trkpt lat="48.848169" lon="10.120821">
        <ele>476.1</ele>
        <time>2026-02-26T16:11:20Z</time>
      </trkpt>
      <trkpt lat="48.848184" lon="10.120858">
        <ele>476.2</ele>
        <time>2026-02-26T16:11:21Z</time>
      </trkpt>
      <trkpt lat="48.848188" lon="10.120871">
        <ele>476.2</ele>
        <time>2026-02-26T16:11:22Z</time>
      </trkpt>
      <trkpt lat="48.848199" lon="10.120913">
        <ele>476.3</ele>
        <time>2026-02-26T16:11:23Z</time>
      </trkpt>
      <trkpt lat="48.848202" lon="10.120927">
        <ele>476.3</ele>
        <time>2026-02-26T16:11:24Z</time>
      </trkpt>
      <trkpt lat="48.848217" lon="10.120964">
        <ele>476.4</ele>
        <time>2026-02-26T16:11:25Z</time>
      </trkpt>
      <trkpt lat="48.848222" lon="10.120976">
        <ele>476.4</ele>
        <time>2026-02-26T16:11:26Z</time>
      </trkpt>
      <trkpt lat="48.848233" lon="10.121006">
        <ele>476.5</ele>
        <time>2026-02-26T16:11:27Z</time>
      </trkpt>
      <trkpt lat="48.848237" lon="10.121017">
        <ele>476.5</ele>
        <time>2026-02-26T16:11:28Z</time>
      </trkpt>
      <trkpt lat="48.848241" lon="10.121028">
        <ele>476.5</ele>
        <time>2026-02-26T16:11:29Z</time>
      </trkpt>
      <trkpt lat="48.848248" lon="10.121052">
        <ele>476.6</ele>
        <time>2026-02-26T16:11:30Z</time>
      </trkpt>
      <trkpt lat="48.848255" lon="10.121077">
        <ele>476.6</ele>
        <time>2026-02-26T16:11:31Z</time>
      </trkpt>
      <trkpt lat="48.848265" lon="10.121098">
        <ele>476.7</ele>
        <time>2026-02-26T16:11:32Z</time>
      </trkpt>
      <trkpt lat="48.848277" lon="10.121119">
        <ele>476.7</ele>
        <time>2026-02-26T16:11:33Z</time>
      </trkpt>
      <trkpt lat="48.848288" lon="10.121143">
        <ele>476.8</ele>
        <time>2026-02-26T16:11:34Z</time>
      </trkpt>
      <trkpt lat="48.848298" lon="10.121163">
        <ele>476.8</ele>
        <time>2026-02-26T16:11:35Z</time>
      </trkpt>
      <trkpt lat="48.848308" lon="10.121185">
        <ele>476.9</ele>
        <time>2026-02-26T16:11:36Z</time>
      </trkpt>
      <trkpt lat="48.848316" lon="10.121204">
        <ele>476.9</ele>
        <time>2026-02-26T16:11:37Z</time>
      </trkpt>
      <trkpt lat="48.848332" lon="10.121239">
        <ele>477</ele>
        <time>2026-02-26T16:11:38Z</time>
      </trkpt>
      <trkpt lat="48.848338" lon="10.121253">
        <ele>477</ele>
        <time>2026-02-26T16:11:39Z</time>
      </trkpt>
      <trkpt lat="48.848357" lon="10.121299">
        <ele>477.1</ele>
        <time>2026-02-26T16:11:40Z</time>
      </trkpt>
      <trkpt lat="48.848363" lon="10.121314">
        <ele>477.1</ele>
        <time>2026-02-26T16:11:41Z</time>
      </trkpt>
      <trkpt lat="48.848385" lon="10.121361">
        <ele>477.2</ele>
        <time>2026-02-26T16:11:42Z</time>
      </trkpt>
      <trkpt lat="48.848392" lon="10.121378">
        <ele>477.3</ele>
        <time>2026-02-26T16:11:43Z</time>
      </trkpt>
      <trkpt lat="48.848412" lon="10.121428">
        <ele>477.4</ele>
        <time>2026-02-26T16:11:44Z</time>
      </trkpt>
      <trkpt lat="48.848418" lon="10.121443">
        <ele>477.4</ele>
        <time>2026-02-26T16:11:45Z</time>
      </trkpt>
      <trkpt lat="48.848434" lon="10.121477">
        <ele>477.5</ele>
        <time>2026-02-26T16:11:46Z</time>
      </trkpt>
      <trkpt lat="48.848451" lon="10.121510">
        <ele>477.6</ele>
        <time>2026-02-26T16:11:47Z</time>
      </trkpt>
      <trkpt lat="48.848480" lon="10.121550">
        <ele>477.7</ele>
        <time>2026-02-26T16:11:48Z</time>
      </trkpt>
      <trkpt lat="48.848491" lon="10.121562">
        <ele>477.8</ele>
        <time>2026-02-26T16:11:49Z</time>
      </trkpt>
      <trkpt lat="48.848515" lon="10.121584">
        <ele>477.9</ele>
        <time>2026-02-26T16:11:50Z</time>
      </trkpt>
      <trkpt lat="48.848548" lon="10.121622">
        <ele>478</ele>
        <time>2026-02-26T16:11:51Z</time>
      </trkpt>
      <trkpt lat="48.848559" lon="10.121637">
        <ele>478</ele>
        <time>2026-02-26T16:11:52Z</time>
      </trkpt>
      <trkpt lat="48.848590" lon="10.121680">
        <ele>478.1</ele>
        <time>2026-02-26T16:11:53Z</time>
      </trkpt>
      <trkpt lat="48.848602" lon="10.121696">
        <ele>478.2</ele>
        <time>2026-02-26T16:11:54Z</time>
      </trkpt>
      <trkpt lat="48.848627" lon="10.121730">
        <ele>478.3</ele>
        <time>2026-02-26T16:11:55Z</time>
      </trkpt>
      <trkpt lat="48.848651" lon="10.121757">
        <ele>478.3</ele>
        <time>2026-02-26T16:11:56Z</time>
      </trkpt>
      <trkpt lat="48.848675" lon="10.121786">
        <ele>478.4</ele>
        <time>2026-02-26T16:11:57Z</time>
      </trkpt>
      <trkpt lat="48.848701" lon="10.121817">
        <ele>478.5</ele>
        <time>2026-02-26T16:11:58Z</time>
      </trkpt>
      <trkpt lat="48.848725" lon="10.121850">
        <ele>478.6</ele>
        <time>2026-02-26T16:11:59Z</time>
      </trkpt>
      <trkpt lat="48.848750" lon="10.121881">
        <ele>478.6</ele>
        <time>2026-02-26T16:12:00Z</time>
      </trkpt>
      <trkpt lat="48.848775" lon="10.121912">
        <ele>478.7</ele>
        <time>2026-02-26T16:12:01Z</time>
      </trkpt>
      <trkpt lat="48.848799" lon="10.121942">
        <ele>478.8</ele>
        <time>2026-02-26T16:12:02Z</time>
      </trkpt>
      <trkpt lat="48.848821" lon="10.121971">
        <ele>478.8</ele>
        <time>2026-02-26T16:12:03Z</time>
      </trkpt>
      <trkpt lat="48.848853" lon="10.122002">
        <ele>478.9</ele>
        <time>2026-02-26T16:12:04Z</time>
      </trkpt>
      <trkpt lat="48.848863" lon="10.122010">
        <ele>479</ele>
        <time>2026-02-26T16:12:05Z</time>
      </trkpt>
      <trkpt lat="48.848888" lon="10.122035">
        <ele>479</ele>
        <time>2026-02-26T16:12:06Z</time>
      </trkpt>
      <trkpt lat="48.848895" lon="10.122044">
        <ele>479</ele>
        <time>2026-02-26T16:12:07Z</time>
      </trkpt>
      <trkpt lat="48.848905" lon="10.122063">
        <ele>479.1</ele>
        <time>2026-02-26T16:12:08Z</time>
      </trkpt>
      <trkpt lat="48.848912" lon="10.122078">
        <ele>479.1</ele>
        <time>2026-02-26T16:12:09Z</time>
      </trkpt>
      <trkpt lat="48.848922" lon="10.122095">
        <ele>479.1</ele>
        <time>2026-02-26T16:12:10Z</time>
      </trkpt>
      <trkpt lat="48.848927" lon="10.122099">
        <ele>479.2</ele>
        <time>2026-02-26T16:12:11Z</time>
      </trkpt>
      <trkpt lat="48.848931" lon="10.122104">
        <ele>479.2</ele>
        <time>2026-02-26T16:12:12Z</time>
      </trkpt>
      <trkpt lat="48.848935" lon="10.122108">
        <ele>479.2</ele>
        <time>2026-02-26T16:12:13Z</time>
      </trkpt>
      <trkpt lat="48.848939" lon="10.122112">
        <ele>479.2</ele>
        <time>2026-02-26T16:12:14Z</time>
      </trkpt>
      <trkpt lat="48.848944" lon="10.122116">
        <ele>479.2</ele>
        <time>2026-02-26T16:12:15Z</time>
      </trkpt>
      <trkpt lat="48.848948" lon="10.122120">
        <ele>479.2</ele>
        <time>2026-02-26T16:12:16Z</time>
      </trkpt>
      <trkpt lat="48.848952" lon="10.122125">
        <ele>479.2</ele>
        <time>2026-02-26T16:12:17Z</time>
      </trkpt>
      <trkpt lat="48.848956" lon="10.122129">
        <ele>479.2</ele>
        <time>2026-02-26T16:12:18Z</time>
      </trkpt>
      <trkpt lat="48.848961" lon="10.122133">
        <ele>479.2</ele>
        <time>2026-02-26T16:12:19Z</time>
      </trkpt>
      <trkpt lat="48.848965" lon="10.122137">
        <ele>479.3</ele>
        <time>2026-02-26T16:12:20Z</time>
      </trkpt>
      <trkpt lat="48.848969" lon="10.122141">
        <ele>479.3</ele>
        <time>2026-02-26T16:12:21Z</time>
      </trkpt>
      <trkpt lat="48.848973" lon="10.122146">
        <ele>479.3</ele>
        <time>2026-02-26T16:12:26Z</time>
      </trkpt>
      <trkpt lat="48.848978" lon="10.122150">
        <ele>479.3</ele>
        <time>2026-02-26T16:12:27Z</time>
      </trkpt>
      <trkpt lat="48.848982" lon="10.122154">
        <ele>479.3</ele>
        <time>2026-02-26T16:12:28Z</time>
      </trkpt>
      <trkpt lat="48.849013" lon="10.122190">
        <ele>479.4</ele>
        <time>2026-02-26T16:12:29Z</time>
      </trkpt>
      <trkpt lat="48.849024" lon="10.122202">
        <ele>479.4</ele>
        <time>2026-02-26T16:12:30Z</time>
      </trkpt>
      <trkpt lat="48.849048" lon="10.122230">
        <ele>479.5</ele>
        <time>2026-02-26T16:12:31Z</time>
      </trkpt>
      <trkpt lat="48.849070" lon="10.122262">
        <ele>479.6</ele>
        <time>2026-02-26T16:12:32Z</time>
      </trkpt>
      <trkpt lat="48.849095" lon="10.122296">
        <ele>479.7</ele>
        <time>2026-02-26T16:12:33Z</time>
      </trkpt>
      <trkpt lat="48.849122" lon="10.122331">
        <ele>479.8</ele>
        <time>2026-02-26T16:12:34Z</time>
      </trkpt>
      <trkpt lat="48.849150" lon="10.122364">
        <ele>479.9</ele>
        <time>2026-02-26T16:12:35Z</time>
      </trkpt>
      <trkpt lat="48.849178" lon="10.122399">
        <ele>480</ele>
        <time>2026-02-26T16:12:36Z</time>
      </trkpt>
      <trkpt lat="48.849206" lon="10.122437">
        <ele>480.1</ele>
        <time>2026-02-26T16:12:37Z</time>
      </trkpt>
      <trkpt lat="48.849236" lon="10.122474">
        <ele>480.2</ele>
        <time>2026-02-26T16:12:38Z</time>
      </trkpt>
      <trkpt lat="48.849263" lon="10.122513">
        <ele>480.3</ele>
        <time>2026-02-26T16:12:39Z</time>
      </trkpt>
      <trkpt lat="48.849289" lon="10.122551">
        <ele>480.5</ele>
        <time>2026-02-26T16:12:40Z</time>
      </trkpt>
      <trkpt lat="48.849313" lon="10.122585">
        <ele>480.6</ele>
        <time>2026-02-26T16:12:41Z</time>
      </trkpt>
      <trkpt lat="48.849339" lon="10.122596">
        <ele>480.7</ele>
        <time>2026-02-26T16:12:42Z</time>
      </trkpt>
      <trkpt lat="48.849368" lon="10.122608">
        <ele>480.8</ele>
        <time>2026-02-26T16:12:43Z</time>
      </trkpt>
      <trkpt lat="48.849396" lon="10.122628">
        <ele>480.9</ele>
        <time>2026-02-26T16:12:44Z</time>
      </trkpt>
      <trkpt lat="48.849424" lon="10.122656">
        <ele>481</ele>
        <time>2026-02-26T16:12:45Z</time>
      </trkpt>
      <trkpt lat="48.849453" lon="10.122685">
        <ele>481.1</ele>
        <time>2026-02-26T16:12:46Z</time>
      </trkpt>
      <trkpt lat="48.849480" lon="10.122714">
        <ele>481.3</ele>
        <time>2026-02-26T16:12:47Z</time>
      </trkpt>
      <trkpt lat="48.849504" lon="10.122744">
        <ele>481.4</ele>
        <time>2026-02-26T16:12:48Z</time>
      </trkpt>
      <trkpt lat="48.849529" lon="10.122775">
        <ele>481.5</ele>
        <time>2026-02-26T16:12:49Z</time>
      </trkpt>
      <trkpt lat="48.849555" lon="10.122810">
        <ele>481.6</ele>
        <time>2026-02-26T16:12:50Z</time>
      </trkpt>
      <trkpt lat="48.849579" lon="10.122845">
        <ele>481.7</ele>
        <time>2026-02-26T16:12:51Z</time>
      </trkpt>
      <trkpt lat="48.849604" lon="10.122879">
        <ele>481.8</ele>
        <time>2026-02-26T16:12:52Z</time>
      </trkpt>
      <trkpt lat="48.849630" lon="10.122912">
        <ele>481.9</ele>
        <time>2026-02-26T16:12:53Z</time>
      </trkpt>
      <trkpt lat="48.849657" lon="10.122945">
        <ele>482</ele>
        <time>2026-02-26T16:12:54Z</time>
      </trkpt>
      <trkpt lat="48.849683" lon="10.122976">
        <ele>482</ele>
        <time>2026-02-26T16:12:55Z</time>
      </trkpt>
      <trkpt lat="48.849711" lon="10.123006">
        <ele>482.1</ele>
        <time>2026-02-26T16:12:56Z</time>
      </trkpt>
      <trkpt lat="48.849736" lon="10.123037">
        <ele>482.2</ele>
        <time>2026-02-26T16:12:57Z</time>
      </trkpt>
      <trkpt lat="48.849758" lon="10.123067">
        <ele>482.3</ele>
        <time>2026-02-26T16:12:58Z</time>
      </trkpt>
      <trkpt lat="48.849795" lon="10.123095">
        <ele>482.5</ele>
        <time>2026-02-26T16:12:59Z</time>
      </trkpt>
      <trkpt lat="48.849808" lon="10.123105">
        <ele>482.5</ele>
        <time>2026-02-26T16:13:00Z</time>
      </trkpt>
      <trkpt lat="48.849834" lon="10.123131">
        <ele>482.6</ele>
        <time>2026-02-26T16:13:01Z</time>
      </trkpt>
      <trkpt lat="48.849857" lon="10.123161">
        <ele>482.7</ele>
        <time>2026-02-26T16:13:02Z</time>
      </trkpt>
      <trkpt lat="48.849880" lon="10.123190">
        <ele>482.8</ele>
        <time>2026-02-26T16:13:03Z</time>
      </trkpt>
      <trkpt lat="48.849901" lon="10.123222">
        <ele>482.9</ele>
        <time>2026-02-26T16:13:04Z</time>
      </trkpt>
      <trkpt lat="48.849924" lon="10.123252">
        <ele>483</ele>
        <time>2026-02-26T16:13:05Z</time>
      </trkpt>
      <trkpt lat="48.849948" lon="10.123281">
        <ele>483.2</ele>
        <time>2026-02-26T16:13:06Z</time>
      </trkpt>
      <trkpt lat="48.849972" lon="10.123309">
        <ele>483.3</ele>
        <time>2026-02-26T16:13:07Z</time>
      </trkpt>
      <trkpt lat="48.849996" lon="10.123343">
        <ele>483.5</ele>
        <time>2026-02-26T16:13:08Z</time>
      </trkpt>
      <trkpt lat="48.850020" lon="10.123373">
        <ele>483.6</ele>
        <time>2026-02-26T16:13:09Z</time>
      </trkpt>
      <trkpt lat="48.850041" lon="10.123402">
        <ele>483.8</ele>
        <time>2026-02-26T16:13:10Z</time>
      </trkpt>
      <trkpt lat="48.850063" lon="10.123427">
        <ele>483.9</ele>
        <time>2026-02-26T16:13:11Z</time>
      </trkpt>
      <trkpt lat="48.850086" lon="10.123463">
        <ele>484.1</ele>
        <time>2026-02-26T16:13:12Z</time>
      </trkpt>
      <trkpt lat="48.850107" lon="10.123495">
        <ele>484.2</ele>
        <time>2026-02-26T16:13:13Z</time>
      </trkpt>
      <trkpt lat="48.850129" lon="10.123519">
        <ele>484.4</ele>
        <time>2026-02-26T16:13:14Z</time>
      </trkpt>
      <trkpt lat="48.850153" lon="10.123551">
        <ele>484.5</ele>
        <time>2026-02-26T16:13:15Z</time>
      </trkpt>
      <trkpt lat="48.850177" lon="10.123579">
        <ele>484.7</ele>
        <time>2026-02-26T16:13:16Z</time>
      </trkpt>
      <trkpt lat="48.850202" lon="10.123601">
        <ele>484.8</ele>
        <time>2026-02-26T16:13:17Z</time>
      </trkpt>
      <trkpt lat="48.850229" lon="10.123627">
        <ele>484.9</ele>
        <time>2026-02-26T16:13:18Z</time>
      </trkpt>
      <trkpt lat="48.850254" lon="10.123655">
        <ele>485.1</ele>
        <time>2026-02-26T16:13:19Z</time>
      </trkpt>
      <trkpt lat="48.850280" lon="10.123685">
        <ele>485.2</ele>
        <time>2026-02-26T16:13:20Z</time>
      </trkpt>
      <trkpt lat="48.850306" lon="10.123713">
        <ele>485.3</ele>
        <time>2026-02-26T16:13:21Z</time>
      </trkpt>
      <trkpt lat="48.850332" lon="10.123741">
        <ele>485.4</ele>
        <time>2026-02-26T16:13:22Z</time>
      </trkpt>
      <trkpt lat="48.850358" lon="10.123771">
        <ele>485.5</ele>
        <time>2026-02-26T16:13:23Z</time>
      </trkpt>
      <trkpt lat="48.850383" lon="10.123799">
        <ele>485.6</ele>
        <time>2026-02-26T16:13:24Z</time>
      </trkpt>
      <trkpt lat="48.850409" lon="10.123829">
        <ele>485.7</ele>
        <time>2026-02-26T16:13:25Z</time>
      </trkpt>
      <trkpt lat="48.850437" lon="10.123861">
        <ele>485.9</ele>
        <time>2026-02-26T16:13:26Z</time>
      </trkpt>
      <trkpt lat="48.850464" lon="10.123893">
        <ele>486</ele>
        <time>2026-02-26T16:13:27Z</time>
      </trkpt>
      <trkpt lat="48.850491" lon="10.123925">
        <ele>486.1</ele>
        <time>2026-02-26T16:13:28Z</time>
      </trkpt>
      <trkpt lat="48.850518" lon="10.123961">
        <ele>486.2</ele>
        <time>2026-02-26T16:13:29Z</time>
      </trkpt>
      <trkpt lat="48.850544" lon="10.123996">
        <ele>486.3</ele>
        <time>2026-02-26T16:13:30Z</time>
      </trkpt>
      <trkpt lat="48.850572" lon="10.124029">
        <ele>486.5</ele>
        <time>2026-02-26T16:13:31Z</time>
      </trkpt>
      <trkpt lat="48.850598" lon="10.124056">
        <ele>486.6</ele>
        <time>2026-02-26T16:13:32Z</time>
      </trkpt>
      <trkpt lat="48.850624" lon="10.124080">
        <ele>486.7</ele>
        <time>2026-02-26T16:13:33Z</time>
      </trkpt>
      <trkpt lat="48.850649" lon="10.124106">
        <ele>486.8</ele>
        <time>2026-02-26T16:13:34Z</time>
      </trkpt>
      <trkpt lat="48.850676" lon="10.124142">
        <ele>486.9</ele>
        <time>2026-02-26T16:13:35Z</time>
      </trkpt>
      <trkpt lat="48.850703" lon="10.124175">
        <ele>487</ele>
        <time>2026-02-26T16:13:36Z</time>
      </trkpt>
      <trkpt lat="48.850729" lon="10.124207">
        <ele>487.1</ele>
        <time>2026-02-26T16:13:37Z</time>
      </trkpt>
      <trkpt lat="48.850756" lon="10.124246">
        <ele>487.3</ele>
        <time>2026-02-26T16:13:38Z</time>
      </trkpt>
      <trkpt lat="48.850782" lon="10.124282">
        <ele>487.4</ele>
        <time>2026-02-26T16:13:39Z</time>
      </trkpt>
      <trkpt lat="48.850808" lon="10.124319">
        <ele>487.5</ele>
        <time>2026-02-26T16:13:40Z</time>
      </trkpt>
      <trkpt lat="48.850835" lon="10.124354">
        <ele>487.6</ele>
        <time>2026-02-26T16:13:41Z</time>
      </trkpt>
      <trkpt lat="48.850861" lon="10.124385">
        <ele>487.7</ele>
        <time>2026-02-26T16:13:42Z</time>
      </trkpt>
      <trkpt lat="48.850888" lon="10.124414">
        <ele>487.9</ele>
        <time>2026-02-26T16:13:43Z</time>
      </trkpt>
      <trkpt lat="48.850915" lon="10.124447">
        <ele>488</ele>
        <time>2026-02-26T16:13:44Z</time>
      </trkpt>
      <trkpt lat="48.850942" lon="10.124484">
        <ele>488.1</ele>
        <time>2026-02-26T16:13:45Z</time>
      </trkpt>
      <trkpt lat="48.850966" lon="10.124520">
        <ele>488.2</ele>
        <time>2026-02-26T16:13:46Z</time>
      </trkpt>
      <trkpt lat="48.850991" lon="10.124553">
        <ele>488.4</ele>
        <time>2026-02-26T16:13:47Z</time>
      </trkpt>
      <trkpt lat="48.851017" lon="10.124584">
        <ele>488.5</ele>
        <time>2026-02-26T16:13:48Z</time>
      </trkpt>
      <trkpt lat="48.851041" lon="10.124616">
        <ele>488.6</ele>
        <time>2026-02-26T16:13:49Z</time>
      </trkpt>
      <trkpt lat="48.851063" lon="10.124645">
        <ele>488.7</ele>
        <time>2026-02-26T16:13:50Z</time>
      </trkpt>
      <trkpt lat="48.851087" lon="10.124670">
        <ele>488.8</ele>
        <time>2026-02-26T16:13:51Z</time>
      </trkpt>
      <trkpt lat="48.851111" lon="10.124699">
        <ele>489</ele>
        <time>2026-02-26T16:13:52Z</time>
      </trkpt>
      <trkpt lat="48.851132" lon="10.124731">
        <ele>489.1</ele>
        <time>2026-02-26T16:13:53Z</time>
      </trkpt>
      <trkpt lat="48.851164" lon="10.124772">
        <ele>489.2</ele>
        <time>2026-02-26T16:13:54Z</time>
      </trkpt>
      <trkpt lat="48.851175" lon="10.124787">
        <ele>489.3</ele>
        <time>2026-02-26T16:13:55Z</time>
      </trkpt>
      <trkpt lat="48.851197" lon="10.124816">
        <ele>489.4</ele>
        <time>2026-02-26T16:13:56Z</time>
      </trkpt>
      <trkpt lat="48.851220" lon="10.124843">
        <ele>489.5</ele>
        <time>2026-02-26T16:13:57Z</time>
      </trkpt>
      <trkpt lat="48.851242" lon="10.124867">
        <ele>489.7</ele>
        <time>2026-02-26T16:13:58Z</time>
      </trkpt>
      <trkpt lat="48.851273" lon="10.124897">
        <ele>489.8</ele>
        <time>2026-02-26T16:13:59Z</time>
      </trkpt>
      <trkpt lat="48.851284" lon="10.124909">
        <ele>489.9</ele>
        <time>2026-02-26T16:14:00Z</time>
      </trkpt>
      <trkpt lat="48.851307" lon="10.124932">
        <ele>490</ele>
        <time>2026-02-26T16:14:01Z</time>
      </trkpt>
      <trkpt lat="48.851333" lon="10.124958">
        <ele>490.1</ele>
        <time>2026-02-26T16:14:02Z</time>
      </trkpt>
      <trkpt lat="48.851359" lon="10.124982">
        <ele>490.3</ele>
        <time>2026-02-26T16:14:03Z</time>
      </trkpt>
      <trkpt lat="48.851384" lon="10.125007">
        <ele>490.4</ele>
        <time>2026-02-26T16:14:04Z</time>
      </trkpt>
      <trkpt lat="48.851407" lon="10.125028">
        <ele>490.5</ele>
        <time>2026-02-26T16:14:05Z</time>
      </trkpt>
      <trkpt lat="48.851431" lon="10.125058">
        <ele>490.6</ele>
        <time>2026-02-26T16:14:06Z</time>
      </trkpt>
      <trkpt lat="48.851455" lon="10.125083">
        <ele>490.8</ele>
        <time>2026-02-26T16:14:07Z</time>
      </trkpt>
      <trkpt lat="48.851478" lon="10.125123">
        <ele>490.9</ele>
        <time>2026-02-26T16:14:08Z</time>
      </trkpt>
      <trkpt lat="48.851503" lon="10.125156">
        <ele>491</ele>
        <time>2026-02-26T16:14:09Z</time>
      </trkpt>
      <trkpt lat="48.851527" lon="10.125186">
        <ele>491.1</ele>
        <time>2026-02-26T16:14:10Z</time>
      </trkpt>
      <trkpt lat="48.851553" lon="10.125219">
        <ele>491.3</ele>
        <time>2026-02-26T16:14:11Z</time>
      </trkpt>
      <trkpt lat="48.851578" lon="10.125254">
        <ele>491.4</ele>
        <time>2026-02-26T16:14:12Z</time>
      </trkpt>
      <trkpt lat="48.851601" lon="10.125290">
        <ele>491.5</ele>
        <time>2026-02-26T16:14:13Z</time>
      </trkpt>
      <trkpt lat="48.851628" lon="10.125317">
        <ele>491.6</ele>
        <time>2026-02-26T16:14:14Z</time>
      </trkpt>
      <trkpt lat="48.851654" lon="10.125344">
        <ele>491.8</ele>
        <time>2026-02-26T16:14:15Z</time>
      </trkpt>
      <trkpt lat="48.851678" lon="10.125369">
        <ele>491.9</ele>
        <time>2026-02-26T16:14:16Z</time>
      </trkpt>
      <trkpt lat="48.851700" lon="10.125392">
        <ele>492</ele>
        <time>2026-02-26T16:14:17Z</time>
      </trkpt>
      <trkpt lat="48.851724" lon="10.125416">
        <ele>492.1</ele>
        <time>2026-02-26T16:14:18Z</time>
      </trkpt>
      <trkpt lat="48.851751" lon="10.125440">
        <ele>492.2</ele>
        <time>2026-02-26T16:14:19Z</time>
      </trkpt>
      <trkpt lat="48.851777" lon="10.125470">
        <ele>492.3</ele>
        <time>2026-02-26T16:14:20Z</time>
      </trkpt>
      <trkpt lat="48.851803" lon="10.125494">
        <ele>492.4</ele>
        <time>2026-02-26T16:14:21Z</time>
      </trkpt>
      <trkpt lat="48.851830" lon="10.125508">
        <ele>492.5</ele>
        <time>2026-02-26T16:14:22Z</time>
      </trkpt>
      <trkpt lat="48.851858" lon="10.125520">
        <ele>492.6</ele>
        <time>2026-02-26T16:14:23Z</time>
      </trkpt>
      <trkpt lat="48.851883" lon="10.125540">
        <ele>492.7</ele>
        <time>2026-02-26T16:14:24Z</time>
      </trkpt>
      <trkpt lat="48.851906" lon="10.125589">
        <ele>492.9</ele>
        <time>2026-02-26T16:14:25Z</time>
      </trkpt>
      <trkpt lat="48.851932" lon="10.125627">
        <ele>493</ele>
        <time>2026-02-26T16:14:26Z</time>
      </trkpt>
      <trkpt lat="48.851957" lon="10.125655">
        <ele>493.1</ele>
        <time>2026-02-26T16:14:27Z</time>
      </trkpt>
      <trkpt lat="48.851986" lon="10.125693">
        <ele>493.3</ele>
        <time>2026-02-26T16:14:28Z</time>
      </trkpt>
      <trkpt lat="48.852014" lon="10.125748">
        <ele>493.4</ele>
        <time>2026-02-26T16:14:29Z</time>
      </trkpt>
      <trkpt lat="48.852037" lon="10.125800">
        <ele>493.6</ele>
        <time>2026-02-26T16:14:30Z</time>
      </trkpt>
      <trkpt lat="48.852061" lon="10.125840">
        <ele>493.7</ele>
        <time>2026-02-26T16:14:31Z</time>
      </trkpt>
      <trkpt lat="48.852088" lon="10.125876">
        <ele>493.8</ele>
        <time>2026-02-26T16:14:32Z</time>
      </trkpt>
      <trkpt lat="48.852115" lon="10.125910">
        <ele>494</ele>
        <time>2026-02-26T16:14:33Z</time>
      </trkpt>
      <trkpt lat="48.852140" lon="10.125940">
        <ele>494.1</ele>
        <time>2026-02-26T16:14:34Z</time>
      </trkpt>
      <trkpt lat="48.852165" lon="10.125963">
        <ele>494.2</ele>
        <time>2026-02-26T16:14:35Z</time>
      </trkpt>
      <trkpt lat="48.852193" lon="10.125987">
        <ele>494.3</ele>
        <time>2026-02-26T16:14:36Z</time>
      </trkpt>
      <trkpt lat="48.852221" lon="10.126016">
        <ele>494.4</ele>
        <time>2026-02-26T16:14:37Z</time>
      </trkpt>
      <trkpt lat="48.852247" lon="10.126053">
        <ele>494.5</ele>
        <time>2026-02-26T16:14:38Z</time>
      </trkpt>
      <trkpt lat="48.852272" lon="10.126087">
        <ele>494.7</ele>
        <time>2026-02-26T16:14:39Z</time>
      </trkpt>
      <trkpt lat="48.852299" lon="10.126119">
        <ele>494.8</ele>
        <time>2026-02-26T16:14:40Z</time>
      </trkpt>
      <trkpt lat="48.852326" lon="10.126156">
        <ele>494.9</ele>
        <time>2026-02-26T16:14:41Z</time>
      </trkpt>
      <trkpt lat="48.852351" lon="10.126186">
        <ele>495</ele>
        <time>2026-02-26T16:14:42Z</time>
      </trkpt>
      <trkpt lat="48.852376" lon="10.126208">
        <ele>495.1</ele>
        <time>2026-02-26T16:14:43Z</time>
      </trkpt>
      <trkpt lat="48.852402" lon="10.126236">
        <ele>495.3</ele>
        <time>2026-02-26T16:14:44Z</time>
      </trkpt>
      <trkpt lat="48.852426" lon="10.126276">
        <ele>495.4</ele>
        <time>2026-02-26T16:14:45Z</time>
      </trkpt>
      <trkpt lat="48.852450" lon="10.126309">
        <ele>495.5</ele>
        <time>2026-02-26T16:14:46Z</time>
      </trkpt>
      <trkpt lat="48.852474" lon="10.126337">
        <ele>495.6</ele>
        <time>2026-02-26T16:14:47Z</time>
      </trkpt>
      <trkpt lat="48.852500" lon="10.126368">
        <ele>495.7</ele>
        <time>2026-02-26T16:14:48Z</time>
      </trkpt>
      <trkpt lat="48.852524" lon="10.126405">
        <ele>495.9</ele>
        <time>2026-02-26T16:14:49Z</time>
      </trkpt>
      <trkpt lat="48.852547" lon="10.126434">
        <ele>496</ele>
        <time>2026-02-26T16:14:50Z</time>
      </trkpt>
      <trkpt lat="48.852573" lon="10.126456">
        <ele>496.1</ele>
        <time>2026-02-26T16:14:51Z</time>
      </trkpt>
      <trkpt lat="48.852599" lon="10.126475">
        <ele>496.2</ele>
        <time>2026-02-26T16:14:52Z</time>
      </trkpt>
      <trkpt lat="48.852625" lon="10.126501">
        <ele>496.3</ele>
        <time>2026-02-26T16:14:53Z</time>
      </trkpt>
      <trkpt lat="48.852650" lon="10.126530">
        <ele>496.4</ele>
        <time>2026-02-26T16:14:54Z</time>
      </trkpt>
      <trkpt lat="48.852674" lon="10.126558">
        <ele>496.6</ele>
        <time>2026-02-26T16:14:55Z</time>
      </trkpt>
      <trkpt lat="48.852698" lon="10.126599">
        <ele>496.7</ele>
        <time>2026-02-26T16:14:56Z</time>
      </trkpt>
      <trkpt lat="48.852724" lon="10.126636">
        <ele>496.8</ele>
        <time>2026-02-26T16:14:57Z</time>
      </trkpt>
      <trkpt lat="48.852749" lon="10.126665">
        <ele>497</ele>
        <time>2026-02-26T16:14:58Z</time>
      </trkpt>
      <trkpt lat="48.852774" lon="10.126703">
        <ele>497.1</ele>
        <time>2026-02-26T16:14:59Z</time>
      </trkpt>
      <trkpt lat="48.852798" lon="10.126730">
        <ele>497.2</ele>
        <time>2026-02-26T16:15:00Z</time>
      </trkpt>
      <trkpt lat="48.852825" lon="10.126741">
        <ele>497.4</ele>
        <time>2026-02-26T16:15:01Z</time>
      </trkpt>
      <trkpt lat="48.852853" lon="10.126759">
        <ele>497.5</ele>
        <time>2026-02-26T16:15:02Z</time>
      </trkpt>
      <trkpt lat="48.852880" lon="10.126778">
        <ele>497.6</ele>
        <time>2026-02-26T16:15:03Z</time>
      </trkpt>
      <trkpt lat="48.852904" lon="10.126805">
        <ele>497.8</ele>
        <time>2026-02-26T16:15:04Z</time>
      </trkpt>
      <trkpt lat="48.852927" lon="10.126831">
        <ele>497.9</ele>
        <time>2026-02-26T16:15:05Z</time>
      </trkpt>
      <trkpt lat="48.852950" lon="10.126863">
        <ele>498.1</ele>
        <time>2026-02-26T16:15:06Z</time>
      </trkpt>
      <trkpt lat="48.852974" lon="10.126894">
        <ele>498.3</ele>
        <time>2026-02-26T16:15:07Z</time>
      </trkpt>
      <trkpt lat="48.852997" lon="10.126921">
        <ele>498.4</ele>
        <time>2026-02-26T16:15:08Z</time>
      </trkpt>
      <trkpt lat="48.853031" lon="10.126954">
        <ele>498.6</ele>
        <time>2026-02-26T16:15:09Z</time>
      </trkpt>
      <trkpt lat="48.853042" lon="10.126964">
        <ele>498.7</ele>
        <time>2026-02-26T16:15:10Z</time>
      </trkpt>
      <trkpt lat="48.853076" lon="10.126996">
        <ele>499</ele>
        <time>2026-02-26T16:15:11Z</time>
      </trkpt>
      <trkpt lat="48.853087" lon="10.127007">
        <ele>499</ele>
        <time>2026-02-26T16:15:12Z</time>
      </trkpt>
      <trkpt lat="48.853118" lon="10.127047">
        <ele>499.3</ele>
        <time>2026-02-26T16:15:13Z</time>
      </trkpt>
      <trkpt lat="48.853127" lon="10.127065">
        <ele>499.4</ele>
        <time>2026-02-26T16:15:14Z</time>
      </trkpt>
      <trkpt lat="48.853159" lon="10.127102">
        <ele>499.7</ele>
        <time>2026-02-26T16:15:15Z</time>
      </trkpt>
      <trkpt lat="48.853170" lon="10.127115">
        <ele>499.8</ele>
        <time>2026-02-26T16:15:16Z</time>
      </trkpt>
      <trkpt lat="48.853199" lon="10.127153">
        <ele>500.1</ele>
        <time>2026-02-26T16:15:17Z</time>
      </trkpt>
      <trkpt lat="48.853208" lon="10.127166">
        <ele>500.2</ele>
        <time>2026-02-26T16:15:18Z</time>
      </trkpt>
      <trkpt lat="48.853240" lon="10.127192">
        <ele>500.4</ele>
        <time>2026-02-26T16:15:19Z</time>
      </trkpt>
      <trkpt lat="48.853250" lon="10.127201">
        <ele>500.5</ele>
        <time>2026-02-26T16:15:20Z</time>
      </trkpt>
      <trkpt lat="48.853278" lon="10.127231">
        <ele>500.8</ele>
        <time>2026-02-26T16:15:21Z</time>
      </trkpt>
      <trkpt lat="48.853287" lon="10.127243">
        <ele>500.9</ele>
        <time>2026-02-26T16:15:22Z</time>
      </trkpt>
      <trkpt lat="48.853313" lon="10.127280">
        <ele>501.2</ele>
        <time>2026-02-26T16:15:23Z</time>
      </trkpt>
      <trkpt lat="48.853322" lon="10.127292">
        <ele>501.3</ele>
        <time>2026-02-26T16:15:24Z</time>
      </trkpt>
      <trkpt lat="48.853351" lon="10.127321">
        <ele>501.6</ele>
        <time>2026-02-26T16:15:25Z</time>
      </trkpt>
      <trkpt lat="48.853361" lon="10.127329">
        <ele>501.7</ele>
        <time>2026-02-26T16:15:26Z</time>
      </trkpt>
      <trkpt lat="48.853385" lon="10.127360">
        <ele>502</ele>
        <time>2026-02-26T16:15:27Z</time>
      </trkpt>
      <trkpt lat="48.853391" lon="10.127371">
        <ele>502.1</ele>
        <time>2026-02-26T16:15:28Z</time>
      </trkpt>
      <trkpt lat="48.853410" lon="10.127413">
        <ele>502.3</ele>
        <time>2026-02-26T16:15:29Z</time>
      </trkpt>
      <trkpt lat="48.853415" lon="10.127429">
        <ele>502.4</ele>
        <time>2026-02-26T16:15:30Z</time>
      </trkpt>
      <trkpt lat="48.853432" lon="10.127474">
        <ele>502.7</ele>
        <time>2026-02-26T16:15:31Z</time>
      </trkpt>
      <trkpt lat="48.853437" lon="10.127488">
        <ele>502.8</ele>
        <time>2026-02-26T16:15:32Z</time>
      </trkpt>
      <trkpt lat="48.853441" lon="10.127539">
        <ele>502.8</ele>
        <time>2026-02-26T16:15:33Z</time>
      </trkpt>
      <trkpt lat="48.853440" lon="10.127556">
        <ele>502.8</ele>
        <time>2026-02-26T16:15:34Z</time>
      </trkpt>
      <trkpt lat="48.853420" lon="10.127610">
        <ele>502.7</ele>
        <time>2026-02-26T16:15:35Z</time>
      </trkpt>
      <trkpt lat="48.853409" lon="10.127626">
        <ele>502.6</ele>
        <time>2026-02-26T16:15:36Z</time>
      </trkpt>
      <trkpt lat="48.853382" lon="10.127655">
        <ele>502.6</ele>
        <time>2026-02-26T16:15:37Z</time>
      </trkpt>
      <trkpt lat="48.853354" lon="10.127685">
        <ele>502.5</ele>
        <time>2026-02-26T16:15:38Z</time>
      </trkpt>
      <trkpt lat="48.853321" lon="10.127710">
        <ele>502.4</ele>
        <time>2026-02-26T16:15:39Z</time>
      </trkpt>
      <trkpt lat="48.853277" lon="10.127726">
        <ele>502.2</ele>
        <time>2026-02-26T16:15:40Z</time>
      </trkpt>
      <trkpt lat="48.853232" lon="10.127740">
        <ele>502.1</ele>
        <time>2026-02-26T16:15:41Z</time>
      </trkpt>
      <trkpt lat="48.853182" lon="10.127733">
        <ele>502</ele>
        <time>2026-02-26T16:15:42Z</time>
      </trkpt>
      <trkpt lat="48.853140" lon="10.127733">
        <ele>502</ele>
        <time>2026-02-26T16:15:43Z</time>
      </trkpt>
      <trkpt lat="48.853100" lon="10.127744">
        <ele>502</ele>
        <time>2026-02-26T16:15:44Z</time>
      </trkpt>
      <trkpt lat="48.853054" lon="10.127721">
        <ele>502</ele>
        <time>2026-02-26T16:15:45Z</time>
      </trkpt>
      <trkpt lat="48.853019" lon="10.127703">
        <ele>502</ele>
        <time>2026-02-26T16:15:46Z</time>
      </trkpt>
      <trkpt lat="48.852993" lon="10.127689">
        <ele>502.1</ele>
        <time>2026-02-26T16:15:47Z</time>
      </trkpt>
      <trkpt lat="48.852960" lon="10.127672">
        <ele>502.1</ele>
        <time>2026-02-26T16:15:48Z</time>
      </trkpt>
      <trkpt lat="48.852925" lon="10.127652">
        <ele>502.2</ele>
        <time>2026-02-26T16:15:49Z</time>
      </trkpt>
      <trkpt lat="48.852883" lon="10.127637">
        <ele>502.3</ele>
        <time>2026-02-26T16:15:50Z</time>
      </trkpt>
      <trkpt lat="48.852841" lon="10.127624">
        <ele>502.5</ele>
        <time>2026-02-26T16:15:51Z</time>
      </trkpt>
      <trkpt lat="48.852806" lon="10.127613">
        <ele>502.6</ele>
        <time>2026-02-26T16:15:52Z</time>
      </trkpt>
      <trkpt lat="48.852771" lon="10.127600">
        <ele>502.7</ele>
        <time>2026-02-26T16:15:53Z</time>
      </trkpt>
      <trkpt lat="48.852735" lon="10.127591">
        <ele>502.9</ele>
        <time>2026-02-26T16:15:54Z</time>
      </trkpt>
      <trkpt lat="48.852699" lon="10.127588">
        <ele>503.1</ele>
        <time>2026-02-26T16:15:55Z</time>
      </trkpt>
      <trkpt lat="48.852665" lon="10.127588">
        <ele>503.3</ele>
        <time>2026-02-26T16:15:56Z</time>
      </trkpt>
      <trkpt lat="48.852632" lon="10.127591">
        <ele>503.5</ele>
        <time>2026-02-26T16:15:57Z</time>
      </trkpt>
      <trkpt lat="48.852598" lon="10.127599">
        <ele>503.7</ele>
        <time>2026-02-26T16:15:58Z</time>
      </trkpt>
      <trkpt lat="48.852565" lon="10.127609">
        <ele>503.9</ele>
        <time>2026-02-26T16:15:59Z</time>
      </trkpt>
      <trkpt lat="48.852530" lon="10.127622">
        <ele>504.1</ele>
        <time>2026-02-26T16:16:00Z</time>
      </trkpt>
      <trkpt lat="48.852497" lon="10.127631">
        <ele>504.3</ele>
        <time>2026-02-26T16:16:01Z</time>
      </trkpt>
      <trkpt lat="48.852462" lon="10.127640">
        <ele>504.5</ele>
        <time>2026-02-26T16:16:02Z</time>
      </trkpt>
      <trkpt lat="48.852429" lon="10.127640">
        <ele>504.8</ele>
        <time>2026-02-26T16:16:03Z</time>
      </trkpt>
      <trkpt lat="48.852399" lon="10.127649">
        <ele>505</ele>
        <time>2026-02-26T16:16:04Z</time>
      </trkpt>
      <trkpt lat="48.852358" lon="10.127656">
        <ele>505.3</ele>
        <time>2026-02-26T16:16:05Z</time>
      </trkpt>
      <trkpt lat="48.852344" lon="10.127658">
        <ele>505.4</ele>
        <time>2026-02-26T16:16:06Z</time>
      </trkpt>
      <trkpt lat="48.852315" lon="10.127665">
        <ele>505.6</ele>
        <time>2026-02-26T16:16:07Z</time>
      </trkpt>
      <trkpt lat="48.852286" lon="10.127670">
        <ele>505.9</ele>
        <time>2026-02-26T16:16:08Z</time>
      </trkpt>
      <trkpt lat="48.852244" lon="10.127672">
        <ele>506.3</ele>
        <time>2026-02-26T16:16:09Z</time>
      </trkpt>
      <trkpt lat="48.852227" lon="10.127671">
        <ele>506.5</ele>
        <time>2026-02-26T16:16:10Z</time>
      </trkpt>
      <trkpt lat="48.852198" lon="10.127670">
        <ele>506.7</ele>
        <time>2026-02-26T16:16:11Z</time>
      </trkpt>
      <trkpt lat="48.852168" lon="10.127684">
        <ele>507.1</ele>
        <time>2026-02-26T16:16:12Z</time>
      </trkpt>
      <trkpt lat="48.852140" lon="10.127699">
        <ele>507.4</ele>
        <time>2026-02-26T16:16:13Z</time>
      </trkpt>
      <trkpt lat="48.852110" lon="10.127711">
        <ele>507.7</ele>
        <time>2026-02-26T16:16:14Z</time>
      </trkpt>
      <trkpt lat="48.852084" lon="10.127726">
        <ele>508</ele>
        <time>2026-02-26T16:16:15Z</time>
      </trkpt>
      <trkpt lat="48.852051" lon="10.127743">
        <ele>508.4</ele>
        <time>2026-02-26T16:16:16Z</time>
      </trkpt>
      <trkpt lat="48.852040" lon="10.127750">
        <ele>508.5</ele>
        <time>2026-02-26T16:16:17Z</time>
      </trkpt>
      <trkpt lat="48.852002" lon="10.127762">
        <ele>509</ele>
        <time>2026-02-26T16:16:18Z</time>
      </trkpt>
      <trkpt lat="48.851988" lon="10.127768">
        <ele>509.1</ele>
        <time>2026-02-26T16:16:19Z</time>
      </trkpt>
      <trkpt lat="48.851951" lon="10.127786">
        <ele>509.6</ele>
        <time>2026-02-26T16:16:20Z</time>
      </trkpt>
      <trkpt lat="48.851938" lon="10.127794">
        <ele>509.7</ele>
        <time>2026-02-26T16:16:21Z</time>
      </trkpt>
      <trkpt lat="48.851907" lon="10.127817">
        <ele>510.1</ele>
        <time>2026-02-26T16:16:22Z</time>
      </trkpt>
      <trkpt lat="48.851897" lon="10.127819">
        <ele>510.3</ele>
        <time>2026-02-26T16:16:23Z</time>
      </trkpt>
      <trkpt lat="48.851881" lon="10.127821">
        <ele>510.5</ele>
        <time>2026-02-26T16:16:24Z</time>
      </trkpt>
      <trkpt lat="48.851865" lon="10.127828">
        <ele>510.7</ele>
        <time>2026-02-26T16:16:25Z</time>
      </trkpt>
      <trkpt lat="48.851850" lon="10.127838">
        <ele>510.9</ele>
        <time>2026-02-26T16:16:26Z</time>
      </trkpt>
      <trkpt lat="48.851836" lon="10.127859">
        <ele>511.1</ele>
        <time>2026-02-26T16:16:27Z</time>
      </trkpt>
      <trkpt lat="48.851824" lon="10.127874">
        <ele>511.3</ele>
        <time>2026-02-26T16:16:28Z</time>
      </trkpt>
      <trkpt lat="48.851818" lon="10.127882">
        <ele>511.4</ele>
        <time>2026-02-26T16:16:29Z</time>
      </trkpt>
      <trkpt lat="48.851808" lon="10.127888">
        <ele>511.5</ele>
        <time>2026-02-26T16:16:30Z</time>
      </trkpt>
      <trkpt lat="48.851790" lon="10.127904">
        <ele>511.7</ele>
        <time>2026-02-26T16:16:31Z</time>
      </trkpt>
      <trkpt lat="48.851783" lon="10.127910">
        <ele>511.8</ele>
        <time>2026-02-26T16:16:32Z</time>
      </trkpt>
      <trkpt lat="48.851775" lon="10.127916">
        <ele>511.9</ele>
        <time>2026-02-26T16:16:33Z</time>
      </trkpt>
      <trkpt lat="48.851764" lon="10.127929">
        <ele>512.1</ele>
        <time>2026-02-26T16:16:34Z</time>
      </trkpt>
      <trkpt lat="48.851749" lon="10.127941">
        <ele>512.3</ele>
        <time>2026-02-26T16:16:35Z</time>
      </trkpt>
      <trkpt lat="48.851730" lon="10.127972">
        <ele>512.6</ele>
        <time>2026-02-26T16:16:36Z</time>
      </trkpt>
      <trkpt lat="48.851723" lon="10.127982">
        <ele>512.8</ele>
        <time>2026-02-26T16:16:37Z</time>
      </trkpt>
      <trkpt lat="48.851709" lon="10.127997">
        <ele>513</ele>
        <time>2026-02-26T16:16:38Z</time>
      </trkpt>
      <trkpt lat="48.851696" lon="10.128013">
        <ele>513.2</ele>
        <time>2026-02-26T16:16:39Z</time>
      </trkpt>
      <trkpt lat="48.851674" lon="10.128042">
        <ele>513.5</ele>
        <time>2026-02-26T16:16:40Z</time>
      </trkpt>
      <trkpt lat="48.851666" lon="10.128051">
        <ele>513.6</ele>
        <time>2026-02-26T16:16:41Z</time>
      </trkpt>
      <trkpt lat="48.851642" lon="10.128080">
        <ele>514</ele>
        <time>2026-02-26T16:16:42Z</time>
      </trkpt>
      <trkpt lat="48.851633" lon="10.128090">
        <ele>514.1</ele>
        <time>2026-02-26T16:16:43Z</time>
      </trkpt>
      <trkpt lat="48.851607" lon="10.128118">
        <ele>514.5</ele>
        <time>2026-02-26T16:16:44Z</time>
      </trkpt>
      <trkpt lat="48.851598" lon="10.128128">
        <ele>514.7</ele>
        <time>2026-02-26T16:16:45Z</time>
      </trkpt>
      <trkpt lat="48.851577" lon="10.128154">
        <ele>515</ele>
        <time>2026-02-26T16:16:46Z</time>
      </trkpt>
      <trkpt lat="48.851570" lon="10.128163">
        <ele>515.1</ele>
        <time>2026-02-26T16:16:47Z</time>
      </trkpt>
      <trkpt lat="48.851545" lon="10.128190">
        <ele>515.5</ele>
        <time>2026-02-26T16:16:48Z</time>
      </trkpt>
      <trkpt lat="48.851537" lon="10.128199">
        <ele>515.6</ele>
        <time>2026-02-26T16:16:49Z</time>
      </trkpt>
      <trkpt lat="48.851518" lon="10.128234">
        <ele>516</ele>
        <time>2026-02-26T16:16:50Z</time>
      </trkpt>
      <trkpt lat="48.851513" lon="10.128248">
        <ele>516.2</ele>
        <time>2026-02-26T16:16:51Z</time>
      </trkpt>
      <trkpt lat="48.851506" lon="10.128277">
        <ele>516.5</ele>
        <time>2026-02-26T16:16:52Z</time>
      </trkpt>
      <trkpt lat="48.851498" lon="10.128297">
        <ele>516.7</ele>
        <time>2026-02-26T16:16:53Z</time>
      </trkpt>
      <trkpt lat="48.851482" lon="10.128320">
        <ele>517</ele>
        <time>2026-02-26T16:16:54Z</time>
      </trkpt>
      <trkpt lat="48.851475" lon="10.128328">
        <ele>517.1</ele>
        <time>2026-02-26T16:16:55Z</time>
      </trkpt>
      <trkpt lat="48.851468" lon="10.128335">
        <ele>517.3</ele>
        <time>2026-02-26T16:16:56Z</time>
      </trkpt>
      <trkpt lat="48.851464" lon="10.128356">
        <ele>517.5</ele>
        <time>2026-02-26T16:16:57Z</time>
      </trkpt>
      <trkpt lat="48.851458" lon="10.128375">
        <ele>517.7</ele>
        <time>2026-02-26T16:16:58Z</time>
      </trkpt>
      <trkpt lat="48.851451" lon="10.128392">
        <ele>517.9</ele>
        <time>2026-02-26T16:16:59Z</time>
      </trkpt>
      <trkpt lat="48.851443" lon="10.128410">
        <ele>518.1</ele>
        <time>2026-02-26T16:17:00Z</time>
      </trkpt>
      <trkpt lat="48.851420" lon="10.128438">
        <ele>518.6</ele>
        <time>2026-02-26T16:17:01Z</time>
      </trkpt>
      <trkpt lat="48.851413" lon="10.128446">
        <ele>518.7</ele>
        <time>2026-02-26T16:17:02Z</time>
      </trkpt>
      <trkpt lat="48.851398" lon="10.128463">
        <ele>519</ele>
        <time>2026-02-26T16:17:03Z</time>
      </trkpt>
      <trkpt lat="48.851382" lon="10.128475">
        <ele>519.3</ele>
        <time>2026-02-26T16:17:04Z</time>
      </trkpt>
      <trkpt lat="48.851371" lon="10.128491">
        <ele>519.6</ele>
        <time>2026-02-26T16:17:05Z</time>
      </trkpt>
      <trkpt lat="48.851361" lon="10.128506">
        <ele>519.8</ele>
        <time>2026-02-26T16:17:06Z</time>
      </trkpt>
      <trkpt lat="48.851352" lon="10.128519">
        <ele>520</ele>
        <time>2026-02-26T16:17:07Z</time>
      </trkpt>
      <trkpt lat="48.851345" lon="10.128529">
        <ele>520.2</ele>
        <time>2026-02-26T16:17:08Z</time>
      </trkpt>
      <trkpt lat="48.851339" lon="10.128541">
        <ele>520.3</ele>
        <time>2026-02-26T16:17:09Z</time>
      </trkpt>
      <trkpt lat="48.851327" lon="10.128568">
        <ele>520.7</ele>
        <time>2026-02-26T16:17:10Z</time>
      </trkpt>
      <trkpt lat="48.851321" lon="10.128576">
        <ele>520.8</ele>
        <time>2026-02-26T16:17:11Z</time>
      </trkpt>
      <trkpt lat="48.851316" lon="10.128585">
        <ele>521</ele>
        <time>2026-02-26T16:17:12Z</time>
      </trkpt>
      <trkpt lat="48.851312" lon="10.128599">
        <ele>521.2</ele>
        <time>2026-02-26T16:17:13Z</time>
      </trkpt>
      <trkpt lat="48.851306" lon="10.128614">
        <ele>521.4</ele>
        <time>2026-02-26T16:17:14Z</time>
      </trkpt>
      <trkpt lat="48.851301" lon="10.128632">
        <ele>521.6</ele>
        <time>2026-02-26T16:17:15Z</time>
      </trkpt>
      <trkpt lat="48.851296" lon="10.128645">
        <ele>521.8</ele>
        <time>2026-02-26T16:17:16Z</time>
      </trkpt>
      <trkpt lat="48.851290" lon="10.128657">
        <ele>522</ele>
        <time>2026-02-26T16:17:17Z</time>
      </trkpt>
      <trkpt lat="48.851283" lon="10.128669">
        <ele>522.2</ele>
        <time>2026-02-26T16:17:18Z</time>
      </trkpt>
      <trkpt lat="48.851270" lon="10.128678">
        <ele>522.5</ele>
        <time>2026-02-26T16:17:19Z</time>
      </trkpt>
      <trkpt lat="48.851263" lon="10.128691">
        <ele>522.7</ele>
        <time>2026-02-26T16:17:20Z</time>
      </trkpt>
      <trkpt lat="48.851253" lon="10.128701">
        <ele>522.9</ele>
        <time>2026-02-26T16:17:21Z</time>
      </trkpt>
      <trkpt lat="48.851243" lon="10.128710">
        <ele>523.1</ele>
        <time>2026-02-26T16:17:22Z</time>
      </trkpt>
      <trkpt lat="48.851237" lon="10.128711">
        <ele>523.3</ele>
        <time>2026-02-26T16:17:23Z</time>
      </trkpt>
      <trkpt lat="48.851226" lon="10.128720">
        <ele>523.5</ele>
        <time>2026-02-26T16:17:24Z</time>
      </trkpt>
      <trkpt lat="48.851214" lon="10.128728">
        <ele>523.8</ele>
        <time>2026-02-26T16:17:25Z</time>
      </trkpt>
      <trkpt lat="48.851205" lon="10.128738">
        <ele>524</ele>
        <time>2026-02-26T16:17:26Z</time>
      </trkpt>
      <trkpt lat="48.851197" lon="10.128749">
        <ele>524.2</ele>
        <time>2026-02-26T16:17:27Z</time>
      </trkpt>
      <trkpt lat="48.851187" lon="10.128760">
        <ele>524.5</ele>
        <time>2026-02-26T16:17:28Z</time>
      </trkpt>
      <trkpt lat="48.851177" lon="10.128769">
        <ele>524.7</ele>
        <time>2026-02-26T16:17:29Z</time>
      </trkpt>
      <trkpt lat="48.851167" lon="10.128776">
        <ele>524.9</ele>
        <time>2026-02-26T16:17:30Z</time>
      </trkpt>
      <trkpt lat="48.851151" lon="10.128785">
        <ele>525.2</ele>
        <time>2026-02-26T16:17:31Z</time>
      </trkpt>
      <trkpt lat="48.851139" lon="10.128795">
        <ele>525.5</ele>
        <time>2026-02-26T16:17:32Z</time>
      </trkpt>
      <trkpt lat="48.851118" lon="10.128826">
        <ele>526.1</ele>
        <time>2026-02-26T16:17:33Z</time>
      </trkpt>
      <trkpt lat="48.851111" lon="10.128836">
        <ele>526.3</ele>
        <time>2026-02-26T16:17:34Z</time>
      </trkpt>
      <trkpt lat="48.851101" lon="10.128854">
        <ele>526.6</ele>
        <time>2026-02-26T16:17:35Z</time>
      </trkpt>
      <trkpt lat="48.851088" lon="10.128872">
        <ele>526.9</ele>
        <time>2026-02-26T16:17:36Z</time>
      </trkpt>
      <trkpt lat="48.851078" lon="10.128879">
        <ele>527.1</ele>
        <time>2026-02-26T16:17:37Z</time>
      </trkpt>
      <trkpt lat="48.851068" lon="10.128878">
        <ele>527.3</ele>
        <time>2026-02-26T16:17:38Z</time>
      </trkpt>
      <trkpt lat="48.851054" lon="10.128886">
        <ele>527.5</ele>
        <time>2026-02-26T16:17:39Z</time>
      </trkpt>
      <trkpt lat="48.851040" lon="10.128899">
        <ele>527.8</ele>
        <time>2026-02-26T16:17:40Z</time>
      </trkpt>
      <trkpt lat="48.851028" lon="10.128908">
        <ele>528</ele>
        <time>2026-02-26T16:17:41Z</time>
      </trkpt>
      <trkpt lat="48.851016" lon="10.128920">
        <ele>528.3</ele>
        <time>2026-02-26T16:17:42Z</time>
      </trkpt>
      <trkpt lat="48.851004" lon="10.128931">
        <ele>528.5</ele>
        <time>2026-02-26T16:17:43Z</time>
      </trkpt>
      <trkpt lat="48.850994" lon="10.128941">
        <ele>528.7</ele>
        <time>2026-02-26T16:17:44Z</time>
      </trkpt>
      <trkpt lat="48.850979" lon="10.128960">
        <ele>529</ele>
        <time>2026-02-26T16:17:45Z</time>
      </trkpt>
      <trkpt lat="48.850954" lon="10.128985">
        <ele>529.5</ele>
        <time>2026-02-26T16:17:46Z</time>
      </trkpt>
      <trkpt lat="48.850945" lon="10.128990">
        <ele>529.6</ele>
        <time>2026-02-26T16:17:47Z</time>
      </trkpt>
      <trkpt lat="48.850930" lon="10.128996">
        <ele>529.9</ele>
        <time>2026-02-26T16:17:48Z</time>
      </trkpt>
      <trkpt lat="48.850917" lon="10.129003">
        <ele>530.1</ele>
        <time>2026-02-26T16:17:49Z</time>
      </trkpt>
      <trkpt lat="48.850904" lon="10.129010">
        <ele>530.3</ele>
        <time>2026-02-26T16:17:50Z</time>
      </trkpt>
      <trkpt lat="48.850890" lon="10.129013">
        <ele>530.5</ele>
        <time>2026-02-26T16:17:51Z</time>
      </trkpt>
      <trkpt lat="48.850877" lon="10.129023">
        <ele>530.7</ele>
        <time>2026-02-26T16:17:52Z</time>
      </trkpt>
      <trkpt lat="48.850869" lon="10.129029">
        <ele>530.8</ele>
        <time>2026-02-26T16:17:53Z</time>
      </trkpt>
      <trkpt lat="48.850863" lon="10.129033">
        <ele>530.9</ele>
        <time>2026-02-26T16:17:54Z</time>
      </trkpt>
      <trkpt lat="48.850857" lon="10.129036">
        <ele>531</ele>
        <time>2026-02-26T16:17:55Z</time>
      </trkpt>
      <trkpt lat="48.850850" lon="10.129039">
        <ele>531.1</ele>
        <time>2026-02-26T16:17:56Z</time>
      </trkpt>
      <trkpt lat="48.850843" lon="10.129038">
        <ele>531.2</ele>
        <time>2026-02-26T16:17:57Z</time>
      </trkpt>
      <trkpt lat="48.850836" lon="10.129044">
        <ele>531.3</ele>
        <time>2026-02-26T16:17:58Z</time>
      </trkpt>
      <trkpt lat="48.850815" lon="10.129057">
        <ele>531.7</ele>
        <time>2026-02-26T16:17:59Z</time>
      </trkpt>
      <trkpt lat="48.850807" lon="10.129061">
        <ele>531.8</ele>
        <time>2026-02-26T16:18:00Z</time>
      </trkpt>
      <trkpt lat="48.850799" lon="10.129064">
        <ele>531.9</ele>
        <time>2026-02-26T16:18:01Z</time>
      </trkpt>
      <trkpt lat="48.850772" lon="10.129080">
        <ele>532.3</ele>
        <time>2026-02-26T16:18:02Z</time>
      </trkpt>
      <trkpt lat="48.850763" lon="10.129085">
        <ele>532.5</ele>
        <time>2026-02-26T16:18:03Z</time>
      </trkpt>
      <trkpt lat="48.850751" lon="10.129089">
        <ele>532.7</ele>
        <time>2026-02-26T16:18:04Z</time>
      </trkpt>
      <trkpt lat="48.850734" lon="10.129085">
        <ele>532.9</ele>
        <time>2026-02-26T16:18:05Z</time>
      </trkpt>
      <trkpt lat="48.850707" lon="10.129081">
        <ele>533.3</ele>
        <time>2026-02-26T16:18:06Z</time>
      </trkpt>
      <trkpt lat="48.850697" lon="10.129081">
        <ele>533.5</ele>
        <time>2026-02-26T16:18:07Z</time>
      </trkpt>
      <trkpt lat="48.850680" lon="10.129084">
        <ele>533.7</ele>
        <time>2026-02-26T16:18:08Z</time>
      </trkpt>
      <trkpt lat="48.850670" lon="10.129081">
        <ele>533.8</ele>
        <time>2026-02-26T16:18:09Z</time>
      </trkpt>
      <trkpt lat="48.850658" lon="10.129075">
        <ele>534</ele>
        <time>2026-02-26T16:18:10Z</time>
      </trkpt>
      <trkpt lat="48.850641" lon="10.129074">
        <ele>534.3</ele>
        <time>2026-02-26T16:18:11Z</time>
      </trkpt>
      <trkpt lat="48.850625" lon="10.129076">
        <ele>534.5</ele>
        <time>2026-02-26T16:18:12Z</time>
      </trkpt>
      <trkpt lat="48.850611" lon="10.129079">
        <ele>534.7</ele>
        <time>2026-02-26T16:18:13Z</time>
      </trkpt>
      <trkpt lat="48.850597" lon="10.129085">
        <ele>534.9</ele>
        <time>2026-02-26T16:18:14Z</time>
      </trkpt>
      <trkpt lat="48.850581" lon="10.129090">
        <ele>535.1</ele>
        <time>2026-02-26T16:18:15Z</time>
      </trkpt>
      <trkpt lat="48.850569" lon="10.129092">
        <ele>535.3</ele>
        <time>2026-02-26T16:18:16Z</time>
      </trkpt>
      <trkpt lat="48.850558" lon="10.129095">
        <ele>535.5</ele>
        <time>2026-02-26T16:18:17Z</time>
      </trkpt>
      <trkpt lat="48.850548" lon="10.129100">
        <ele>535.6</ele>
        <time>2026-02-26T16:18:18Z</time>
      </trkpt>
      <trkpt lat="48.850538" lon="10.129110">
        <ele>535.8</ele>
        <time>2026-02-26T16:18:19Z</time>
      </trkpt>
      <trkpt lat="48.850527" lon="10.129115">
        <ele>535.9</ele>
        <time>2026-02-26T16:18:20Z</time>
      </trkpt>
      <trkpt lat="48.850516" lon="10.129114">
        <ele>536.1</ele>
        <time>2026-02-26T16:18:21Z</time>
      </trkpt>
      <trkpt lat="48.850502" lon="10.129112">
        <ele>536.3</ele>
        <time>2026-02-26T16:18:22Z</time>
      </trkpt>
      <trkpt lat="48.850484" lon="10.129116">
        <ele>536.5</ele>
        <time>2026-02-26T16:18:23Z</time>
      </trkpt>
      <trkpt lat="48.850473" lon="10.129121">
        <ele>536.7</ele>
        <time>2026-02-26T16:18:24Z</time>
      </trkpt>
      <trkpt lat="48.850458" lon="10.129130">
        <ele>536.9</ele>
        <time>2026-02-26T16:18:25Z</time>
      </trkpt>
      <trkpt lat="48.850440" lon="10.129139">
        <ele>537.2</ele>
        <time>2026-02-26T16:18:26Z</time>
      </trkpt>
      <trkpt lat="48.850427" lon="10.129142">
        <ele>537.3</ele>
        <time>2026-02-26T16:18:27Z</time>
      </trkpt>
      <trkpt lat="48.850412" lon="10.129140">
        <ele>537.5</ele>
        <time>2026-02-26T16:18:28Z</time>
      </trkpt>
      <trkpt lat="48.850398" lon="10.129138">
        <ele>537.7</ele>
        <time>2026-02-26T16:18:29Z</time>
      </trkpt>
      <trkpt lat="48.850371" lon="10.129140">
        <ele>538</ele>
        <time>2026-02-26T16:18:30Z</time>
      </trkpt>
      <trkpt lat="48.850361" lon="10.129140">
        <ele>538.1</ele>
        <time>2026-02-26T16:18:31Z</time>
      </trkpt>
      <trkpt lat="48.850333" lon="10.129143">
        <ele>538.4</ele>
        <time>2026-02-26T16:18:32Z</time>
      </trkpt>
      <trkpt lat="48.850323" lon="10.129144">
        <ele>538.5</ele>
        <time>2026-02-26T16:18:33Z</time>
      </trkpt>
      <trkpt lat="48.850293" lon="10.129140">
        <ele>538.8</ele>
        <time>2026-02-26T16:18:34Z</time>
      </trkpt>
      <trkpt lat="48.850283" lon="10.129136">
        <ele>538.9</ele>
        <time>2026-02-26T16:18:35Z</time>
      </trkpt>
      <trkpt lat="48.850256" lon="10.129121">
        <ele>539.1</ele>
        <time>2026-02-26T16:18:36Z</time>
      </trkpt>
      <trkpt lat="48.850247" lon="10.129115">
        <ele>539.2</ele>
        <time>2026-02-26T16:18:37Z</time>
      </trkpt>
      <trkpt lat="48.850214" lon="10.129121">
        <ele>539.4</ele>
        <time>2026-02-26T16:18:38Z</time>
      </trkpt>
      <trkpt lat="48.850203" lon="10.129127">
        <ele>539.5</ele>
        <time>2026-02-26T16:18:39Z</time>
      </trkpt>
      <trkpt lat="48.850174" lon="10.129142">
        <ele>539.7</ele>
        <time>2026-02-26T16:18:40Z</time>
      </trkpt>
      <trkpt lat="48.850163" lon="10.129147">
        <ele>539.8</ele>
        <time>2026-02-26T16:18:41Z</time>
      </trkpt>
      <trkpt lat="48.850131" lon="10.129151">
        <ele>540</ele>
        <time>2026-02-26T16:18:42Z</time>
      </trkpt>
      <trkpt lat="48.850120" lon="10.129151">
        <ele>540.1</ele>
        <time>2026-02-26T16:18:43Z</time>
      </trkpt>
      <trkpt lat="48.850089" lon="10.129164">
        <ele>540.3</ele>
        <time>2026-02-26T16:18:44Z</time>
      </trkpt>
      <trkpt lat="48.850078" lon="10.129168">
        <ele>540.4</ele>
        <time>2026-02-26T16:18:45Z</time>
      </trkpt>
      <trkpt lat="48.850048" lon="10.129173">
        <ele>540.5</ele>
        <time>2026-02-26T16:18:46Z</time>
      </trkpt>
      <trkpt lat="48.850038" lon="10.129174">
        <ele>540.6</ele>
        <time>2026-02-26T16:18:47Z</time>
      </trkpt>
      <trkpt lat="48.850019" lon="10.129181">
        <ele>540.7</ele>
        <time>2026-02-26T16:18:48Z</time>
      </trkpt>
      <trkpt lat="48.850002" lon="10.129184">
        <ele>540.8</ele>
        <time>2026-02-26T16:18:49Z</time>
      </trkpt>
      <trkpt lat="48.849974" lon="10.129184">
        <ele>541</ele>
        <time>2026-02-26T16:18:50Z</time>
      </trkpt>
      <trkpt lat="48.849965" lon="10.129184">
        <ele>541.1</ele>
        <time>2026-02-26T16:18:51Z</time>
      </trkpt>
      <trkpt lat="48.849934" lon="10.129178">
        <ele>541.3</ele>
        <time>2026-02-26T16:18:52Z</time>
      </trkpt>
      <trkpt lat="48.849924" lon="10.129176">
        <ele>541.4</ele>
        <time>2026-02-26T16:18:53Z</time>
      </trkpt>
      <trkpt lat="48.849907" lon="10.129174">
        <ele>541.5</ele>
        <time>2026-02-26T16:18:54Z</time>
      </trkpt>
      <trkpt lat="48.849890" lon="10.129171">
        <ele>541.7</ele>
        <time>2026-02-26T16:18:55Z</time>
      </trkpt>
      <trkpt lat="48.849873" lon="10.129170">
        <ele>541.8</ele>
        <time>2026-02-26T16:18:56Z</time>
      </trkpt>
      <trkpt lat="48.849857" lon="10.129173">
        <ele>542</ele>
        <time>2026-02-26T16:18:57Z</time>
      </trkpt>
      <trkpt lat="48.849841" lon="10.129178">
        <ele>542.2</ele>
        <time>2026-02-26T16:18:58Z</time>
      </trkpt>
      <trkpt lat="48.849825" lon="10.129182">
        <ele>542.3</ele>
        <time>2026-02-26T16:18:59Z</time>
      </trkpt>
      <trkpt lat="48.849810" lon="10.129197">
        <ele>542.5</ele>
        <time>2026-02-26T16:19:00Z</time>
      </trkpt>
      <trkpt lat="48.849797" lon="10.129213">
        <ele>542.7</ele>
        <time>2026-02-26T16:19:01Z</time>
      </trkpt>
      <trkpt lat="48.849792" lon="10.129272">
        <ele>543.2</ele>
        <time>2026-02-26T16:19:02Z</time>
      </trkpt>
      <trkpt lat="48.849787" lon="10.129291">
        <ele>543.3</ele>
        <time>2026-02-26T16:19:03Z</time>
      </trkpt>
      <trkpt lat="48.849769" lon="10.129332">
        <ele>543.7</ele>
        <time>2026-02-26T16:19:04Z</time>
      </trkpt>
      <trkpt lat="48.849762" lon="10.129343">
        <ele>543.8</ele>
        <time>2026-02-26T16:19:05Z</time>
      </trkpt>
      <trkpt lat="48.849745" lon="10.129357">
        <ele>544.1</ele>
        <time>2026-02-26T16:19:06Z</time>
      </trkpt>
      <trkpt lat="48.849728" lon="10.129363">
        <ele>544.3</ele>
        <time>2026-02-26T16:19:07Z</time>
      </trkpt>
      <trkpt lat="48.849699" lon="10.129368">
        <ele>544.6</ele>
        <time>2026-02-26T16:19:08Z</time>
      </trkpt>
      <trkpt lat="48.849689" lon="10.129367">
        <ele>544.7</ele>
        <time>2026-02-26T16:19:09Z</time>
      </trkpt>
      <trkpt lat="48.849656" lon="10.129357">
        <ele>545.2</ele>
        <time>2026-02-26T16:19:10Z</time>
      </trkpt>
      <trkpt lat="48.849641" lon="10.129352">
        <ele>545.2</ele>
        <time>2026-02-26T16:19:11Z</time>
      </trkpt>
      <trkpt lat="48.849611" lon="10.129334">
        <ele>545.3</ele>
        <time>2026-02-26T16:19:12Z</time>
      </trkpt>
      <trkpt lat="48.849587" lon="10.129314">
        <ele>545.4</ele>
        <time>2026-02-26T16:19:13Z</time>
      </trkpt>
      <trkpt lat="48.849556" lon="10.129278">
        <ele>545.5</ele>
        <time>2026-02-26T16:19:14Z</time>
      </trkpt>
      <trkpt lat="48.849546" lon="10.129266">
        <ele>545.6</ele>
        <time>2026-02-26T16:19:15Z</time>
      </trkpt>
      <trkpt lat="48.849515" lon="10.129229">
        <ele>545.7</ele>
        <time>2026-02-26T16:19:16Z</time>
      </trkpt>
      <trkpt lat="48.849505" lon="10.129217">
        <ele>545.8</ele>
        <time>2026-02-26T16:19:17Z</time>
      </trkpt>
      <trkpt lat="48.849475" lon="10.129180">
        <ele>545.9</ele>
        <time>2026-02-26T16:19:18Z</time>
      </trkpt>
      <trkpt lat="48.849465" lon="10.129167">
        <ele>545.9</ele>
        <time>2026-02-26T16:19:19Z</time>
      </trkpt>
      <trkpt lat="48.849435" lon="10.129140">
        <ele>546.1</ele>
        <time>2026-02-26T16:19:20Z</time>
      </trkpt>
      <trkpt lat="48.849424" lon="10.129132">
        <ele>546.1</ele>
        <time>2026-02-26T16:19:21Z</time>
      </trkpt>
      <trkpt lat="48.849394" lon="10.129102">
        <ele>546.3</ele>
        <time>2026-02-26T16:19:22Z</time>
      </trkpt>
      <trkpt lat="48.849383" lon="10.129092">
        <ele>546.3</ele>
        <time>2026-02-26T16:19:23Z</time>
      </trkpt>
      <trkpt lat="48.849351" lon="10.129067">
        <ele>546.4</ele>
        <time>2026-02-26T16:19:24Z</time>
      </trkpt>
      <trkpt lat="48.849340" lon="10.129060">
        <ele>546.5</ele>
        <time>2026-02-26T16:19:25Z</time>
      </trkpt>
      <trkpt lat="48.849308" lon="10.129039">
        <ele>546.6</ele>
        <time>2026-02-26T16:19:26Z</time>
      </trkpt>
      <trkpt lat="48.849297" lon="10.129032">
        <ele>546.6</ele>
        <time>2026-02-26T16:19:27Z</time>
      </trkpt>
      <trkpt lat="48.849265" lon="10.129009">
        <ele>546.7</ele>
        <time>2026-02-26T16:19:28Z</time>
      </trkpt>
      <trkpt lat="48.849254" lon="10.129004">
        <ele>546.7</ele>
        <time>2026-02-26T16:19:29Z</time>
      </trkpt>
      <trkpt lat="48.849220" lon="10.128983">
        <ele>546.8</ele>
        <time>2026-02-26T16:19:30Z</time>
      </trkpt>
      <trkpt lat="48.849209" lon="10.128975">
        <ele>546.8</ele>
        <time>2026-02-26T16:19:31Z</time>
      </trkpt>
      <trkpt lat="48.849174" lon="10.128954">
        <ele>546.8</ele>
        <time>2026-02-26T16:19:32Z</time>
      </trkpt>
      <trkpt lat="48.849162" lon="10.128947">
        <ele>546.8</ele>
        <time>2026-02-26T16:19:33Z</time>
      </trkpt>
      <trkpt lat="48.849137" lon="10.128911">
        <ele>546.8</ele>
        <time>2026-02-26T16:19:34Z</time>
      </trkpt>
      <trkpt lat="48.849129" lon="10.128898">
        <ele>546.8</ele>
        <time>2026-02-26T16:19:35Z</time>
      </trkpt>
      <trkpt lat="48.849108" lon="10.128861">
        <ele>546.8</ele>
        <time>2026-02-26T16:19:36Z</time>
      </trkpt>
      <trkpt lat="48.849101" lon="10.128849">
        <ele>546.8</ele>
        <time>2026-02-26T16:19:37Z</time>
      </trkpt>
      <trkpt lat="48.849080" lon="10.128813">
        <ele>546.8</ele>
        <time>2026-02-26T16:19:38Z</time>
      </trkpt>
      <trkpt lat="48.849072" lon="10.128802">
        <ele>546.8</ele>
        <time>2026-02-26T16:19:39Z</time>
      </trkpt>
      <trkpt lat="48.849053" lon="10.128766">
        <ele>546.7</ele>
        <time>2026-02-26T16:19:40Z</time>
      </trkpt>
      <trkpt lat="48.849036" lon="10.128713">
        <ele>546.7</ele>
        <time>2026-02-26T16:19:41Z</time>
      </trkpt>
      <trkpt lat="48.849032" lon="10.128696">
        <ele>546.7</ele>
        <time>2026-02-26T16:19:42Z</time>
      </trkpt>
      <trkpt lat="48.849011" lon="10.128661">
        <ele>546.6</ele>
        <time>2026-02-26T16:19:43Z</time>
      </trkpt>
      <trkpt lat="48.848985" lon="10.128630">
        <ele>546.6</ele>
        <time>2026-02-26T16:19:44Z</time>
      </trkpt>
      <trkpt lat="48.848961" lon="10.128596">
        <ele>546.6</ele>
        <time>2026-02-26T16:19:45Z</time>
      </trkpt>
      <trkpt lat="48.848915" lon="10.128539">
        <ele>546.5</ele>
        <time>2026-02-26T16:19:46Z</time>
      </trkpt>
      <trkpt lat="48.848883" lon="10.128497">
        <ele>546.4</ele>
        <time>2026-02-26T16:19:47Z</time>
      </trkpt>
      <trkpt lat="48.848871" lon="10.128482">
        <ele>546.4</ele>
        <time>2026-02-26T16:19:48Z</time>
      </trkpt>
      <trkpt lat="48.848848" lon="10.128457">
        <ele>546.4</ele>
        <time>2026-02-26T16:19:49Z</time>
      </trkpt>
      <trkpt lat="48.848824" lon="10.128434">
        <ele>546.3</ele>
        <time>2026-02-26T16:19:50Z</time>
      </trkpt>
      <trkpt lat="48.848799" lon="10.128408">
        <ele>546.3</ele>
        <time>2026-02-26T16:19:51Z</time>
      </trkpt>
      <trkpt lat="48.848771" lon="10.128385">
        <ele>546.2</ele>
        <time>2026-02-26T16:19:52Z</time>
      </trkpt>
      <trkpt lat="48.848744" lon="10.128369">
        <ele>546.2</ele>
        <time>2026-02-26T16:19:53Z</time>
      </trkpt>
      <trkpt lat="48.848718" lon="10.128343">
        <ele>546.1</ele>
        <time>2026-02-26T16:19:54Z</time>
      </trkpt>
      <trkpt lat="48.848694" lon="10.128317">
        <ele>546.1</ele>
        <time>2026-02-26T16:19:55Z</time>
      </trkpt>
      <trkpt lat="48.848669" lon="10.128293">
        <ele>546</ele>
        <time>2026-02-26T16:19:56Z</time>
      </trkpt>
      <trkpt lat="48.848643" lon="10.128270">
        <ele>546</ele>
        <time>2026-02-26T16:19:57Z</time>
      </trkpt>
      <trkpt lat="48.848617" lon="10.128245">
        <ele>545.9</ele>
        <time>2026-02-26T16:19:58Z</time>
      </trkpt>
      <trkpt lat="48.848586" lon="10.128233">
        <ele>545.8</ele>
        <time>2026-02-26T16:19:59Z</time>
      </trkpt>
      <trkpt lat="48.848554" lon="10.128222">
        <ele>545.8</ele>
        <time>2026-02-26T16:20:00Z</time>
      </trkpt>
      <trkpt lat="48.848524" lon="10.128211">
        <ele>545.7</ele>
        <time>2026-02-26T16:20:01Z</time>
      </trkpt>
      <trkpt lat="48.848495" lon="10.128204">
        <ele>545.6</ele>
        <time>2026-02-26T16:20:02Z</time>
      </trkpt>
      <trkpt lat="48.848463" lon="10.128193">
        <ele>545.6</ele>
        <time>2026-02-26T16:20:03Z</time>
      </trkpt>
      <trkpt lat="48.848430" lon="10.128175">
        <ele>545.6</ele>
        <time>2026-02-26T16:20:04Z</time>
      </trkpt>
      <trkpt lat="48.848394" lon="10.128155">
        <ele>545.5</ele>
        <time>2026-02-26T16:20:05Z</time>
      </trkpt>
      <trkpt lat="48.848357" lon="10.128136">
        <ele>545.5</ele>
        <time>2026-02-26T16:20:06Z</time>
      </trkpt>
      <trkpt lat="48.848329" lon="10.128128">
        <ele>545.5</ele>
        <time>2026-02-26T16:20:07Z</time>
      </trkpt>
      <trkpt lat="48.848297" lon="10.128124">
        <ele>545.5</ele>
        <time>2026-02-26T16:20:08Z</time>
      </trkpt>
      <trkpt lat="48.848262" lon="10.128117">
        <ele>545.5</ele>
        <time>2026-02-26T16:20:09Z</time>
      </trkpt>
      <trkpt lat="48.848230" lon="10.128119">
        <ele>545.5</ele>
        <time>2026-02-26T16:20:10Z</time>
      </trkpt>
      <trkpt lat="48.848218" lon="10.128119">
        <ele>545.4</ele>
        <time>2026-02-26T16:20:11Z</time>
      </trkpt>
      <trkpt lat="48.848182" lon="10.128098">
        <ele>545.4</ele>
        <time>2026-02-26T16:20:12Z</time>
      </trkpt>
      <trkpt lat="48.848170" lon="10.128093">
        <ele>545.4</ele>
        <time>2026-02-26T16:20:13Z</time>
      </trkpt>
      <trkpt lat="48.848143" lon="10.128081">
        <ele>545.3</ele>
        <time>2026-02-26T16:20:14Z</time>
      </trkpt>
      <trkpt lat="48.848109" lon="10.128063">
        <ele>545.2</ele>
        <time>2026-02-26T16:20:15Z</time>
      </trkpt>
      <trkpt lat="48.848074" lon="10.128046">
        <ele>545.1</ele>
        <time>2026-02-26T16:20:16Z</time>
      </trkpt>
      <trkpt lat="48.848036" lon="10.128026">
        <ele>544.9</ele>
        <time>2026-02-26T16:20:17Z</time>
      </trkpt>
      <trkpt lat="48.847997" lon="10.128004">
        <ele>544.8</ele>
        <time>2026-02-26T16:20:18Z</time>
      </trkpt>
      <trkpt lat="48.847962" lon="10.127975">
        <ele>544.7</ele>
        <time>2026-02-26T16:20:19Z</time>
      </trkpt>
      <trkpt lat="48.847914" lon="10.127945">
        <ele>544.5</ele>
        <time>2026-02-26T16:20:20Z</time>
      </trkpt>
      <trkpt lat="48.847878" lon="10.127907">
        <ele>544.3</ele>
        <time>2026-02-26T16:20:21Z</time>
      </trkpt>
      <trkpt lat="48.847841" lon="10.127845">
        <ele>544.1</ele>
        <time>2026-02-26T16:20:22Z</time>
      </trkpt>
      <trkpt lat="48.847810" lon="10.127785">
        <ele>544</ele>
        <time>2026-02-26T16:20:23Z</time>
      </trkpt>
      <trkpt lat="48.847780" lon="10.127720">
        <ele>543.8</ele>
        <time>2026-02-26T16:20:24Z</time>
      </trkpt>
      <trkpt lat="48.847748" lon="10.127669">
        <ele>543.7</ele>
        <time>2026-02-26T16:20:25Z</time>
      </trkpt>
      <trkpt lat="48.847718" lon="10.127612">
        <ele>543.6</ele>
        <time>2026-02-26T16:20:26Z</time>
      </trkpt>
      <trkpt lat="48.847691" lon="10.127551">
        <ele>543.5</ele>
        <time>2026-02-26T16:20:27Z</time>
      </trkpt>
      <trkpt lat="48.847666" lon="10.127506">
        <ele>543.4</ele>
        <time>2026-02-26T16:20:28Z</time>
      </trkpt>
      <trkpt lat="48.847638" lon="10.127460">
        <ele>543.4</ele>
        <time>2026-02-26T16:20:29Z</time>
      </trkpt>
      <trkpt lat="48.847612" lon="10.127418">
        <ele>543.3</ele>
        <time>2026-02-26T16:20:30Z</time>
      </trkpt>
      <trkpt lat="48.847587" lon="10.127375">
        <ele>543.3</ele>
        <time>2026-02-26T16:20:31Z</time>
      </trkpt>
      <trkpt lat="48.847563" lon="10.127326">
        <ele>543.3</ele>
        <time>2026-02-26T16:20:32Z</time>
      </trkpt>
      <trkpt lat="48.847540" lon="10.127280">
        <ele>543.3</ele>
        <time>2026-02-26T16:20:33Z</time>
      </trkpt>
      <trkpt lat="48.847512" lon="10.127240">
        <ele>543.3</ele>
        <time>2026-02-26T16:20:34Z</time>
      </trkpt>
      <trkpt lat="48.847484" lon="10.127205">
        <ele>543.3</ele>
        <time>2026-02-26T16:20:35Z</time>
      </trkpt>
      <trkpt lat="48.847458" lon="10.127169">
        <ele>543.3</ele>
        <time>2026-02-26T16:20:36Z</time>
      </trkpt>
      <trkpt lat="48.847435" lon="10.127131">
        <ele>543.3</ele>
        <time>2026-02-26T16:20:37Z</time>
      </trkpt>
      <trkpt lat="48.847414" lon="10.127093">
        <ele>543.4</ele>
        <time>2026-02-26T16:20:38Z</time>
      </trkpt>
      <trkpt lat="48.847392" lon="10.127060">
        <ele>543.4</ele>
        <time>2026-02-26T16:20:39Z</time>
      </trkpt>
      <trkpt lat="48.847367" lon="10.127019">
        <ele>543.4</ele>
        <time>2026-02-26T16:20:40Z</time>
      </trkpt>
      <trkpt lat="48.847359" lon="10.127007">
        <ele>543.5</ele>
        <time>2026-02-26T16:20:41Z</time>
      </trkpt>
      <trkpt lat="48.847349" lon="10.126990">
        <ele>543.5</ele>
        <time>2026-02-26T16:20:42Z</time>
      </trkpt>
      <trkpt lat="48.847346" lon="10.126976">
        <ele>543.5</ele>
        <time>2026-02-26T16:20:43Z</time>
      </trkpt>
      <trkpt lat="48.847348" lon="10.126965">
        <ele>543.5</ele>
        <time>2026-02-26T16:20:44Z</time>
      </trkpt>
      <trkpt lat="48.847345" lon="10.126949">
        <ele>543.5</ele>
        <time>2026-02-26T16:20:45Z</time>
      </trkpt>
      <trkpt lat="48.847339" lon="10.126940">
        <ele>543.5</ele>
        <time>2026-02-26T16:20:46Z</time>
      </trkpt>
      <trkpt lat="48.847332" lon="10.126932">
        <ele>543.5</ele>
        <time>2026-02-26T16:20:47Z</time>
      </trkpt>
      <trkpt lat="48.847325" lon="10.126924">
        <ele>543.5</ele>
        <time>2026-02-26T16:20:48Z</time>
      </trkpt>
      <trkpt lat="48.847319" lon="10.126916">
        <ele>543.5</ele>
        <time>2026-02-26T16:20:49Z</time>
      </trkpt>
      <trkpt lat="48.847312" lon="10.126907">
        <ele>543.6</ele>
        <time>2026-02-26T16:20:50Z</time>
      </trkpt>
      <trkpt lat="48.847306" lon="10.126899">
        <ele>543.6</ele>
        <time>2026-02-26T16:20:51Z</time>
      </trkpt>
      <trkpt lat="48.847299" lon="10.126891">
        <ele>543.6</ele>
        <time>2026-02-26T16:20:52Z</time>
      </trkpt>
      <trkpt lat="48.847292" lon="10.126883">
        <ele>543.6</ele>
        <time>2026-02-26T16:20:53Z</time>
      </trkpt>
      <trkpt lat="48.847286" lon="10.126874">
        <ele>543.6</ele>
        <time>2026-02-26T16:22:56Z</time>
      </trkpt>
      <trkpt lat="48.847279" lon="10.126866">
        <ele>543.6</ele>
        <time>2026-02-26T16:22:57Z</time>
      </trkpt>
      <trkpt lat="48.847261" lon="10.126831">
        <ele>543.6</ele>
        <time>2026-02-26T16:22:58Z</time>
      </trkpt>
      <trkpt lat="48.847244" lon="10.126795">
        <ele>543.6</ele>
        <time>2026-02-26T16:22:59Z</time>
      </trkpt>
      <trkpt lat="48.847224" lon="10.126760">
        <ele>543.6</ele>
        <time>2026-02-26T16:23:00Z</time>
      </trkpt>
      <trkpt lat="48.847203" lon="10.126721">
        <ele>543.6</ele>
        <time>2026-02-26T16:23:01Z</time>
      </trkpt>
      <trkpt lat="48.847183" lon="10.126682">
        <ele>543.5</ele>
        <time>2026-02-26T16:23:02Z</time>
      </trkpt>
      <trkpt lat="48.847159" lon="10.126644">
        <ele>543.5</ele>
        <time>2026-02-26T16:23:03Z</time>
      </trkpt>
      <trkpt lat="48.847135" lon="10.126607">
        <ele>543.4</ele>
        <time>2026-02-26T16:23:04Z</time>
      </trkpt>
      <trkpt lat="48.847113" lon="10.126566">
        <ele>543.4</ele>
        <time>2026-02-26T16:23:05Z</time>
      </trkpt>
      <trkpt lat="48.847093" lon="10.126518">
        <ele>543.3</ele>
        <time>2026-02-26T16:23:06Z</time>
      </trkpt>
      <trkpt lat="48.847073" lon="10.126468">
        <ele>543.3</ele>
        <time>2026-02-26T16:23:07Z</time>
      </trkpt>
      <trkpt lat="48.847049" lon="10.126424">
        <ele>543.2</ele>
        <time>2026-02-26T16:23:08Z</time>
      </trkpt>
      <trkpt lat="48.847027" lon="10.126376">
        <ele>543.1</ele>
        <time>2026-02-26T16:23:09Z</time>
      </trkpt>
      <trkpt lat="48.847007" lon="10.126322">
        <ele>543.1</ele>
        <time>2026-02-26T16:23:10Z</time>
      </trkpt>
      <trkpt lat="48.846994" lon="10.126263">
        <ele>543</ele>
        <time>2026-02-26T16:23:11Z</time>
      </trkpt>
      <trkpt lat="48.846980" lon="10.126205">
        <ele>542.9</ele>
        <time>2026-02-26T16:23:12Z</time>
      </trkpt>
      <trkpt lat="48.846961" lon="10.126148">
        <ele>542.9</ele>
        <time>2026-02-26T16:23:13Z</time>
      </trkpt>
      <trkpt lat="48.846939" lon="10.126090">
        <ele>542.8</ele>
        <time>2026-02-26T16:23:14Z</time>
      </trkpt>
      <trkpt lat="48.846919" lon="10.126028">
        <ele>542.7</ele>
        <time>2026-02-26T16:23:15Z</time>
      </trkpt>
      <trkpt lat="48.846899" lon="10.125966">
        <ele>542.7</ele>
        <time>2026-02-26T16:23:16Z</time>
      </trkpt>
      <trkpt lat="48.846883" lon="10.125904">
        <ele>542.7</ele>
        <time>2026-02-26T16:23:17Z</time>
      </trkpt>
      <trkpt lat="48.846862" lon="10.125847">
        <ele>542.6</ele>
        <time>2026-02-26T16:23:18Z</time>
      </trkpt>
      <trkpt lat="48.846828" lon="10.125803">
        <ele>542.6</ele>
        <time>2026-02-26T16:23:19Z</time>
      </trkpt>
      <trkpt lat="48.846793" lon="10.125764">
        <ele>542.6</ele>
        <time>2026-02-26T16:23:20Z</time>
      </trkpt>
      <trkpt lat="48.846755" lon="10.125770">
        <ele>542.6</ele>
        <time>2026-02-26T16:23:21Z</time>
      </trkpt>
      <trkpt lat="48.846718" lon="10.125766">
        <ele>542.7</ele>
        <time>2026-02-26T16:23:22Z</time>
      </trkpt>
      <trkpt lat="48.846680" lon="10.125766">
        <ele>542.8</ele>
        <time>2026-02-26T16:23:23Z</time>
      </trkpt>
      <trkpt lat="48.846645" lon="10.125807">
        <ele>542.9</ele>
        <time>2026-02-26T16:23:24Z</time>
      </trkpt>
      <trkpt lat="48.846615" lon="10.125854">
        <ele>543</ele>
        <time>2026-02-26T16:23:25Z</time>
      </trkpt>
      <trkpt lat="48.846586" lon="10.125896">
        <ele>543.1</ele>
        <time>2026-02-26T16:23:26Z</time>
      </trkpt>
      <trkpt lat="48.846560" lon="10.125933">
        <ele>543.2</ele>
        <time>2026-02-26T16:23:27Z</time>
      </trkpt>
      <trkpt lat="48.846535" lon="10.125967">
        <ele>543.4</ele>
        <time>2026-02-26T16:23:28Z</time>
      </trkpt>
      <trkpt lat="48.846511" lon="10.125996">
        <ele>543.5</ele>
        <time>2026-02-26T16:23:29Z</time>
      </trkpt>
      <trkpt lat="48.846485" lon="10.126026">
        <ele>543.6</ele>
        <time>2026-02-26T16:23:30Z</time>
      </trkpt>
      <trkpt lat="48.846460" lon="10.126049">
        <ele>543.7</ele>
        <time>2026-02-26T16:23:31Z</time>
      </trkpt>
      <trkpt lat="48.846432" lon="10.126067">
        <ele>543.9</ele>
        <time>2026-02-26T16:23:32Z</time>
      </trkpt>
      <trkpt lat="48.846404" lon="10.126093">
        <ele>544</ele>
        <time>2026-02-26T16:23:33Z</time>
      </trkpt>
      <trkpt lat="48.846376" lon="10.126107">
        <ele>544.1</ele>
        <time>2026-02-26T16:23:34Z</time>
      </trkpt>
      <trkpt lat="48.846349" lon="10.126124">
        <ele>544.3</ele>
        <time>2026-02-26T16:23:35Z</time>
      </trkpt>
      <trkpt lat="48.846322" lon="10.126140">
        <ele>544.4</ele>
        <time>2026-02-26T16:23:36Z</time>
      </trkpt>
      <trkpt lat="48.846294" lon="10.126162">
        <ele>544.5</ele>
        <time>2026-02-26T16:23:37Z</time>
      </trkpt>
      <trkpt lat="48.846267" lon="10.126191">
        <ele>544.7</ele>
        <time>2026-02-26T16:23:38Z</time>
      </trkpt>
      <trkpt lat="48.846245" lon="10.126227">
        <ele>544.8</ele>
        <time>2026-02-26T16:23:39Z</time>
      </trkpt>
      <trkpt lat="48.846224" lon="10.126260">
        <ele>544.9</ele>
        <time>2026-02-26T16:23:40Z</time>
      </trkpt>
      <trkpt lat="48.846190" lon="10.126296">
        <ele>545.1</ele>
        <time>2026-02-26T16:23:41Z</time>
      </trkpt>
      <trkpt lat="48.846177" lon="10.126308">
        <ele>545.2</ele>
        <time>2026-02-26T16:23:42Z</time>
      </trkpt>
      <trkpt lat="48.846153" lon="10.126332">
        <ele>545.3</ele>
        <time>2026-02-26T16:23:43Z</time>
      </trkpt>
      <trkpt lat="48.846128" lon="10.126351">
        <ele>545.4</ele>
        <time>2026-02-26T16:23:44Z</time>
      </trkpt>
      <trkpt lat="48.846093" lon="10.126381">
        <ele>545.5</ele>
        <time>2026-02-26T16:23:45Z</time>
      </trkpt>
      <trkpt lat="48.846080" lon="10.126388">
        <ele>545.6</ele>
        <time>2026-02-26T16:23:46Z</time>
      </trkpt>
      <trkpt lat="48.846044" lon="10.126413">
        <ele>545.7</ele>
        <time>2026-02-26T16:23:47Z</time>
      </trkpt>
      <trkpt lat="48.846032" lon="10.126423">
        <ele>545.8</ele>
        <time>2026-02-26T16:23:48Z</time>
      </trkpt>
      <trkpt lat="48.846010" lon="10.126456">
        <ele>545.9</ele>
        <time>2026-02-26T16:23:49Z</time>
      </trkpt>
      <trkpt lat="48.846001" lon="10.126468">
        <ele>545.9</ele>
        <time>2026-02-26T16:23:50Z</time>
      </trkpt>
      <trkpt lat="48.845966" lon="10.126497">
        <ele>546.1</ele>
        <time>2026-02-26T16:23:51Z</time>
      </trkpt>
      <trkpt lat="48.845953" lon="10.126503">
        <ele>546.1</ele>
        <time>2026-02-26T16:23:52Z</time>
      </trkpt>
      <trkpt lat="48.845926" lon="10.126521">
        <ele>546.2</ele>
        <time>2026-02-26T16:23:53Z</time>
      </trkpt>
      <trkpt lat="48.845896" lon="10.126539">
        <ele>546.3</ele>
        <time>2026-02-26T16:23:54Z</time>
      </trkpt>
      <trkpt lat="48.845866" lon="10.126568">
        <ele>546.4</ele>
        <time>2026-02-26T16:23:55Z</time>
      </trkpt>
      <trkpt lat="48.845839" lon="10.126593">
        <ele>546.5</ele>
        <time>2026-02-26T16:23:56Z</time>
      </trkpt>
      <trkpt lat="48.845814" lon="10.126614">
        <ele>546.6</ele>
        <time>2026-02-26T16:23:57Z</time>
      </trkpt>
      <trkpt lat="48.845783" lon="10.126649">
        <ele>546.7</ele>
        <time>2026-02-26T16:23:58Z</time>
      </trkpt>
      <trkpt lat="48.845772" lon="10.126659">
        <ele>546.8</ele>
        <time>2026-02-26T16:23:59Z</time>
      </trkpt>
      <trkpt lat="48.845737" lon="10.126684">
        <ele>546.9</ele>
        <time>2026-02-26T16:24:00Z</time>
      </trkpt>
      <trkpt lat="48.845725" lon="10.126693">
        <ele>546.9</ele>
        <time>2026-02-26T16:24:01Z</time>
      </trkpt>
      <trkpt lat="48.845691" lon="10.126717">
        <ele>547.1</ele>
        <time>2026-02-26T16:24:02Z</time>
      </trkpt>
      <trkpt lat="48.845679" lon="10.126729">
        <ele>547.1</ele>
        <time>2026-02-26T16:24:03Z</time>
      </trkpt>
      <trkpt lat="48.845656" lon="10.126755">
        <ele>547.2</ele>
        <time>2026-02-26T16:24:04Z</time>
      </trkpt>
      <trkpt lat="48.845637" lon="10.126799">
        <ele>547.3</ele>
        <time>2026-02-26T16:24:05Z</time>
      </trkpt>
      <trkpt lat="48.845632" lon="10.126844">
        <ele>547.5</ele>
        <time>2026-02-26T16:24:06Z</time>
      </trkpt>
      <trkpt lat="48.845632" lon="10.126858">
        <ele>547.5</ele>
        <time>2026-02-26T16:24:07Z</time>
      </trkpt>
      <trkpt lat="48.845642" lon="10.126905">
        <ele>547.7</ele>
        <time>2026-02-26T16:24:08Z</time>
      </trkpt>
      <trkpt lat="48.845647" lon="10.126920">
        <ele>547.7</ele>
        <time>2026-02-26T16:24:09Z</time>
      </trkpt>
      <trkpt lat="48.845667" lon="10.126957">
        <ele>547.8</ele>
        <time>2026-02-26T16:24:10Z</time>
      </trkpt>
      <trkpt lat="48.845676" lon="10.126973">
        <ele>547.9</ele>
        <time>2026-02-26T16:24:11Z</time>
      </trkpt>
      <trkpt lat="48.845693" lon="10.127006">
        <ele>548</ele>
        <time>2026-02-26T16:24:12Z</time>
      </trkpt>
      <trkpt lat="48.845706" lon="10.127046">
        <ele>548.1</ele>
        <time>2026-02-26T16:24:13Z</time>
      </trkpt>
      <trkpt lat="48.845713" lon="10.127093">
        <ele>548.2</ele>
        <time>2026-02-26T16:24:14Z</time>
      </trkpt>
      <trkpt lat="48.845720" lon="10.127136">
        <ele>548.4</ele>
        <time>2026-02-26T16:24:15Z</time>
      </trkpt>
      <trkpt lat="48.845727" lon="10.127178">
        <ele>548.5</ele>
        <time>2026-02-26T16:24:16Z</time>
      </trkpt>
      <trkpt lat="48.845745" lon="10.127231">
        <ele>548.7</ele>
        <time>2026-02-26T16:24:17Z</time>
      </trkpt>
      <trkpt lat="48.845752" lon="10.127250">
        <ele>548.7</ele>
        <time>2026-02-26T16:24:18Z</time>
      </trkpt>
      <trkpt lat="48.845770" lon="10.127298">
        <ele>548.9</ele>
        <time>2026-02-26T16:24:19Z</time>
      </trkpt>
      <trkpt lat="48.845776" lon="10.127315">
        <ele>549</ele>
        <time>2026-02-26T16:24:20Z</time>
      </trkpt>
      <trkpt lat="48.845791" lon="10.127361">
        <ele>549.2</ele>
        <time>2026-02-26T16:24:21Z</time>
      </trkpt>
      <trkpt lat="48.845795" lon="10.127376">
        <ele>549.2</ele>
        <time>2026-02-26T16:24:22Z</time>
      </trkpt>
      <trkpt lat="48.845801" lon="10.127420">
        <ele>549.4</ele>
        <time>2026-02-26T16:24:23Z</time>
      </trkpt>
      <trkpt lat="48.845803" lon="10.127433">
        <ele>549.4</ele>
        <time>2026-02-26T16:24:24Z</time>
      </trkpt>
      <trkpt lat="48.845813" lon="10.127480">
        <ele>549.6</ele>
        <time>2026-02-26T16:24:25Z</time>
      </trkpt>
      <trkpt lat="48.845815" lon="10.127497">
        <ele>549.7</ele>
        <time>2026-02-26T16:24:26Z</time>
      </trkpt>
      <trkpt lat="48.845819" lon="10.127545">
        <ele>549.8</ele>
        <time>2026-02-26T16:24:27Z</time>
      </trkpt>
      <trkpt lat="48.845819" lon="10.127557">
        <ele>549.9</ele>
        <time>2026-02-26T16:24:28Z</time>
      </trkpt>
      <trkpt lat="48.845829" lon="10.127607">
        <ele>550.1</ele>
        <time>2026-02-26T16:24:29Z</time>
      </trkpt>
      <trkpt lat="48.845834" lon="10.127623">
        <ele>550.2</ele>
        <time>2026-02-26T16:24:30Z</time>
      </trkpt>
      <trkpt lat="48.845851" lon="10.127663">
        <ele>550.4</ele>
        <time>2026-02-26T16:24:31Z</time>
      </trkpt>
      <trkpt lat="48.845855" lon="10.127677">
        <ele>550.4</ele>
        <time>2026-02-26T16:24:32Z</time>
      </trkpt>
      <trkpt lat="48.845865" lon="10.127716">
        <ele>550.6</ele>
        <time>2026-02-26T16:24:33Z</time>
      </trkpt>
      <trkpt lat="48.845875" lon="10.127755">
        <ele>550.8</ele>
        <time>2026-02-26T16:24:34Z</time>
      </trkpt>
      <trkpt lat="48.845888" lon="10.127813">
        <ele>551</ele>
        <time>2026-02-26T16:24:35Z</time>
      </trkpt>
      <trkpt lat="48.845890" lon="10.127834">
        <ele>551.1</ele>
        <time>2026-02-26T16:24:36Z</time>
      </trkpt>
      <trkpt lat="48.845899" lon="10.127874">
        <ele>551.3</ele>
        <time>2026-02-26T16:24:37Z</time>
      </trkpt>
      <trkpt lat="48.845910" lon="10.127912">
        <ele>551.5</ele>
        <time>2026-02-26T16:24:38Z</time>
      </trkpt>
      <trkpt lat="48.845924" lon="10.127966">
        <ele>551.7</ele>
        <time>2026-02-26T16:24:39Z</time>
      </trkpt>
      <trkpt lat="48.845929" lon="10.127983">
        <ele>551.8</ele>
        <time>2026-02-26T16:24:40Z</time>
      </trkpt>
      <trkpt lat="48.845946" lon="10.128033">
        <ele>552.1</ele>
        <time>2026-02-26T16:24:41Z</time>
      </trkpt>
      <trkpt lat="48.845951" lon="10.128050">
        <ele>552.2</ele>
        <time>2026-02-26T16:24:42Z</time>
      </trkpt>
      <trkpt lat="48.845961" lon="10.128101">
        <ele>552.4</ele>
        <time>2026-02-26T16:24:43Z</time>
      </trkpt>
      <trkpt lat="48.845963" lon="10.128120">
        <ele>552.5</ele>
        <time>2026-02-26T16:24:44Z</time>
      </trkpt>
      <trkpt lat="48.845973" lon="10.128170">
        <ele>552.8</ele>
        <time>2026-02-26T16:24:45Z</time>
      </trkpt>
      <trkpt lat="48.845979" lon="10.128186">
        <ele>552.9</ele>
        <time>2026-02-26T16:24:46Z</time>
      </trkpt>
      <trkpt lat="48.845995" lon="10.128233">
        <ele>553.1</ele>
        <time>2026-02-26T16:24:47Z</time>
      </trkpt>
      <trkpt lat="48.845998" lon="10.128247">
        <ele>553.2</ele>
        <time>2026-02-26T16:24:48Z</time>
      </trkpt>
      <trkpt lat="48.846009" lon="10.128296">
        <ele>553.5</ele>
        <time>2026-02-26T16:24:49Z</time>
      </trkpt>
      <trkpt lat="48.846012" lon="10.128312">
        <ele>553.6</ele>
        <time>2026-02-26T16:24:50Z</time>
      </trkpt>
      <trkpt lat="48.846027" lon="10.128360">
        <ele>553.9</ele>
        <time>2026-02-26T16:24:51Z</time>
      </trkpt>
      <trkpt lat="48.846034" lon="10.128375">
        <ele>554</ele>
        <time>2026-02-26T16:24:52Z</time>
      </trkpt>
      <trkpt lat="48.846049" lon="10.128411">
        <ele>554.2</ele>
        <time>2026-02-26T16:24:53Z</time>
      </trkpt>
      <trkpt lat="48.846053" lon="10.128424">
        <ele>554.3</ele>
        <time>2026-02-26T16:24:54Z</time>
      </trkpt>
      <trkpt lat="48.846069" lon="10.128476">
        <ele>554.6</ele>
        <time>2026-02-26T16:24:55Z</time>
      </trkpt>
      <trkpt lat="48.846073" lon="10.128493">
        <ele>554.7</ele>
        <time>2026-02-26T16:24:56Z</time>
      </trkpt>
      <trkpt lat="48.846087" lon="10.128534">
        <ele>555</ele>
        <time>2026-02-26T16:24:57Z</time>
      </trkpt>
      <trkpt lat="48.846093" lon="10.128549">
        <ele>555.1</ele>
        <time>2026-02-26T16:24:58Z</time>
      </trkpt>
      <trkpt lat="48.846109" lon="10.128583">
        <ele>555.3</ele>
        <time>2026-02-26T16:24:59Z</time>
      </trkpt>
      <trkpt lat="48.846113" lon="10.128596">
        <ele>555.4</ele>
        <time>2026-02-26T16:25:00Z</time>
      </trkpt>
      <trkpt lat="48.846127" lon="10.128636">
        <ele>555.7</ele>
        <time>2026-02-26T16:25:01Z</time>
      </trkpt>
      <trkpt lat="48.846132" lon="10.128648">
        <ele>555.8</ele>
        <time>2026-02-26T16:25:02Z</time>
      </trkpt>
      <trkpt lat="48.846145" lon="10.128692">
        <ele>556.1</ele>
        <time>2026-02-26T16:25:03Z</time>
      </trkpt>
      <trkpt lat="48.846148" lon="10.128707">
        <ele>556.2</ele>
        <time>2026-02-26T16:25:04Z</time>
      </trkpt>
      <trkpt lat="48.846164" lon="10.128748">
        <ele>556.5</ele>
        <time>2026-02-26T16:25:05Z</time>
      </trkpt>
      <trkpt lat="48.846169" lon="10.128761">
        <ele>556.6</ele>
        <time>2026-02-26T16:25:06Z</time>
      </trkpt>
      <trkpt lat="48.846186" lon="10.128800">
        <ele>556.9</ele>
        <time>2026-02-26T16:25:07Z</time>
      </trkpt>
      <trkpt lat="48.846191" lon="10.128812">
        <ele>557</ele>
        <time>2026-02-26T16:25:08Z</time>
      </trkpt>
      <trkpt lat="48.846199" lon="10.128836">
        <ele>557.2</ele>
        <time>2026-02-26T16:25:09Z</time>
      </trkpt>
      <trkpt lat="48.846202" lon="10.128853">
        <ele>557.4</ele>
        <time>2026-02-26T16:25:10Z</time>
      </trkpt>
      <trkpt lat="48.846204" lon="10.128874">
        <ele>557.5</ele>
        <time>2026-02-26T16:25:11Z</time>
      </trkpt>
      <trkpt lat="48.846213" lon="10.128895">
        <ele>557.7</ele>
        <time>2026-02-26T16:25:12Z</time>
      </trkpt>
      <trkpt lat="48.846228" lon="10.128936">
        <ele>558.1</ele>
        <time>2026-02-26T16:25:13Z</time>
      </trkpt>
      <trkpt lat="48.846231" lon="10.128952">
        <ele>558.2</ele>
        <time>2026-02-26T16:25:14Z</time>
      </trkpt>
      <trkpt lat="48.846238" lon="10.128990">
        <ele>558.5</ele>
        <time>2026-02-26T16:25:15Z</time>
      </trkpt>
      <trkpt lat="48.846238" lon="10.129006">
        <ele>558.6</ele>
        <time>2026-02-26T16:25:16Z</time>
      </trkpt>
      <trkpt lat="48.846246" lon="10.129023">
        <ele>558.7</ele>
        <time>2026-02-26T16:25:17Z</time>
      </trkpt>
      <trkpt lat="48.846254" lon="10.129040">
        <ele>558.9</ele>
        <time>2026-02-26T16:25:18Z</time>
      </trkpt>
      <trkpt lat="48.846260" lon="10.129064">
        <ele>559.1</ele>
        <time>2026-02-26T16:25:19Z</time>
      </trkpt>
      <trkpt lat="48.846263" lon="10.129084">
        <ele>559.3</ele>
        <time>2026-02-26T16:25:20Z</time>
      </trkpt>
      <trkpt lat="48.846265" lon="10.129103">
        <ele>559.4</ele>
        <time>2026-02-26T16:25:21Z</time>
      </trkpt>
      <trkpt lat="48.846265" lon="10.129121">
        <ele>559.6</ele>
        <time>2026-02-26T16:25:22Z</time>
      </trkpt>
      <trkpt lat="48.846266" lon="10.129139">
        <ele>559.7</ele>
        <time>2026-02-26T16:25:23Z</time>
      </trkpt>
      <trkpt lat="48.846276" lon="10.129170">
        <ele>560</ele>
        <time>2026-02-26T16:25:24Z</time>
      </trkpt>
      <trkpt lat="48.846282" lon="10.129182">
        <ele>560.1</ele>
        <time>2026-02-26T16:25:25Z</time>
      </trkpt>
      <trkpt lat="48.846289" lon="10.129195">
        <ele>560.2</ele>
        <time>2026-02-26T16:25:26Z</time>
      </trkpt>
      <trkpt lat="48.846302" lon="10.129237">
        <ele>560.7</ele>
        <time>2026-02-26T16:25:27Z</time>
      </trkpt>
      <trkpt lat="48.846305" lon="10.129254">
        <ele>560.8</ele>
        <time>2026-02-26T16:25:28Z</time>
      </trkpt>
      <trkpt lat="48.846313" lon="10.129300">
        <ele>561.3</ele>
        <time>2026-02-26T16:25:29Z</time>
      </trkpt>
      <trkpt lat="48.846316" lon="10.129317">
        <ele>561.5</ele>
        <time>2026-02-26T16:25:30Z</time>
      </trkpt>
      <trkpt lat="48.846327" lon="10.129366">
        <ele>562</ele>
        <time>2026-02-26T16:25:31Z</time>
      </trkpt>
      <trkpt lat="48.846330" lon="10.129381">
        <ele>562.1</ele>
        <time>2026-02-26T16:25:32Z</time>
      </trkpt>
      <trkpt lat="48.846336" lon="10.129425">
        <ele>562.6</ele>
        <time>2026-02-26T16:25:33Z</time>
      </trkpt>
      <trkpt lat="48.846338" lon="10.129440">
        <ele>562.7</ele>
        <time>2026-02-26T16:25:34Z</time>
      </trkpt>
      <trkpt lat="48.846334" lon="10.129470">
        <ele>563</ele>
        <time>2026-02-26T16:25:35Z</time>
      </trkpt>
      <trkpt lat="48.846331" lon="10.129490">
        <ele>563.3</ele>
        <time>2026-02-26T16:25:36Z</time>
      </trkpt>
      <trkpt lat="48.846331" lon="10.129503">
        <ele>563.4</ele>
        <time>2026-02-26T16:25:37Z</time>
      </trkpt>
      <trkpt lat="48.846329" lon="10.129515">
        <ele>563.5</ele>
        <time>2026-02-26T16:25:38Z</time>
      </trkpt>
      <trkpt lat="48.846326" lon="10.129525">
        <ele>563.6</ele>
        <time>2026-02-26T16:25:39Z</time>
      </trkpt>
      <trkpt lat="48.846322" lon="10.129542">
        <ele>563.8</ele>
        <time>2026-02-26T16:25:40Z</time>
      </trkpt>
      <trkpt lat="48.846320" lon="10.129554">
        <ele>563.9</ele>
        <time>2026-02-26T16:25:41Z</time>
      </trkpt>
      <trkpt lat="48.846323" lon="10.129569">
        <ele>564.1</ele>
        <time>2026-02-26T16:25:42Z</time>
      </trkpt>
      <trkpt lat="48.846322" lon="10.129583">
        <ele>564.2</ele>
        <time>2026-02-26T16:25:43Z</time>
      </trkpt>
      <trkpt lat="48.846325" lon="10.129600">
        <ele>564.4</ele>
        <time>2026-02-26T16:25:44Z</time>
      </trkpt>
      <trkpt lat="48.846327" lon="10.129619">
        <ele>564.6</ele>
        <time>2026-02-26T16:25:45Z</time>
      </trkpt>
      <trkpt lat="48.846330" lon="10.129636">
        <ele>564.8</ele>
        <time>2026-02-26T16:25:46Z</time>
      </trkpt>
      <trkpt lat="48.846336" lon="10.129658">
        <ele>565</ele>
        <time>2026-02-26T16:25:47Z</time>
      </trkpt>
      <trkpt lat="48.846343" lon="10.129686">
        <ele>565.3</ele>
        <time>2026-02-26T16:25:48Z</time>
      </trkpt>
      <trkpt lat="48.846349" lon="10.129711">
        <ele>565.6</ele>
        <time>2026-02-26T16:25:49Z</time>
      </trkpt>
      <trkpt lat="48.846354" lon="10.129733">
        <ele>565.8</ele>
        <time>2026-02-26T16:25:50Z</time>
      </trkpt>
      <trkpt lat="48.846358" lon="10.129758">
        <ele>566</ele>
        <time>2026-02-26T16:25:51Z</time>
      </trkpt>
      <trkpt lat="48.846365" lon="10.129780">
        <ele>566.3</ele>
        <time>2026-02-26T16:25:52Z</time>
      </trkpt>
      <trkpt lat="48.846375" lon="10.129805">
        <ele>566.6</ele>
        <time>2026-02-26T16:25:53Z</time>
      </trkpt>
      <trkpt lat="48.846380" lon="10.129827">
        <ele>566.7</ele>
        <time>2026-02-26T16:25:54Z</time>
      </trkpt>
      <trkpt lat="48.846389" lon="10.129856">
        <ele>567</ele>
        <time>2026-02-26T16:25:55Z</time>
      </trkpt>
      <trkpt lat="48.846394" lon="10.129867">
        <ele>567.1</ele>
        <time>2026-02-26T16:25:56Z</time>
      </trkpt>
      <trkpt lat="48.846400" lon="10.129879">
        <ele>567.2</ele>
        <time>2026-02-26T16:25:57Z</time>
      </trkpt>
      <trkpt lat="48.846411" lon="10.129898">
        <ele>567.4</ele>
        <time>2026-02-26T16:25:58Z</time>
      </trkpt>
      <trkpt lat="48.846417" lon="10.129918">
        <ele>567.6</ele>
        <time>2026-02-26T16:25:59Z</time>
      </trkpt>
      <trkpt lat="48.846428" lon="10.129948">
        <ele>567.9</ele>
        <time>2026-02-26T16:26:00Z</time>
      </trkpt>
      <trkpt lat="48.846436" lon="10.129958">
        <ele>568</ele>
        <time>2026-02-26T16:26:01Z</time>
      </trkpt>
      <trkpt lat="48.846443" lon="10.129969">
        <ele>568.1</ele>
        <time>2026-02-26T16:26:02Z</time>
      </trkpt>
      <trkpt lat="48.846468" lon="10.129993">
        <ele>568.5</ele>
        <time>2026-02-26T16:26:03Z</time>
      </trkpt>
      <trkpt lat="48.846476" lon="10.130000">
        <ele>568.6</ele>
        <time>2026-02-26T16:26:04Z</time>
      </trkpt>
      <trkpt lat="48.846495" lon="10.130013">
        <ele>568.8</ele>
        <time>2026-02-26T16:26:05Z</time>
      </trkpt>
      <trkpt lat="48.846507" lon="10.130030">
        <ele>569</ele>
        <time>2026-02-26T16:26:06Z</time>
      </trkpt>
      <trkpt lat="48.846524" lon="10.130045">
        <ele>569.3</ele>
        <time>2026-02-26T16:26:07Z</time>
      </trkpt>
      <trkpt lat="48.846539" lon="10.130053">
        <ele>569.5</ele>
        <time>2026-02-26T16:26:08Z</time>
      </trkpt>
      <trkpt lat="48.846553" lon="10.130061">
        <ele>569.7</ele>
        <time>2026-02-26T16:26:09Z</time>
      </trkpt>
      <trkpt lat="48.846569" lon="10.130064">
        <ele>569.9</ele>
        <time>2026-02-26T16:26:10Z</time>
      </trkpt>
      <trkpt lat="48.846584" lon="10.130066">
        <ele>570.1</ele>
        <time>2026-02-26T16:26:11Z</time>
      </trkpt>
      <trkpt lat="48.846597" lon="10.130069">
        <ele>570.2</ele>
        <time>2026-02-26T16:26:12Z</time>
      </trkpt>
      <trkpt lat="48.846612" lon="10.130080">
        <ele>570.4</ele>
        <time>2026-02-26T16:26:13Z</time>
      </trkpt>
      <trkpt lat="48.846627" lon="10.130090">
        <ele>570.6</ele>
        <time>2026-02-26T16:26:14Z</time>
      </trkpt>
      <trkpt lat="48.846653" lon="10.130111">
        <ele>570.9</ele>
        <time>2026-02-26T16:26:15Z</time>
      </trkpt>
      <trkpt lat="48.846661" lon="10.130119">
        <ele>571.1</ele>
        <time>2026-02-26T16:26:16Z</time>
      </trkpt>
      <trkpt lat="48.846676" lon="10.130133">
        <ele>571.3</ele>
        <time>2026-02-26T16:26:17Z</time>
      </trkpt>
      <trkpt lat="48.846692" lon="10.130144">
        <ele>571.5</ele>
        <time>2026-02-26T16:26:18Z</time>
      </trkpt>
      <trkpt lat="48.846720" lon="10.130168">
        <ele>571.8</ele>
        <time>2026-02-26T16:26:19Z</time>
      </trkpt>
      <trkpt lat="48.846727" lon="10.130178">
        <ele>571.9</ele>
        <time>2026-02-26T16:26:20Z</time>
      </trkpt>
      <trkpt lat="48.846752" lon="10.130204">
        <ele>572.2</ele>
        <time>2026-02-26T16:26:21Z</time>
      </trkpt>
      <trkpt lat="48.846759" lon="10.130211">
        <ele>572.3</ele>
        <time>2026-02-26T16:26:22Z</time>
      </trkpt>
      <trkpt lat="48.846770" lon="10.130220">
        <ele>572.4</ele>
        <time>2026-02-26T16:26:23Z</time>
      </trkpt>
      <trkpt lat="48.846785" lon="10.130231">
        <ele>572.6</ele>
        <time>2026-02-26T16:26:24Z</time>
      </trkpt>
      <trkpt lat="48.846813" lon="10.130240">
        <ele>572.9</ele>
        <time>2026-02-26T16:26:25Z</time>
      </trkpt>
      <trkpt lat="48.846822" lon="10.130244">
        <ele>573</ele>
        <time>2026-02-26T16:26:26Z</time>
      </trkpt>
      <trkpt lat="48.846855" lon="10.130244">
        <ele>573.3</ele>
        <time>2026-02-26T16:26:27Z</time>
      </trkpt>
      <trkpt lat="48.846865" lon="10.130242">
        <ele>573.4</ele>
        <time>2026-02-26T16:26:28Z</time>
      </trkpt>
      <trkpt lat="48.846885" lon="10.130239">
        <ele>573.5</ele>
        <time>2026-02-26T16:26:29Z</time>
      </trkpt>
      <trkpt lat="48.846897" lon="10.130246">
        <ele>573.6</ele>
        <time>2026-02-26T16:26:30Z</time>
      </trkpt>
      <trkpt lat="48.846903" lon="10.130255">
        <ele>573.7</ele>
        <time>2026-02-26T16:26:31Z</time>
      </trkpt>
      <trkpt lat="48.846914" lon="10.130271">
        <ele>573.8</ele>
        <time>2026-02-26T16:26:32Z</time>
      </trkpt>
      <trkpt lat="48.846922" lon="10.130281">
        <ele>573.9</ele>
        <time>2026-02-26T16:26:33Z</time>
      </trkpt>
      <trkpt lat="48.846936" lon="10.130285">
        <ele>574</ele>
        <time>2026-02-26T16:26:34Z</time>
      </trkpt>
      <trkpt lat="48.846952" lon="10.130289">
        <ele>574.2</ele>
        <time>2026-02-26T16:26:35Z</time>
      </trkpt>
      <trkpt lat="48.846964" lon="10.130291">
        <ele>574.2</ele>
        <time>2026-02-26T16:26:36Z</time>
      </trkpt>
      <trkpt lat="48.846979" lon="10.130299">
        <ele>574.4</ele>
        <time>2026-02-26T16:26:37Z</time>
      </trkpt>
      <trkpt lat="48.846999" lon="10.130309">
        <ele>574.5</ele>
        <time>2026-02-26T16:26:38Z</time>
      </trkpt>
      <trkpt lat="48.847010" lon="10.130315">
        <ele>574.6</ele>
        <time>2026-02-26T16:26:39Z</time>
      </trkpt>
      <trkpt lat="48.847036" lon="10.130342">
        <ele>574.8</ele>
        <time>2026-02-26T16:26:40Z</time>
      </trkpt>
      <trkpt lat="48.847045" lon="10.130351">
        <ele>574.9</ele>
        <time>2026-02-26T16:26:41Z</time>
      </trkpt>
      <trkpt lat="48.847070" lon="10.130367">
        <ele>575.1</ele>
        <time>2026-02-26T16:26:42Z</time>
      </trkpt>
      <trkpt lat="48.847107" lon="10.130387">
        <ele>575.3</ele>
        <time>2026-02-26T16:26:43Z</time>
      </trkpt>
      <trkpt lat="48.847120" lon="10.130396">
        <ele>575.4</ele>
        <time>2026-02-26T16:26:44Z</time>
      </trkpt>
      <trkpt lat="48.847148" lon="10.130414">
        <ele>575.5</ele>
        <time>2026-02-26T16:26:45Z</time>
      </trkpt>
      <trkpt lat="48.847178" lon="10.130440">
        <ele>575.7</ele>
        <time>2026-02-26T16:26:46Z</time>
      </trkpt>
      <trkpt lat="48.847205" lon="10.130468">
        <ele>575.9</ele>
        <time>2026-02-26T16:26:47Z</time>
      </trkpt>
      <trkpt lat="48.847225" lon="10.130504">
        <ele>576.1</ele>
        <time>2026-02-26T16:26:48Z</time>
      </trkpt>
      <trkpt lat="48.847232" lon="10.130517">
        <ele>576.1</ele>
        <time>2026-02-26T16:26:49Z</time>
      </trkpt>
      <trkpt lat="48.847260" lon="10.130538">
        <ele>576.3</ele>
        <time>2026-02-26T16:26:50Z</time>
      </trkpt>
      <trkpt lat="48.847270" lon="10.130544">
        <ele>576.3</ele>
        <time>2026-02-26T16:26:51Z</time>
      </trkpt>
      <trkpt lat="48.847285" lon="10.130553">
        <ele>576.4</ele>
        <time>2026-02-26T16:26:52Z</time>
      </trkpt>
      <trkpt lat="48.847300" lon="10.130563">
        <ele>576.5</ele>
        <time>2026-02-26T16:26:53Z</time>
      </trkpt>
      <trkpt lat="48.847329" lon="10.130570">
        <ele>576.7</ele>
        <time>2026-02-26T16:26:54Z</time>
      </trkpt>
      <trkpt lat="48.847337" lon="10.130571">
        <ele>576.7</ele>
        <time>2026-02-26T16:26:55Z</time>
      </trkpt>
      <trkpt lat="48.847364" lon="10.130587">
        <ele>576.8</ele>
        <time>2026-02-26T16:26:56Z</time>
      </trkpt>
      <trkpt lat="48.847375" lon="10.130596">
        <ele>576.9</ele>
        <time>2026-02-26T16:26:57Z</time>
      </trkpt>
      <trkpt lat="48.847399" lon="10.130615">
        <ele>577.1</ele>
        <time>2026-02-26T16:26:58Z</time>
      </trkpt>
      <trkpt lat="48.847425" lon="10.130629">
        <ele>577.2</ele>
        <time>2026-02-26T16:26:59Z</time>
      </trkpt>
      <trkpt lat="48.847458" lon="10.130650">
        <ele>577.4</ele>
        <time>2026-02-26T16:27:00Z</time>
      </trkpt>
      <trkpt lat="48.847467" lon="10.130658">
        <ele>577.4</ele>
        <time>2026-02-26T16:27:01Z</time>
      </trkpt>
      <trkpt lat="48.847495" lon="10.130682">
        <ele>577.6</ele>
        <time>2026-02-26T16:27:02Z</time>
      </trkpt>
      <trkpt lat="48.847502" lon="10.130690">
        <ele>577.7</ele>
        <time>2026-02-26T16:27:03Z</time>
      </trkpt>
      <trkpt lat="48.847515" lon="10.130702">
        <ele>577.7</ele>
        <time>2026-02-26T16:27:04Z</time>
      </trkpt>
      <trkpt lat="48.847532" lon="10.130718">
        <ele>577.8</ele>
        <time>2026-02-26T16:27:05Z</time>
      </trkpt>
      <trkpt lat="48.847555" lon="10.130749">
        <ele>578</ele>
        <time>2026-02-26T16:27:06Z</time>
      </trkpt>
      <trkpt lat="48.847564" lon="10.130759">
        <ele>578.1</ele>
        <time>2026-02-26T16:27:07Z</time>
      </trkpt>
      <trkpt lat="48.847596" lon="10.130792">
        <ele>578.3</ele>
        <time>2026-02-26T16:27:08Z</time>
      </trkpt>
      <trkpt lat="48.847605" lon="10.130804">
        <ele>578.3</ele>
        <time>2026-02-26T16:27:09Z</time>
      </trkpt>
      <trkpt lat="48.847627" lon="10.130845">
        <ele>578.5</ele>
        <time>2026-02-26T16:27:10Z</time>
      </trkpt>
      <trkpt lat="48.847634" lon="10.130858">
        <ele>578.6</ele>
        <time>2026-02-26T16:27:11Z</time>
      </trkpt>
      <trkpt lat="48.847662" lon="10.130889">
        <ele>578.8</ele>
        <time>2026-02-26T16:27:12Z</time>
      </trkpt>
      <trkpt lat="48.847672" lon="10.130900">
        <ele>578.9</ele>
        <time>2026-02-26T16:27:13Z</time>
      </trkpt>
      <trkpt lat="48.847697" lon="10.130930">
        <ele>579.1</ele>
        <time>2026-02-26T16:27:14Z</time>
      </trkpt>
      <trkpt lat="48.847702" lon="10.130943">
        <ele>579.1</ele>
        <time>2026-02-26T16:27:15Z</time>
      </trkpt>
      <trkpt lat="48.847720" lon="10.130977">
        <ele>579.3</ele>
        <time>2026-02-26T16:27:16Z</time>
      </trkpt>
      <trkpt lat="48.847728" lon="10.130986">
        <ele>579.3</ele>
        <time>2026-02-26T16:27:17Z</time>
      </trkpt>
      <trkpt lat="48.847755" lon="10.131011">
        <ele>579.5</ele>
        <time>2026-02-26T16:27:18Z</time>
      </trkpt>
      <trkpt lat="48.847763" lon="10.131021">
        <ele>579.6</ele>
        <time>2026-02-26T16:27:19Z</time>
      </trkpt>
      <trkpt lat="48.847787" lon="10.131058">
        <ele>579.8</ele>
        <time>2026-02-26T16:27:20Z</time>
      </trkpt>
      <trkpt lat="48.847797" lon="10.131069">
        <ele>579.9</ele>
        <time>2026-02-26T16:27:21Z</time>
      </trkpt>
      <trkpt lat="48.847817" lon="10.131105">
        <ele>580</ele>
        <time>2026-02-26T16:27:22Z</time>
      </trkpt>
      <trkpt lat="48.847838" lon="10.131143">
        <ele>580.2</ele>
        <time>2026-02-26T16:27:23Z</time>
      </trkpt>
      <trkpt lat="48.847857" lon="10.131183">
        <ele>580.4</ele>
        <time>2026-02-26T16:27:24Z</time>
      </trkpt>
      <trkpt lat="48.847886" lon="10.131213">
        <ele>580.6</ele>
        <time>2026-02-26T16:27:25Z</time>
      </trkpt>
      <trkpt lat="48.847914" lon="10.131247">
        <ele>580.8</ele>
        <time>2026-02-26T16:27:26Z</time>
      </trkpt>
      <trkpt lat="48.847924" lon="10.131259">
        <ele>580.9</ele>
        <time>2026-02-26T16:27:27Z</time>
      </trkpt>
      <trkpt lat="48.847954" lon="10.131290">
        <ele>581.1</ele>
        <time>2026-02-26T16:27:28Z</time>
      </trkpt>
      <trkpt lat="48.847966" lon="10.131300">
        <ele>581.2</ele>
        <time>2026-02-26T16:27:29Z</time>
      </trkpt>
      <trkpt lat="48.847999" lon="10.131321">
        <ele>581.4</ele>
        <time>2026-02-26T16:27:30Z</time>
      </trkpt>
      <trkpt lat="48.848011" lon="10.131328">
        <ele>581.5</ele>
        <time>2026-02-26T16:27:31Z</time>
      </trkpt>
      <trkpt lat="48.848038" lon="10.131341">
        <ele>581.6</ele>
        <time>2026-02-26T16:27:32Z</time>
      </trkpt>
      <trkpt lat="48.848067" lon="10.131371">
        <ele>581.8</ele>
        <time>2026-02-26T16:27:33Z</time>
      </trkpt>
      <trkpt lat="48.848076" lon="10.131383">
        <ele>581.9</ele>
        <time>2026-02-26T16:27:34Z</time>
      </trkpt>
      <trkpt lat="48.848105" lon="10.131413">
        <ele>582.1</ele>
        <time>2026-02-26T16:27:35Z</time>
      </trkpt>
      <trkpt lat="48.848114" lon="10.131423">
        <ele>582.2</ele>
        <time>2026-02-26T16:27:36Z</time>
      </trkpt>
      <trkpt lat="48.848138" lon="10.131470">
        <ele>582.4</ele>
        <time>2026-02-26T16:27:37Z</time>
      </trkpt>
      <trkpt lat="48.848144" lon="10.131488">
        <ele>582.5</ele>
        <time>2026-02-26T16:27:38Z</time>
      </trkpt>
      <trkpt lat="48.848151" lon="10.131518">
        <ele>582.7</ele>
        <time>2026-02-26T16:27:39Z</time>
      </trkpt>
      <trkpt lat="48.848158" lon="10.131538">
        <ele>582.7</ele>
        <time>2026-02-26T16:27:40Z</time>
      </trkpt>
      <trkpt lat="48.848183" lon="10.131563">
        <ele>582.9</ele>
        <time>2026-02-26T16:27:41Z</time>
      </trkpt>
      <trkpt lat="48.848192" lon="10.131571">
        <ele>583</ele>
        <time>2026-02-26T16:27:42Z</time>
      </trkpt>
      <trkpt lat="48.848230" lon="10.131596">
        <ele>583.3</ele>
        <time>2026-02-26T16:27:43Z</time>
      </trkpt>
      <trkpt lat="48.848242" lon="10.131608">
        <ele>583.4</ele>
        <time>2026-02-26T16:27:44Z</time>
      </trkpt>
      <trkpt lat="48.848264" lon="10.131635">
        <ele>583.7</ele>
        <time>2026-02-26T16:27:45Z</time>
      </trkpt>
      <trkpt lat="48.848297" lon="10.131666">
        <ele>584</ele>
        <time>2026-02-26T16:27:46Z</time>
      </trkpt>
      <trkpt lat="48.848308" lon="10.131676">
        <ele>584.1</ele>
        <time>2026-02-26T16:27:47Z</time>
      </trkpt>
      <trkpt lat="48.848338" lon="10.131702">
        <ele>584.4</ele>
        <time>2026-02-26T16:27:48Z</time>
      </trkpt>
      <trkpt lat="48.848346" lon="10.131711">
        <ele>584.5</ele>
        <time>2026-02-26T16:27:49Z</time>
      </trkpt>
      <trkpt lat="48.848358" lon="10.131729">
        <ele>584.7</ele>
        <time>2026-02-26T16:27:50Z</time>
      </trkpt>
      <trkpt lat="48.848370" lon="10.131747">
        <ele>584.9</ele>
        <time>2026-02-26T16:27:51Z</time>
      </trkpt>
      <trkpt lat="48.848382" lon="10.131767">
        <ele>585</ele>
        <time>2026-02-26T16:27:52Z</time>
      </trkpt>
      <trkpt lat="48.848395" lon="10.131787">
        <ele>585.2</ele>
        <time>2026-02-26T16:27:53Z</time>
      </trkpt>
      <trkpt lat="48.848409" lon="10.131809">
        <ele>585.4</ele>
        <time>2026-02-26T16:27:54Z</time>
      </trkpt>
      <trkpt lat="48.848417" lon="10.131820">
        <ele>585.5</ele>
        <time>2026-02-26T16:27:55Z</time>
      </trkpt>
      <trkpt lat="48.848426" lon="10.131832">
        <ele>585.6</ele>
        <time>2026-02-26T16:27:56Z</time>
      </trkpt>
      <trkpt lat="48.848442" lon="10.131846">
        <ele>585.8</ele>
        <time>2026-02-26T16:27:57Z</time>
      </trkpt>
      <trkpt lat="48.848456" lon="10.131857">
        <ele>586</ele>
        <time>2026-02-26T16:27:58Z</time>
      </trkpt>
      <trkpt lat="48.848479" lon="10.131877">
        <ele>586.2</ele>
        <time>2026-02-26T16:27:59Z</time>
      </trkpt>
      <trkpt lat="48.848489" lon="10.131886">
        <ele>586.3</ele>
        <time>2026-02-26T16:28:00Z</time>
      </trkpt>
      <trkpt lat="48.848514" lon="10.131909">
        <ele>586.6</ele>
        <time>2026-02-26T16:28:01Z</time>
      </trkpt>
      <trkpt lat="48.848522" lon="10.131916">
        <ele>586.7</ele>
        <time>2026-02-26T16:28:02Z</time>
      </trkpt>
      <trkpt lat="48.848549" lon="10.131943">
        <ele>587</ele>
        <time>2026-02-26T16:28:03Z</time>
      </trkpt>
      <trkpt lat="48.848555" lon="10.131952">
        <ele>587.1</ele>
        <time>2026-02-26T16:28:04Z</time>
      </trkpt>
      <trkpt lat="48.848583" lon="10.131986">
        <ele>587.4</ele>
        <time>2026-02-26T16:28:05Z</time>
      </trkpt>
      <trkpt lat="48.848592" lon="10.131996">
        <ele>587.5</ele>
        <time>2026-02-26T16:28:06Z</time>
      </trkpt>
      <trkpt lat="48.848612" lon="10.132025">
        <ele>587.8</ele>
        <time>2026-02-26T16:28:07Z</time>
      </trkpt>
      <trkpt lat="48.848637" lon="10.132070">
        <ele>588.1</ele>
        <time>2026-02-26T16:28:08Z</time>
      </trkpt>
      <trkpt lat="48.848645" lon="10.132086">
        <ele>588.3</ele>
        <time>2026-02-26T16:28:09Z</time>
      </trkpt>
      <trkpt lat="48.848665" lon="10.132130">
        <ele>588.6</ele>
        <time>2026-02-26T16:28:10Z</time>
      </trkpt>
      <trkpt lat="48.848671" lon="10.132145">
        <ele>588.7</ele>
        <time>2026-02-26T16:28:11Z</time>
      </trkpt>
      <trkpt lat="48.848694" lon="10.132184">
        <ele>589</ele>
        <time>2026-02-26T16:28:12Z</time>
      </trkpt>
      <trkpt lat="48.848701" lon="10.132197">
        <ele>589.1</ele>
        <time>2026-02-26T16:28:13Z</time>
      </trkpt>
      <trkpt lat="48.848718" lon="10.132216">
        <ele>589.3</ele>
        <time>2026-02-26T16:28:14Z</time>
      </trkpt>
      <trkpt lat="48.848730" lon="10.132230">
        <ele>589.5</ele>
        <time>2026-02-26T16:28:15Z</time>
      </trkpt>
      <trkpt lat="48.848741" lon="10.132251">
        <ele>589.6</ele>
        <time>2026-02-26T16:28:16Z</time>
      </trkpt>
      <trkpt lat="48.848751" lon="10.132271">
        <ele>589.8</ele>
        <time>2026-02-26T16:28:17Z</time>
      </trkpt>
      <trkpt lat="48.848773" lon="10.132295">
        <ele>590.1</ele>
        <time>2026-02-26T16:28:18Z</time>
      </trkpt>
      <trkpt lat="48.848783" lon="10.132303">
        <ele>590.2</ele>
        <time>2026-02-26T16:28:19Z</time>
      </trkpt>
      <trkpt lat="48.848816" lon="10.132325">
        <ele>590.5</ele>
        <time>2026-02-26T16:28:20Z</time>
      </trkpt>
      <trkpt lat="48.848827" lon="10.132335">
        <ele>590.7</ele>
        <time>2026-02-26T16:28:21Z</time>
      </trkpt>
      <trkpt lat="48.848861" lon="10.132363">
        <ele>591.1</ele>
        <time>2026-02-26T16:28:22Z</time>
      </trkpt>
      <trkpt lat="48.848872" lon="10.132374">
        <ele>591.2</ele>
        <time>2026-02-26T16:28:23Z</time>
      </trkpt>
      <trkpt lat="48.848895" lon="10.132398">
        <ele>591.5</ele>
        <time>2026-02-26T16:28:24Z</time>
      </trkpt>
      <trkpt lat="48.848905" lon="10.132414">
        <ele>591.6</ele>
        <time>2026-02-26T16:28:25Z</time>
      </trkpt>
      <trkpt lat="48.848918" lon="10.132441">
        <ele>591.8</ele>
        <time>2026-02-26T16:28:26Z</time>
      </trkpt>
      <trkpt lat="48.848934" lon="10.132484">
        <ele>592.2</ele>
        <time>2026-02-26T16:28:27Z</time>
      </trkpt>
      <trkpt lat="48.848938" lon="10.132498">
        <ele>592.3</ele>
        <time>2026-02-26T16:28:28Z</time>
      </trkpt>
      <trkpt lat="48.848952" lon="10.132535">
        <ele>592.6</ele>
        <time>2026-02-26T16:28:29Z</time>
      </trkpt>
      <trkpt lat="48.848957" lon="10.132550">
        <ele>592.7</ele>
        <time>2026-02-26T16:28:30Z</time>
      </trkpt>
      <trkpt lat="48.848960" lon="10.132575">
        <ele>592.8</ele>
        <time>2026-02-26T16:28:31Z</time>
      </trkpt>
      <trkpt lat="48.848964" lon="10.132599">
        <ele>593</ele>
        <time>2026-02-26T16:28:32Z</time>
      </trkpt>
      <trkpt lat="48.848973" lon="10.132620">
        <ele>593.2</ele>
        <time>2026-02-26T16:28:33Z</time>
      </trkpt>
      <trkpt lat="48.848980" lon="10.132635">
        <ele>593.3</ele>
        <time>2026-02-26T16:28:34Z</time>
      </trkpt>
      <trkpt lat="48.848988" lon="10.132653">
        <ele>593.4</ele>
        <time>2026-02-26T16:28:35Z</time>
      </trkpt>
      <trkpt lat="48.849000" lon="10.132666">
        <ele>593.6</ele>
        <time>2026-02-26T16:28:36Z</time>
      </trkpt>
      <trkpt lat="48.849026" lon="10.132693">
        <ele>593.9</ele>
        <time>2026-02-26T16:28:37Z</time>
      </trkpt>
      <trkpt lat="48.849035" lon="10.132702">
        <ele>594</ele>
        <time>2026-02-26T16:28:38Z</time>
      </trkpt>
      <trkpt lat="48.849061" lon="10.132727">
        <ele>594.3</ele>
        <time>2026-02-26T16:28:39Z</time>
      </trkpt>
      <trkpt lat="48.849068" lon="10.132734">
        <ele>594.4</ele>
        <time>2026-02-26T16:28:40Z</time>
      </trkpt>
      <trkpt lat="48.849079" lon="10.132753">
        <ele>594.6</ele>
        <time>2026-02-26T16:28:41Z</time>
      </trkpt>
      <trkpt lat="48.849090" lon="10.132775">
        <ele>594.7</ele>
        <time>2026-02-26T16:28:42Z</time>
      </trkpt>
      <trkpt lat="48.849100" lon="10.132796">
        <ele>594.9</ele>
        <time>2026-02-26T16:28:43Z</time>
      </trkpt>
      <trkpt lat="48.849112" lon="10.132815">
        <ele>595.1</ele>
        <time>2026-02-26T16:28:44Z</time>
      </trkpt>
      <trkpt lat="48.849125" lon="10.132831">
        <ele>595.2</ele>
        <time>2026-02-26T16:28:45Z</time>
      </trkpt>
      <trkpt lat="48.849141" lon="10.132846">
        <ele>595.4</ele>
        <time>2026-02-26T16:28:46Z</time>
      </trkpt>
      <trkpt lat="48.849155" lon="10.132860">
        <ele>595.6</ele>
        <time>2026-02-26T16:28:47Z</time>
      </trkpt>
      <trkpt lat="48.849166" lon="10.132879">
        <ele>595.8</ele>
        <time>2026-02-26T16:28:48Z</time>
      </trkpt>
      <trkpt lat="48.849177" lon="10.132917">
        <ele>596</ele>
        <time>2026-02-26T16:28:49Z</time>
      </trkpt>
      <trkpt lat="48.849180" lon="10.132930">
        <ele>596.1</ele>
        <time>2026-02-26T16:28:50Z</time>
      </trkpt>
      <trkpt lat="48.849189" lon="10.132949">
        <ele>596.3</ele>
        <time>2026-02-26T16:28:51Z</time>
      </trkpt>
      <trkpt lat="48.849205" lon="10.132966">
        <ele>596.5</ele>
        <time>2026-02-26T16:28:52Z</time>
      </trkpt>
      <trkpt lat="48.849224" lon="10.132984">
        <ele>596.7</ele>
        <time>2026-02-26T16:28:53Z</time>
      </trkpt>
      <trkpt lat="48.849230" lon="10.132994">
        <ele>596.8</ele>
        <time>2026-02-26T16:28:54Z</time>
      </trkpt>
      <trkpt lat="48.849237" lon="10.133004">
        <ele>596.9</ele>
        <time>2026-02-26T16:28:55Z</time>
      </trkpt>
      <trkpt lat="48.849246" lon="10.133019">
        <ele>597</ele>
        <time>2026-02-26T16:28:56Z</time>
      </trkpt>
      <trkpt lat="48.849259" lon="10.133029">
        <ele>597.2</ele>
        <time>2026-02-26T16:28:57Z</time>
      </trkpt>
      <trkpt lat="48.849276" lon="10.133039">
        <ele>597.4</ele>
        <time>2026-02-26T16:28:58Z</time>
      </trkpt>
      <trkpt lat="48.849290" lon="10.133054">
        <ele>597.5</ele>
        <time>2026-02-26T16:28:59Z</time>
      </trkpt>
      <trkpt lat="48.849305" lon="10.133075">
        <ele>597.7</ele>
        <time>2026-02-26T16:29:00Z</time>
      </trkpt>
      <trkpt lat="48.849316" lon="10.133093">
        <ele>597.9</ele>
        <time>2026-02-26T16:29:01Z</time>
      </trkpt>
      <trkpt lat="48.849326" lon="10.133111">
        <ele>598.1</ele>
        <time>2026-02-26T16:29:02Z</time>
      </trkpt>
      <trkpt lat="48.849335" lon="10.133130">
        <ele>598.2</ele>
        <time>2026-02-26T16:29:03Z</time>
      </trkpt>
      <trkpt lat="48.849344" lon="10.133151">
        <ele>598.4</ele>
        <time>2026-02-26T16:29:04Z</time>
      </trkpt>
      <trkpt lat="48.849356" lon="10.133166">
        <ele>598.6</ele>
        <time>2026-02-26T16:29:05Z</time>
      </trkpt>
      <trkpt lat="48.849376" lon="10.133195">
        <ele>598.8</ele>
        <time>2026-02-26T16:29:06Z</time>
      </trkpt>
      <trkpt lat="48.849381" lon="10.133206">
        <ele>598.9</ele>
        <time>2026-02-26T16:29:07Z</time>
      </trkpt>
      <trkpt lat="48.849397" lon="10.133243">
        <ele>599.2</ele>
        <time>2026-02-26T16:29:08Z</time>
      </trkpt>
      <trkpt lat="48.849401" lon="10.133256">
        <ele>599.3</ele>
        <time>2026-02-26T16:29:09Z</time>
      </trkpt>
      <trkpt lat="48.849420" lon="10.133293">
        <ele>599.6</ele>
        <time>2026-02-26T16:29:10Z</time>
      </trkpt>
      <trkpt lat="48.849427" lon="10.133306">
        <ele>599.8</ele>
        <time>2026-02-26T16:29:11Z</time>
      </trkpt>
      <trkpt lat="48.849448" lon="10.133333">
        <ele>600</ele>
        <time>2026-02-26T16:29:12Z</time>
      </trkpt>
      <trkpt lat="48.849476" lon="10.133377">
        <ele>600.5</ele>
        <time>2026-02-26T16:29:13Z</time>
      </trkpt>
      <trkpt lat="48.849483" lon="10.133396">
        <ele>600.6</ele>
        <time>2026-02-26T16:29:14Z</time>
      </trkpt>
      <trkpt lat="48.849501" lon="10.133435">
        <ele>600.9</ele>
        <time>2026-02-26T16:29:15Z</time>
      </trkpt>
      <trkpt lat="48.849506" lon="10.133447">
        <ele>601</ele>
        <time>2026-02-26T16:29:16Z</time>
      </trkpt>
      <trkpt lat="48.849517" lon="10.133496">
        <ele>601.4</ele>
        <time>2026-02-26T16:29:17Z</time>
      </trkpt>
      <trkpt lat="48.849520" lon="10.133514">
        <ele>601.5</ele>
        <time>2026-02-26T16:29:18Z</time>
      </trkpt>
      <trkpt lat="48.849531" lon="10.133563">
        <ele>601.9</ele>
        <time>2026-02-26T16:29:19Z</time>
      </trkpt>
      <trkpt lat="48.849536" lon="10.133580">
        <ele>602</ele>
        <time>2026-02-26T16:29:20Z</time>
      </trkpt>
      <trkpt lat="48.849564" lon="10.133611">
        <ele>602.3</ele>
        <time>2026-02-26T16:29:21Z</time>
      </trkpt>
      <trkpt lat="48.849570" lon="10.133620">
        <ele>602.4</ele>
        <time>2026-02-26T16:29:22Z</time>
      </trkpt>
      <trkpt lat="48.849580" lon="10.133641">
        <ele>602.6</ele>
        <time>2026-02-26T16:29:23Z</time>
      </trkpt>
      <trkpt lat="48.849587" lon="10.133669">
        <ele>602.8</ele>
        <time>2026-02-26T16:29:24Z</time>
      </trkpt>
      <trkpt lat="48.849597" lon="10.133713">
        <ele>603.1</ele>
        <time>2026-02-26T16:29:25Z</time>
      </trkpt>
      <trkpt lat="48.849599" lon="10.133729">
        <ele>603.2</ele>
        <time>2026-02-26T16:29:26Z</time>
      </trkpt>
      <trkpt lat="48.849615" lon="10.133772">
        <ele>603.6</ele>
        <time>2026-02-26T16:29:27Z</time>
      </trkpt>
      <trkpt lat="48.849621" lon="10.133786">
        <ele>603.7</ele>
        <time>2026-02-26T16:29:28Z</time>
      </trkpt>
      <trkpt lat="48.849624" lon="10.133808">
        <ele>603.8</ele>
        <time>2026-02-26T16:29:29Z</time>
      </trkpt>
      <trkpt lat="48.849626" lon="10.133832">
        <ele>604</ele>
        <time>2026-02-26T16:29:30Z</time>
      </trkpt>
      <trkpt lat="48.849629" lon="10.133856">
        <ele>604.1</ele>
        <time>2026-02-26T16:29:31Z</time>
      </trkpt>
      <trkpt lat="48.849634" lon="10.133878">
        <ele>604.3</ele>
        <time>2026-02-26T16:29:32Z</time>
      </trkpt>
      <trkpt lat="48.849646" lon="10.133917">
        <ele>604.6</ele>
        <time>2026-02-26T16:29:33Z</time>
      </trkpt>
      <trkpt lat="48.849653" lon="10.133931">
        <ele>604.7</ele>
        <time>2026-02-26T16:29:34Z</time>
      </trkpt>
      <trkpt lat="48.849670" lon="10.133971">
        <ele>605</ele>
        <time>2026-02-26T16:29:35Z</time>
      </trkpt>
      <trkpt lat="48.849675" lon="10.133984">
        <ele>605.1</ele>
        <time>2026-02-26T16:29:36Z</time>
      </trkpt>
      <trkpt lat="48.849679" lon="10.134007">
        <ele>605.3</ele>
        <time>2026-02-26T16:29:37Z</time>
      </trkpt>
      <trkpt lat="48.849676" lon="10.134037">
        <ele>605.5</ele>
        <time>2026-02-26T16:29:38Z</time>
      </trkpt>
      <trkpt lat="48.849681" lon="10.134057">
        <ele>605.6</ele>
        <time>2026-02-26T16:29:39Z</time>
      </trkpt>
      <trkpt lat="48.849693" lon="10.134077">
        <ele>605.8</ele>
        <time>2026-02-26T16:29:40Z</time>
      </trkpt>
      <trkpt lat="48.849710" lon="10.134122">
        <ele>606.1</ele>
        <time>2026-02-26T16:29:41Z</time>
      </trkpt>
      <trkpt lat="48.849715" lon="10.134138">
        <ele>606.2</ele>
        <time>2026-02-26T16:29:42Z</time>
      </trkpt>
      <trkpt lat="48.849726" lon="10.134182">
        <ele>606.5</ele>
        <time>2026-02-26T16:29:43Z</time>
      </trkpt>
      <trkpt lat="48.849739" lon="10.134226">
        <ele>606.9</ele>
        <time>2026-02-26T16:29:44Z</time>
      </trkpt>
      <trkpt lat="48.849743" lon="10.134242">
        <ele>607</ele>
        <time>2026-02-26T16:29:45Z</time>
      </trkpt>
      <trkpt lat="48.849753" lon="10.134268">
        <ele>607.2</ele>
        <time>2026-02-26T16:29:46Z</time>
      </trkpt>
      <trkpt lat="48.849759" lon="10.134290">
        <ele>607.3</ele>
        <time>2026-02-26T16:29:47Z</time>
      </trkpt>
      <trkpt lat="48.849764" lon="10.134315">
        <ele>607.5</ele>
        <time>2026-02-26T16:29:48Z</time>
      </trkpt>
      <trkpt lat="48.849768" lon="10.134343">
        <ele>607.7</ele>
        <time>2026-02-26T16:29:49Z</time>
      </trkpt>
      <trkpt lat="48.849773" lon="10.134370">
        <ele>607.8</ele>
        <time>2026-02-26T16:29:50Z</time>
      </trkpt>
      <trkpt lat="48.849779" lon="10.134394">
        <ele>608</ele>
        <time>2026-02-26T16:29:51Z</time>
      </trkpt>
      <trkpt lat="48.849797" lon="10.134426">
        <ele>608.3</ele>
        <time>2026-02-26T16:29:52Z</time>
      </trkpt>
      <trkpt lat="48.849806" lon="10.134434">
        <ele>608.4</ele>
        <time>2026-02-26T16:29:53Z</time>
      </trkpt>
      <trkpt lat="48.849825" lon="10.134470">
        <ele>608.7</ele>
        <time>2026-02-26T16:29:54Z</time>
      </trkpt>
      <trkpt lat="48.849829" lon="10.134484">
        <ele>608.8</ele>
        <time>2026-02-26T16:29:55Z</time>
      </trkpt>
      <trkpt lat="48.849839" lon="10.134504">
        <ele>608.9</ele>
        <time>2026-02-26T16:29:56Z</time>
      </trkpt>
      <trkpt lat="48.849850" lon="10.134525">
        <ele>609.1</ele>
        <time>2026-02-26T16:29:57Z</time>
      </trkpt>
      <trkpt lat="48.849857" lon="10.134547">
        <ele>609.3</ele>
        <time>2026-02-26T16:29:58Z</time>
      </trkpt>
      <trkpt lat="48.849868" lon="10.134569">
        <ele>609.5</ele>
        <time>2026-02-26T16:29:59Z</time>
      </trkpt>
      <trkpt lat="48.849887" lon="10.134602">
        <ele>609.8</ele>
        <time>2026-02-26T16:30:00Z</time>
      </trkpt>
      <trkpt lat="48.849891" lon="10.134614">
        <ele>609.8</ele>
        <time>2026-02-26T16:30:01Z</time>
      </trkpt>
      <trkpt lat="48.849896" lon="10.134635">
        <ele>610</ele>
        <time>2026-02-26T16:30:02Z</time>
      </trkpt>
      <trkpt lat="48.849901" lon="10.134660">
        <ele>610.2</ele>
        <time>2026-02-26T16:30:03Z</time>
      </trkpt>
      <trkpt lat="48.849907" lon="10.134679">
        <ele>610.3</ele>
        <time>2026-02-26T16:30:04Z</time>
      </trkpt>
      <trkpt lat="48.849915" lon="10.134705">
        <ele>610.5</ele>
        <time>2026-02-26T16:30:05Z</time>
      </trkpt>
      <trkpt lat="48.849926" lon="10.134743">
        <ele>610.8</ele>
        <time>2026-02-26T16:30:06Z</time>
      </trkpt>
      <trkpt lat="48.849929" lon="10.134758">
        <ele>610.9</ele>
        <time>2026-02-26T16:30:07Z</time>
      </trkpt>
      <trkpt lat="48.849933" lon="10.134782">
        <ele>611</ele>
        <time>2026-02-26T16:30:08Z</time>
      </trkpt>
      <trkpt lat="48.849937" lon="10.134809">
        <ele>611.2</ele>
        <time>2026-02-26T16:30:09Z</time>
      </trkpt>
      <trkpt lat="48.849938" lon="10.134854">
        <ele>611.5</ele>
        <time>2026-02-26T16:30:10Z</time>
      </trkpt>
      <trkpt lat="48.849937" lon="10.134869">
        <ele>611.6</ele>
        <time>2026-02-26T16:30:11Z</time>
      </trkpt>
      <trkpt lat="48.849937" lon="10.134896">
        <ele>611.8</ele>
        <time>2026-02-26T16:30:12Z</time>
      </trkpt>
      <trkpt lat="48.849944" lon="10.134915">
        <ele>611.9</ele>
        <time>2026-02-26T16:30:13Z</time>
      </trkpt>
      <trkpt lat="48.849953" lon="10.134942">
        <ele>612.1</ele>
        <time>2026-02-26T16:30:14Z</time>
      </trkpt>
      <trkpt lat="48.849960" lon="10.134964">
        <ele>612.3</ele>
        <time>2026-02-26T16:30:15Z</time>
      </trkpt>
      <trkpt lat="48.849977" lon="10.134996">
        <ele>612.6</ele>
        <time>2026-02-26T16:30:16Z</time>
      </trkpt>
      <trkpt lat="48.849982" lon="10.135007">
        <ele>612.6</ele>
        <time>2026-02-26T16:30:17Z</time>
      </trkpt>
      <trkpt lat="48.849987" lon="10.135030">
        <ele>612.8</ele>
        <time>2026-02-26T16:30:18Z</time>
      </trkpt>
      <trkpt lat="48.849984" lon="10.135052">
        <ele>612.9</ele>
        <time>2026-02-26T16:30:19Z</time>
      </trkpt>
      <trkpt lat="48.849990" lon="10.135098">
        <ele>613.2</ele>
        <time>2026-02-26T16:30:20Z</time>
      </trkpt>
      <trkpt lat="48.849996" lon="10.135114">
        <ele>613.4</ele>
        <time>2026-02-26T16:30:21Z</time>
      </trkpt>
      <trkpt lat="48.850013" lon="10.135161">
        <ele>613.7</ele>
        <time>2026-02-26T16:30:22Z</time>
      </trkpt>
      <trkpt lat="48.850017" lon="10.135177">
        <ele>613.8</ele>
        <time>2026-02-26T16:30:23Z</time>
      </trkpt>
      <trkpt lat="48.850021" lon="10.135213">
        <ele>614.1</ele>
        <time>2026-02-26T16:30:24Z</time>
      </trkpt>
      <trkpt lat="48.850021" lon="10.135226">
        <ele>614.1</ele>
        <time>2026-02-26T16:30:25Z</time>
      </trkpt>
      <trkpt lat="48.850021" lon="10.135240">
        <ele>614.2</ele>
        <time>2026-02-26T16:30:26Z</time>
      </trkpt>
      <trkpt lat="48.850020" lon="10.135266">
        <ele>614.4</ele>
        <time>2026-02-26T16:30:27Z</time>
      </trkpt>
      <trkpt lat="48.850030" lon="10.135292">
        <ele>614.6</ele>
        <time>2026-02-26T16:30:28Z</time>
      </trkpt>
      <trkpt lat="48.850042" lon="10.135330">
        <ele>614.9</ele>
        <time>2026-02-26T16:30:29Z</time>
      </trkpt>
      <trkpt lat="48.850046" lon="10.135346">
        <ele>615</ele>
        <time>2026-02-26T16:30:30Z</time>
      </trkpt>
      <trkpt lat="48.850056" lon="10.135393">
        <ele>615.3</ele>
        <time>2026-02-26T16:30:31Z</time>
      </trkpt>
      <trkpt lat="48.850058" lon="10.135406">
        <ele>615.4</ele>
        <time>2026-02-26T16:30:32Z</time>
      </trkpt>
      <trkpt lat="48.850058" lon="10.135433">
        <ele>615.6</ele>
        <time>2026-02-26T16:30:33Z</time>
      </trkpt>
      <trkpt lat="48.850063" lon="10.135454">
        <ele>615.7</ele>
        <time>2026-02-26T16:30:34Z</time>
      </trkpt>
      <trkpt lat="48.850070" lon="10.135479">
        <ele>615.9</ele>
        <time>2026-02-26T16:30:35Z</time>
      </trkpt>
      <trkpt lat="48.850074" lon="10.135503">
        <ele>616</ele>
        <time>2026-02-26T16:30:36Z</time>
      </trkpt>
      <trkpt lat="48.850081" lon="10.135544">
        <ele>616.3</ele>
        <time>2026-02-26T16:30:37Z</time>
      </trkpt>
      <trkpt lat="48.850084" lon="10.135557">
        <ele>616.4</ele>
        <time>2026-02-26T16:30:38Z</time>
      </trkpt>
      <trkpt lat="48.850085" lon="10.135601">
        <ele>616.7</ele>
        <time>2026-02-26T16:30:39Z</time>
      </trkpt>
      <trkpt lat="48.850085" lon="10.135615">
        <ele>616.8</ele>
        <time>2026-02-26T16:30:40Z</time>
      </trkpt>
      <trkpt lat="48.850096" lon="10.135655">
        <ele>617</ele>
        <time>2026-02-26T16:30:41Z</time>
      </trkpt>
      <trkpt lat="48.850101" lon="10.135670">
        <ele>617.2</ele>
        <time>2026-02-26T16:30:42Z</time>
      </trkpt>
      <trkpt lat="48.850115" lon="10.135715">
        <ele>617.5</ele>
        <time>2026-02-26T16:30:43Z</time>
      </trkpt>
      <trkpt lat="48.850119" lon="10.135731">
        <ele>617.6</ele>
        <time>2026-02-26T16:30:44Z</time>
      </trkpt>
      <trkpt lat="48.850128" lon="10.135777">
        <ele>617.9</ele>
        <time>2026-02-26T16:30:45Z</time>
      </trkpt>
      <trkpt lat="48.850132" lon="10.135792">
        <ele>618</ele>
        <time>2026-02-26T16:30:46Z</time>
      </trkpt>
      <trkpt lat="48.850136" lon="10.135834">
        <ele>618.3</ele>
        <time>2026-02-26T16:30:47Z</time>
      </trkpt>
      <trkpt lat="48.850137" lon="10.135849">
        <ele>618.4</ele>
        <time>2026-02-26T16:30:48Z</time>
      </trkpt>
      <trkpt lat="48.850150" lon="10.135892">
        <ele>618.7</ele>
        <time>2026-02-26T16:30:49Z</time>
      </trkpt>
      <trkpt lat="48.850154" lon="10.135905">
        <ele>618.7</ele>
        <time>2026-02-26T16:30:50Z</time>
      </trkpt>
      <trkpt lat="48.850163" lon="10.135947">
        <ele>619</ele>
        <time>2026-02-26T16:30:51Z</time>
      </trkpt>
      <trkpt lat="48.850167" lon="10.135962">
        <ele>619.1</ele>
        <time>2026-02-26T16:30:52Z</time>
      </trkpt>
      <trkpt lat="48.850183" lon="10.136015">
        <ele>619.5</ele>
        <time>2026-02-26T16:30:53Z</time>
      </trkpt>
      <trkpt lat="48.850187" lon="10.136037">
        <ele>619.6</ele>
        <time>2026-02-26T16:30:54Z</time>
      </trkpt>
      <trkpt lat="48.850211" lon="10.136081">
        <ele>620</ele>
        <time>2026-02-26T16:30:55Z</time>
      </trkpt>
      <trkpt lat="48.850219" lon="10.136097">
        <ele>620.1</ele>
        <time>2026-02-26T16:30:56Z</time>
      </trkpt>
      <trkpt lat="48.850231" lon="10.136142">
        <ele>620.4</ele>
        <time>2026-02-26T16:30:57Z</time>
      </trkpt>
      <trkpt lat="48.850231" lon="10.136157">
        <ele>620.5</ele>
        <time>2026-02-26T16:30:58Z</time>
      </trkpt>
      <trkpt lat="48.850230" lon="10.136202">
        <ele>620.8</ele>
        <time>2026-02-26T16:30:59Z</time>
      </trkpt>
      <trkpt lat="48.850230" lon="10.136220">
        <ele>620.9</ele>
        <time>2026-02-26T16:31:00Z</time>
      </trkpt>
      <trkpt lat="48.850239" lon="10.136262">
        <ele>621.2</ele>
        <time>2026-02-26T16:31:01Z</time>
      </trkpt>
      <trkpt lat="48.850242" lon="10.136274">
        <ele>621.3</ele>
        <time>2026-02-26T16:31:02Z</time>
      </trkpt>
      <trkpt lat="48.850238" lon="10.136319">
        <ele>621.6</ele>
        <time>2026-02-26T16:31:03Z</time>
      </trkpt>
      <trkpt lat="48.850237" lon="10.136333">
        <ele>621.6</ele>
        <time>2026-02-26T16:31:04Z</time>
      </trkpt>
      <trkpt lat="48.850235" lon="10.136379">
        <ele>622</ele>
        <time>2026-02-26T16:31:05Z</time>
      </trkpt>
      <trkpt lat="48.850233" lon="10.136393">
        <ele>622.1</ele>
        <time>2026-02-26T16:31:06Z</time>
      </trkpt>
      <trkpt lat="48.850229" lon="10.136435">
        <ele>622.3</ele>
        <time>2026-02-26T16:31:07Z</time>
      </trkpt>
      <trkpt lat="48.850227" lon="10.136449">
        <ele>622.4</ele>
        <time>2026-02-26T16:31:08Z</time>
      </trkpt>
      <trkpt lat="48.850226" lon="10.136475">
        <ele>622.6</ele>
        <time>2026-02-26T16:31:09Z</time>
      </trkpt>
      <trkpt lat="48.850232" lon="10.136500">
        <ele>622.8</ele>
        <time>2026-02-26T16:31:10Z</time>
      </trkpt>
      <trkpt lat="48.850237" lon="10.136524">
        <ele>623</ele>
        <time>2026-02-26T16:31:11Z</time>
      </trkpt>
      <trkpt lat="48.850236" lon="10.136546">
        <ele>623.1</ele>
        <time>2026-02-26T16:31:12Z</time>
      </trkpt>
      <trkpt lat="48.850229" lon="10.136593">
        <ele>623.4</ele>
        <time>2026-02-26T16:31:13Z</time>
      </trkpt>
      <trkpt lat="48.850225" lon="10.136607">
        <ele>623.5</ele>
        <time>2026-02-26T16:31:14Z</time>
      </trkpt>
      <trkpt lat="48.850226" lon="10.136625">
        <ele>623.7</ele>
        <time>2026-02-26T16:31:15Z</time>
      </trkpt>
      <trkpt lat="48.850226" lon="10.136650">
        <ele>623.8</ele>
        <time>2026-02-26T16:31:16Z</time>
      </trkpt>
      <trkpt lat="48.850228" lon="10.136697">
        <ele>624.1</ele>
        <time>2026-02-26T16:31:17Z</time>
      </trkpt>
      <trkpt lat="48.850229" lon="10.136713">
        <ele>624.3</ele>
        <time>2026-02-26T16:31:18Z</time>
      </trkpt>
      <trkpt lat="48.850236" lon="10.136756">
        <ele>624.5</ele>
        <time>2026-02-26T16:31:19Z</time>
      </trkpt>
      <trkpt lat="48.850236" lon="10.136771">
        <ele>624.6</ele>
        <time>2026-02-26T16:31:20Z</time>
      </trkpt>
      <trkpt lat="48.850233" lon="10.136796">
        <ele>624.8</ele>
        <time>2026-02-26T16:31:21Z</time>
      </trkpt>
      <trkpt lat="48.850234" lon="10.136818">
        <ele>625</ele>
        <time>2026-02-26T16:31:22Z</time>
      </trkpt>
      <trkpt lat="48.850235" lon="10.136839">
        <ele>625.1</ele>
        <time>2026-02-26T16:31:23Z</time>
      </trkpt>
      <trkpt lat="48.850232" lon="10.136867">
        <ele>625.3</ele>
        <time>2026-02-26T16:31:24Z</time>
      </trkpt>
      <trkpt lat="48.850227" lon="10.136893">
        <ele>625.5</ele>
        <time>2026-02-26T16:31:25Z</time>
      </trkpt>
      <trkpt lat="48.850230" lon="10.136914">
        <ele>625.6</ele>
        <time>2026-02-26T16:31:26Z</time>
      </trkpt>
      <trkpt lat="48.850237" lon="10.136940">
        <ele>625.8</ele>
        <time>2026-02-26T16:31:27Z</time>
      </trkpt>
      <trkpt lat="48.850246" lon="10.136959">
        <ele>625.9</ele>
        <time>2026-02-26T16:31:28Z</time>
      </trkpt>
      <trkpt lat="48.850250" lon="10.136983">
        <ele>626.1</ele>
        <time>2026-02-26T16:31:29Z</time>
      </trkpt>
      <trkpt lat="48.850250" lon="10.137010">
        <ele>626.3</ele>
        <time>2026-02-26T16:31:30Z</time>
      </trkpt>
      <trkpt lat="48.850264" lon="10.137044">
        <ele>626.6</ele>
        <time>2026-02-26T16:31:31Z</time>
      </trkpt>
      <trkpt lat="48.850269" lon="10.137056">
        <ele>626.7</ele>
        <time>2026-02-26T16:31:32Z</time>
      </trkpt>
      <trkpt lat="48.850285" lon="10.137106">
        <ele>627</ele>
        <time>2026-02-26T16:31:33Z</time>
      </trkpt>
      <trkpt lat="48.850290" lon="10.137125">
        <ele>627.2</ele>
        <time>2026-02-26T16:31:34Z</time>
      </trkpt>
      <trkpt lat="48.850299" lon="10.137175">
        <ele>627.5</ele>
        <time>2026-02-26T16:31:35Z</time>
      </trkpt>
      <trkpt lat="48.850300" lon="10.137187">
        <ele>627.6</ele>
        <time>2026-02-26T16:31:36Z</time>
      </trkpt>
      <trkpt lat="48.850304" lon="10.137212">
        <ele>627.8</ele>
        <time>2026-02-26T16:31:37Z</time>
      </trkpt>
      <trkpt lat="48.850306" lon="10.137236">
        <ele>627.9</ele>
        <time>2026-02-26T16:31:38Z</time>
      </trkpt>
      <trkpt lat="48.850308" lon="10.137259">
        <ele>628.1</ele>
        <time>2026-02-26T16:31:39Z</time>
      </trkpt>
      <trkpt lat="48.850308" lon="10.137285">
        <ele>628.3</ele>
        <time>2026-02-26T16:31:40Z</time>
      </trkpt>
      <trkpt lat="48.850312" lon="10.137304">
        <ele>628.4</ele>
        <time>2026-02-26T16:31:41Z</time>
      </trkpt>
      <trkpt lat="48.850319" lon="10.137325">
        <ele>628.6</ele>
        <time>2026-02-26T16:31:42Z</time>
      </trkpt>
      <trkpt lat="48.850328" lon="10.137341">
        <ele>628.7</ele>
        <time>2026-02-26T16:31:43Z</time>
      </trkpt>
      <trkpt lat="48.850337" lon="10.137358">
        <ele>628.9</ele>
        <time>2026-02-26T16:31:44Z</time>
      </trkpt>
      <trkpt lat="48.850344" lon="10.137375">
        <ele>629</ele>
        <time>2026-02-26T16:31:45Z</time>
      </trkpt>
      <trkpt lat="48.850350" lon="10.137396">
        <ele>629.2</ele>
        <time>2026-02-26T16:31:46Z</time>
      </trkpt>
      <trkpt lat="48.850357" lon="10.137418">
        <ele>629.3</ele>
        <time>2026-02-26T16:31:47Z</time>
      </trkpt>
      <trkpt lat="48.850364" lon="10.137441">
        <ele>629.5</ele>
        <time>2026-02-26T16:31:48Z</time>
      </trkpt>
      <trkpt lat="48.850374" lon="10.137479">
        <ele>629.8</ele>
        <time>2026-02-26T16:31:49Z</time>
      </trkpt>
      <trkpt lat="48.850376" lon="10.137494">
        <ele>629.9</ele>
        <time>2026-02-26T16:31:50Z</time>
      </trkpt>
      <trkpt lat="48.850382" lon="10.137539">
        <ele>630.2</ele>
        <time>2026-02-26T16:31:51Z</time>
      </trkpt>
      <trkpt lat="48.850384" lon="10.137556">
        <ele>630.3</ele>
        <time>2026-02-26T16:31:52Z</time>
      </trkpt>
      <trkpt lat="48.850387" lon="10.137604">
        <ele>630.6</ele>
        <time>2026-02-26T16:31:53Z</time>
      </trkpt>
      <trkpt lat="48.850388" lon="10.137620">
        <ele>630.8</ele>
        <time>2026-02-26T16:31:54Z</time>
      </trkpt>
      <trkpt lat="48.850397" lon="10.137646">
        <ele>631</ele>
        <time>2026-02-26T16:31:55Z</time>
      </trkpt>
      <trkpt lat="48.850401" lon="10.137666">
        <ele>631.1</ele>
        <time>2026-02-26T16:31:56Z</time>
      </trkpt>
      <trkpt lat="48.850406" lon="10.137690">
        <ele>631.3</ele>
        <time>2026-02-26T16:31:57Z</time>
      </trkpt>
      <trkpt lat="48.850412" lon="10.137715">
        <ele>631.5</ele>
        <time>2026-02-26T16:31:58Z</time>
      </trkpt>
      <trkpt lat="48.850430" lon="10.137752">
        <ele>631.8</ele>
        <time>2026-02-26T16:31:59Z</time>
      </trkpt>
      <trkpt lat="48.850439" lon="10.137765">
        <ele>631.9</ele>
        <time>2026-02-26T16:32:00Z</time>
      </trkpt>
      <trkpt lat="48.850461" lon="10.137792">
        <ele>632.2</ele>
        <time>2026-02-26T16:32:01Z</time>
      </trkpt>
      <trkpt lat="48.850486" lon="10.137841">
        <ele>632.6</ele>
        <time>2026-02-26T16:32:02Z</time>
      </trkpt>
      <trkpt lat="48.850492" lon="10.137862">
        <ele>632.8</ele>
        <time>2026-02-26T16:32:03Z</time>
      </trkpt>
      <trkpt lat="48.850498" lon="10.137888">
        <ele>633</ele>
        <time>2026-02-26T16:32:04Z</time>
      </trkpt>
      <trkpt lat="48.850499" lon="10.137911">
        <ele>633.1</ele>
        <time>2026-02-26T16:32:05Z</time>
      </trkpt>
      <trkpt lat="48.850499" lon="10.137935">
        <ele>633.3</ele>
        <time>2026-02-26T16:32:06Z</time>
      </trkpt>
      <trkpt lat="48.850501" lon="10.137960">
        <ele>633.5</ele>
        <time>2026-02-26T16:32:07Z</time>
      </trkpt>
      <trkpt lat="48.850511" lon="10.138004">
        <ele>633.8</ele>
        <time>2026-02-26T16:32:08Z</time>
      </trkpt>
      <trkpt lat="48.850513" lon="10.138023">
        <ele>633.9</ele>
        <time>2026-02-26T16:32:09Z</time>
      </trkpt>
      <trkpt lat="48.850515" lon="10.138052">
        <ele>634.1</ele>
        <time>2026-02-26T16:32:10Z</time>
      </trkpt>
      <trkpt lat="48.850516" lon="10.138076">
        <ele>634.3</ele>
        <time>2026-02-26T16:32:11Z</time>
      </trkpt>
      <trkpt lat="48.850521" lon="10.138095">
        <ele>634.4</ele>
        <time>2026-02-26T16:32:12Z</time>
      </trkpt>
      <trkpt lat="48.850523" lon="10.138119">
        <ele>634.6</ele>
        <time>2026-02-26T16:32:13Z</time>
      </trkpt>
      <trkpt lat="48.850525" lon="10.138144">
        <ele>634.7</ele>
        <time>2026-02-26T16:32:14Z</time>
      </trkpt>
      <trkpt lat="48.850529" lon="10.138171">
        <ele>634.9</ele>
        <time>2026-02-26T16:32:15Z</time>
      </trkpt>
      <trkpt lat="48.850540" lon="10.138214">
        <ele>635.2</ele>
        <time>2026-02-26T16:32:16Z</time>
      </trkpt>
      <trkpt lat="48.850542" lon="10.138230">
        <ele>635.3</ele>
        <time>2026-02-26T16:32:17Z</time>
      </trkpt>
      <trkpt lat="48.850547" lon="10.138281">
        <ele>635.7</ele>
        <time>2026-02-26T16:32:18Z</time>
      </trkpt>
      <trkpt lat="48.850549" lon="10.138299">
        <ele>635.8</ele>
        <time>2026-02-26T16:32:19Z</time>
      </trkpt>
      <trkpt lat="48.850562" lon="10.138339">
        <ele>636.1</ele>
        <time>2026-02-26T16:32:20Z</time>
      </trkpt>
      <trkpt lat="48.850567" lon="10.138352">
        <ele>636.2</ele>
        <time>2026-02-26T16:32:21Z</time>
      </trkpt>
      <trkpt lat="48.850577" lon="10.138398">
        <ele>636.5</ele>
        <time>2026-02-26T16:32:22Z</time>
      </trkpt>
      <trkpt lat="48.850579" lon="10.138413">
        <ele>636.6</ele>
        <time>2026-02-26T16:32:23Z</time>
      </trkpt>
      <trkpt lat="48.850578" lon="10.138456">
        <ele>636.9</ele>
        <time>2026-02-26T16:32:24Z</time>
      </trkpt>
      <trkpt lat="48.850576" lon="10.138472">
        <ele>637</ele>
        <time>2026-02-26T16:32:25Z</time>
      </trkpt>
      <trkpt lat="48.850573" lon="10.138524">
        <ele>637.4</ele>
        <time>2026-02-26T16:32:26Z</time>
      </trkpt>
      <trkpt lat="48.850571" lon="10.138540">
        <ele>637.5</ele>
        <time>2026-02-26T16:32:27Z</time>
      </trkpt>
      <trkpt lat="48.850564" lon="10.138588">
        <ele>637.8</ele>
        <time>2026-02-26T16:32:28Z</time>
      </trkpt>
      <trkpt lat="48.850563" lon="10.138601">
        <ele>637.9</ele>
        <time>2026-02-26T16:32:29Z</time>
      </trkpt>
      <trkpt lat="48.850565" lon="10.138628">
        <ele>638.1</ele>
        <time>2026-02-26T16:32:30Z</time>
      </trkpt>
      <trkpt lat="48.850571" lon="10.138655">
        <ele>638.2</ele>
        <time>2026-02-26T16:32:31Z</time>
      </trkpt>
      <trkpt lat="48.850574" lon="10.138677">
        <ele>638.4</ele>
        <time>2026-02-26T16:32:32Z</time>
      </trkpt>
      <trkpt lat="48.850572" lon="10.138703">
        <ele>638.6</ele>
        <time>2026-02-26T16:32:33Z</time>
      </trkpt>
      <trkpt lat="48.850574" lon="10.138754">
        <ele>638.9</ele>
        <time>2026-02-26T16:32:34Z</time>
      </trkpt>
      <trkpt lat="48.850575" lon="10.138772">
        <ele>639</ele>
        <time>2026-02-26T16:32:35Z</time>
      </trkpt>
      <trkpt lat="48.850570" lon="10.138800">
        <ele>639.2</ele>
        <time>2026-02-26T16:32:36Z</time>
      </trkpt>
      <trkpt lat="48.850569" lon="10.138823">
        <ele>639.4</ele>
        <time>2026-02-26T16:32:37Z</time>
      </trkpt>
      <trkpt lat="48.850569" lon="10.138848">
        <ele>639.5</ele>
        <time>2026-02-26T16:32:38Z</time>
      </trkpt>
      <trkpt lat="48.850567" lon="10.138876">
        <ele>639.7</ele>
        <time>2026-02-26T16:32:39Z</time>
      </trkpt>
      <trkpt lat="48.850565" lon="10.138919">
        <ele>640</ele>
        <time>2026-02-26T16:32:40Z</time>
      </trkpt>
      <trkpt lat="48.850563" lon="10.138934">
        <ele>640.1</ele>
        <time>2026-02-26T16:32:41Z</time>
      </trkpt>
      <trkpt lat="48.850546" lon="10.138979">
        <ele>640.4</ele>
        <time>2026-02-26T16:32:42Z</time>
      </trkpt>
      <trkpt lat="48.850538" lon="10.138994">
        <ele>640.6</ele>
        <time>2026-02-26T16:32:43Z</time>
      </trkpt>
      <trkpt lat="48.850523" lon="10.139019">
        <ele>640.8</ele>
        <time>2026-02-26T16:32:44Z</time>
      </trkpt>
      <trkpt lat="48.850520" lon="10.139030">
        <ele>640.8</ele>
        <time>2026-02-26T16:32:45Z</time>
      </trkpt>
      <trkpt lat="48.850504" lon="10.139047">
        <ele>641</ele>
        <time>2026-02-26T16:32:46Z</time>
      </trkpt>
      <trkpt lat="48.850495" lon="10.139057">
        <ele>641.1</ele>
        <time>2026-02-26T16:32:47Z</time>
      </trkpt>
      <trkpt lat="48.850486" lon="10.139066">
        <ele>641.2</ele>
        <time>2026-02-26T16:32:48Z</time>
      </trkpt>
      <trkpt lat="48.850472" lon="10.139075">
        <ele>641.4</ele>
        <time>2026-02-26T16:32:49Z</time>
      </trkpt>
      <trkpt lat="48.850452" lon="10.139080">
        <ele>641.5</ele>
        <time>2026-02-26T16:32:50Z</time>
      </trkpt>
      <trkpt lat="48.850421" lon="10.139084">
        <ele>641.9</ele>
        <time>2026-02-26T16:32:51Z</time>
      </trkpt>
      <trkpt lat="48.850410" lon="10.139085">
        <ele>642</ele>
        <time>2026-02-26T16:32:52Z</time>
      </trkpt>
      <trkpt lat="48.850379" lon="10.139079">
        <ele>642.2</ele>
        <time>2026-02-26T16:32:53Z</time>
      </trkpt>
      <trkpt lat="48.850367" lon="10.139073">
        <ele>642.3</ele>
        <time>2026-02-26T16:32:54Z</time>
      </trkpt>
      <trkpt lat="48.850330" lon="10.139054">
        <ele>642.5</ele>
        <time>2026-02-26T16:32:55Z</time>
      </trkpt>
      <trkpt lat="48.850318" lon="10.139047">
        <ele>642.5</ele>
        <time>2026-02-26T16:32:56Z</time>
      </trkpt>
      <trkpt lat="48.850293" lon="10.139017">
        <ele>642.7</ele>
        <time>2026-02-26T16:32:57Z</time>
      </trkpt>
      <trkpt lat="48.850287" lon="10.139008">
        <ele>642.7</ele>
        <time>2026-02-26T16:32:58Z</time>
      </trkpt>
      <trkpt lat="48.850272" lon="10.138976">
        <ele>642.8</ele>
        <time>2026-02-26T16:32:59Z</time>
      </trkpt>
      <trkpt lat="48.850266" lon="10.138963">
        <ele>642.9</ele>
        <time>2026-02-26T16:33:00Z</time>
      </trkpt>
      <trkpt lat="48.850254" lon="10.138901">
        <ele>643</ele>
        <time>2026-02-26T16:33:01Z</time>
      </trkpt>
      <trkpt lat="48.850248" lon="10.138879">
        <ele>643.1</ele>
        <time>2026-02-26T16:33:02Z</time>
      </trkpt>
      <trkpt lat="48.850232" lon="10.138830">
        <ele>643.2</ele>
        <time>2026-02-26T16:33:03Z</time>
      </trkpt>
      <trkpt lat="48.850227" lon="10.138817">
        <ele>643.2</ele>
        <time>2026-02-26T16:33:04Z</time>
      </trkpt>
      <trkpt lat="48.850215" lon="10.138764">
        <ele>643.4</ele>
        <time>2026-02-26T16:33:05Z</time>
      </trkpt>
      <trkpt lat="48.850210" lon="10.138750">
        <ele>643.4</ele>
        <time>2026-02-26T16:33:06Z</time>
      </trkpt>
      <trkpt lat="48.850192" lon="10.138718">
        <ele>643.5</ele>
        <time>2026-02-26T16:33:07Z</time>
      </trkpt>
      <trkpt lat="48.850178" lon="10.138680">
        <ele>643.6</ele>
        <time>2026-02-26T16:33:08Z</time>
      </trkpt>
      <trkpt lat="48.850175" lon="10.138667">
        <ele>643.6</ele>
        <time>2026-02-26T16:33:09Z</time>
      </trkpt>
      <trkpt lat="48.850164" lon="10.138629">
        <ele>643.8</ele>
        <time>2026-02-26T16:33:10Z</time>
      </trkpt>
      <trkpt lat="48.850153" lon="10.138574">
        <ele>643.9</ele>
        <time>2026-02-26T16:33:11Z</time>
      </trkpt>
      <trkpt lat="48.850150" lon="10.138555">
        <ele>644</ele>
        <time>2026-02-26T16:33:12Z</time>
      </trkpt>
      <trkpt lat="48.850136" lon="10.138505">
        <ele>644.1</ele>
        <time>2026-02-26T16:33:13Z</time>
      </trkpt>
      <trkpt lat="48.850130" lon="10.138491">
        <ele>644.2</ele>
        <time>2026-02-26T16:33:14Z</time>
      </trkpt>
      <trkpt lat="48.850118" lon="10.138445">
        <ele>644.3</ele>
        <time>2026-02-26T16:33:15Z</time>
      </trkpt>
      <trkpt lat="48.850113" lon="10.138428">
        <ele>644.4</ele>
        <time>2026-02-26T16:33:16Z</time>
      </trkpt>
      <trkpt lat="48.850097" lon="10.138379">
        <ele>644.5</ele>
        <time>2026-02-26T16:33:17Z</time>
      </trkpt>
      <trkpt lat="48.850091" lon="10.138362">
        <ele>644.6</ele>
        <time>2026-02-26T16:33:18Z</time>
      </trkpt>
      <trkpt lat="48.850071" lon="10.138322">
        <ele>644.8</ele>
        <time>2026-02-26T16:33:19Z</time>
      </trkpt>
      <trkpt lat="48.850063" lon="10.138309">
        <ele>644.9</ele>
        <time>2026-02-26T16:33:20Z</time>
      </trkpt>
      <trkpt lat="48.850035" lon="10.138272">
        <ele>645.1</ele>
        <time>2026-02-26T16:33:21Z</time>
      </trkpt>
      <trkpt lat="48.850026" lon="10.138259">
        <ele>645.2</ele>
        <time>2026-02-26T16:33:22Z</time>
      </trkpt>
      <trkpt lat="48.850002" lon="10.138226">
        <ele>645.4</ele>
        <time>2026-02-26T16:33:23Z</time>
      </trkpt>
      <trkpt lat="48.849993" lon="10.138215">
        <ele>645.5</ele>
        <time>2026-02-26T16:33:24Z</time>
      </trkpt>
      <trkpt lat="48.849975" lon="10.138180">
        <ele>645.7</ele>
        <time>2026-02-26T16:33:25Z</time>
      </trkpt>
      <trkpt lat="48.849970" lon="10.138168">
        <ele>645.7</ele>
        <time>2026-02-26T16:33:26Z</time>
      </trkpt>
      <trkpt lat="48.849952" lon="10.138129">
        <ele>645.9</ele>
        <time>2026-02-26T16:33:27Z</time>
      </trkpt>
      <trkpt lat="48.849946" lon="10.138116">
        <ele>646</ele>
        <time>2026-02-26T16:33:28Z</time>
      </trkpt>
      <trkpt lat="48.849930" lon="10.138070">
        <ele>646.3</ele>
        <time>2026-02-26T16:33:29Z</time>
      </trkpt>
      <trkpt lat="48.849922" lon="10.138056">
        <ele>646.4</ele>
        <time>2026-02-26T16:33:30Z</time>
      </trkpt>
      <trkpt lat="48.849911" lon="10.138044">
        <ele>646.5</ele>
        <time>2026-02-26T16:33:31Z</time>
      </trkpt>
      <trkpt lat="48.849903" lon="10.138025">
        <ele>646.6</ele>
        <time>2026-02-26T16:33:32Z</time>
      </trkpt>
      <trkpt lat="48.849883" lon="10.137982">
        <ele>646.8</ele>
        <time>2026-02-26T16:33:33Z</time>
      </trkpt>
      <trkpt lat="48.849878" lon="10.137965">
        <ele>646.9</ele>
        <time>2026-02-26T16:33:34Z</time>
      </trkpt>
      <trkpt lat="48.849870" lon="10.137940">
        <ele>647.1</ele>
        <time>2026-02-26T16:33:35Z</time>
      </trkpt>
      <trkpt lat="48.849856" lon="10.137924">
        <ele>647.2</ele>
        <time>2026-02-26T16:33:36Z</time>
      </trkpt>
      <trkpt lat="48.849830" lon="10.137898">
        <ele>647.5</ele>
        <time>2026-02-26T16:33:37Z</time>
      </trkpt>
      <trkpt lat="48.849820" lon="10.137891">
        <ele>647.5</ele>
        <time>2026-02-26T16:33:38Z</time>
      </trkpt>
      <trkpt lat="48.849791" lon="10.137875">
        <ele>647.8</ele>
        <time>2026-02-26T16:33:39Z</time>
      </trkpt>
      <trkpt lat="48.849783" lon="10.137870">
        <ele>647.9</ele>
        <time>2026-02-26T16:33:40Z</time>
      </trkpt>
      <trkpt lat="48.849757" lon="10.137839">
        <ele>648.1</ele>
        <time>2026-02-26T16:33:41Z</time>
      </trkpt>
      <trkpt lat="48.849749" lon="10.137829">
        <ele>648.2</ele>
        <time>2026-02-26T16:33:42Z</time>
      </trkpt>
      <trkpt lat="48.849729" lon="10.137798">
        <ele>648.5</ele>
        <time>2026-02-26T16:33:43Z</time>
      </trkpt>
      <trkpt lat="48.849720" lon="10.137787">
        <ele>648.6</ele>
        <time>2026-02-26T16:33:44Z</time>
      </trkpt>
      <trkpt lat="48.849696" lon="10.137761">
        <ele>648.8</ele>
        <time>2026-02-26T16:33:45Z</time>
      </trkpt>
      <trkpt lat="48.849690" lon="10.137755">
        <ele>648.9</ele>
        <time>2026-02-26T16:33:46Z</time>
      </trkpt>
      <trkpt lat="48.849665" lon="10.137729">
        <ele>649.1</ele>
        <time>2026-02-26T16:33:47Z</time>
      </trkpt>
      <trkpt lat="48.849658" lon="10.137719">
        <ele>649.2</ele>
        <time>2026-02-26T16:33:48Z</time>
      </trkpt>
      <trkpt lat="48.849633" lon="10.137693">
        <ele>649.4</ele>
        <time>2026-02-26T16:33:49Z</time>
      </trkpt>
      <trkpt lat="48.849624" lon="10.137685">
        <ele>649.5</ele>
        <time>2026-02-26T16:33:50Z</time>
      </trkpt>
      <trkpt lat="48.849597" lon="10.137661">
        <ele>649.8</ele>
        <time>2026-02-26T16:33:51Z</time>
      </trkpt>
      <trkpt lat="48.849587" lon="10.137654">
        <ele>649.9</ele>
        <time>2026-02-26T16:33:52Z</time>
      </trkpt>
      <trkpt lat="48.849561" lon="10.137626">
        <ele>650.2</ele>
        <time>2026-02-26T16:33:53Z</time>
      </trkpt>
      <trkpt lat="48.849552" lon="10.137619">
        <ele>650.2</ele>
        <time>2026-02-26T16:33:54Z</time>
      </trkpt>
      <trkpt lat="48.849540" lon="10.137604">
        <ele>650.4</ele>
        <time>2026-02-26T16:33:55Z</time>
      </trkpt>
      <trkpt lat="48.849524" lon="10.137589">
        <ele>650.5</ele>
        <time>2026-02-26T16:33:56Z</time>
      </trkpt>
      <trkpt lat="48.849509" lon="10.137573">
        <ele>650.7</ele>
        <time>2026-02-26T16:33:57Z</time>
      </trkpt>
      <trkpt lat="48.849497" lon="10.137561">
        <ele>650.8</ele>
        <time>2026-02-26T16:33:58Z</time>
      </trkpt>
      <trkpt lat="48.849481" lon="10.137550">
        <ele>651</ele>
        <time>2026-02-26T16:33:59Z</time>
      </trkpt>
      <trkpt lat="48.849466" lon="10.137537">
        <ele>651.1</ele>
        <time>2026-02-26T16:34:00Z</time>
      </trkpt>
      <trkpt lat="48.849452" lon="10.137524">
        <ele>651.3</ele>
        <time>2026-02-26T16:34:01Z</time>
      </trkpt>
      <trkpt lat="48.849438" lon="10.137513">
        <ele>651.4</ele>
        <time>2026-02-26T16:34:02Z</time>
      </trkpt>
      <trkpt lat="48.849411" lon="10.137483">
        <ele>651.7</ele>
        <time>2026-02-26T16:34:03Z</time>
      </trkpt>
      <trkpt lat="48.849401" lon="10.137472">
        <ele>651.8</ele>
        <time>2026-02-26T16:34:04Z</time>
      </trkpt>
      <trkpt lat="48.849380" lon="10.137438">
        <ele>652.1</ele>
        <time>2026-02-26T16:34:05Z</time>
      </trkpt>
      <trkpt lat="48.849373" lon="10.137429">
        <ele>652.2</ele>
        <time>2026-02-26T16:34:06Z</time>
      </trkpt>
      <trkpt lat="48.849351" lon="10.137393">
        <ele>652.5</ele>
        <time>2026-02-26T16:34:07Z</time>
      </trkpt>
      <trkpt lat="48.849345" lon="10.137381">
        <ele>652.6</ele>
        <time>2026-02-26T16:34:08Z</time>
      </trkpt>
      <trkpt lat="48.849322" lon="10.137352">
        <ele>652.8</ele>
        <time>2026-02-26T16:34:09Z</time>
      </trkpt>
      <trkpt lat="48.849313" lon="10.137340">
        <ele>652.9</ele>
        <time>2026-02-26T16:34:10Z</time>
      </trkpt>
      <trkpt lat="48.849305" lon="10.137322">
        <ele>653</ele>
        <time>2026-02-26T16:34:11Z</time>
      </trkpt>
      <trkpt lat="48.849296" lon="10.137300">
        <ele>653.2</ele>
        <time>2026-02-26T16:34:12Z</time>
      </trkpt>
      <trkpt lat="48.849275" lon="10.137264">
        <ele>653.4</ele>
        <time>2026-02-26T16:34:13Z</time>
      </trkpt>
      <trkpt lat="48.849265" lon="10.137253">
        <ele>653.5</ele>
        <time>2026-02-26T16:34:14Z</time>
      </trkpt>
      <trkpt lat="48.849240" lon="10.137222">
        <ele>653.8</ele>
        <time>2026-02-26T16:34:15Z</time>
      </trkpt>
      <trkpt lat="48.849232" lon="10.137211">
        <ele>653.9</ele>
        <time>2026-02-26T16:34:16Z</time>
      </trkpt>
      <trkpt lat="48.849215" lon="10.137173">
        <ele>654.2</ele>
        <time>2026-02-26T16:34:17Z</time>
      </trkpt>
      <trkpt lat="48.849208" lon="10.137161">
        <ele>654.2</ele>
        <time>2026-02-26T16:34:18Z</time>
      </trkpt>
      <trkpt lat="48.849189" lon="10.137126">
        <ele>654.5</ele>
        <time>2026-02-26T16:34:19Z</time>
      </trkpt>
      <trkpt lat="48.849183" lon="10.137114">
        <ele>654.6</ele>
        <time>2026-02-26T16:34:20Z</time>
      </trkpt>
      <trkpt lat="48.849169" lon="10.137068">
        <ele>654.9</ele>
        <time>2026-02-26T16:34:21Z</time>
      </trkpt>
      <trkpt lat="48.849163" lon="10.137050">
        <ele>655</ele>
        <time>2026-02-26T16:34:22Z</time>
      </trkpt>
      <trkpt lat="48.849148" lon="10.137005">
        <ele>655.3</ele>
        <time>2026-02-26T16:34:23Z</time>
      </trkpt>
      <trkpt lat="48.849141" lon="10.136991">
        <ele>655.4</ele>
        <time>2026-02-26T16:34:24Z</time>
      </trkpt>
      <trkpt lat="48.849116" lon="10.136962">
        <ele>655.6</ele>
        <time>2026-02-26T16:34:25Z</time>
      </trkpt>
      <trkpt lat="48.849107" lon="10.136952">
        <ele>655.7</ele>
        <time>2026-02-26T16:34:26Z</time>
      </trkpt>
      <trkpt lat="48.849085" lon="10.136916">
        <ele>656</ele>
        <time>2026-02-26T16:34:27Z</time>
      </trkpt>
      <trkpt lat="48.849078" lon="10.136904">
        <ele>656.1</ele>
        <time>2026-02-26T16:34:28Z</time>
      </trkpt>
      <trkpt lat="48.849052" lon="10.136876">
        <ele>656.4</ele>
        <time>2026-02-26T16:34:29Z</time>
      </trkpt>
      <trkpt lat="48.849044" lon="10.136868">
        <ele>656.4</ele>
        <time>2026-02-26T16:34:30Z</time>
      </trkpt>
      <trkpt lat="48.849011" lon="10.136839">
        <ele>656.7</ele>
        <time>2026-02-26T16:34:31Z</time>
      </trkpt>
      <trkpt lat="48.848999" lon="10.136828">
        <ele>656.9</ele>
        <time>2026-02-26T16:34:32Z</time>
      </trkpt>
      <trkpt lat="48.848968" lon="10.136794">
        <ele>657.2</ele>
        <time>2026-02-26T16:34:33Z</time>
      </trkpt>
      <trkpt lat="48.848958" lon="10.136783">
        <ele>657.3</ele>
        <time>2026-02-26T16:34:34Z</time>
      </trkpt>
      <trkpt lat="48.848935" lon="10.136748">
        <ele>657.5</ele>
        <time>2026-02-26T16:34:35Z</time>
      </trkpt>
      <trkpt lat="48.848928" lon="10.136738">
        <ele>657.6</ele>
        <time>2026-02-26T16:34:36Z</time>
      </trkpt>
      <trkpt lat="48.848905" lon="10.136707">
        <ele>657.9</ele>
        <time>2026-02-26T16:34:37Z</time>
      </trkpt>
      <trkpt lat="48.848896" lon="10.136698">
        <ele>658</ele>
        <time>2026-02-26T16:34:38Z</time>
      </trkpt>
      <trkpt lat="48.848869" lon="10.136674">
        <ele>658.2</ele>
        <time>2026-02-26T16:34:39Z</time>
      </trkpt>
      <trkpt lat="48.848860" lon="10.136667">
        <ele>658.3</ele>
        <time>2026-02-26T16:34:40Z</time>
      </trkpt>
      <trkpt lat="48.848838" lon="10.136641">
        <ele>658.5</ele>
        <time>2026-02-26T16:34:41Z</time>
      </trkpt>
      <trkpt lat="48.848830" lon="10.136633">
        <ele>658.6</ele>
        <time>2026-02-26T16:34:42Z</time>
      </trkpt>
      <trkpt lat="48.848805" lon="10.136606">
        <ele>658.9</ele>
        <time>2026-02-26T16:34:43Z</time>
      </trkpt>
      <trkpt lat="48.848795" lon="10.136599">
        <ele>659</ele>
        <time>2026-02-26T16:34:44Z</time>
      </trkpt>
      <trkpt lat="48.848772" lon="10.136575">
        <ele>659.2</ele>
        <time>2026-02-26T16:34:45Z</time>
      </trkpt>
      <trkpt lat="48.848764" lon="10.136566">
        <ele>659.3</ele>
        <time>2026-02-26T16:34:46Z</time>
      </trkpt>
      <trkpt lat="48.848752" lon="10.136546">
        <ele>659.4</ele>
        <time>2026-02-26T16:34:47Z</time>
      </trkpt>
      <trkpt lat="48.848739" lon="10.136528">
        <ele>659.6</ele>
        <time>2026-02-26T16:34:48Z</time>
      </trkpt>
      <trkpt lat="48.848724" lon="10.136513">
        <ele>659.7</ele>
        <time>2026-02-26T16:34:49Z</time>
      </trkpt>
      <trkpt lat="48.848710" lon="10.136500">
        <ele>659.9</ele>
        <time>2026-02-26T16:34:50Z</time>
      </trkpt>
      <trkpt lat="48.848697" lon="10.136485">
        <ele>660</ele>
        <time>2026-02-26T16:34:51Z</time>
      </trkpt>
      <trkpt lat="48.848684" lon="10.136473">
        <ele>660.1</ele>
        <time>2026-02-26T16:34:52Z</time>
      </trkpt>
      <trkpt lat="48.848671" lon="10.136456">
        <ele>660.3</ele>
        <time>2026-02-26T16:34:53Z</time>
      </trkpt>
      <trkpt lat="48.848659" lon="10.136439">
        <ele>660.4</ele>
        <time>2026-02-26T16:34:54Z</time>
      </trkpt>
      <trkpt lat="48.848647" lon="10.136421">
        <ele>660.6</ele>
        <time>2026-02-26T16:34:55Z</time>
      </trkpt>
      <trkpt lat="48.848631" lon="10.136404">
        <ele>660.7</ele>
        <time>2026-02-26T16:34:56Z</time>
      </trkpt>
      <trkpt lat="48.848599" lon="10.136386">
        <ele>661</ele>
        <time>2026-02-26T16:34:57Z</time>
      </trkpt>
      <trkpt lat="48.848588" lon="10.136380">
        <ele>661.1</ele>
        <time>2026-02-26T16:34:58Z</time>
      </trkpt>
      <trkpt lat="48.848559" lon="10.136357">
        <ele>661.4</ele>
        <time>2026-02-26T16:34:59Z</time>
      </trkpt>
      <trkpt lat="48.848551" lon="10.136349">
        <ele>661.4</ele>
        <time>2026-02-26T16:35:00Z</time>
      </trkpt>
      <trkpt lat="48.848528" lon="10.136330">
        <ele>661.6</ele>
        <time>2026-02-26T16:35:01Z</time>
      </trkpt>
      <trkpt lat="48.848518" lon="10.136325">
        <ele>661.7</ele>
        <time>2026-02-26T16:35:02Z</time>
      </trkpt>
      <trkpt lat="48.848489" lon="10.136310">
        <ele>662</ele>
        <time>2026-02-26T16:35:03Z</time>
      </trkpt>
      <trkpt lat="48.848480" lon="10.136305">
        <ele>662.1</ele>
        <time>2026-02-26T16:35:04Z</time>
      </trkpt>
      <trkpt lat="48.848460" lon="10.136299">
        <ele>662.3</ele>
        <time>2026-02-26T16:35:05Z</time>
      </trkpt>
      <trkpt lat="48.848445" lon="10.136292">
        <ele>662.4</ele>
        <time>2026-02-26T16:35:06Z</time>
      </trkpt>
      <trkpt lat="48.848423" lon="10.136282">
        <ele>662.6</ele>
        <time>2026-02-26T16:35:07Z</time>
      </trkpt>
      <trkpt lat="48.848412" lon="10.136278">
        <ele>662.7</ele>
        <time>2026-02-26T16:35:08Z</time>
      </trkpt>
      <trkpt lat="48.848400" lon="10.136274">
        <ele>662.8</ele>
        <time>2026-02-26T16:35:09Z</time>
      </trkpt>
      <trkpt lat="48.848385" lon="10.136262">
        <ele>662.9</ele>
        <time>2026-02-26T16:35:10Z</time>
      </trkpt>
      <trkpt lat="48.848375" lon="10.136253">
        <ele>663</ele>
        <time>2026-02-26T16:35:11Z</time>
      </trkpt>
      <trkpt lat="48.848366" lon="10.136251">
        <ele>663.1</ele>
        <time>2026-02-26T16:35:12Z</time>
      </trkpt>
      <trkpt lat="48.848354" lon="10.136254">
        <ele>663.2</ele>
        <time>2026-02-26T16:35:13Z</time>
      </trkpt>
      <trkpt lat="48.848341" lon="10.136251">
        <ele>663.3</ele>
        <time>2026-02-26T16:35:14Z</time>
      </trkpt>
      <trkpt lat="48.848328" lon="10.136249">
        <ele>663.5</ele>
        <time>2026-02-26T16:35:15Z</time>
      </trkpt>
      <trkpt lat="48.848311" lon="10.136252">
        <ele>663.6</ele>
        <time>2026-02-26T16:35:16Z</time>
      </trkpt>
      <trkpt lat="48.848296" lon="10.136255">
        <ele>663.7</ele>
        <time>2026-02-26T16:35:17Z</time>
      </trkpt>
      <trkpt lat="48.848280" lon="10.136260">
        <ele>663.9</ele>
        <time>2026-02-26T16:35:18Z</time>
      </trkpt>
      <trkpt lat="48.848252" lon="10.136265">
        <ele>664.1</ele>
        <time>2026-02-26T16:35:19Z</time>
      </trkpt>
      <trkpt lat="48.848243" lon="10.136265">
        <ele>664.2</ele>
        <time>2026-02-26T16:35:20Z</time>
      </trkpt>
      <trkpt lat="48.848228" lon="10.136257">
        <ele>664.4</ele>
        <time>2026-02-26T16:35:21Z</time>
      </trkpt>
      <trkpt lat="48.848211" lon="10.136253">
        <ele>664.5</ele>
        <time>2026-02-26T16:35:22Z</time>
      </trkpt>
      <trkpt lat="48.848194" lon="10.136252">
        <ele>664.7</ele>
        <time>2026-02-26T16:35:23Z</time>
      </trkpt>
      <trkpt lat="48.848179" lon="10.136255">
        <ele>664.8</ele>
        <time>2026-02-26T16:35:24Z</time>
      </trkpt>
      <trkpt lat="48.848161" lon="10.136265">
        <ele>665</ele>
        <time>2026-02-26T16:35:25Z</time>
      </trkpt>
      <trkpt lat="48.848145" lon="10.136273">
        <ele>665.2</ele>
        <time>2026-02-26T16:35:26Z</time>
      </trkpt>
      <trkpt lat="48.848130" lon="10.136279">
        <ele>665.3</ele>
        <time>2026-02-26T16:35:27Z</time>
      </trkpt>
      <trkpt lat="48.848114" lon="10.136282">
        <ele>665.5</ele>
        <time>2026-02-26T16:35:28Z</time>
      </trkpt>
      <trkpt lat="48.848087" lon="10.136291">
        <ele>665.8</ele>
        <time>2026-02-26T16:35:29Z</time>
      </trkpt>
      <trkpt lat="48.848078" lon="10.136294">
        <ele>665.9</ele>
        <time>2026-02-26T16:35:30Z</time>
      </trkpt>
      <trkpt lat="48.848065" lon="10.136297">
        <ele>666</ele>
        <time>2026-02-26T16:35:31Z</time>
      </trkpt>
      <trkpt lat="48.848049" lon="10.136302">
        <ele>666.1</ele>
        <time>2026-02-26T16:35:32Z</time>
      </trkpt>
      <trkpt lat="48.848036" lon="10.136307">
        <ele>666.3</ele>
        <time>2026-02-26T16:35:33Z</time>
      </trkpt>
      <trkpt lat="48.848026" lon="10.136310">
        <ele>666.4</ele>
        <time>2026-02-26T16:35:34Z</time>
      </trkpt>
      <trkpt lat="48.848015" lon="10.136314">
        <ele>666.5</ele>
        <time>2026-02-26T16:35:35Z</time>
      </trkpt>
      <trkpt lat="48.848001" lon="10.136318">
        <ele>666.6</ele>
        <time>2026-02-26T16:35:36Z</time>
      </trkpt>
      <trkpt lat="48.847984" lon="10.136326">
        <ele>666.8</ele>
        <time>2026-02-26T16:35:37Z</time>
      </trkpt>
      <trkpt lat="48.847969" lon="10.136332">
        <ele>667</ele>
        <time>2026-02-26T16:35:38Z</time>
      </trkpt>
      <trkpt lat="48.847956" lon="10.136340">
        <ele>667.1</ele>
        <time>2026-02-26T16:35:39Z</time>
      </trkpt>
      <trkpt lat="48.847944" lon="10.136345">
        <ele>667.2</ele>
        <time>2026-02-26T16:35:40Z</time>
      </trkpt>
      <trkpt lat="48.847929" lon="10.136349">
        <ele>667.3</ele>
        <time>2026-02-26T16:35:41Z</time>
      </trkpt>
      <trkpt lat="48.847917" lon="10.136352">
        <ele>667.4</ele>
        <time>2026-02-26T16:35:42Z</time>
      </trkpt>
      <trkpt lat="48.847900" lon="10.136356">
        <ele>667.6</ele>
        <time>2026-02-26T16:35:43Z</time>
      </trkpt>
      <trkpt lat="48.847883" lon="10.136363">
        <ele>667.8</ele>
        <time>2026-02-26T16:35:44Z</time>
      </trkpt>
      <trkpt lat="48.847870" lon="10.136375">
        <ele>667.9</ele>
        <time>2026-02-26T16:35:45Z</time>
      </trkpt>
      <trkpt lat="48.847856" lon="10.136389">
        <ele>668</ele>
        <time>2026-02-26T16:35:46Z</time>
      </trkpt>
      <trkpt lat="48.847844" lon="10.136400">
        <ele>668.2</ele>
        <time>2026-02-26T16:35:47Z</time>
      </trkpt>
      <trkpt lat="48.847835" lon="10.136407">
        <ele>668.3</ele>
        <time>2026-02-26T16:35:48Z</time>
      </trkpt>
      <trkpt lat="48.847827" lon="10.136418">
        <ele>668.4</ele>
        <time>2026-02-26T16:35:49Z</time>
      </trkpt>
      <trkpt lat="48.847818" lon="10.136428">
        <ele>668.5</ele>
        <time>2026-02-26T16:35:50Z</time>
      </trkpt>
      <trkpt lat="48.847803" lon="10.136436">
        <ele>668.6</ele>
        <time>2026-02-26T16:35:51Z</time>
      </trkpt>
      <trkpt lat="48.847788" lon="10.136444">
        <ele>668.7</ele>
        <time>2026-02-26T16:35:52Z</time>
      </trkpt>
      <trkpt lat="48.847774" lon="10.136453">
        <ele>668.9</ele>
        <time>2026-02-26T16:35:53Z</time>
      </trkpt>
      <trkpt lat="48.847762" lon="10.136467">
        <ele>669</ele>
        <time>2026-02-26T16:35:54Z</time>
      </trkpt>
      <trkpt lat="48.847744" lon="10.136489">
        <ele>669.2</ele>
        <time>2026-02-26T16:35:55Z</time>
      </trkpt>
      <trkpt lat="48.847737" lon="10.136494">
        <ele>669.3</ele>
        <time>2026-02-26T16:35:56Z</time>
      </trkpt>
      <trkpt lat="48.847730" lon="10.136500">
        <ele>669.4</ele>
        <time>2026-02-26T16:35:57Z</time>
      </trkpt>
      <trkpt lat="48.847719" lon="10.136511">
        <ele>669.5</ele>
        <time>2026-02-26T16:35:58Z</time>
      </trkpt>
      <trkpt lat="48.847707" lon="10.136525">
        <ele>669.6</ele>
        <time>2026-02-26T16:35:59Z</time>
      </trkpt>
      <trkpt lat="48.847696" lon="10.136537">
        <ele>669.8</ele>
        <time>2026-02-26T16:36:00Z</time>
      </trkpt>
      <trkpt lat="48.847685" lon="10.136546">
        <ele>669.9</ele>
        <time>2026-02-26T16:36:01Z</time>
      </trkpt>
      <trkpt lat="48.847679" lon="10.136550">
        <ele>669.9</ele>
        <time>2026-02-26T16:36:02Z</time>
      </trkpt>
      <trkpt lat="48.847677" lon="10.136551">
        <ele>669.9</ele>
        <time>2026-02-26T16:36:03Z</time>
      </trkpt>
      <trkpt lat="48.847677" lon="10.136551">
        <ele>669.9</ele>
        <time>2026-02-26T16:36:04Z</time>
      </trkpt>
      <trkpt lat="48.847677" lon="10.136551">
        <ele>669.9</ele>
        <time>2026-02-26T16:36:05Z</time>
      </trkpt>
      <trkpt lat="48.847677" lon="10.136551">
        <ele>669.9</ele>
        <time>2026-02-26T16:36:06Z</time>
      </trkpt>
      <trkpt lat="48.847677" lon="10.136551">
        <ele>669.9</ele>
        <time>2026-02-26T16:36:07Z</time>
      </trkpt>
      <trkpt lat="48.847674" lon="10.136558">
        <ele>670</ele>
        <time>2026-02-26T16:36:08Z</time>
      </trkpt>
      <trkpt lat="48.847672" lon="10.136557">
        <ele>670</ele>
        <time>2026-02-26T16:36:09Z</time>
      </trkpt>
      <trkpt lat="48.847661" lon="10.136567">
        <ele>670.1</ele>
        <time>2026-02-26T16:36:10Z</time>
      </trkpt>
      <trkpt lat="48.847654" lon="10.136576">
        <ele>670.2</ele>
        <time>2026-02-26T16:36:11Z</time>
      </trkpt>
      <trkpt lat="48.847641" lon="10.136586">
        <ele>670.4</ele>
        <time>2026-02-26T16:36:12Z</time>
      </trkpt>
      <trkpt lat="48.847628" lon="10.136602">
        <ele>670.5</ele>
        <time>2026-02-26T16:36:13Z</time>
      </trkpt>
      <trkpt lat="48.847604" lon="10.136623">
        <ele>670.8</ele>
        <time>2026-02-26T16:36:14Z</time>
      </trkpt>
      <trkpt lat="48.847596" lon="10.136629">
        <ele>670.9</ele>
        <time>2026-02-26T16:36:15Z</time>
      </trkpt>
      <trkpt lat="48.847583" lon="10.136641">
        <ele>671</ele>
        <time>2026-02-26T16:36:16Z</time>
      </trkpt>
      <trkpt lat="48.847575" lon="10.136656">
        <ele>671.1</ele>
        <time>2026-02-26T16:36:17Z</time>
      </trkpt>
      <trkpt lat="48.847567" lon="10.136678">
        <ele>671.3</ele>
        <time>2026-02-26T16:36:18Z</time>
      </trkpt>
      <trkpt lat="48.847558" lon="10.136700">
        <ele>671.5</ele>
        <time>2026-02-26T16:36:19Z</time>
      </trkpt>
      <trkpt lat="48.847549" lon="10.136716">
        <ele>671.6</ele>
        <time>2026-02-26T16:36:20Z</time>
      </trkpt>
      <trkpt lat="48.847537" lon="10.136729">
        <ele>671.7</ele>
        <time>2026-02-26T16:36:21Z</time>
      </trkpt>
      <trkpt lat="48.847524" lon="10.136754">
        <ele>671.9</ele>
        <time>2026-02-26T16:36:22Z</time>
      </trkpt>
      <trkpt lat="48.847519" lon="10.136764">
        <ele>672</ele>
        <time>2026-02-26T16:36:23Z</time>
      </trkpt>
      <trkpt lat="48.847515" lon="10.136775">
        <ele>672.1</ele>
        <time>2026-02-26T16:36:24Z</time>
      </trkpt>
      <trkpt lat="48.847505" lon="10.136793">
        <ele>672.2</ele>
        <time>2026-02-26T16:36:25Z</time>
      </trkpt>
      <trkpt lat="48.847492" lon="10.136810">
        <ele>672.4</ele>
        <time>2026-02-26T16:36:26Z</time>
      </trkpt>
      <trkpt lat="48.847478" lon="10.136823">
        <ele>672.6</ele>
        <time>2026-02-26T16:36:27Z</time>
      </trkpt>
      <trkpt lat="48.847464" lon="10.136841">
        <ele>672.7</ele>
        <time>2026-02-26T16:36:28Z</time>
      </trkpt>
      <trkpt lat="48.847453" lon="10.136864">
        <ele>672.9</ele>
        <time>2026-02-26T16:36:29Z</time>
      </trkpt>
      <trkpt lat="48.847444" lon="10.136883">
        <ele>673.1</ele>
        <time>2026-02-26T16:36:30Z</time>
      </trkpt>
      <trkpt lat="48.847420" lon="10.136909">
        <ele>673.3</ele>
        <time>2026-02-26T16:36:31Z</time>
      </trkpt>
      <trkpt lat="48.847411" lon="10.136917">
        <ele>673.4</ele>
        <time>2026-02-26T16:36:32Z</time>
      </trkpt>
      <trkpt lat="48.847394" lon="10.136931">
        <ele>673.6</ele>
        <time>2026-02-26T16:36:33Z</time>
      </trkpt>
      <trkpt lat="48.847381" lon="10.136943">
        <ele>673.8</ele>
        <time>2026-02-26T16:36:34Z</time>
      </trkpt>
      <trkpt lat="48.847355" lon="10.136960">
        <ele>674</ele>
        <time>2026-02-26T16:36:35Z</time>
      </trkpt>
      <trkpt lat="48.847346" lon="10.136967">
        <ele>674.1</ele>
        <time>2026-02-26T16:36:36Z</time>
      </trkpt>
      <trkpt lat="48.847327" lon="10.136996">
        <ele>674.3</ele>
        <time>2026-02-26T16:36:37Z</time>
      </trkpt>
      <trkpt lat="48.847319" lon="10.137006">
        <ele>674.4</ele>
        <time>2026-02-26T16:36:38Z</time>
      </trkpt>
      <trkpt lat="48.847298" lon="10.137036">
        <ele>674.7</ele>
        <time>2026-02-26T16:36:39Z</time>
      </trkpt>
      <trkpt lat="48.847290" lon="10.137045">
        <ele>674.8</ele>
        <time>2026-02-26T16:36:40Z</time>
      </trkpt>
      <trkpt lat="48.847278" lon="10.137056">
        <ele>674.9</ele>
        <time>2026-02-26T16:36:41Z</time>
      </trkpt>
      <trkpt lat="48.847265" lon="10.137070">
        <ele>675.1</ele>
        <time>2026-02-26T16:36:42Z</time>
      </trkpt>
      <trkpt lat="48.847255" lon="10.137083">
        <ele>675.2</ele>
        <time>2026-02-26T16:36:43Z</time>
      </trkpt>
      <trkpt lat="48.847244" lon="10.137100">
        <ele>675.3</ele>
        <time>2026-02-26T16:36:44Z</time>
      </trkpt>
      <trkpt lat="48.847233" lon="10.137117">
        <ele>675.5</ele>
        <time>2026-02-26T16:36:45Z</time>
      </trkpt>
      <trkpt lat="48.847222" lon="10.137128">
        <ele>675.6</ele>
        <time>2026-02-26T16:36:46Z</time>
      </trkpt>
      <trkpt lat="48.847216" lon="10.137141">
        <ele>675.7</ele>
        <time>2026-02-26T16:36:47Z</time>
      </trkpt>
      <trkpt lat="48.847210" lon="10.137157">
        <ele>675.8</ele>
        <time>2026-02-26T16:36:48Z</time>
      </trkpt>
      <trkpt lat="48.847202" lon="10.137173">
        <ele>675.9</ele>
        <time>2026-02-26T16:36:49Z</time>
      </trkpt>
      <trkpt lat="48.847188" lon="10.137194">
        <ele>676.1</ele>
        <time>2026-02-26T16:36:50Z</time>
      </trkpt>
      <trkpt lat="48.847176" lon="10.137204">
        <ele>676.2</ele>
        <time>2026-02-26T16:36:51Z</time>
      </trkpt>
      <trkpt lat="48.847160" lon="10.137218">
        <ele>676.4</ele>
        <time>2026-02-26T16:36:52Z</time>
      </trkpt>
      <trkpt lat="48.847147" lon="10.137234">
        <ele>676.6</ele>
        <time>2026-02-26T16:36:53Z</time>
      </trkpt>
      <trkpt lat="48.847135" lon="10.137246">
        <ele>676.7</ele>
        <time>2026-02-26T16:36:54Z</time>
      </trkpt>
      <trkpt lat="48.847122" lon="10.137264">
        <ele>676.9</ele>
        <time>2026-02-26T16:36:55Z</time>
      </trkpt>
      <trkpt lat="48.847098" lon="10.137287">
        <ele>677.1</ele>
        <time>2026-02-26T16:36:56Z</time>
      </trkpt>
      <trkpt lat="48.847089" lon="10.137294">
        <ele>677.2</ele>
        <time>2026-02-26T16:36:57Z</time>
      </trkpt>
      <trkpt lat="48.847066" lon="10.137323">
        <ele>677.5</ele>
        <time>2026-02-26T16:36:58Z</time>
      </trkpt>
      <trkpt lat="48.847058" lon="10.137334">
        <ele>677.6</ele>
        <time>2026-02-26T16:36:59Z</time>
      </trkpt>
      <trkpt lat="48.847042" lon="10.137358">
        <ele>677.8</ele>
        <time>2026-02-26T16:37:00Z</time>
      </trkpt>
      <trkpt lat="48.847033" lon="10.137367">
        <ele>677.9</ele>
        <time>2026-02-26T16:37:01Z</time>
      </trkpt>
      <trkpt lat="48.847024" lon="10.137377">
        <ele>678</ele>
        <time>2026-02-26T16:37:02Z</time>
      </trkpt>
      <trkpt lat="48.847009" lon="10.137391">
        <ele>678.1</ele>
        <time>2026-02-26T16:37:03Z</time>
      </trkpt>
      <trkpt lat="48.846999" lon="10.137404">
        <ele>678.3</ele>
        <time>2026-02-26T16:37:04Z</time>
      </trkpt>
      <trkpt lat="48.846990" lon="10.137419">
        <ele>678.4</ele>
        <time>2026-02-26T16:37:05Z</time>
      </trkpt>
      <trkpt lat="48.846978" lon="10.137433">
        <ele>678.5</ele>
        <time>2026-02-26T16:37:06Z</time>
      </trkpt>
      <trkpt lat="48.846964" lon="10.137446">
        <ele>678.7</ele>
        <time>2026-02-26T16:37:07Z</time>
      </trkpt>
      <trkpt lat="48.846955" lon="10.137462">
        <ele>678.8</ele>
        <time>2026-02-26T16:37:08Z</time>
      </trkpt>
      <trkpt lat="48.846946" lon="10.137480">
        <ele>678.9</ele>
        <time>2026-02-26T16:37:09Z</time>
      </trkpt>
      <trkpt lat="48.846935" lon="10.137498">
        <ele>679.1</ele>
        <time>2026-02-26T16:37:10Z</time>
      </trkpt>
      <trkpt lat="48.846911" lon="10.137522">
        <ele>679.4</ele>
        <time>2026-02-26T16:37:11Z</time>
      </trkpt>
      <trkpt lat="48.846903" lon="10.137529">
        <ele>679.5</ele>
        <time>2026-02-26T16:37:12Z</time>
      </trkpt>
      <trkpt lat="48.846889" lon="10.137544">
        <ele>679.6</ele>
        <time>2026-02-26T16:37:13Z</time>
      </trkpt>
      <trkpt lat="48.846877" lon="10.137558">
        <ele>679.8</ele>
        <time>2026-02-26T16:37:14Z</time>
      </trkpt>
      <trkpt lat="48.846851" lon="10.137581">
        <ele>680</ele>
        <time>2026-02-26T16:37:15Z</time>
      </trkpt>
      <trkpt lat="48.846843" lon="10.137588">
        <ele>680.1</ele>
        <time>2026-02-26T16:37:16Z</time>
      </trkpt>
      <trkpt lat="48.846827" lon="10.137606">
        <ele>680.3</ele>
        <time>2026-02-26T16:37:17Z</time>
      </trkpt>
      <trkpt lat="48.846816" lon="10.137625">
        <ele>680.5</ele>
        <time>2026-02-26T16:37:18Z</time>
      </trkpt>
      <trkpt lat="48.846808" lon="10.137648">
        <ele>680.6</ele>
        <time>2026-02-26T16:37:19Z</time>
      </trkpt>
      <trkpt lat="48.846798" lon="10.137672">
        <ele>680.8</ele>
        <time>2026-02-26T16:37:20Z</time>
      </trkpt>
      <trkpt lat="48.846777" lon="10.137703">
        <ele>681.1</ele>
        <time>2026-02-26T16:37:21Z</time>
      </trkpt>
      <trkpt lat="48.846768" lon="10.137713">
        <ele>681.2</ele>
        <time>2026-02-26T16:37:22Z</time>
      </trkpt>
      <trkpt lat="48.846754" lon="10.137733">
        <ele>681.4</ele>
        <time>2026-02-26T16:37:23Z</time>
      </trkpt>
      <trkpt lat="48.846743" lon="10.137750">
        <ele>681.5</ele>
        <time>2026-02-26T16:37:24Z</time>
      </trkpt>
      <trkpt lat="48.846735" lon="10.137766">
        <ele>681.6</ele>
        <time>2026-02-26T16:37:25Z</time>
      </trkpt>
      <trkpt lat="48.846727" lon="10.137786">
        <ele>681.8</ele>
        <time>2026-02-26T16:37:26Z</time>
      </trkpt>
      <trkpt lat="48.846718" lon="10.137801">
        <ele>681.9</ele>
        <time>2026-02-26T16:37:27Z</time>
      </trkpt>
      <trkpt lat="48.846709" lon="10.137817">
        <ele>682</ele>
        <time>2026-02-26T16:37:28Z</time>
      </trkpt>
      <trkpt lat="48.846684" lon="10.137844">
        <ele>682.3</ele>
        <time>2026-02-26T16:37:29Z</time>
      </trkpt>
      <trkpt lat="48.846675" lon="10.137853">
        <ele>682.4</ele>
        <time>2026-02-26T16:37:30Z</time>
      </trkpt>
      <trkpt lat="48.846648" lon="10.137881">
        <ele>682.7</ele>
        <time>2026-02-26T16:37:31Z</time>
      </trkpt>
      <trkpt lat="48.846638" lon="10.137889">
        <ele>682.8</ele>
        <time>2026-02-26T16:37:32Z</time>
      </trkpt>
      <trkpt lat="48.846614" lon="10.137915">
        <ele>683.1</ele>
        <time>2026-02-26T16:37:33Z</time>
      </trkpt>
      <trkpt lat="48.846605" lon="10.137922">
        <ele>683.2</ele>
        <time>2026-02-26T16:37:34Z</time>
      </trkpt>
      <trkpt lat="48.846580" lon="10.137949">
        <ele>683.4</ele>
        <time>2026-02-26T16:37:35Z</time>
      </trkpt>
      <trkpt lat="48.846571" lon="10.137958">
        <ele>683.5</ele>
        <time>2026-02-26T16:37:36Z</time>
      </trkpt>
      <trkpt lat="48.846551" lon="10.137987">
        <ele>683.8</ele>
        <time>2026-02-26T16:37:37Z</time>
      </trkpt>
      <trkpt lat="48.846545" lon="10.137997">
        <ele>683.9</ele>
        <time>2026-02-26T16:37:38Z</time>
      </trkpt>
      <trkpt lat="48.846536" lon="10.138013">
        <ele>684</ele>
        <time>2026-02-26T16:37:39Z</time>
      </trkpt>
      <trkpt lat="48.846525" lon="10.138031">
        <ele>684.1</ele>
        <time>2026-02-26T16:37:40Z</time>
      </trkpt>
      <trkpt lat="48.846505" lon="10.138062">
        <ele>684.4</ele>
        <time>2026-02-26T16:37:41Z</time>
      </trkpt>
      <trkpt lat="48.846497" lon="10.138074">
        <ele>684.5</ele>
        <time>2026-02-26T16:37:42Z</time>
      </trkpt>
      <trkpt lat="48.846483" lon="10.138092">
        <ele>684.6</ele>
        <time>2026-02-26T16:37:43Z</time>
      </trkpt>
      <trkpt lat="48.846472" lon="10.138110">
        <ele>684.8</ele>
        <time>2026-02-26T16:37:44Z</time>
      </trkpt>
      <trkpt lat="48.846461" lon="10.138129">
        <ele>684.9</ele>
        <time>2026-02-26T16:37:45Z</time>
      </trkpt>
      <trkpt lat="48.846449" lon="10.138148">
        <ele>685.1</ele>
        <time>2026-02-26T16:37:46Z</time>
      </trkpt>
      <trkpt lat="48.846436" lon="10.138165">
        <ele>685.2</ele>
        <time>2026-02-26T16:37:47Z</time>
      </trkpt>
      <trkpt lat="48.846424" lon="10.138184">
        <ele>685.4</ele>
        <time>2026-02-26T16:37:48Z</time>
      </trkpt>
      <trkpt lat="48.846395" lon="10.138221">
        <ele>685.7</ele>
        <time>2026-02-26T16:37:49Z</time>
      </trkpt>
      <trkpt lat="48.846386" lon="10.138231">
        <ele>685.8</ele>
        <time>2026-02-26T16:37:50Z</time>
      </trkpt>
      <trkpt lat="48.846359" lon="10.138267">
        <ele>686.1</ele>
        <time>2026-02-26T16:37:51Z</time>
      </trkpt>
      <trkpt lat="48.846350" lon="10.138278">
        <ele>686.2</ele>
        <time>2026-02-26T16:37:52Z</time>
      </trkpt>
      <trkpt lat="48.846337" lon="10.138297">
        <ele>686.4</ele>
        <time>2026-02-26T16:37:53Z</time>
      </trkpt>
      <trkpt lat="48.846326" lon="10.138314">
        <ele>686.5</ele>
        <time>2026-02-26T16:37:54Z</time>
      </trkpt>
      <trkpt lat="48.846308" lon="10.138348">
        <ele>686.8</ele>
        <time>2026-02-26T16:37:55Z</time>
      </trkpt>
      <trkpt lat="48.846302" lon="10.138360">
        <ele>686.9</ele>
        <time>2026-02-26T16:37:56Z</time>
      </trkpt>
      <trkpt lat="48.846282" lon="10.138392">
        <ele>687.1</ele>
        <time>2026-02-26T16:37:57Z</time>
      </trkpt>
      <trkpt lat="48.846273" lon="10.138402">
        <ele>687.2</ele>
        <time>2026-02-26T16:37:58Z</time>
      </trkpt>
      <trkpt lat="48.846247" lon="10.138425">
        <ele>687.5</ele>
        <time>2026-02-26T16:37:59Z</time>
      </trkpt>
      <trkpt lat="48.846240" lon="10.138431">
        <ele>687.5</ele>
        <time>2026-02-26T16:38:00Z</time>
      </trkpt>
      <trkpt lat="48.846225" lon="10.138447">
        <ele>687.7</ele>
        <time>2026-02-26T16:38:01Z</time>
      </trkpt>
      <trkpt lat="48.846215" lon="10.138465">
        <ele>687.8</ele>
        <time>2026-02-26T16:38:02Z</time>
      </trkpt>
      <trkpt lat="48.846205" lon="10.138483">
        <ele>688</ele>
        <time>2026-02-26T16:38:03Z</time>
      </trkpt>
      <trkpt lat="48.846190" lon="10.138501">
        <ele>688.1</ele>
        <time>2026-02-26T16:38:04Z</time>
      </trkpt>
      <trkpt lat="48.846163" lon="10.138529">
        <ele>688.4</ele>
        <time>2026-02-26T16:38:05Z</time>
      </trkpt>
      <trkpt lat="48.846154" lon="10.138537">
        <ele>688.5</ele>
        <time>2026-02-26T16:38:06Z</time>
      </trkpt>
      <trkpt lat="48.846127" lon="10.138564">
        <ele>688.8</ele>
        <time>2026-02-26T16:38:07Z</time>
      </trkpt>
      <trkpt lat="48.846118" lon="10.138571">
        <ele>688.9</ele>
        <time>2026-02-26T16:38:08Z</time>
      </trkpt>
      <trkpt lat="48.846092" lon="10.138600">
        <ele>689.2</ele>
        <time>2026-02-26T16:38:09Z</time>
      </trkpt>
      <trkpt lat="48.846083" lon="10.138611">
        <ele>689.3</ele>
        <time>2026-02-26T16:38:10Z</time>
      </trkpt>
      <trkpt lat="48.846058" lon="10.138637">
        <ele>689.6</ele>
        <time>2026-02-26T16:38:11Z</time>
      </trkpt>
      <trkpt lat="48.846051" lon="10.138644">
        <ele>689.6</ele>
        <time>2026-02-26T16:38:12Z</time>
      </trkpt>
      <trkpt lat="48.846037" lon="10.138658">
        <ele>689.8</ele>
        <time>2026-02-26T16:38:13Z</time>
      </trkpt>
      <trkpt lat="48.846020" lon="10.138670">
        <ele>690</ele>
        <time>2026-02-26T16:38:14Z</time>
      </trkpt>
      <trkpt lat="48.845989" lon="10.138692">
        <ele>690.3</ele>
        <time>2026-02-26T16:38:15Z</time>
      </trkpt>
      <trkpt lat="48.845978" lon="10.138699">
        <ele>690.4</ele>
        <time>2026-02-26T16:38:16Z</time>
      </trkpt>
      <trkpt lat="48.845961" lon="10.138711">
        <ele>690.5</ele>
        <time>2026-02-26T16:38:17Z</time>
      </trkpt>
      <trkpt lat="48.845947" lon="10.138724">
        <ele>690.7</ele>
        <time>2026-02-26T16:38:18Z</time>
      </trkpt>
      <trkpt lat="48.845925" lon="10.138747">
        <ele>690.9</ele>
        <time>2026-02-26T16:38:19Z</time>
      </trkpt>
      <trkpt lat="48.845916" lon="10.138754">
        <ele>691</ele>
        <time>2026-02-26T16:38:20Z</time>
      </trkpt>
      <trkpt lat="48.845902" lon="10.138770">
        <ele>691.2</ele>
        <time>2026-02-26T16:38:21Z</time>
      </trkpt>
      <trkpt lat="48.845890" lon="10.138790">
        <ele>691.3</ele>
        <time>2026-02-26T16:38:22Z</time>
      </trkpt>
      <trkpt lat="48.845880" lon="10.138810">
        <ele>691.5</ele>
        <time>2026-02-26T16:38:23Z</time>
      </trkpt>
      <trkpt lat="48.845864" lon="10.138826">
        <ele>691.6</ele>
        <time>2026-02-26T16:38:24Z</time>
      </trkpt>
      <trkpt lat="48.845837" lon="10.138845">
        <ele>691.9</ele>
        <time>2026-02-26T16:38:25Z</time>
      </trkpt>
      <trkpt lat="48.845828" lon="10.138850">
        <ele>692</ele>
        <time>2026-02-26T16:38:26Z</time>
      </trkpt>
      <trkpt lat="48.845813" lon="10.138863">
        <ele>692.1</ele>
        <time>2026-02-26T16:38:27Z</time>
      </trkpt>
      <trkpt lat="48.845800" lon="10.138879">
        <ele>692.3</ele>
        <time>2026-02-26T16:38:28Z</time>
      </trkpt>
      <trkpt lat="48.845787" lon="10.138894">
        <ele>692.4</ele>
        <time>2026-02-26T16:38:29Z</time>
      </trkpt>
      <trkpt lat="48.845773" lon="10.138904">
        <ele>692.5</ele>
        <time>2026-02-26T16:38:30Z</time>
      </trkpt>
      <trkpt lat="48.845760" lon="10.138917">
        <ele>692.7</ele>
        <time>2026-02-26T16:38:31Z</time>
      </trkpt>
      <trkpt lat="48.845746" lon="10.138933">
        <ele>692.8</ele>
        <time>2026-02-26T16:38:32Z</time>
      </trkpt>
      <trkpt lat="48.845736" lon="10.138945">
        <ele>692.9</ele>
        <time>2026-02-26T16:38:33Z</time>
      </trkpt>
      <trkpt lat="48.845723" lon="10.138964">
        <ele>693.1</ele>
        <time>2026-02-26T16:38:34Z</time>
      </trkpt>
      <trkpt lat="48.845698" lon="10.138998">
        <ele>693.4</ele>
        <time>2026-02-26T16:38:35Z</time>
      </trkpt>
      <trkpt lat="48.845689" lon="10.139010">
        <ele>693.5</ele>
        <time>2026-02-26T16:38:36Z</time>
      </trkpt>
      <trkpt lat="48.845662" lon="10.139043">
        <ele>693.8</ele>
        <time>2026-02-26T16:38:37Z</time>
      </trkpt>
      <trkpt lat="48.845653" lon="10.139053">
        <ele>693.9</ele>
        <time>2026-02-26T16:38:38Z</time>
      </trkpt>
      <trkpt lat="48.845629" lon="10.139084">
        <ele>694.1</ele>
        <time>2026-02-26T16:38:39Z</time>
      </trkpt>
      <trkpt lat="48.845620" lon="10.139094">
        <ele>694.2</ele>
        <time>2026-02-26T16:38:40Z</time>
      </trkpt>
      <trkpt lat="48.845597" lon="10.139129">
        <ele>694.5</ele>
        <time>2026-02-26T16:38:41Z</time>
      </trkpt>
      <trkpt lat="48.845590" lon="10.139139">
        <ele>694.6</ele>
        <time>2026-02-26T16:38:42Z</time>
      </trkpt>
      <trkpt lat="48.845577" lon="10.139156">
        <ele>694.8</ele>
        <time>2026-02-26T16:38:43Z</time>
      </trkpt>
      <trkpt lat="48.845566" lon="10.139171">
        <ele>694.9</ele>
        <time>2026-02-26T16:38:44Z</time>
      </trkpt>
      <trkpt lat="48.845556" lon="10.139186">
        <ele>695</ele>
        <time>2026-02-26T16:38:45Z</time>
      </trkpt>
      <trkpt lat="48.845546" lon="10.139203">
        <ele>695.2</ele>
        <time>2026-02-26T16:38:46Z</time>
      </trkpt>
      <trkpt lat="48.845537" lon="10.139222">
        <ele>695.3</ele>
        <time>2026-02-26T16:38:47Z</time>
      </trkpt>
      <trkpt lat="48.845530" lon="10.139247">
        <ele>695.5</ele>
        <time>2026-02-26T16:38:48Z</time>
      </trkpt>
      <trkpt lat="48.845522" lon="10.139289">
        <ele>695.7</ele>
        <time>2026-02-26T16:38:49Z</time>
      </trkpt>
      <trkpt lat="48.845519" lon="10.139304">
        <ele>695.8</ele>
        <time>2026-02-26T16:38:50Z</time>
      </trkpt>
      <trkpt lat="48.845515" lon="10.139324">
        <ele>696</ele>
        <time>2026-02-26T16:38:51Z</time>
      </trkpt>
      <trkpt lat="48.845509" lon="10.139347">
        <ele>696.1</ele>
        <time>2026-02-26T16:38:52Z</time>
      </trkpt>
      <trkpt lat="48.845499" lon="10.139386">
        <ele>696.4</ele>
        <time>2026-02-26T16:38:53Z</time>
      </trkpt>
      <trkpt lat="48.845495" lon="10.139397">
        <ele>696.5</ele>
        <time>2026-02-26T16:38:54Z</time>
      </trkpt>
      <trkpt lat="48.845483" lon="10.139419">
        <ele>696.6</ele>
        <time>2026-02-26T16:38:55Z</time>
      </trkpt>
      <trkpt lat="48.845475" lon="10.139444">
        <ele>696.8</ele>
        <time>2026-02-26T16:38:56Z</time>
      </trkpt>
      <trkpt lat="48.845460" lon="10.139487">
        <ele>697.1</ele>
        <time>2026-02-26T16:38:57Z</time>
      </trkpt>
      <trkpt lat="48.845454" lon="10.139501">
        <ele>697.2</ele>
        <time>2026-02-26T16:38:58Z</time>
      </trkpt>
      <trkpt lat="48.845436" lon="10.139543">
        <ele>697.6</ele>
        <time>2026-02-26T16:38:59Z</time>
      </trkpt>
      <trkpt lat="48.845431" lon="10.139555">
        <ele>697.6</ele>
        <time>2026-02-26T16:39:00Z</time>
      </trkpt>
      <trkpt lat="48.845426" lon="10.139581">
        <ele>697.8</ele>
        <time>2026-02-26T16:39:01Z</time>
      </trkpt>
      <trkpt lat="48.845420" lon="10.139605">
        <ele>698</ele>
        <time>2026-02-26T16:39:02Z</time>
      </trkpt>
      <trkpt lat="48.845403" lon="10.139647">
        <ele>698.3</ele>
        <time>2026-02-26T16:39:03Z</time>
      </trkpt>
      <trkpt lat="48.845398" lon="10.139658">
        <ele>698.4</ele>
        <time>2026-02-26T16:39:04Z</time>
      </trkpt>
      <trkpt lat="48.845378" lon="10.139690">
        <ele>698.7</ele>
        <time>2026-02-26T16:39:05Z</time>
      </trkpt>
      <trkpt lat="48.845371" lon="10.139698">
        <ele>698.8</ele>
        <time>2026-02-26T16:39:06Z</time>
      </trkpt>
      <trkpt lat="48.845355" lon="10.139712">
        <ele>698.9</ele>
        <time>2026-02-26T16:39:07Z</time>
      </trkpt>
      <trkpt lat="48.845346" lon="10.139733">
        <ele>699.1</ele>
        <time>2026-02-26T16:39:08Z</time>
      </trkpt>
      <trkpt lat="48.845334" lon="10.139755">
        <ele>699.3</ele>
        <time>2026-02-26T16:39:09Z</time>
      </trkpt>
      <trkpt lat="48.845326" lon="10.139776">
        <ele>699.4</ele>
        <time>2026-02-26T16:39:10Z</time>
      </trkpt>
      <trkpt lat="48.845316" lon="10.139795">
        <ele>699.6</ele>
        <time>2026-02-26T16:39:11Z</time>
      </trkpt>
      <trkpt lat="48.845303" lon="10.139813">
        <ele>699.7</ele>
        <time>2026-02-26T16:39:12Z</time>
      </trkpt>
      <trkpt lat="48.845285" lon="10.139845">
        <ele>700</ele>
        <time>2026-02-26T16:39:13Z</time>
      </trkpt>
      <trkpt lat="48.845278" lon="10.139855">
        <ele>700.1</ele>
        <time>2026-02-26T16:39:14Z</time>
      </trkpt>
      <trkpt lat="48.845259" lon="10.139893">
        <ele>700.4</ele>
        <time>2026-02-26T16:39:15Z</time>
      </trkpt>
      <trkpt lat="48.845252" lon="10.139906">
        <ele>700.5</ele>
        <time>2026-02-26T16:39:16Z</time>
      </trkpt>
      <trkpt lat="48.845224" lon="10.139942">
        <ele>700.8</ele>
        <time>2026-02-26T16:39:17Z</time>
      </trkpt>
      <trkpt lat="48.845215" lon="10.139952">
        <ele>700.9</ele>
        <time>2026-02-26T16:39:18Z</time>
      </trkpt>
      <trkpt lat="48.845200" lon="10.139968">
        <ele>701</ele>
        <time>2026-02-26T16:39:19Z</time>
      </trkpt>
      <trkpt lat="48.845184" lon="10.139980">
        <ele>701.2</ele>
        <time>2026-02-26T16:39:20Z</time>
      </trkpt>
      <trkpt lat="48.845160" lon="10.140004">
        <ele>701.5</ele>
        <time>2026-02-26T16:39:21Z</time>
      </trkpt>
      <trkpt lat="48.845152" lon="10.140019">
        <ele>701.6</ele>
        <time>2026-02-26T16:39:22Z</time>
      </trkpt>
      <trkpt lat="48.845130" lon="10.140060">
        <ele>701.7</ele>
        <time>2026-02-26T16:39:23Z</time>
      </trkpt>
      <trkpt lat="48.845105" lon="10.140090">
        <ele>702</ele>
        <time>2026-02-26T16:39:24Z</time>
      </trkpt>
      <trkpt lat="48.845083" lon="10.140116">
        <ele>702.2</ele>
        <time>2026-02-26T16:39:25Z</time>
      </trkpt>
      <trkpt lat="48.845055" lon="10.140140">
        <ele>702.4</ele>
        <time>2026-02-26T16:39:26Z</time>
      </trkpt>
      <trkpt lat="48.845025" lon="10.140167">
        <ele>702.7</ele>
        <time>2026-02-26T16:39:27Z</time>
      </trkpt>
      <trkpt lat="48.845016" lon="10.140174">
        <ele>702.7</ele>
        <time>2026-02-26T16:39:28Z</time>
      </trkpt>
      <trkpt lat="48.845001" lon="10.140186">
        <ele>702.9</ele>
        <time>2026-02-26T16:39:29Z</time>
      </trkpt>
      <trkpt lat="48.844988" lon="10.140200">
        <ele>703</ele>
        <time>2026-02-26T16:39:30Z</time>
      </trkpt>
      <trkpt lat="48.844958" lon="10.140237">
        <ele>703.3</ele>
        <time>2026-02-26T16:39:31Z</time>
      </trkpt>
      <trkpt lat="48.844948" lon="10.140249">
        <ele>703.4</ele>
        <time>2026-02-26T16:39:32Z</time>
      </trkpt>
      <trkpt lat="48.844934" lon="10.140263">
        <ele>703.5</ele>
        <time>2026-02-26T16:39:33Z</time>
      </trkpt>
      <trkpt lat="48.844919" lon="10.140280">
        <ele>703.6</ele>
        <time>2026-02-26T16:39:34Z</time>
      </trkpt>
      <trkpt lat="48.844910" lon="10.140292">
        <ele>703.7</ele>
        <time>2026-02-26T16:39:35Z</time>
      </trkpt>
      <trkpt lat="48.844897" lon="10.140312">
        <ele>703.9</ele>
        <time>2026-02-26T16:39:36Z</time>
      </trkpt>
      <trkpt lat="48.844885" lon="10.140333">
        <ele>704.3</ele>
        <time>2026-02-26T16:39:37Z</time>
      </trkpt>
      <trkpt lat="48.844877" lon="10.140350">
        <ele>704.5</ele>
        <time>2026-02-26T16:39:38Z</time>
      </trkpt>
      <trkpt lat="48.844872" lon="10.140378">
        <ele>704.7</ele>
        <time>2026-02-26T16:39:39Z</time>
      </trkpt>
      <trkpt lat="48.844873" lon="10.140388">
        <ele>704.7</ele>
        <time>2026-02-26T16:39:40Z</time>
      </trkpt>
      <trkpt lat="48.844874" lon="10.140399">
        <ele>704.8</ele>
        <time>2026-02-26T16:39:41Z</time>
      </trkpt>
      <trkpt lat="48.844875" lon="10.140409">
        <ele>704.8</ele>
        <time>2026-02-26T16:39:42Z</time>
      </trkpt>
      <trkpt lat="48.844872" lon="10.140428">
        <ele>705</ele>
        <time>2026-02-26T16:39:43Z</time>
      </trkpt>
      <trkpt lat="48.844869" lon="10.140450">
        <ele>705.1</ele>
        <time>2026-02-26T16:39:44Z</time>
      </trkpt>
      <trkpt lat="48.844864" lon="10.140472">
        <ele>705.2</ele>
        <time>2026-02-26T16:39:45Z</time>
      </trkpt>
      <trkpt lat="48.844863" lon="10.140493">
        <ele>705.4</ele>
        <time>2026-02-26T16:39:46Z</time>
      </trkpt>
      <trkpt lat="48.844862" lon="10.140538">
        <ele>705.6</ele>
        <time>2026-02-26T16:39:47Z</time>
      </trkpt>
      <trkpt lat="48.844859" lon="10.140554">
        <ele>705.7</ele>
        <time>2026-02-26T16:39:48Z</time>
      </trkpt>
      <trkpt lat="48.844856" lon="10.140590">
        <ele>706</ele>
        <time>2026-02-26T16:39:49Z</time>
      </trkpt>
      <trkpt lat="48.844858" lon="10.140604">
        <ele>706</ele>
        <time>2026-02-26T16:39:50Z</time>
      </trkpt>
      <trkpt lat="48.844859" lon="10.140619">
        <ele>706.1</ele>
        <time>2026-02-26T16:39:51Z</time>
      </trkpt>
      <trkpt lat="48.844860" lon="10.140646">
        <ele>706.3</ele>
        <time>2026-02-26T16:39:52Z</time>
      </trkpt>
      <trkpt lat="48.844862" lon="10.140673">
        <ele>706.4</ele>
        <time>2026-02-26T16:39:53Z</time>
      </trkpt>
      <trkpt lat="48.844872" lon="10.140714">
        <ele>706.7</ele>
        <time>2026-02-26T16:39:54Z</time>
      </trkpt>
      <trkpt lat="48.844876" lon="10.140729">
        <ele>706.8</ele>
        <time>2026-02-26T16:39:55Z</time>
      </trkpt>
      <trkpt lat="48.844884" lon="10.140775">
        <ele>707</ele>
        <time>2026-02-26T16:39:56Z</time>
      </trkpt>
      <trkpt lat="48.844885" lon="10.140790">
        <ele>707.1</ele>
        <time>2026-02-26T16:39:57Z</time>
      </trkpt>
      <trkpt lat="48.844895" lon="10.140835">
        <ele>707.4</ele>
        <time>2026-02-26T16:39:58Z</time>
      </trkpt>
      <trkpt lat="48.844898" lon="10.140851">
        <ele>707.5</ele>
        <time>2026-02-26T16:39:59Z</time>
      </trkpt>
      <trkpt lat="48.844899" lon="10.140896">
        <ele>707.7</ele>
        <time>2026-02-26T16:40:00Z</time>
      </trkpt>
      <trkpt lat="48.844900" lon="10.140911">
        <ele>707.8</ele>
        <time>2026-02-26T16:40:01Z</time>
      </trkpt>
      <trkpt lat="48.844901" lon="10.140940">
        <ele>707.9</ele>
        <time>2026-02-26T16:40:02Z</time>
      </trkpt>
      <trkpt lat="48.844900" lon="10.140966">
        <ele>708</ele>
        <time>2026-02-26T16:40:03Z</time>
      </trkpt>
      <trkpt lat="48.844904" lon="10.141014">
        <ele>708.2</ele>
        <time>2026-02-26T16:40:04Z</time>
      </trkpt>
      <trkpt lat="48.844905" lon="10.141032">
        <ele>708.3</ele>
        <time>2026-02-26T16:40:05Z</time>
      </trkpt>
      <trkpt lat="48.844900" lon="10.141081">
        <ele>708.5</ele>
        <time>2026-02-26T16:40:06Z</time>
      </trkpt>
      <trkpt lat="48.844903" lon="10.141128">
        <ele>708.7</ele>
        <time>2026-02-26T16:40:07Z</time>
      </trkpt>
      <trkpt lat="48.844904" lon="10.141141">
        <ele>708.8</ele>
        <time>2026-02-26T16:40:08Z</time>
      </trkpt>
      <trkpt lat="48.844910" lon="10.141163">
        <ele>708.9</ele>
        <time>2026-02-26T16:40:09Z</time>
      </trkpt>
      <trkpt lat="48.844909" lon="10.141185">
        <ele>709</ele>
        <time>2026-02-26T16:40:10Z</time>
      </trkpt>
      <trkpt lat="48.844904" lon="10.141212">
        <ele>709.1</ele>
        <time>2026-02-26T16:40:11Z</time>
      </trkpt>
      <trkpt lat="48.844900" lon="10.141235">
        <ele>709.2</ele>
        <time>2026-02-26T16:40:12Z</time>
      </trkpt>
      <trkpt lat="48.844898" lon="10.141261">
        <ele>709.4</ele>
        <time>2026-02-26T16:40:13Z</time>
      </trkpt>
      <trkpt lat="48.844898" lon="10.141289">
        <ele>709.5</ele>
        <time>2026-02-26T16:40:14Z</time>
      </trkpt>
      <trkpt lat="48.844896" lon="10.141332">
        <ele>709.7</ele>
        <time>2026-02-26T16:40:15Z</time>
      </trkpt>
      <trkpt lat="48.844896" lon="10.141344">
        <ele>709.7</ele>
        <time>2026-02-26T16:40:16Z</time>
      </trkpt>
      <trkpt lat="48.844900" lon="10.141387">
        <ele>709.9</ele>
        <time>2026-02-26T16:40:17Z</time>
      </trkpt>
      <trkpt lat="48.844901" lon="10.141401">
        <ele>710</ele>
        <time>2026-02-26T16:40:18Z</time>
      </trkpt>
      <trkpt lat="48.844901" lon="10.141449">
        <ele>710.2</ele>
        <time>2026-02-26T16:40:19Z</time>
      </trkpt>
      <trkpt lat="48.844901" lon="10.141466">
        <ele>710.3</ele>
        <time>2026-02-26T16:40:20Z</time>
      </trkpt>
      <trkpt lat="48.844901" lon="10.141514">
        <ele>710.5</ele>
        <time>2026-02-26T16:40:21Z</time>
      </trkpt>
      <trkpt lat="48.844902" lon="10.141529">
        <ele>710.6</ele>
        <time>2026-02-26T16:40:22Z</time>
      </trkpt>
      <trkpt lat="48.844904" lon="10.141576">
        <ele>710.8</ele>
        <time>2026-02-26T16:40:23Z</time>
      </trkpt>
      <trkpt lat="48.844904" lon="10.141592">
        <ele>710.8</ele>
        <time>2026-02-26T16:40:24Z</time>
      </trkpt>
      <trkpt lat="48.844908" lon="10.141637">
        <ele>711</ele>
        <time>2026-02-26T16:40:25Z</time>
      </trkpt>
      <trkpt lat="48.844909" lon="10.141653">
        <ele>711.1</ele>
        <time>2026-02-26T16:40:26Z</time>
      </trkpt>
      <trkpt lat="48.844908" lon="10.141701">
        <ele>711.3</ele>
        <time>2026-02-26T16:40:27Z</time>
      </trkpt>
      <trkpt lat="48.844907" lon="10.141719">
        <ele>711.4</ele>
        <time>2026-02-26T16:40:28Z</time>
      </trkpt>
      <trkpt lat="48.844905" lon="10.141767">
        <ele>711.6</ele>
        <time>2026-02-26T16:40:29Z</time>
      </trkpt>
      <trkpt lat="48.844905" lon="10.141784">
        <ele>711.6</ele>
        <time>2026-02-26T16:40:30Z</time>
      </trkpt>
      <trkpt lat="48.844905" lon="10.141833">
        <ele>711.8</ele>
        <time>2026-02-26T16:40:31Z</time>
      </trkpt>
      <trkpt lat="48.844905" lon="10.141849">
        <ele>711.9</ele>
        <time>2026-02-26T16:40:32Z</time>
      </trkpt>
      <trkpt lat="48.844907" lon="10.141900">
        <ele>712.1</ele>
        <time>2026-02-26T16:40:33Z</time>
      </trkpt>
      <trkpt lat="48.844908" lon="10.141915">
        <ele>712.2</ele>
        <time>2026-02-26T16:40:34Z</time>
      </trkpt>
      <trkpt lat="48.844914" lon="10.141959">
        <ele>712.4</ele>
        <time>2026-02-26T16:40:35Z</time>
      </trkpt>
      <trkpt lat="48.844914" lon="10.141973">
        <ele>712.4</ele>
        <time>2026-02-26T16:40:36Z</time>
      </trkpt>
      <trkpt lat="48.844913" lon="10.142018">
        <ele>712.6</ele>
        <time>2026-02-26T16:40:37Z</time>
      </trkpt>
      <trkpt lat="48.844914" lon="10.142036">
        <ele>712.7</ele>
        <time>2026-02-26T16:40:38Z</time>
      </trkpt>
      <trkpt lat="48.844913" lon="10.142092">
        <ele>712.9</ele>
        <time>2026-02-26T16:40:39Z</time>
      </trkpt>
      <trkpt lat="48.844913" lon="10.142108">
        <ele>713</ele>
        <time>2026-02-26T16:40:40Z</time>
      </trkpt>
      <trkpt lat="48.844918" lon="10.142156">
        <ele>713.2</ele>
        <time>2026-02-26T16:40:41Z</time>
      </trkpt>
      <trkpt lat="48.844920" lon="10.142173">
        <ele>713.2</ele>
        <time>2026-02-26T16:40:42Z</time>
      </trkpt>
      <trkpt lat="48.844929" lon="10.142223">
        <ele>713.4</ele>
        <time>2026-02-26T16:40:43Z</time>
      </trkpt>
      <trkpt lat="48.844933" lon="10.142239">
        <ele>713.5</ele>
        <time>2026-02-26T16:40:44Z</time>
      </trkpt>
      <trkpt lat="48.844945" lon="10.142280">
        <ele>713.6</ele>
        <time>2026-02-26T16:40:45Z</time>
      </trkpt>
      <trkpt lat="48.844948" lon="10.142294">
        <ele>713.7</ele>
        <time>2026-02-26T16:40:46Z</time>
      </trkpt>
      <trkpt lat="48.844952" lon="10.142316">
        <ele>713.8</ele>
        <time>2026-02-26T16:40:47Z</time>
      </trkpt>
      <trkpt lat="48.844958" lon="10.142343">
        <ele>713.8</ele>
        <time>2026-02-26T16:40:48Z</time>
      </trkpt>
      <trkpt lat="48.844963" lon="10.142386">
        <ele>714</ele>
        <time>2026-02-26T16:40:49Z</time>
      </trkpt>
      <trkpt lat="48.844963" lon="10.142402">
        <ele>714</ele>
        <time>2026-02-26T16:40:50Z</time>
      </trkpt>
      <trkpt lat="48.844967" lon="10.142452">
        <ele>714.1</ele>
        <time>2026-02-26T16:40:51Z</time>
      </trkpt>
      <trkpt lat="48.844968" lon="10.142469">
        <ele>714.2</ele>
        <time>2026-02-26T16:40:52Z</time>
      </trkpt>
      <trkpt lat="48.844976" lon="10.142516">
        <ele>714.2</ele>
        <time>2026-02-26T16:40:53Z</time>
      </trkpt>
      <trkpt lat="48.844977" lon="10.142532">
        <ele>714.3</ele>
        <time>2026-02-26T16:40:54Z</time>
      </trkpt>
      <trkpt lat="48.844984" lon="10.142577">
        <ele>714.3</ele>
        <time>2026-02-26T16:40:55Z</time>
      </trkpt>
      <trkpt lat="48.844986" lon="10.142592">
        <ele>714.3</ele>
        <time>2026-02-26T16:40:56Z</time>
      </trkpt>
      <trkpt lat="48.844996" lon="10.142637">
        <ele>714.4</ele>
        <time>2026-02-26T16:40:57Z</time>
      </trkpt>
      <trkpt lat="48.844999" lon="10.142653">
        <ele>714.4</ele>
        <time>2026-02-26T16:40:58Z</time>
      </trkpt>
      <trkpt lat="48.845003" lon="10.142709">
        <ele>714.5</ele>
        <time>2026-02-26T16:40:59Z</time>
      </trkpt>
      <trkpt lat="48.845004" lon="10.142729">
        <ele>714.5</ele>
        <time>2026-02-26T16:41:00Z</time>
      </trkpt>
      <trkpt lat="48.845005" lon="10.142774">
        <ele>714.5</ele>
        <time>2026-02-26T16:41:01Z</time>
      </trkpt>
      <trkpt lat="48.845011" lon="10.142814">
        <ele>714.5</ele>
        <time>2026-02-26T16:41:02Z</time>
      </trkpt>
      <trkpt lat="48.845027" lon="10.142853">
        <ele>714.5</ele>
        <time>2026-02-26T16:41:03Z</time>
      </trkpt>
      <trkpt lat="48.845031" lon="10.142867">
        <ele>714.5</ele>
        <time>2026-02-26T16:41:04Z</time>
      </trkpt>
      <trkpt lat="48.845046" lon="10.142913">
        <ele>714.5</ele>
        <time>2026-02-26T16:41:05Z</time>
      </trkpt>
      <trkpt lat="48.845050" lon="10.142933">
        <ele>714.4</ele>
        <time>2026-02-26T16:41:06Z</time>
      </trkpt>
      <trkpt lat="48.845051" lon="10.142980">
        <ele>714.4</ele>
        <time>2026-02-26T16:41:07Z</time>
      </trkpt>
      <trkpt lat="48.845049" lon="10.143031">
        <ele>714.4</ele>
        <time>2026-02-26T16:41:08Z</time>
      </trkpt>
      <trkpt lat="48.845047" lon="10.143078">
        <ele>714.3</ele>
        <time>2026-02-26T16:41:09Z</time>
      </trkpt>
      <trkpt lat="48.845029" lon="10.143122">
        <ele>714.3</ele>
        <time>2026-02-26T16:41:10Z</time>
      </trkpt>
      <trkpt lat="48.845003" lon="10.143158">
        <ele>714.2</ele>
        <time>2026-02-26T16:41:11Z</time>
      </trkpt>
      <trkpt lat="48.844963" lon="10.143195">
        <ele>714.1</ele>
        <time>2026-02-26T16:41:12Z</time>
      </trkpt>
      <trkpt lat="48.844910" lon="10.143227">
        <ele>713.9</ele>
        <time>2026-02-26T16:41:13Z</time>
      </trkpt>
      <trkpt lat="48.844854" lon="10.143262">
        <ele>713.8</ele>
        <time>2026-02-26T16:41:14Z</time>
      </trkpt>
      <trkpt lat="48.844809" lon="10.143284">
        <ele>713.6</ele>
        <time>2026-02-26T16:41:15Z</time>
      </trkpt>
      <trkpt lat="48.844763" lon="10.143317">
        <ele>713.4</ele>
        <time>2026-02-26T16:41:16Z</time>
      </trkpt>
      <trkpt lat="48.844636" lon="10.143550">
        <ele>712.2</ele>
        <time>2026-02-26T16:41:17Z</time>
      </trkpt>
      <trkpt lat="48.844621" lon="10.143556">
        <ele>712</ele>
        <time>2026-02-26T16:41:18Z</time>
      </trkpt>
      <trkpt lat="48.844580" lon="10.143575">
        <ele>711.7</ele>
        <time>2026-02-26T16:41:19Z</time>
      </trkpt>
      <trkpt lat="48.844525" lon="10.143574">
        <ele>711.3</ele>
        <time>2026-02-26T16:41:20Z</time>
      </trkpt>
      <trkpt lat="48.844483" lon="10.143595">
        <ele>711</ele>
        <time>2026-02-26T16:41:21Z</time>
      </trkpt>
      <trkpt lat="48.844425" lon="10.143616">
        <ele>710.5</ele>
        <time>2026-02-26T16:41:22Z</time>
      </trkpt>
      <trkpt lat="48.844363" lon="10.143642">
        <ele>710.1</ele>
        <time>2026-02-26T16:41:23Z</time>
      </trkpt>
      <trkpt lat="48.844303" lon="10.143675">
        <ele>709.7</ele>
        <time>2026-02-26T16:41:24Z</time>
      </trkpt>
      <trkpt lat="48.844248" lon="10.143698">
        <ele>709.3</ele>
        <time>2026-02-26T16:41:25Z</time>
      </trkpt>
      <trkpt lat="48.844186" lon="10.143730">
        <ele>708.9</ele>
        <time>2026-02-26T16:41:26Z</time>
      </trkpt>
      <trkpt lat="48.844121" lon="10.143757">
        <ele>708.5</ele>
        <time>2026-02-26T16:41:27Z</time>
      </trkpt>
      <trkpt lat="48.844068" lon="10.143776">
        <ele>708.2</ele>
        <time>2026-02-26T16:41:28Z</time>
      </trkpt>
      <trkpt lat="48.844024" lon="10.143782">
        <ele>708</ele>
        <time>2026-02-26T16:41:29Z</time>
      </trkpt>
      <trkpt lat="48.843955" lon="10.143819">
        <ele>707.6</ele>
        <time>2026-02-26T16:41:30Z</time>
      </trkpt>
      <trkpt lat="48.843925" lon="10.143819">
        <ele>707.4</ele>
        <time>2026-02-26T16:41:31Z</time>
      </trkpt>
      <trkpt lat="48.843878" lon="10.143801">
        <ele>707.2</ele>
        <time>2026-02-26T16:41:32Z</time>
      </trkpt>
      <trkpt lat="48.843822" lon="10.143828">
        <ele>706.9</ele>
        <time>2026-02-26T16:41:33Z</time>
      </trkpt>
      <trkpt lat="48.843760" lon="10.143858">
        <ele>706.5</ele>
        <time>2026-02-26T16:41:34Z</time>
      </trkpt>
      <trkpt lat="48.843707" lon="10.143891">
        <ele>706.2</ele>
        <time>2026-02-26T16:41:35Z</time>
      </trkpt>
      <trkpt lat="48.843678" lon="10.143951">
        <ele>706</ele>
        <time>2026-02-26T16:41:36Z</time>
      </trkpt>
      <trkpt lat="48.843612" lon="10.143993">
        <ele>705.6</ele>
        <time>2026-02-26T16:41:37Z</time>
      </trkpt>
      <trkpt lat="48.843560" lon="10.144066">
        <ele>705.2</ele>
        <time>2026-02-26T16:41:38Z</time>
      </trkpt>
      <trkpt lat="48.843522" lon="10.144102">
        <ele>705</ele>
        <time>2026-02-26T16:41:39Z</time>
      </trkpt>
      <trkpt lat="48.843475" lon="10.144169">
        <ele>704.7</ele>
        <time>2026-02-26T16:41:40Z</time>
      </trkpt>
      <trkpt lat="48.843436" lon="10.144230">
        <ele>704.5</ele>
        <time>2026-02-26T16:41:41Z</time>
      </trkpt>
      <trkpt lat="48.843384" lon="10.144270">
        <ele>704.3</ele>
        <time>2026-02-26T16:41:42Z</time>
      </trkpt>
      <trkpt lat="48.843334" lon="10.144334">
        <ele>704</ele>
        <time>2026-02-26T16:41:43Z</time>
      </trkpt>
      <trkpt lat="48.843297" lon="10.144400">
        <ele>703.9</ele>
        <time>2026-02-26T16:41:44Z</time>
      </trkpt>
      <trkpt lat="48.843256" lon="10.144452">
        <ele>703.7</ele>
        <time>2026-02-26T16:41:45Z</time>
      </trkpt>
      <trkpt lat="48.843216" lon="10.144485">
        <ele>703.5</ele>
        <time>2026-02-26T16:41:46Z</time>
      </trkpt>
      <trkpt lat="48.843165" lon="10.144539">
        <ele>703.3</ele>
        <time>2026-02-26T16:41:47Z</time>
      </trkpt>
      <trkpt lat="48.843138" lon="10.144600">
        <ele>703.2</ele>
        <time>2026-02-26T16:41:48Z</time>
      </trkpt>
      <trkpt lat="48.843097" lon="10.144657">
        <ele>703</ele>
        <time>2026-02-26T16:41:49Z</time>
      </trkpt>
      <trkpt lat="48.843063" lon="10.144709">
        <ele>702.8</ele>
        <time>2026-02-26T16:41:50Z</time>
      </trkpt>
      <trkpt lat="48.843024" lon="10.144751">
        <ele>702.7</ele>
        <time>2026-02-26T16:41:51Z</time>
      </trkpt>
      <trkpt lat="48.842990" lon="10.144784">
        <ele>702.6</ele>
        <time>2026-02-26T16:41:52Z</time>
      </trkpt>
      <trkpt lat="48.842948" lon="10.144834">
        <ele>702.4</ele>
        <time>2026-02-26T16:41:53Z</time>
      </trkpt>
      <trkpt lat="48.842911" lon="10.144887">
        <ele>702.3</ele>
        <time>2026-02-26T16:41:54Z</time>
      </trkpt>
      <trkpt lat="48.842881" lon="10.144930">
        <ele>702.3</ele>
        <time>2026-02-26T16:41:55Z</time>
      </trkpt>
      <trkpt lat="48.842858" lon="10.144971">
        <ele>702.2</ele>
        <time>2026-02-26T16:41:56Z</time>
      </trkpt>
      <trkpt lat="48.842815" lon="10.145013">
        <ele>702.2</ele>
        <time>2026-02-26T16:41:57Z</time>
      </trkpt>
      <trkpt lat="48.842777" lon="10.145054">
        <ele>702.1</ele>
        <time>2026-02-26T16:41:58Z</time>
      </trkpt>
      <trkpt lat="48.842759" lon="10.145091">
        <ele>702.2</ele>
        <time>2026-02-26T16:41:59Z</time>
      </trkpt>
      <trkpt lat="48.842756" lon="10.145101">
        <ele>702.2</ele>
        <time>2026-02-26T16:42:00Z</time>
      </trkpt>
      <trkpt lat="48.842739" lon="10.145136">
        <ele>702.3</ele>
        <time>2026-02-26T16:42:01Z</time>
      </trkpt>
      <trkpt lat="48.842730" lon="10.145149">
        <ele>702.3</ele>
        <time>2026-02-26T16:42:02Z</time>
      </trkpt>
      <trkpt lat="48.842716" lon="10.145185">
        <ele>702.4</ele>
        <time>2026-02-26T16:42:03Z</time>
      </trkpt>
      <trkpt lat="48.842710" lon="10.145196">
        <ele>702.4</ele>
        <time>2026-02-26T16:42:04Z</time>
      </trkpt>
      <trkpt lat="48.842675" lon="10.145241">
        <ele>702.5</ele>
        <time>2026-02-26T16:42:05Z</time>
      </trkpt>
      <trkpt lat="48.842658" lon="10.145257">
        <ele>702.6</ele>
        <time>2026-02-26T16:42:06Z</time>
      </trkpt>
      <trkpt lat="48.842627" lon="10.145286">
        <ele>702.7</ele>
        <time>2026-02-26T16:42:07Z</time>
      </trkpt>
      <trkpt lat="48.842596" lon="10.145308">
        <ele>702.8</ele>
        <time>2026-02-26T16:42:08Z</time>
      </trkpt>
      <trkpt lat="48.842568" lon="10.145329">
        <ele>702.9</ele>
        <time>2026-02-26T16:42:09Z</time>
      </trkpt>
      <trkpt lat="48.842541" lon="10.145352">
        <ele>702.9</ele>
        <time>2026-02-26T16:42:10Z</time>
      </trkpt>
      <trkpt lat="48.842513" lon="10.145382">
        <ele>703</ele>
        <time>2026-02-26T16:42:11Z</time>
      </trkpt>
      <trkpt lat="48.842485" lon="10.145407">
        <ele>703.1</ele>
        <time>2026-02-26T16:42:12Z</time>
      </trkpt>
      <trkpt lat="48.842459" lon="10.145429">
        <ele>703.1</ele>
        <time>2026-02-26T16:42:13Z</time>
      </trkpt>
      <trkpt lat="48.842435" lon="10.145453">
        <ele>703.2</ele>
        <time>2026-02-26T16:42:14Z</time>
      </trkpt>
      <trkpt lat="48.842400" lon="10.145493">
        <ele>703.2</ele>
        <time>2026-02-26T16:42:15Z</time>
      </trkpt>
      <trkpt lat="48.842385" lon="10.145504">
        <ele>703.2</ele>
        <time>2026-02-26T16:42:16Z</time>
      </trkpt>
      <trkpt lat="48.842353" lon="10.145527">
        <ele>703.3</ele>
        <time>2026-02-26T16:42:17Z</time>
      </trkpt>
      <trkpt lat="48.842322" lon="10.145553">
        <ele>703.3</ele>
        <time>2026-02-26T16:42:18Z</time>
      </trkpt>
      <trkpt lat="48.842296" lon="10.145576">
        <ele>703.4</ele>
        <time>2026-02-26T16:42:19Z</time>
      </trkpt>
      <trkpt lat="48.842270" lon="10.145594">
        <ele>703.4</ele>
        <time>2026-02-26T16:42:20Z</time>
      </trkpt>
      <trkpt lat="48.842233" lon="10.145615">
        <ele>703.5</ele>
        <time>2026-02-26T16:42:21Z</time>
      </trkpt>
      <trkpt lat="48.842220" lon="10.145621">
        <ele>703.5</ele>
        <time>2026-02-26T16:42:22Z</time>
      </trkpt>
      <trkpt lat="48.842198" lon="10.145652">
        <ele>703.6</ele>
        <time>2026-02-26T16:42:23Z</time>
      </trkpt>
      <trkpt lat="48.842169" lon="10.145682">
        <ele>703.7</ele>
        <time>2026-02-26T16:42:24Z</time>
      </trkpt>
      <trkpt lat="48.842157" lon="10.145689">
        <ele>703.7</ele>
        <time>2026-02-26T16:42:25Z</time>
      </trkpt>
      <trkpt lat="48.842130" lon="10.145703">
        <ele>703.8</ele>
        <time>2026-02-26T16:42:26Z</time>
      </trkpt>
      <trkpt lat="48.842107" lon="10.145730">
        <ele>704</ele>
        <time>2026-02-26T16:42:27Z</time>
      </trkpt>
      <trkpt lat="48.842077" lon="10.145756">
        <ele>704.2</ele>
        <time>2026-02-26T16:42:28Z</time>
      </trkpt>
      <trkpt lat="48.842051" lon="10.145786">
        <ele>704.4</ele>
        <time>2026-02-26T16:42:29Z</time>
      </trkpt>
      <trkpt lat="48.842023" lon="10.145809">
        <ele>704.6</ele>
        <time>2026-02-26T16:42:30Z</time>
      </trkpt>
      <trkpt lat="48.841997" lon="10.145825">
        <ele>704.8</ele>
        <time>2026-02-26T16:42:31Z</time>
      </trkpt>
      <trkpt lat="48.841969" lon="10.145841">
        <ele>705</ele>
        <time>2026-02-26T16:42:32Z</time>
      </trkpt>
      <trkpt lat="48.841941" lon="10.145858">
        <ele>705.2</ele>
        <time>2026-02-26T16:42:33Z</time>
      </trkpt>
      <trkpt lat="48.841904" lon="10.145882">
        <ele>705.4</ele>
        <time>2026-02-26T16:42:34Z</time>
      </trkpt>
      <trkpt lat="48.841891" lon="10.145890">
        <ele>705.5</ele>
        <time>2026-02-26T16:42:35Z</time>
      </trkpt>
      <trkpt lat="48.841860" lon="10.145914">
        <ele>705.8</ele>
        <time>2026-02-26T16:42:36Z</time>
      </trkpt>
      <trkpt lat="48.841849" lon="10.145923">
        <ele>705.9</ele>
        <time>2026-02-26T16:42:37Z</time>
      </trkpt>
      <trkpt lat="48.841823" lon="10.145941">
        <ele>706</ele>
        <time>2026-02-26T16:42:38Z</time>
      </trkpt>
      <trkpt lat="48.841793" lon="10.145963">
        <ele>706.3</ele>
        <time>2026-02-26T16:42:39Z</time>
      </trkpt>
      <trkpt lat="48.841784" lon="10.145970">
        <ele>706.3</ele>
        <time>2026-02-26T16:42:40Z</time>
      </trkpt>
      <trkpt lat="48.841767" lon="10.145992">
        <ele>706.5</ele>
        <time>2026-02-26T16:42:41Z</time>
      </trkpt>
      <trkpt lat="48.841759" lon="10.146001">
        <ele>706.6</ele>
        <time>2026-02-26T16:42:42Z</time>
      </trkpt>
      <trkpt lat="48.841752" lon="10.146010">
        <ele>706.6</ele>
        <time>2026-02-26T16:42:43Z</time>
      </trkpt>
      <trkpt lat="48.841741" lon="10.146023">
        <ele>706.7</ele>
        <time>2026-02-26T16:42:44Z</time>
      </trkpt>
      <trkpt lat="48.841727" lon="10.146031">
        <ele>706.8</ele>
        <time>2026-02-26T16:42:45Z</time>
      </trkpt>
      <trkpt lat="48.841716" lon="10.146048">
        <ele>706.9</ele>
        <time>2026-02-26T16:42:46Z</time>
      </trkpt>
      <trkpt lat="48.841704" lon="10.146068">
        <ele>707</ele>
        <time>2026-02-26T16:42:47Z</time>
      </trkpt>
      <trkpt lat="48.841694" lon="10.146084">
        <ele>707.1</ele>
        <time>2026-02-26T16:42:48Z</time>
      </trkpt>
      <trkpt lat="48.841682" lon="10.146100">
        <ele>707.2</ele>
        <time>2026-02-26T16:42:49Z</time>
      </trkpt>
      <trkpt lat="48.841672" lon="10.146113">
        <ele>707.3</ele>
        <time>2026-02-26T16:42:50Z</time>
      </trkpt>
      <trkpt lat="48.841659" lon="10.146129">
        <ele>707.4</ele>
        <time>2026-02-26T16:42:51Z</time>
      </trkpt>
      <trkpt lat="48.841648" lon="10.146148">
        <ele>707.5</ele>
        <time>2026-02-26T16:42:52Z</time>
      </trkpt>
      <trkpt lat="48.841638" lon="10.146163">
        <ele>707.6</ele>
        <time>2026-02-26T16:42:53Z</time>
      </trkpt>
      <trkpt lat="48.841627" lon="10.146197">
        <ele>707.8</ele>
        <time>2026-02-26T16:42:54Z</time>
      </trkpt>
      <trkpt lat="48.841624" lon="10.146216">
        <ele>707.8</ele>
        <time>2026-02-26T16:42:55Z</time>
      </trkpt>
      <trkpt lat="48.841612" lon="10.146260">
        <ele>708</ele>
        <time>2026-02-26T16:42:56Z</time>
      </trkpt>
      <trkpt lat="48.841608" lon="10.146275">
        <ele>708.1</ele>
        <time>2026-02-26T16:42:57Z</time>
      </trkpt>
      <trkpt lat="48.841587" lon="10.146308">
        <ele>708.3</ele>
        <time>2026-02-26T16:42:58Z</time>
      </trkpt>
      <trkpt lat="48.841578" lon="10.146317">
        <ele>708.4</ele>
        <time>2026-02-26T16:42:59Z</time>
      </trkpt>
      <trkpt lat="48.841545" lon="10.146336">
        <ele>708.6</ele>
        <time>2026-02-26T16:43:00Z</time>
      </trkpt>
      <trkpt lat="48.841512" lon="10.146354">
        <ele>708.9</ele>
        <time>2026-02-26T16:43:01Z</time>
      </trkpt>
      <trkpt lat="48.841504" lon="10.146357">
        <ele>708.9</ele>
        <time>2026-02-26T16:43:02Z</time>
      </trkpt>
      <trkpt lat="48.841471" lon="10.146374">
        <ele>709.2</ele>
        <time>2026-02-26T16:43:03Z</time>
      </trkpt>
      <trkpt lat="48.841459" lon="10.146380">
        <ele>709.4</ele>
        <time>2026-02-26T16:43:04Z</time>
      </trkpt>
      <trkpt lat="48.841442" lon="10.146394">
        <ele>709.5</ele>
        <time>2026-02-26T16:43:05Z</time>
      </trkpt>
      <trkpt lat="48.841431" lon="10.146406">
        <ele>709.7</ele>
        <time>2026-02-26T16:43:06Z</time>
      </trkpt>
      <trkpt lat="48.841422" lon="10.146418">
        <ele>709.8</ele>
        <time>2026-02-26T16:43:07Z</time>
      </trkpt>
      <trkpt lat="48.841416" lon="10.146431">
        <ele>709.9</ele>
        <time>2026-02-26T16:43:08Z</time>
      </trkpt>
      <trkpt lat="48.841411" lon="10.146445">
        <ele>710</ele>
        <time>2026-02-26T16:43:09Z</time>
      </trkpt>
      <trkpt lat="48.841406" lon="10.146458">
        <ele>710.1</ele>
        <time>2026-02-26T16:43:10Z</time>
      </trkpt>
      <trkpt lat="48.841401" lon="10.146471">
        <ele>710.2</ele>
        <time>2026-02-26T16:43:11Z</time>
      </trkpt>
      <trkpt lat="48.841396" lon="10.146485">
        <ele>710.3</ele>
        <time>2026-02-26T16:43:12Z</time>
      </trkpt>
      <trkpt lat="48.841388" lon="10.146516">
        <ele>710.5</ele>
        <time>2026-02-26T16:43:13Z</time>
      </trkpt>
      <trkpt lat="48.841385" lon="10.146528">
        <ele>710.6</ele>
        <time>2026-02-26T16:43:14Z</time>
      </trkpt>
      <trkpt lat="48.841382" lon="10.146541">
        <ele>710.7</ele>
        <time>2026-02-26T16:43:15Z</time>
      </trkpt>
      <trkpt lat="48.841370" lon="10.146567">
        <ele>710.9</ele>
        <time>2026-02-26T16:43:16Z</time>
      </trkpt>
      <trkpt lat="48.841365" lon="10.146579">
        <ele>711</ele>
        <time>2026-02-26T16:43:17Z</time>
      </trkpt>
      <trkpt lat="48.841359" lon="10.146591">
        <ele>711.1</ele>
        <time>2026-02-26T16:43:18Z</time>
      </trkpt>
      <trkpt lat="48.841353" lon="10.146613">
        <ele>711.3</ele>
        <time>2026-02-26T16:43:19Z</time>
      </trkpt>
      <trkpt lat="48.841347" lon="10.146638">
        <ele>711.5</ele>
        <time>2026-02-26T16:43:20Z</time>
      </trkpt>
      <trkpt lat="48.841338" lon="10.146662">
        <ele>711.7</ele>
        <time>2026-02-26T16:43:21Z</time>
      </trkpt>
      <trkpt lat="48.841330" lon="10.146684">
        <ele>711.8</ele>
        <time>2026-02-26T16:43:22Z</time>
      </trkpt>
      <trkpt lat="48.841325" lon="10.146706">
        <ele>712</ele>
        <time>2026-02-26T16:43:23Z</time>
      </trkpt>
      <trkpt lat="48.841318" lon="10.146728">
        <ele>712.2</ele>
        <time>2026-02-26T16:43:24Z</time>
      </trkpt>
      <trkpt lat="48.841310" lon="10.146774">
        <ele>712.5</ele>
        <time>2026-02-26T16:43:25Z</time>
      </trkpt>
      <trkpt lat="48.841308" lon="10.146790">
        <ele>712.6</ele>
        <time>2026-02-26T16:43:26Z</time>
      </trkpt>
      <trkpt lat="48.841310" lon="10.146816">
        <ele>712.7</ele>
        <time>2026-02-26T16:43:27Z</time>
      </trkpt>
      <trkpt lat="48.841315" lon="10.146842">
        <ele>712.9</ele>
        <time>2026-02-26T16:43:28Z</time>
      </trkpt>
      <trkpt lat="48.841320" lon="10.146863">
        <ele>713</ele>
        <time>2026-02-26T16:43:29Z</time>
      </trkpt>
      <trkpt lat="48.841331" lon="10.146881">
        <ele>713.2</ele>
        <time>2026-02-26T16:43:30Z</time>
      </trkpt>
      <trkpt lat="48.841338" lon="10.146900">
        <ele>713.4</ele>
        <time>2026-02-26T16:43:31Z</time>
      </trkpt>
      <trkpt lat="48.841341" lon="10.146921">
        <ele>713.5</ele>
        <time>2026-02-26T16:43:32Z</time>
      </trkpt>
      <trkpt lat="48.841342" lon="10.146945">
        <ele>713.6</ele>
        <time>2026-02-26T16:43:33Z</time>
      </trkpt>
      <trkpt lat="48.841341" lon="10.146970">
        <ele>713.8</ele>
        <time>2026-02-26T16:43:34Z</time>
      </trkpt>
      <trkpt lat="48.841341" lon="10.146992">
        <ele>713.9</ele>
        <time>2026-02-26T16:43:35Z</time>
      </trkpt>
      <trkpt lat="48.841340" lon="10.147024">
        <ele>714.1</ele>
        <time>2026-02-26T16:43:36Z</time>
      </trkpt>
      <trkpt lat="48.841330" lon="10.147073">
        <ele>714.3</ele>
        <time>2026-02-26T16:43:37Z</time>
      </trkpt>
      <trkpt lat="48.841327" lon="10.147088">
        <ele>714.4</ele>
        <time>2026-02-26T16:43:38Z</time>
      </trkpt>
      <trkpt lat="48.841321" lon="10.147134">
        <ele>714.7</ele>
        <time>2026-02-26T16:43:39Z</time>
      </trkpt>
      <trkpt lat="48.841317" lon="10.147150">
        <ele>714.8</ele>
        <time>2026-02-26T16:43:40Z</time>
      </trkpt>
      <trkpt lat="48.841308" lon="10.147198">
        <ele>715</ele>
        <time>2026-02-26T16:43:41Z</time>
      </trkpt>
      <trkpt lat="48.841305" lon="10.147210">
        <ele>715.1</ele>
        <time>2026-02-26T16:43:42Z</time>
      </trkpt>
      <trkpt lat="48.841305" lon="10.147233">
        <ele>715.2</ele>
        <time>2026-02-26T16:43:43Z</time>
      </trkpt>
      <trkpt lat="48.841308" lon="10.147254">
        <ele>715.3</ele>
        <time>2026-02-26T16:43:44Z</time>
      </trkpt>
      <trkpt lat="48.841310" lon="10.147280">
        <ele>715.4</ele>
        <time>2026-02-26T16:43:45Z</time>
      </trkpt>
      <trkpt lat="48.841314" lon="10.147306">
        <ele>715.5</ele>
        <time>2026-02-26T16:43:46Z</time>
      </trkpt>
      <trkpt lat="48.841321" lon="10.147349">
        <ele>715.7</ele>
        <time>2026-02-26T16:43:47Z</time>
      </trkpt>
      <trkpt lat="48.841324" lon="10.147363">
        <ele>715.7</ele>
        <time>2026-02-26T16:43:48Z</time>
      </trkpt>
      <trkpt lat="48.841331" lon="10.147407">
        <ele>715.9</ele>
        <time>2026-02-26T16:43:49Z</time>
      </trkpt>
      <trkpt lat="48.841332" lon="10.147422">
        <ele>715.9</ele>
        <time>2026-02-26T16:43:50Z</time>
      </trkpt>
      <trkpt lat="48.841340" lon="10.147470">
        <ele>716.1</ele>
        <time>2026-02-26T16:43:51Z</time>
      </trkpt>
      <trkpt lat="48.841342" lon="10.147486">
        <ele>716.1</ele>
        <time>2026-02-26T16:43:52Z</time>
      </trkpt>
      <trkpt lat="48.841353" lon="10.147537">
        <ele>716.3</ele>
        <time>2026-02-26T16:43:53Z</time>
      </trkpt>
      <trkpt lat="48.841356" lon="10.147554">
        <ele>716.3</ele>
        <time>2026-02-26T16:43:54Z</time>
      </trkpt>
      <trkpt lat="48.841364" lon="10.147603">
        <ele>716.4</ele>
        <time>2026-02-26T16:43:55Z</time>
      </trkpt>
      <trkpt lat="48.841366" lon="10.147619">
        <ele>716.5</ele>
        <time>2026-02-26T16:43:56Z</time>
      </trkpt>
      <trkpt lat="48.841378" lon="10.147663">
        <ele>716.6</ele>
        <time>2026-02-26T16:43:57Z</time>
      </trkpt>
      <trkpt lat="48.841381" lon="10.147679">
        <ele>716.7</ele>
        <time>2026-02-26T16:43:58Z</time>
      </trkpt>
      <trkpt lat="48.841385" lon="10.147735">
        <ele>716.8</ele>
        <time>2026-02-26T16:43:59Z</time>
      </trkpt>
      <trkpt lat="48.841385" lon="10.147755">
        <ele>716.9</ele>
        <time>2026-02-26T16:44:00Z</time>
      </trkpt>
      <trkpt lat="48.841388" lon="10.147783">
        <ele>717</ele>
        <time>2026-02-26T16:44:01Z</time>
      </trkpt>
      <trkpt lat="48.841389" lon="10.147808">
        <ele>717</ele>
        <time>2026-02-26T16:44:02Z</time>
      </trkpt>
      <trkpt lat="48.841391" lon="10.147852">
        <ele>717.2</ele>
        <time>2026-02-26T16:44:03Z</time>
      </trkpt>
      <trkpt lat="48.841391" lon="10.147865">
        <ele>717.2</ele>
        <time>2026-02-26T16:44:04Z</time>
      </trkpt>
      <trkpt lat="48.841393" lon="10.147894">
        <ele>717.3</ele>
        <time>2026-02-26T16:44:05Z</time>
      </trkpt>
      <trkpt lat="48.841394" lon="10.147918">
        <ele>717.4</ele>
        <time>2026-02-26T16:44:06Z</time>
      </trkpt>
      <trkpt lat="48.841396" lon="10.147965">
        <ele>717.6</ele>
        <time>2026-02-26T16:44:07Z</time>
      </trkpt>
      <trkpt lat="48.841397" lon="10.147981">
        <ele>717.7</ele>
        <time>2026-02-26T16:44:08Z</time>
      </trkpt>
      <trkpt lat="48.841405" lon="10.148020">
        <ele>717.9</ele>
        <time>2026-02-26T16:44:09Z</time>
      </trkpt>
      <trkpt lat="48.841408" lon="10.148036">
        <ele>717.9</ele>
        <time>2026-02-26T16:44:10Z</time>
      </trkpt>
      <trkpt lat="48.841415" lon="10.148083">
        <ele>718.1</ele>
        <time>2026-02-26T16:44:11Z</time>
      </trkpt>
      <trkpt lat="48.841417" lon="10.148101">
        <ele>718.2</ele>
        <time>2026-02-26T16:44:12Z</time>
      </trkpt>
      <trkpt lat="48.841424" lon="10.148151">
        <ele>718.4</ele>
        <time>2026-02-26T16:44:13Z</time>
      </trkpt>
      <trkpt lat="48.841426" lon="10.148167">
        <ele>718.4</ele>
        <time>2026-02-26T16:44:14Z</time>
      </trkpt>
      <trkpt lat="48.841432" lon="10.148193">
        <ele>718.5</ele>
        <time>2026-02-26T16:44:15Z</time>
      </trkpt>
      <trkpt lat="48.841440" lon="10.148212">
        <ele>718.6</ele>
        <time>2026-02-26T16:44:16Z</time>
      </trkpt>
      <trkpt lat="48.841444" lon="10.148228">
        <ele>718.6</ele>
        <time>2026-02-26T16:44:17Z</time>
      </trkpt>
      <trkpt lat="48.841448" lon="10.148256">
        <ele>718.7</ele>
        <time>2026-02-26T16:44:18Z</time>
      </trkpt>
      <trkpt lat="48.841453" lon="10.148306">
        <ele>718.7</ele>
        <time>2026-02-26T16:44:19Z</time>
      </trkpt>
      <trkpt lat="48.841455" lon="10.148321">
        <ele>718.7</ele>
        <time>2026-02-26T16:44:20Z</time>
      </trkpt>
      <trkpt lat="48.841459" lon="10.148365">
        <ele>718.7</ele>
        <time>2026-02-26T16:44:21Z</time>
      </trkpt>
      <trkpt lat="48.841461" lon="10.148380">
        <ele>718.7</ele>
        <time>2026-02-26T16:44:22Z</time>
      </trkpt>
      <trkpt lat="48.841467" lon="10.148421">
        <ele>718.7</ele>
        <time>2026-02-26T16:44:23Z</time>
      </trkpt>
      <trkpt lat="48.841468" lon="10.148436">
        <ele>718.6</ele>
        <time>2026-02-26T16:44:24Z</time>
      </trkpt>
      <trkpt lat="48.841472" lon="10.148482">
        <ele>718.6</ele>
        <time>2026-02-26T16:44:25Z</time>
      </trkpt>
      <trkpt lat="48.841474" lon="10.148499">
        <ele>718.6</ele>
        <time>2026-02-26T16:44:26Z</time>
      </trkpt>
      <trkpt lat="48.841480" lon="10.148541">
        <ele>718.5</ele>
        <time>2026-02-26T16:44:27Z</time>
      </trkpt>
      <trkpt lat="48.841476" lon="10.148586">
        <ele>718.4</ele>
        <time>2026-02-26T16:44:28Z</time>
      </trkpt>
      <trkpt lat="48.841474" lon="10.148598">
        <ele>718.4</ele>
        <time>2026-02-26T16:44:29Z</time>
      </trkpt>
      <trkpt lat="48.841473" lon="10.148620">
        <ele>718.3</ele>
        <time>2026-02-26T16:44:30Z</time>
      </trkpt>
      <trkpt lat="48.841470" lon="10.148642">
        <ele>718.3</ele>
        <time>2026-02-26T16:44:31Z</time>
      </trkpt>
      <trkpt lat="48.841468" lon="10.148665">
        <ele>718.3</ele>
        <time>2026-02-26T16:44:32Z</time>
      </trkpt>
      <trkpt lat="48.841468" lon="10.148692">
        <ele>718.2</ele>
        <time>2026-02-26T16:44:33Z</time>
      </trkpt>
      <trkpt lat="48.841468" lon="10.148737">
        <ele>718.1</ele>
        <time>2026-02-26T16:44:34Z</time>
      </trkpt>
      <trkpt lat="48.841466" lon="10.148755">
        <ele>718.1</ele>
        <time>2026-02-26T16:44:35Z</time>
      </trkpt>
      <trkpt lat="48.841465" lon="10.148797">
        <ele>718</ele>
        <time>2026-02-26T16:44:36Z</time>
      </trkpt>
      <trkpt lat="48.841460" lon="10.148845">
        <ele>717.9</ele>
        <time>2026-02-26T16:44:37Z</time>
      </trkpt>
      <trkpt lat="48.841457" lon="10.148860">
        <ele>717.9</ele>
        <time>2026-02-26T16:44:38Z</time>
      </trkpt>
      <trkpt lat="48.841455" lon="10.148884">
        <ele>717.9</ele>
        <time>2026-02-26T16:44:39Z</time>
      </trkpt>
      <trkpt lat="48.841457" lon="10.148906">
        <ele>717.8</ele>
        <time>2026-02-26T16:44:40Z</time>
      </trkpt>
      <trkpt lat="48.841464" lon="10.148931">
        <ele>717.8</ele>
        <time>2026-02-26T16:44:41Z</time>
      </trkpt>
      <trkpt lat="48.841468" lon="10.148951">
        <ele>717.7</ele>
        <time>2026-02-26T16:44:42Z</time>
      </trkpt>
      <trkpt lat="48.841465" lon="10.148970">
        <ele>717.7</ele>
        <time>2026-02-26T16:44:43Z</time>
      </trkpt>
      <trkpt lat="48.841462" lon="10.148991">
        <ele>717.6</ele>
        <time>2026-02-26T16:44:44Z</time>
      </trkpt>
      <trkpt lat="48.841457" lon="10.149042">
        <ele>717.5</ele>
        <time>2026-02-26T16:44:45Z</time>
      </trkpt>
      <trkpt lat="48.841455" lon="10.149060">
        <ele>717.5</ele>
        <time>2026-02-26T16:44:46Z</time>
      </trkpt>
      <trkpt lat="48.841460" lon="10.149114">
        <ele>717.3</ele>
        <time>2026-02-26T16:44:47Z</time>
      </trkpt>
      <trkpt lat="48.841462" lon="10.149132">
        <ele>717.3</ele>
        <time>2026-02-26T16:44:48Z</time>
      </trkpt>
      <trkpt lat="48.841471" lon="10.149182">
        <ele>717.1</ele>
        <time>2026-02-26T16:44:49Z</time>
      </trkpt>
      <trkpt lat="48.841472" lon="10.149198">
        <ele>717.1</ele>
        <time>2026-02-26T16:44:50Z</time>
      </trkpt>
      <trkpt lat="48.841468" lon="10.149244">
        <ele>717</ele>
        <time>2026-02-26T16:44:51Z</time>
      </trkpt>
      <trkpt lat="48.841464" lon="10.149254">
        <ele>716.9</ele>
        <time>2026-02-26T16:44:52Z</time>
      </trkpt>
      <trkpt lat="48.841447" lon="10.149282">
        <ele>716.8</ele>
        <time>2026-02-26T16:44:53Z</time>
      </trkpt>
      <trkpt lat="48.841439" lon="10.149294">
        <ele>716.8</ele>
        <time>2026-02-26T16:44:54Z</time>
      </trkpt>
      <trkpt lat="48.841432" lon="10.149306">
        <ele>716.8</ele>
        <time>2026-02-26T16:44:55Z</time>
      </trkpt>
      <trkpt lat="48.841416" lon="10.149352">
        <ele>716.6</ele>
        <time>2026-02-26T16:44:56Z</time>
      </trkpt>
      <trkpt lat="48.841411" lon="10.149367">
        <ele>716.6</ele>
        <time>2026-02-26T16:44:57Z</time>
      </trkpt>
      <trkpt lat="48.841410" lon="10.149417">
        <ele>716.4</ele>
        <time>2026-02-26T16:44:58Z</time>
      </trkpt>
      <trkpt lat="48.841412" lon="10.149435">
        <ele>716.3</ele>
        <time>2026-02-26T16:44:59Z</time>
      </trkpt>
      <trkpt lat="48.841415" lon="10.149460">
        <ele>716.3</ele>
        <time>2026-02-26T16:45:00Z</time>
      </trkpt>
      <trkpt lat="48.841413" lon="10.149489">
        <ele>716.2</ele>
        <time>2026-02-26T16:45:01Z</time>
      </trkpt>
      <trkpt lat="48.841406" lon="10.149529">
        <ele>716.1</ele>
        <time>2026-02-26T16:45:02Z</time>
      </trkpt>
      <trkpt lat="48.841406" lon="10.149579">
        <ele>715.9</ele>
        <time>2026-02-26T16:45:03Z</time>
      </trkpt>
      <trkpt lat="48.841406" lon="10.149597">
        <ele>715.8</ele>
        <time>2026-02-26T16:45:04Z</time>
      </trkpt>
      <trkpt lat="48.841411" lon="10.149643">
        <ele>715.7</ele>
        <time>2026-02-26T16:45:05Z</time>
      </trkpt>
      <trkpt lat="48.841412" lon="10.149657">
        <ele>715.6</ele>
        <time>2026-02-26T16:45:06Z</time>
      </trkpt>
      <trkpt lat="48.841407" lon="10.149705">
        <ele>715.5</ele>
        <time>2026-02-26T16:45:07Z</time>
      </trkpt>
      <trkpt lat="48.841405" lon="10.149723">
        <ele>715.4</ele>
        <time>2026-02-26T16:45:08Z</time>
      </trkpt>
      <trkpt lat="48.841412" lon="10.149767">
        <ele>715.2</ele>
        <time>2026-02-26T16:45:09Z</time>
      </trkpt>
      <trkpt lat="48.841415" lon="10.149784">
        <ele>715.2</ele>
        <time>2026-02-26T16:45:10Z</time>
      </trkpt>
      <trkpt lat="48.841423" lon="10.149836">
        <ele>715</ele>
        <time>2026-02-26T16:45:11Z</time>
      </trkpt>
      <trkpt lat="48.841425" lon="10.149854">
        <ele>714.9</ele>
        <time>2026-02-26T16:45:12Z</time>
      </trkpt>
      <trkpt lat="48.841413" lon="10.149913">
        <ele>714.7</ele>
        <time>2026-02-26T16:45:13Z</time>
      </trkpt>
      <trkpt lat="48.841407" lon="10.149933">
        <ele>714.7</ele>
        <time>2026-02-26T16:45:14Z</time>
      </trkpt>
      <trkpt lat="48.841390" lon="10.149980">
        <ele>714.5</ele>
        <time>2026-02-26T16:45:15Z</time>
      </trkpt>
      <trkpt lat="48.841378" lon="10.150030">
        <ele>714.3</ele>
        <time>2026-02-26T16:45:16Z</time>
      </trkpt>
      <trkpt lat="48.841374" lon="10.150078">
        <ele>714.1</ele>
        <time>2026-02-26T16:45:17Z</time>
      </trkpt>
      <trkpt lat="48.841383" lon="10.150130">
        <ele>714</ele>
        <time>2026-02-26T16:45:18Z</time>
      </trkpt>
      <trkpt lat="48.841387" lon="10.150148">
        <ele>713.9</ele>
        <time>2026-02-26T16:45:19Z</time>
      </trkpt>
      <trkpt lat="48.841398" lon="10.150201">
        <ele>713.7</ele>
        <time>2026-02-26T16:45:20Z</time>
      </trkpt>
      <trkpt lat="48.841400" lon="10.150218">
        <ele>713.6</ele>
        <time>2026-02-26T16:45:21Z</time>
      </trkpt>
      <trkpt lat="48.841407" lon="10.150281">
        <ele>713.4</ele>
        <time>2026-02-26T16:45:22Z</time>
      </trkpt>
      <trkpt lat="48.841407" lon="10.150306">
        <ele>713.3</ele>
        <time>2026-02-26T16:45:23Z</time>
      </trkpt>
      <trkpt lat="48.841400" lon="10.150357">
        <ele>713.2</ele>
        <time>2026-02-26T16:45:24Z</time>
      </trkpt>
      <trkpt lat="48.841381" lon="10.150405">
        <ele>713</ele>
        <time>2026-02-26T16:45:25Z</time>
      </trkpt>
      <trkpt lat="48.841374" lon="10.150423">
        <ele>712.9</ele>
        <time>2026-02-26T16:45:26Z</time>
      </trkpt>
      <trkpt lat="48.841352" lon="10.150472">
        <ele>712.8</ele>
        <time>2026-02-26T16:45:27Z</time>
      </trkpt>
      <trkpt lat="48.841344" lon="10.150487">
        <ele>712.7</ele>
        <time>2026-02-26T16:45:28Z</time>
      </trkpt>
      <trkpt lat="48.841321" lon="10.150524">
        <ele>712.6</ele>
        <time>2026-02-26T16:45:29Z</time>
      </trkpt>
      <trkpt lat="48.841296" lon="10.150562">
        <ele>712.4</ele>
        <time>2026-02-26T16:45:30Z</time>
      </trkpt>
      <trkpt lat="48.841276" lon="10.150595">
        <ele>712.3</ele>
        <time>2026-02-26T16:45:31Z</time>
      </trkpt>
      <trkpt lat="48.841265" lon="10.150638">
        <ele>712.2</ele>
        <time>2026-02-26T16:45:32Z</time>
      </trkpt>
      <trkpt lat="48.841265" lon="10.150657">
        <ele>712.1</ele>
        <time>2026-02-26T16:45:33Z</time>
      </trkpt>
      <trkpt lat="48.841270" lon="10.150709">
        <ele>712</ele>
        <time>2026-02-26T16:45:34Z</time>
      </trkpt>
      <trkpt lat="48.841272" lon="10.150725">
        <ele>711.9</ele>
        <time>2026-02-26T16:45:35Z</time>
      </trkpt>
      <trkpt lat="48.841276" lon="10.150755">
        <ele>711.8</ele>
        <time>2026-02-26T16:45:36Z</time>
      </trkpt>
      <trkpt lat="48.841281" lon="10.150775">
        <ele>711.7</ele>
        <time>2026-02-26T16:45:37Z</time>
      </trkpt>
      <trkpt lat="48.841288" lon="10.150817">
        <ele>711.6</ele>
        <time>2026-02-26T16:45:38Z</time>
      </trkpt>
      <trkpt lat="48.841289" lon="10.150833">
        <ele>711.5</ele>
        <time>2026-02-26T16:45:39Z</time>
      </trkpt>
      <trkpt lat="48.841289" lon="10.150897">
        <ele>711.3</ele>
        <time>2026-02-26T16:45:40Z</time>
      </trkpt>
      <trkpt lat="48.841290" lon="10.150922">
        <ele>711.2</ele>
        <time>2026-02-26T16:45:41Z</time>
      </trkpt>
      <trkpt lat="48.841310" lon="10.150840">
        <ele>710.9</ele>
        <time>2026-02-26T16:45:42Z</time>
      </trkpt>
      <trkpt lat="48.841308" lon="10.150888">
        <ele>710.7</ele>
        <time>2026-02-26T16:45:43Z</time>
      </trkpt>
      <trkpt lat="48.841305" lon="10.150931">
        <ele>710.6</ele>
        <time>2026-02-26T16:45:44Z</time>
      </trkpt>
      <trkpt lat="48.841300" lon="10.150983">
        <ele>710.4</ele>
        <time>2026-02-26T16:45:45Z</time>
      </trkpt>
      <trkpt lat="48.841298" lon="10.150995">
        <ele>710.4</ele>
        <time>2026-02-26T16:45:46Z</time>
      </trkpt>
      <trkpt lat="48.841256" lon="10.151167">
        <ele>710</ele>
        <time>2026-02-26T16:45:47Z</time>
      </trkpt>
      <trkpt lat="48.841237" lon="10.151210">
        <ele>709.9</ele>
        <time>2026-02-26T16:45:48Z</time>
      </trkpt>
      <trkpt lat="48.841233" lon="10.151222">
        <ele>709.9</ele>
        <time>2026-02-26T16:45:49Z</time>
      </trkpt>
      <trkpt lat="48.841232" lon="10.151271">
        <ele>709.8</ele>
        <time>2026-02-26T16:45:50Z</time>
      </trkpt>
      <trkpt lat="48.841233" lon="10.151290">
        <ele>709.8</ele>
        <time>2026-02-26T16:45:51Z</time>
      </trkpt>
      <trkpt lat="48.841241" lon="10.151338">
        <ele>709.7</ele>
        <time>2026-02-26T16:45:52Z</time>
      </trkpt>
      <trkpt lat="48.841245" lon="10.151355">
        <ele>709.7</ele>
        <time>2026-02-26T16:45:53Z</time>
      </trkpt>
      <trkpt lat="48.841253" lon="10.151402">
        <ele>709.5</ele>
        <time>2026-02-26T16:45:54Z</time>
      </trkpt>
      <trkpt lat="48.841267" lon="10.151456">
        <ele>709.4</ele>
        <time>2026-02-26T16:45:55Z</time>
      </trkpt>
      <trkpt lat="48.841282" lon="10.151517">
        <ele>709.2</ele>
        <time>2026-02-26T16:45:56Z</time>
      </trkpt>
      <trkpt lat="48.841272" lon="10.151556">
        <ele>709.1</ele>
        <time>2026-02-26T16:45:57Z</time>
      </trkpt>
      <trkpt lat="48.841256" lon="10.151591">
        <ele>708.9</ele>
        <time>2026-02-26T16:45:58Z</time>
      </trkpt>
      <trkpt lat="48.841238" lon="10.151624">
        <ele>708.8</ele>
        <time>2026-02-26T16:45:59Z</time>
      </trkpt>
      <trkpt lat="48.841222" lon="10.151658">
        <ele>708.7</ele>
        <time>2026-02-26T16:46:00Z</time>
      </trkpt>
      <trkpt lat="48.841203" lon="10.151709">
        <ele>708.5</ele>
        <time>2026-02-26T16:46:01Z</time>
      </trkpt>
      <trkpt lat="48.841197" lon="10.151725">
        <ele>708.4</ele>
        <time>2026-02-26T16:46:02Z</time>
      </trkpt>
      <trkpt lat="48.841190" lon="10.151768">
        <ele>708.3</ele>
        <time>2026-02-26T16:46:03Z</time>
      </trkpt>
      <trkpt lat="48.841188" lon="10.151785">
        <ele>708.3</ele>
        <time>2026-02-26T16:46:04Z</time>
      </trkpt>
      <trkpt lat="48.841187" lon="10.151829">
        <ele>708.2</ele>
        <time>2026-02-26T16:46:05Z</time>
      </trkpt>
      <trkpt lat="48.841190" lon="10.151883">
        <ele>708.1</ele>
        <time>2026-02-26T16:46:06Z</time>
      </trkpt>
      <trkpt lat="48.841193" lon="10.151903">
        <ele>708.1</ele>
        <time>2026-02-26T16:46:07Z</time>
      </trkpt>
      <trkpt lat="48.841201" lon="10.151949">
        <ele>708</ele>
        <time>2026-02-26T16:46:08Z</time>
      </trkpt>
      <trkpt lat="48.841205" lon="10.151999">
        <ele>707.9</ele>
        <time>2026-02-26T16:46:09Z</time>
      </trkpt>
      <trkpt lat="48.841215" lon="10.152045">
        <ele>707.8</ele>
        <time>2026-02-26T16:46:10Z</time>
      </trkpt>
      <trkpt lat="48.841224" lon="10.152092">
        <ele>707.6</ele>
        <time>2026-02-26T16:46:11Z</time>
      </trkpt>
      <trkpt lat="48.841228" lon="10.152133">
        <ele>707.5</ele>
        <time>2026-02-26T16:46:12Z</time>
      </trkpt>
      <trkpt lat="48.841221" lon="10.152184">
        <ele>707.4</ele>
        <time>2026-02-26T16:46:13Z</time>
      </trkpt>
      <trkpt lat="48.841219" lon="10.152200">
        <ele>707.4</ele>
        <time>2026-02-26T16:46:14Z</time>
      </trkpt>
      <trkpt lat="48.841207" lon="10.152238">
        <ele>707.3</ele>
        <time>2026-02-26T16:46:15Z</time>
      </trkpt>
      <trkpt lat="48.841200" lon="10.152252">
        <ele>707.2</ele>
        <time>2026-02-26T16:46:16Z</time>
      </trkpt>
      <trkpt lat="48.841190" lon="10.152311">
        <ele>707</ele>
        <time>2026-02-26T16:46:17Z</time>
      </trkpt>
      <trkpt lat="48.841189" lon="10.152331">
        <ele>706.9</ele>
        <time>2026-02-26T16:46:18Z</time>
      </trkpt>
      <trkpt lat="48.841197" lon="10.152381">
        <ele>706.7</ele>
        <time>2026-02-26T16:46:19Z</time>
      </trkpt>
      <trkpt lat="48.841201" lon="10.152397">
        <ele>706.7</ele>
        <time>2026-02-26T16:46:20Z</time>
      </trkpt>
      <trkpt lat="48.841206" lon="10.152442">
        <ele>706.5</ele>
        <time>2026-02-26T16:46:21Z</time>
      </trkpt>
      <trkpt lat="48.841207" lon="10.152459">
        <ele>706.4</ele>
        <time>2026-02-26T16:46:22Z</time>
      </trkpt>
      <trkpt lat="48.841214" lon="10.152504">
        <ele>706.3</ele>
        <time>2026-02-26T16:46:23Z</time>
      </trkpt>
      <trkpt lat="48.841215" lon="10.152519">
        <ele>706.2</ele>
        <time>2026-02-26T16:46:24Z</time>
      </trkpt>
      <trkpt lat="48.841215" lon="10.152561">
        <ele>706</ele>
        <time>2026-02-26T16:46:25Z</time>
      </trkpt>
      <trkpt lat="48.841215" lon="10.152575">
        <ele>706</ele>
        <time>2026-02-26T16:46:26Z</time>
      </trkpt>
      <trkpt lat="48.841213" lon="10.152598">
        <ele>705.9</ele>
        <time>2026-02-26T16:46:27Z</time>
      </trkpt>
      <trkpt lat="48.841202" lon="10.152627">
        <ele>705.8</ele>
        <time>2026-02-26T16:46:28Z</time>
      </trkpt>
      <trkpt lat="48.841186" lon="10.152578">
        <ele>705.6</ele>
        <time>2026-02-26T16:46:29Z</time>
      </trkpt>
      <trkpt lat="48.841193" lon="10.152619">
        <ele>705.5</ele>
        <time>2026-02-26T16:46:30Z</time>
      </trkpt>
      <trkpt lat="48.841196" lon="10.152633">
        <ele>705.5</ele>
        <time>2026-02-26T16:46:31Z</time>
      </trkpt>
      <trkpt lat="48.841211" lon="10.152682">
        <ele>705.3</ele>
        <time>2026-02-26T16:46:32Z</time>
      </trkpt>
      <trkpt lat="48.841215" lon="10.152698">
        <ele>705.3</ele>
        <time>2026-02-26T16:46:33Z</time>
      </trkpt>
      <trkpt lat="48.841222" lon="10.152710">
        <ele>705.2</ele>
        <time>2026-02-26T16:46:34Z</time>
      </trkpt>
      <trkpt lat="48.841231" lon="10.152720">
        <ele>705.2</ele>
        <time>2026-02-26T16:46:35Z</time>
      </trkpt>
      <trkpt lat="48.841242" lon="10.152726">
        <ele>705.1</ele>
        <time>2026-02-26T16:46:36Z</time>
      </trkpt>
      <trkpt lat="48.841250" lon="10.152732">
        <ele>705.1</ele>
        <time>2026-02-26T16:46:37Z</time>
      </trkpt>
      <trkpt lat="48.841258" lon="10.152742">
        <ele>705.1</ele>
        <time>2026-02-26T16:46:38Z</time>
      </trkpt>
      <trkpt lat="48.841263" lon="10.152759">
        <ele>705</ele>
        <time>2026-02-26T16:46:39Z</time>
      </trkpt>
      <trkpt lat="48.841267" lon="10.152802">
        <ele>704.9</ele>
        <time>2026-02-26T16:46:40Z</time>
      </trkpt>
      <trkpt lat="48.841267" lon="10.152816">
        <ele>704.9</ele>
        <time>2026-02-26T16:46:41Z</time>
      </trkpt>
      <trkpt lat="48.841266" lon="10.152843">
        <ele>704.8</ele>
        <time>2026-02-26T16:46:42Z</time>
      </trkpt>
      <trkpt lat="48.841262" lon="10.152863">
        <ele>704.7</ele>
        <time>2026-02-26T16:46:43Z</time>
      </trkpt>
      <trkpt lat="48.841261" lon="10.152903">
        <ele>704.6</ele>
        <time>2026-02-26T16:46:44Z</time>
      </trkpt>
      <trkpt lat="48.841262" lon="10.152918">
        <ele>704.6</ele>
        <time>2026-02-26T16:46:45Z</time>
      </trkpt>
      <trkpt lat="48.841262" lon="10.152946">
        <ele>704.5</ele>
        <time>2026-02-26T16:46:46Z</time>
      </trkpt>
      <trkpt lat="48.841258" lon="10.152969">
        <ele>704.4</ele>
        <time>2026-02-26T16:46:47Z</time>
      </trkpt>
      <trkpt lat="48.841259" lon="10.153049">
        <ele>704.2</ele>
        <time>2026-02-26T16:46:48Z</time>
      </trkpt>
      <trkpt lat="48.841267" lon="10.153102">
        <ele>704</ele>
        <time>2026-02-26T16:46:49Z</time>
      </trkpt>
      <trkpt lat="48.841263" lon="10.153146">
        <ele>703.9</ele>
        <time>2026-02-26T16:46:50Z</time>
      </trkpt>
      <trkpt lat="48.841260" lon="10.153166">
        <ele>703.8</ele>
        <time>2026-02-26T16:46:51Z</time>
      </trkpt>
      <trkpt lat="48.841249" lon="10.153206">
        <ele>703.7</ele>
        <time>2026-02-26T16:46:52Z</time>
      </trkpt>
      <trkpt lat="48.841226" lon="10.153242">
        <ele>703.5</ele>
        <time>2026-02-26T16:46:53Z</time>
      </trkpt>
      <trkpt lat="48.841217" lon="10.153252">
        <ele>703.5</ele>
        <time>2026-02-26T16:46:54Z</time>
      </trkpt>
      <trkpt lat="48.841207" lon="10.153284">
        <ele>703.4</ele>
        <time>2026-02-26T16:46:55Z</time>
      </trkpt>
      <trkpt lat="48.841203" lon="10.153298">
        <ele>703.3</ele>
        <time>2026-02-26T16:46:56Z</time>
      </trkpt>
      <trkpt lat="48.841199" lon="10.153313">
        <ele>703.3</ele>
        <time>2026-02-26T16:46:57Z</time>
      </trkpt>
      <trkpt lat="48.841188" lon="10.153352">
        <ele>703.2</ele>
        <time>2026-02-26T16:46:58Z</time>
      </trkpt>
      <trkpt lat="48.841185" lon="10.153365">
        <ele>703.2</ele>
        <time>2026-02-26T16:46:59Z</time>
      </trkpt>
      <trkpt lat="48.841180" lon="10.153408">
        <ele>703</ele>
        <time>2026-02-26T16:47:00Z</time>
      </trkpt>
      <trkpt lat="48.841177" lon="10.153422">
        <ele>703</ele>
        <time>2026-02-26T16:47:01Z</time>
      </trkpt>
      <trkpt lat="48.841175" lon="10.153447">
        <ele>702.9</ele>
        <time>2026-02-26T16:47:02Z</time>
      </trkpt>
      <trkpt lat="48.841176" lon="10.153471">
        <ele>702.9</ele>
        <time>2026-02-26T16:47:03Z</time>
      </trkpt>
      <trkpt lat="48.841179" lon="10.153518">
        <ele>702.8</ele>
        <time>2026-02-26T16:47:04Z</time>
      </trkpt>
      <trkpt lat="48.841178" lon="10.153531">
        <ele>702.7</ele>
        <time>2026-02-26T16:47:05Z</time>
      </trkpt>
      <trkpt lat="48.841180" lon="10.153562">
        <ele>702.7</ele>
        <time>2026-02-26T16:47:06Z</time>
      </trkpt>
      <trkpt lat="48.841184" lon="10.153585">
        <ele>702.6</ele>
        <time>2026-02-26T16:47:07Z</time>
      </trkpt>
      <trkpt lat="48.841189" lon="10.153604">
        <ele>702.6</ele>
        <time>2026-02-26T16:47:08Z</time>
      </trkpt>
      <trkpt lat="48.841194" lon="10.153633">
        <ele>702.5</ele>
        <time>2026-02-26T16:47:09Z</time>
      </trkpt>
      <trkpt lat="48.841188" lon="10.153682">
        <ele>702.5</ele>
        <time>2026-02-26T16:47:10Z</time>
      </trkpt>
      <trkpt lat="48.841184" lon="10.153697">
        <ele>702.5</ele>
        <time>2026-02-26T16:47:11Z</time>
      </trkpt>
      <trkpt lat="48.841178" lon="10.153740">
        <ele>702.4</ele>
        <time>2026-02-26T16:47:12Z</time>
      </trkpt>
      <trkpt lat="48.841158" lon="10.153778">
        <ele>702.4</ele>
        <time>2026-02-26T16:47:13Z</time>
      </trkpt>
      <trkpt lat="48.841148" lon="10.153787">
        <ele>702.4</ele>
        <time>2026-02-26T16:47:14Z</time>
      </trkpt>
      <trkpt lat="48.841112" lon="10.153811">
        <ele>702.4</ele>
        <time>2026-02-26T16:47:15Z</time>
      </trkpt>
      <trkpt lat="48.841100" lon="10.153818">
        <ele>702.4</ele>
        <time>2026-02-26T16:47:16Z</time>
      </trkpt>
      <trkpt lat="48.841073" lon="10.153843">
        <ele>702.4</ele>
        <time>2026-02-26T16:47:17Z</time>
      </trkpt>
      <trkpt lat="48.841062" lon="10.153852">
        <ele>702.4</ele>
        <time>2026-02-26T16:47:18Z</time>
      </trkpt>
      <trkpt lat="48.841031" lon="10.153864">
        <ele>702.4</ele>
        <time>2026-02-26T16:47:19Z</time>
      </trkpt>
      <trkpt lat="48.841020" lon="10.153865">
        <ele>702.4</ele>
        <time>2026-02-26T16:47:20Z</time>
      </trkpt>
      <trkpt lat="48.840988" lon="10.153873">
        <ele>702.4</ele>
        <time>2026-02-26T16:47:21Z</time>
      </trkpt>
      <trkpt lat="48.840977" lon="10.153879">
        <ele>702.4</ele>
        <time>2026-02-26T16:47:22Z</time>
      </trkpt>
      <trkpt lat="48.840951" lon="10.153912">
        <ele>702.4</ele>
        <time>2026-02-26T16:47:23Z</time>
      </trkpt>
      <trkpt lat="48.840932" lon="10.153951">
        <ele>702.4</ele>
        <time>2026-02-26T16:47:24Z</time>
      </trkpt>
      <trkpt lat="48.840922" lon="10.153978">
        <ele>702.5</ele>
        <time>2026-02-26T16:47:25Z</time>
      </trkpt>
      <trkpt lat="48.840952" lon="10.153981">
        <ele>702.5</ele>
        <time>2026-02-26T16:47:26Z</time>
      </trkpt>
      <trkpt lat="48.840960" lon="10.153981">
        <ele>702.5</ele>
        <time>2026-02-26T16:47:27Z</time>
      </trkpt>
      <trkpt lat="48.840962" lon="10.153981">
        <ele>702.5</ele>
        <time>2026-02-26T16:47:28Z</time>
      </trkpt>
      <trkpt lat="48.840963" lon="10.153981">
        <ele>702.5</ele>
        <time>2026-02-26T16:47:29Z</time>
      </trkpt>
      <trkpt lat="48.840963" lon="10.153982">
        <ele>702.5</ele>
        <time>2026-02-26T16:47:30Z</time>
      </trkpt>
      <trkpt lat="48.840962" lon="10.153990">
        <ele>702.5</ele>
        <time>2026-02-26T16:47:31Z</time>
      </trkpt>
      <trkpt lat="48.840962" lon="10.153994">
        <ele>702.5</ele>
        <time>2026-02-26T16:47:32Z</time>
      </trkpt>
      <trkpt lat="48.840962" lon="10.153995">
        <ele>702.5</ele>
        <time>2026-02-26T16:47:33Z</time>
      </trkpt>
      <trkpt lat="48.840962" lon="10.153996">
        <ele>702.5</ele>
        <time>2026-02-26T16:47:34Z</time>
      </trkpt>
      <trkpt lat="48.840962" lon="10.153996">
        <ele>702.5</ele>
        <time>2026-02-26T16:47:35Z</time>
      </trkpt>
      <trkpt lat="48.840941" lon="10.154064">
        <ele>702.5</ele>
        <time>2026-02-26T16:48:42Z</time>
      </trkpt>
      <trkpt lat="48.840937" lon="10.154083">
        <ele>702.5</ele>
        <time>2026-02-26T16:48:43Z</time>
      </trkpt>
      <trkpt lat="48.840935" lon="10.154105">
        <ele>702.5</ele>
        <time>2026-02-26T16:48:44Z</time>
      </trkpt>
      <trkpt lat="48.840932" lon="10.154139">
        <ele>702.5</ele>
        <time>2026-02-26T16:48:45Z</time>
      </trkpt>
      <trkpt lat="48.840930" lon="10.154155">
        <ele>702.6</ele>
        <time>2026-02-26T16:48:46Z</time>
      </trkpt>
      <trkpt lat="48.840929" lon="10.154170">
        <ele>702.6</ele>
        <time>2026-02-26T16:48:47Z</time>
      </trkpt>
      <trkpt lat="48.840931" lon="10.154215">
        <ele>702.6</ele>
        <time>2026-02-26T16:48:48Z</time>
      </trkpt>
      <trkpt lat="48.840933" lon="10.154265">
        <ele>702.6</ele>
        <time>2026-02-26T16:48:49Z</time>
      </trkpt>
      <trkpt lat="48.840933" lon="10.154283">
        <ele>702.6</ele>
        <time>2026-02-26T16:48:50Z</time>
      </trkpt>
      <trkpt lat="48.840928" lon="10.154341">
        <ele>702.6</ele>
        <time>2026-02-26T16:48:51Z</time>
      </trkpt>
      <trkpt lat="48.840926" lon="10.154361">
        <ele>702.6</ele>
        <time>2026-02-26T16:48:52Z</time>
      </trkpt>
      <trkpt lat="48.840919" lon="10.154418">
        <ele>702.6</ele>
        <time>2026-02-26T16:48:53Z</time>
      </trkpt>
      <trkpt lat="48.840917" lon="10.154437">
        <ele>702.6</ele>
        <time>2026-02-26T16:48:54Z</time>
      </trkpt>
      <trkpt lat="48.840917" lon="10.154497">
        <ele>702.6</ele>
        <time>2026-02-26T16:48:55Z</time>
      </trkpt>
      <trkpt lat="48.840916" lon="10.154518">
        <ele>702.6</ele>
        <time>2026-02-26T16:48:56Z</time>
      </trkpt>
      <trkpt lat="48.840913" lon="10.154565">
        <ele>702.6</ele>
        <time>2026-02-26T16:48:57Z</time>
      </trkpt>
      <trkpt lat="48.840910" lon="10.154627">
        <ele>702.7</ele>
        <time>2026-02-26T16:48:58Z</time>
      </trkpt>
      <trkpt lat="48.840911" lon="10.154649">
        <ele>702.7</ele>
        <time>2026-02-26T16:48:59Z</time>
      </trkpt>
      <trkpt lat="48.840908" lon="10.154693">
        <ele>702.8</ele>
        <time>2026-02-26T16:49:00Z</time>
      </trkpt>
      <trkpt lat="48.840898" lon="10.154735">
        <ele>702.8</ele>
        <time>2026-02-26T16:49:01Z</time>
      </trkpt>
      <trkpt lat="48.840893" lon="10.154780">
        <ele>702.8</ele>
        <time>2026-02-26T16:49:02Z</time>
      </trkpt>
      <trkpt lat="48.840895" lon="10.154839">
        <ele>702.9</ele>
        <time>2026-02-26T16:49:03Z</time>
      </trkpt>
      <trkpt lat="48.840893" lon="10.154857">
        <ele>702.9</ele>
        <time>2026-02-26T16:49:04Z</time>
      </trkpt>
      <trkpt lat="48.840880" lon="10.154912">
        <ele>703</ele>
        <time>2026-02-26T16:49:05Z</time>
      </trkpt>
      <trkpt lat="48.840877" lon="10.154929">
        <ele>703</ele>
        <time>2026-02-26T16:49:06Z</time>
      </trkpt>
      <trkpt lat="48.840864" lon="10.154984">
        <ele>703</ele>
        <time>2026-02-26T16:49:07Z</time>
      </trkpt>
      <trkpt lat="48.840859" lon="10.155004">
        <ele>703.1</ele>
        <time>2026-02-26T16:49:08Z</time>
      </trkpt>
      <trkpt lat="48.840846" lon="10.155042">
        <ele>703.1</ele>
        <time>2026-02-26T16:49:09Z</time>
      </trkpt>
      <trkpt lat="48.840831" lon="10.155085">
        <ele>703.1</ele>
        <time>2026-02-26T16:49:10Z</time>
      </trkpt>
      <trkpt lat="48.840826" lon="10.155097">
        <ele>703.2</ele>
        <time>2026-02-26T16:49:11Z</time>
      </trkpt>
      <trkpt lat="48.840817" lon="10.155156">
        <ele>703.2</ele>
        <time>2026-02-26T16:49:12Z</time>
      </trkpt>
      <trkpt lat="48.840814" lon="10.155178">
        <ele>703.2</ele>
        <time>2026-02-26T16:49:13Z</time>
      </trkpt>
      <trkpt lat="48.840805" lon="10.155218">
        <ele>703.3</ele>
        <time>2026-02-26T16:49:14Z</time>
      </trkpt>
      <trkpt lat="48.840794" lon="10.155267">
        <ele>703.3</ele>
        <time>2026-02-26T16:49:15Z</time>
      </trkpt>
      <trkpt lat="48.840790" lon="10.155283">
        <ele>703.3</ele>
        <time>2026-02-26T16:49:16Z</time>
      </trkpt>
      <trkpt lat="48.840790" lon="10.155295">
        <ele>703.3</ele>
        <time>2026-02-26T16:49:17Z</time>
      </trkpt>
      <trkpt lat="48.840791" lon="10.155307">
        <ele>703.3</ele>
        <time>2026-02-26T16:49:18Z</time>
      </trkpt>
      <trkpt lat="48.840791" lon="10.155319">
        <ele>703.3</ele>
        <time>2026-02-26T16:49:19Z</time>
      </trkpt>
      <trkpt lat="48.840792" lon="10.155331">
        <ele>703.3</ele>
        <time>2026-02-26T16:49:20Z</time>
      </trkpt>
      <trkpt lat="48.840792" lon="10.155343">
        <ele>703.4</ele>
        <time>2026-02-26T16:49:21Z</time>
      </trkpt>
      <trkpt lat="48.840789" lon="10.155369">
        <ele>703.4</ele>
        <time>2026-02-26T16:49:22Z</time>
      </trkpt>
      <trkpt lat="48.840785" lon="10.155396">
        <ele>703.4</ele>
        <time>2026-02-26T16:49:23Z</time>
      </trkpt>
      <trkpt lat="48.840784" lon="10.155418">
        <ele>703.4</ele>
        <time>2026-02-26T16:49:24Z</time>
      </trkpt>
      <trkpt lat="48.840787" lon="10.155444">
        <ele>703.4</ele>
        <time>2026-02-26T16:49:25Z</time>
      </trkpt>
      <trkpt lat="48.840788" lon="10.155469">
        <ele>703.4</ele>
        <time>2026-02-26T16:49:26Z</time>
      </trkpt>
      <trkpt lat="48.840787" lon="10.155496">
        <ele>703.4</ele>
        <time>2026-02-26T16:49:27Z</time>
      </trkpt>
      <trkpt lat="48.840781" lon="10.155542">
        <ele>703.4</ele>
        <time>2026-02-26T16:49:28Z</time>
      </trkpt>
      <trkpt lat="48.840780" lon="10.155556">
        <ele>703.4</ele>
        <time>2026-02-26T16:49:29Z</time>
      </trkpt>
      <trkpt lat="48.840774" lon="10.155601">
        <ele>703.4</ele>
        <time>2026-02-26T16:49:30Z</time>
      </trkpt>
      <trkpt lat="48.840771" lon="10.155615">
        <ele>703.4</ele>
        <time>2026-02-26T16:49:31Z</time>
      </trkpt>
      <trkpt lat="48.840766" lon="10.155658">
        <ele>703.4</ele>
        <time>2026-02-26T16:49:32Z</time>
      </trkpt>
      <trkpt lat="48.840763" lon="10.155672">
        <ele>703.4</ele>
        <time>2026-02-26T16:49:33Z</time>
      </trkpt>
      <trkpt lat="48.840759" lon="10.155720">
        <ele>703.4</ele>
        <time>2026-02-26T16:49:34Z</time>
      </trkpt>
      <trkpt lat="48.840756" lon="10.155737">
        <ele>703.5</ele>
        <time>2026-02-26T16:49:35Z</time>
      </trkpt>
      <trkpt lat="48.840751" lon="10.155785">
        <ele>703.5</ele>
        <time>2026-02-26T16:49:36Z</time>
      </trkpt>
      <trkpt lat="48.840750" lon="10.155802">
        <ele>703.5</ele>
        <time>2026-02-26T16:49:37Z</time>
      </trkpt>
      <trkpt lat="48.840747" lon="10.155830">
        <ele>703.5</ele>
        <time>2026-02-26T16:49:38Z</time>
      </trkpt>
      <trkpt lat="48.840744" lon="10.155855">
        <ele>703.5</ele>
        <time>2026-02-26T16:49:39Z</time>
      </trkpt>
      <trkpt lat="48.840739" lon="10.155882">
        <ele>703.5</ele>
        <time>2026-02-26T16:49:40Z</time>
      </trkpt>
      <trkpt lat="48.840735" lon="10.155906">
        <ele>703.5</ele>
        <time>2026-02-26T16:49:41Z</time>
      </trkpt>
      <trkpt lat="48.840729" lon="10.155954">
        <ele>703.5</ele>
        <time>2026-02-26T16:49:42Z</time>
      </trkpt>
      <trkpt lat="48.840726" lon="10.155970">
        <ele>703.5</ele>
        <time>2026-02-26T16:49:43Z</time>
      </trkpt>
      <trkpt lat="48.840718" lon="10.156011">
        <ele>703.4</ele>
        <time>2026-02-26T16:49:44Z</time>
      </trkpt>
      <trkpt lat="48.840704" lon="10.156062">
        <ele>703.4</ele>
        <time>2026-02-26T16:49:45Z</time>
      </trkpt>
      <trkpt lat="48.840693" lon="10.156105">
        <ele>703.4</ele>
        <time>2026-02-26T16:49:46Z</time>
      </trkpt>
      <trkpt lat="48.840685" lon="10.156159">
        <ele>703.4</ele>
        <time>2026-02-26T16:49:47Z</time>
      </trkpt>
      <trkpt lat="48.840684" lon="10.156175">
        <ele>703.4</ele>
        <time>2026-02-26T16:49:48Z</time>
      </trkpt>
      <trkpt lat="48.840673" lon="10.156228">
        <ele>703.4</ele>
        <time>2026-02-26T16:49:49Z</time>
      </trkpt>
      <trkpt lat="48.840667" lon="10.156251">
        <ele>703.4</ele>
        <time>2026-02-26T16:49:50Z</time>
      </trkpt>
      <trkpt lat="48.840658" lon="10.156294">
        <ele>703.4</ele>
        <time>2026-02-26T16:49:51Z</time>
      </trkpt>
      <trkpt lat="48.840651" lon="10.156334">
        <ele>703.4</ele>
        <time>2026-02-26T16:49:52Z</time>
      </trkpt>
      <trkpt lat="48.840648" lon="10.156381">
        <ele>703.4</ele>
        <time>2026-02-26T16:49:53Z</time>
      </trkpt>
      <trkpt lat="48.840644" lon="10.156424">
        <ele>703.4</ele>
        <time>2026-02-26T16:49:54Z</time>
      </trkpt>
      <trkpt lat="48.840642" lon="10.156470">
        <ele>703.4</ele>
        <time>2026-02-26T16:49:55Z</time>
      </trkpt>
      <trkpt lat="48.840639" lon="10.156491">
        <ele>703.4</ele>
        <time>2026-02-26T16:49:56Z</time>
      </trkpt>
      <trkpt lat="48.840633" lon="10.156512">
        <ele>703.4</ele>
        <time>2026-02-26T16:49:57Z</time>
      </trkpt>
      <trkpt lat="48.840627" lon="10.156538">
        <ele>703.4</ele>
        <time>2026-02-26T16:49:58Z</time>
      </trkpt>
      <trkpt lat="48.840621" lon="10.156579">
        <ele>703.3</ele>
        <time>2026-02-26T16:49:59Z</time>
      </trkpt>
      <trkpt lat="48.840619" lon="10.156593">
        <ele>703.3</ele>
        <time>2026-02-26T16:50:00Z</time>
      </trkpt>
      <trkpt lat="48.840614" lon="10.156637">
        <ele>703.3</ele>
        <time>2026-02-26T16:50:01Z</time>
      </trkpt>
      <trkpt lat="48.840612" lon="10.156649">
        <ele>703.3</ele>
        <time>2026-02-26T16:50:02Z</time>
      </trkpt>
      <trkpt lat="48.840610" lon="10.156675">
        <ele>703.3</ele>
        <time>2026-02-26T16:50:03Z</time>
      </trkpt>
      <trkpt lat="48.840610" lon="10.156686">
        <ele>703.3</ele>
        <time>2026-02-26T16:50:04Z</time>
      </trkpt>
      <trkpt lat="48.840610" lon="10.156688">
        <ele>703.3</ele>
        <time>2026-02-26T16:50:05Z</time>
      </trkpt>
      <trkpt lat="48.840603" lon="10.156694">
        <ele>703.3</ele>
        <time>2026-02-26T16:50:06Z</time>
      </trkpt>
      <trkpt lat="48.840595" lon="10.156702">
        <ele>703.3</ele>
        <time>2026-02-26T16:50:07Z</time>
      </trkpt>
      <trkpt lat="48.840584" lon="10.156724">
        <ele>703.3</ele>
        <time>2026-02-26T16:50:08Z</time>
      </trkpt>
      <trkpt lat="48.840573" lon="10.156747">
        <ele>703.3</ele>
        <time>2026-02-26T16:50:09Z</time>
      </trkpt>
      <trkpt lat="48.840562" lon="10.156765">
        <ele>703.3</ele>
        <time>2026-02-26T16:50:10Z</time>
      </trkpt>
      <trkpt lat="48.840554" lon="10.156778">
        <ele>703.3</ele>
        <time>2026-02-26T16:50:11Z</time>
      </trkpt>
      <trkpt lat="48.840543" lon="10.156783">
        <ele>703.3</ele>
        <time>2026-02-26T16:50:12Z</time>
      </trkpt>
      <trkpt lat="48.840532" lon="10.156787">
        <ele>703.3</ele>
        <time>2026-02-26T16:50:13Z</time>
      </trkpt>
      <trkpt lat="48.840514" lon="10.156799">
        <ele>703.3</ele>
        <time>2026-02-26T16:50:14Z</time>
      </trkpt>
      <trkpt lat="48.840503" lon="10.156804">
        <ele>703.3</ele>
        <time>2026-02-26T16:50:15Z</time>
      </trkpt>
      <trkpt lat="48.840493" lon="10.156808">
        <ele>703.2</ele>
        <time>2026-02-26T16:50:16Z</time>
      </trkpt>
      <trkpt lat="48.840476" lon="10.156807">
        <ele>703.2</ele>
        <time>2026-02-26T16:50:17Z</time>
      </trkpt>
      <trkpt lat="48.840460" lon="10.156809">
        <ele>703.2</ele>
        <time>2026-02-26T16:50:18Z</time>
      </trkpt>
      <trkpt lat="48.840444" lon="10.156812">
        <ele>703.2</ele>
        <time>2026-02-26T16:50:19Z</time>
      </trkpt>
      <trkpt lat="48.840424" lon="10.156817">
        <ele>703.1</ele>
        <time>2026-02-26T16:50:20Z</time>
      </trkpt>
      <trkpt lat="48.840394" lon="10.156840">
        <ele>703.1</ele>
        <time>2026-02-26T16:50:21Z</time>
      </trkpt>
      <trkpt lat="48.840384" lon="10.156859">
        <ele>703.1</ele>
        <time>2026-02-26T16:50:22Z</time>
      </trkpt>
      <trkpt lat="48.840352" lon="10.156900">
        <ele>703</ele>
        <time>2026-02-26T16:50:23Z</time>
      </trkpt>
      <trkpt lat="48.840340" lon="10.156918">
        <ele>703</ele>
        <time>2026-02-26T16:50:24Z</time>
      </trkpt>
      <trkpt lat="48.840314" lon="10.156953">
        <ele>702.9</ele>
        <time>2026-02-26T16:50:25Z</time>
      </trkpt>
      <trkpt lat="48.840288" lon="10.156979">
        <ele>702.9</ele>
        <time>2026-02-26T16:50:26Z</time>
      </trkpt>
      <trkpt lat="48.840260" lon="10.156996">
        <ele>702.8</ele>
        <time>2026-02-26T16:50:27Z</time>
      </trkpt>
      <trkpt lat="48.840214" lon="10.157103">
        <ele>702.7</ele>
        <time>2026-02-26T16:50:28Z</time>
      </trkpt>
      <trkpt lat="48.840176" lon="10.157097">
        <ele>702.6</ele>
        <time>2026-02-26T16:50:29Z</time>
      </trkpt>
      <trkpt lat="48.840163" lon="10.157094">
        <ele>702.6</ele>
        <time>2026-02-26T16:50:30Z</time>
      </trkpt>
      <trkpt lat="48.840128" lon="10.157095">
        <ele>702.5</ele>
        <time>2026-02-26T16:50:31Z</time>
      </trkpt>
      <trkpt lat="48.840115" lon="10.157101">
        <ele>702.5</ele>
        <time>2026-02-26T16:50:32Z</time>
      </trkpt>
      <trkpt lat="48.840107" lon="10.157104">
        <ele>702.5</ele>
        <time>2026-02-26T16:50:33Z</time>
      </trkpt>
      <trkpt lat="48.840097" lon="10.157097">
        <ele>702.5</ele>
        <time>2026-02-26T16:50:34Z</time>
      </trkpt>
      <trkpt lat="48.840090" lon="10.157092">
        <ele>702.5</ele>
        <time>2026-02-26T16:50:35Z</time>
      </trkpt>
      <trkpt lat="48.840080" lon="10.157088">
        <ele>702.4</ele>
        <time>2026-02-26T16:50:36Z</time>
      </trkpt>
      <trkpt lat="48.840071" lon="10.157084">
        <ele>702.4</ele>
        <time>2026-02-26T16:50:37Z</time>
      </trkpt>
      <trkpt lat="48.840062" lon="10.157080">
        <ele>702.4</ele>
        <time>2026-02-26T16:50:38Z</time>
      </trkpt>
      <trkpt lat="48.840054" lon="10.157078">
        <ele>702.4</ele>
        <time>2026-02-26T16:50:39Z</time>
      </trkpt>
      <trkpt lat="48.840040" lon="10.157079">
        <ele>702.4</ele>
        <time>2026-02-26T16:50:40Z</time>
      </trkpt>
      <trkpt lat="48.840024" lon="10.157077">
        <ele>702.4</ele>
        <time>2026-02-26T16:50:41Z</time>
      </trkpt>
      <trkpt lat="48.839996" lon="10.157080">
        <ele>702.3</ele>
        <time>2026-02-26T16:50:42Z</time>
      </trkpt>
      <trkpt lat="48.839984" lon="10.157082">
        <ele>702.3</ele>
        <time>2026-02-26T16:50:43Z</time>
      </trkpt>
      <trkpt lat="48.839973" lon="10.157082">
        <ele>702.3</ele>
        <time>2026-02-26T16:50:44Z</time>
      </trkpt>
      <trkpt lat="48.839951" lon="10.157080">
        <ele>702.3</ele>
        <time>2026-02-26T16:50:45Z</time>
      </trkpt>
      <trkpt lat="48.839920" lon="10.157077">
        <ele>702.2</ele>
        <time>2026-02-26T16:50:46Z</time>
      </trkpt>
      <trkpt lat="48.839887" lon="10.157076">
        <ele>702.2</ele>
        <time>2026-02-26T16:50:47Z</time>
      </trkpt>
      <trkpt lat="48.839850" lon="10.157073">
        <ele>702.1</ele>
        <time>2026-02-26T16:50:48Z</time>
      </trkpt>
      <trkpt lat="48.839818" lon="10.157066">
        <ele>702.1</ele>
        <time>2026-02-26T16:50:49Z</time>
      </trkpt>
      <trkpt lat="48.839780" lon="10.157059">
        <ele>702</ele>
        <time>2026-02-26T16:50:50Z</time>
      </trkpt>
      <trkpt lat="48.839740" lon="10.157047">
        <ele>702</ele>
        <time>2026-02-26T16:50:51Z</time>
      </trkpt>
      <trkpt lat="48.839701" lon="10.157034">
        <ele>701.9</ele>
        <time>2026-02-26T16:50:52Z</time>
      </trkpt>
      <trkpt lat="48.839653" lon="10.157028">
        <ele>701.9</ele>
        <time>2026-02-26T16:50:53Z</time>
      </trkpt>
      <trkpt lat="48.839605" lon="10.157028">
        <ele>701.8</ele>
        <time>2026-02-26T16:50:54Z</time>
      </trkpt>
      <trkpt lat="48.839558" lon="10.157026">
        <ele>701.7</ele>
        <time>2026-02-26T16:50:55Z</time>
      </trkpt>
      <trkpt lat="48.839526" lon="10.157036">
        <ele>701.7</ele>
        <time>2026-02-26T16:50:56Z</time>
      </trkpt>
      <trkpt lat="48.839487" lon="10.157046">
        <ele>701.6</ele>
        <time>2026-02-26T16:50:57Z</time>
      </trkpt>
      <trkpt lat="48.839446" lon="10.157049">
        <ele>701.5</ele>
        <time>2026-02-26T16:50:58Z</time>
      </trkpt>
      <trkpt lat="48.839397" lon="10.157052">
        <ele>701.4</ele>
        <time>2026-02-26T16:50:59Z</time>
      </trkpt>
      <trkpt lat="48.839296" lon="10.157050">
        <ele>701.1</ele>
        <time>2026-02-26T16:51:00Z</time>
      </trkpt>
      <trkpt lat="48.839266" lon="10.157052">
        <ele>701.1</ele>
        <time>2026-02-26T16:51:01Z</time>
      </trkpt>
      <trkpt lat="48.839206" lon="10.157051">
        <ele>700.9</ele>
        <time>2026-02-26T16:51:02Z</time>
      </trkpt>
      <trkpt lat="48.839139" lon="10.157060">
        <ele>700.7</ele>
        <time>2026-02-26T16:51:03Z</time>
      </trkpt>
      <trkpt lat="48.839090" lon="10.157055">
        <ele>700.6</ele>
        <time>2026-02-26T16:51:04Z</time>
      </trkpt>
      <trkpt lat="48.839046" lon="10.157041">
        <ele>700.5</ele>
        <time>2026-02-26T16:51:05Z</time>
      </trkpt>
      <trkpt lat="48.838977" lon="10.157033">
        <ele>700.3</ele>
        <time>2026-02-26T16:51:06Z</time>
      </trkpt>
      <trkpt lat="48.838913" lon="10.157037">
        <ele>700.2</ele>
        <time>2026-02-26T16:51:07Z</time>
      </trkpt>
      <trkpt lat="48.838870" lon="10.157025">
        <ele>700</ele>
        <time>2026-02-26T16:51:08Z</time>
      </trkpt>
      <trkpt lat="48.838821" lon="10.157029">
        <ele>699.9</ele>
        <time>2026-02-26T16:51:09Z</time>
      </trkpt>
      <trkpt lat="48.838787" lon="10.156998">
        <ele>699.7</ele>
        <time>2026-02-26T16:51:10Z</time>
      </trkpt>
      <trkpt lat="48.838736" lon="10.157001">
        <ele>699.6</ele>
        <time>2026-02-26T16:51:11Z</time>
      </trkpt>
      <trkpt lat="48.838664" lon="10.156977">
        <ele>699.3</ele>
        <time>2026-02-26T16:51:12Z</time>
      </trkpt>
      <trkpt lat="48.838588" lon="10.156981">
        <ele>699</ele>
        <time>2026-02-26T16:51:13Z</time>
      </trkpt>
      <trkpt lat="48.838510" lon="10.156970">
        <ele>698.8</ele>
        <time>2026-02-26T16:51:14Z</time>
      </trkpt>
      <trkpt lat="48.838462" lon="10.156965">
        <ele>698.6</ele>
        <time>2026-02-26T16:51:15Z</time>
      </trkpt>
      <trkpt lat="48.838385" lon="10.156970">
        <ele>698.3</ele>
        <time>2026-02-26T16:51:16Z</time>
      </trkpt>
      <trkpt lat="48.838327" lon="10.156956">
        <ele>698.1</ele>
        <time>2026-02-26T16:51:17Z</time>
      </trkpt>
      <trkpt lat="48.838265" lon="10.156943">
        <ele>697.9</ele>
        <time>2026-02-26T16:51:18Z</time>
      </trkpt>
      <trkpt lat="48.838213" lon="10.156929">
        <ele>697.7</ele>
        <time>2026-02-26T16:51:19Z</time>
      </trkpt>
      <trkpt lat="48.838156" lon="10.156921">
        <ele>697.4</ele>
        <time>2026-02-26T16:51:20Z</time>
      </trkpt>
      <trkpt lat="48.838086" lon="10.156904">
        <ele>697.1</ele>
        <time>2026-02-26T16:51:21Z</time>
      </trkpt>
      <trkpt lat="48.838010" lon="10.156884">
        <ele>696.8</ele>
        <time>2026-02-26T16:51:22Z</time>
      </trkpt>
      <trkpt lat="48.837928" lon="10.156861">
        <ele>696.4</ele>
        <time>2026-02-26T16:51:23Z</time>
      </trkpt>
      <trkpt lat="48.837804" lon="10.156824">
        <ele>695.8</ele>
        <time>2026-02-26T16:51:24Z</time>
      </trkpt>
      <trkpt lat="48.837722" lon="10.156811">
        <ele>695.3</ele>
        <time>2026-02-26T16:51:25Z</time>
      </trkpt>
      <trkpt lat="48.837647" lon="10.156772">
        <ele>694.9</ele>
        <time>2026-02-26T16:51:26Z</time>
      </trkpt>
      <trkpt lat="48.837557" lon="10.156835">
        <ele>694.3</ele>
        <time>2026-02-26T16:51:27Z</time>
      </trkpt>
      <trkpt lat="48.837462" lon="10.156837">
        <ele>693.7</ele>
        <time>2026-02-26T16:51:28Z</time>
      </trkpt>
      <trkpt lat="48.837374" lon="10.156840">
        <ele>693</ele>
        <time>2026-02-26T16:51:29Z</time>
      </trkpt>
      <trkpt lat="48.837255" lon="10.156856">
        <ele>692.1</ele>
        <time>2026-02-26T16:51:30Z</time>
      </trkpt>
      <trkpt lat="48.837165" lon="10.156857">
        <ele>691.5</ele>
        <time>2026-02-26T16:51:31Z</time>
      </trkpt>
      <trkpt lat="48.837078" lon="10.156850">
        <ele>690.9</ele>
        <time>2026-02-26T16:51:32Z</time>
      </trkpt>
      <trkpt lat="48.836979" lon="10.156848">
        <ele>690.1</ele>
        <time>2026-02-26T16:51:33Z</time>
      </trkpt>
      <trkpt lat="48.836892" lon="10.156840">
        <ele>689.5</ele>
        <time>2026-02-26T16:51:34Z</time>
      </trkpt>
      <trkpt lat="48.836810" lon="10.156816">
        <ele>688.9</ele>
        <time>2026-02-26T16:51:35Z</time>
      </trkpt>
      <trkpt lat="48.836710" lon="10.156821">
        <ele>688.2</ele>
        <time>2026-02-26T16:51:36Z</time>
      </trkpt>
      <trkpt lat="48.836611" lon="10.156841">
        <ele>687.5</ele>
        <time>2026-02-26T16:51:37Z</time>
      </trkpt>
      <trkpt lat="48.836521" lon="10.156831">
        <ele>686.9</ele>
        <time>2026-02-26T16:51:38Z</time>
      </trkpt>
      <trkpt lat="48.836440" lon="10.156794">
        <ele>686.3</ele>
        <time>2026-02-26T16:51:39Z</time>
      </trkpt>
      <trkpt lat="48.836340" lon="10.156803">
        <ele>685.6</ele>
        <time>2026-02-26T16:51:40Z</time>
      </trkpt>
      <trkpt lat="48.836255" lon="10.156781">
        <ele>685</ele>
        <time>2026-02-26T16:51:41Z</time>
      </trkpt>
      <trkpt lat="48.836138" lon="10.156814">
        <ele>684.2</ele>
        <time>2026-02-26T16:51:42Z</time>
      </trkpt>
      <trkpt lat="48.836039" lon="10.156817">
        <ele>683.5</ele>
        <time>2026-02-26T16:51:43Z</time>
      </trkpt>
      <trkpt lat="48.835959" lon="10.156772">
        <ele>683</ele>
        <time>2026-02-26T16:51:44Z</time>
      </trkpt>
      <trkpt lat="48.835880" lon="10.156726">
        <ele>682.4</ele>
        <time>2026-02-26T16:51:45Z</time>
      </trkpt>
      <trkpt lat="48.835798" lon="10.156684">
        <ele>681.8</ele>
        <time>2026-02-26T16:51:46Z</time>
      </trkpt>
      <trkpt lat="48.835699" lon="10.156669">
        <ele>681.1</ele>
        <time>2026-02-26T16:51:47Z</time>
      </trkpt>
      <trkpt lat="48.835615" lon="10.156653">
        <ele>680.4</ele>
        <time>2026-02-26T16:51:48Z</time>
      </trkpt>
      <trkpt lat="48.835529" lon="10.156628">
        <ele>679.8</ele>
        <time>2026-02-26T16:51:49Z</time>
      </trkpt>
      <trkpt lat="48.835437" lon="10.156610">
        <ele>679.1</ele>
        <time>2026-02-26T16:51:50Z</time>
      </trkpt>
      <trkpt lat="48.835349" lon="10.156582">
        <ele>678.5</ele>
        <time>2026-02-26T16:51:51Z</time>
      </trkpt>
      <trkpt lat="48.835258" lon="10.156560">
        <ele>677.9</ele>
        <time>2026-02-26T16:51:52Z</time>
      </trkpt>
      <trkpt lat="48.835149" lon="10.156574">
        <ele>677.3</ele>
        <time>2026-02-26T16:51:53Z</time>
      </trkpt>
      <trkpt lat="48.835055" lon="10.156564">
        <ele>676.9</ele>
        <time>2026-02-26T16:51:54Z</time>
      </trkpt>
      <trkpt lat="48.834956" lon="10.156566">
        <ele>676.5</ele>
        <time>2026-02-26T16:51:55Z</time>
      </trkpt>
      <trkpt lat="48.834859" lon="10.156565">
        <ele>676.2</ele>
        <time>2026-02-26T16:51:56Z</time>
      </trkpt>
      <trkpt lat="48.834763" lon="10.156567">
        <ele>676.1</ele>
        <time>2026-02-26T16:51:57Z</time>
      </trkpt>
      <trkpt lat="48.834676" lon="10.156592">
        <ele>676</ele>
        <time>2026-02-26T16:51:58Z</time>
      </trkpt>
      <trkpt lat="48.834597" lon="10.156589">
        <ele>675.9</ele>
        <time>2026-02-26T16:51:59Z</time>
      </trkpt>
      <trkpt lat="48.834527" lon="10.156558">
        <ele>675.8</ele>
        <time>2026-02-26T16:52:00Z</time>
      </trkpt>
      <trkpt lat="48.834450" lon="10.156549">
        <ele>675.8</ele>
        <time>2026-02-26T16:52:01Z</time>
      </trkpt>
      <trkpt lat="48.834367" lon="10.156525">
        <ele>675.7</ele>
        <time>2026-02-26T16:52:02Z</time>
      </trkpt>
      <trkpt lat="48.834277" lon="10.156537">
        <ele>675.7</ele>
        <time>2026-02-26T16:52:03Z</time>
      </trkpt>
      <trkpt lat="48.834214" lon="10.156529">
        <ele>675.7</ele>
        <time>2026-02-26T16:52:04Z</time>
      </trkpt>
      <trkpt lat="48.834148" lon="10.156524">
        <ele>675.8</ele>
        <time>2026-02-26T16:52:05Z</time>
      </trkpt>
      <trkpt lat="48.834078" lon="10.156516">
        <ele>675.9</ele>
        <time>2026-02-26T16:52:06Z</time>
      </trkpt>
      <trkpt lat="48.833993" lon="10.156528">
        <ele>676</ele>
        <time>2026-02-26T16:52:07Z</time>
      </trkpt>
      <trkpt lat="48.833897" lon="10.156551">
        <ele>676.2</ele>
        <time>2026-02-26T16:52:08Z</time>
      </trkpt>
      <trkpt lat="48.833853" lon="10.156514">
        <ele>676.3</ele>
        <time>2026-02-26T16:52:09Z</time>
      </trkpt>
      <trkpt lat="48.833779" lon="10.156516">
        <ele>676.5</ele>
        <time>2026-02-26T16:52:10Z</time>
      </trkpt>
      <trkpt lat="48.833715" lon="10.156508">
        <ele>676.6</ele>
        <time>2026-02-26T16:52:11Z</time>
      </trkpt>
      <trkpt lat="48.833648" lon="10.156496">
        <ele>676.7</ele>
        <time>2026-02-26T16:52:12Z</time>
      </trkpt>
      <trkpt lat="48.833575" lon="10.156470">
        <ele>676.8</ele>
        <time>2026-02-26T16:52:13Z</time>
      </trkpt>
      <trkpt lat="48.833513" lon="10.156459">
        <ele>676.9</ele>
        <time>2026-02-26T16:52:14Z</time>
      </trkpt>
      <trkpt lat="48.833435" lon="10.156455">
        <ele>677</ele>
        <time>2026-02-26T16:52:15Z</time>
      </trkpt>
      <trkpt lat="48.833365" lon="10.156474">
        <ele>677.1</ele>
        <time>2026-02-26T16:52:16Z</time>
      </trkpt>
      <trkpt lat="48.833288" lon="10.156482">
        <ele>677.3</ele>
        <time>2026-02-26T16:52:17Z</time>
      </trkpt>
      <trkpt lat="48.833231" lon="10.156455">
        <ele>677.4</ele>
        <time>2026-02-26T16:52:18Z</time>
      </trkpt>
      <trkpt lat="48.833164" lon="10.156498">
        <ele>677.5</ele>
        <time>2026-02-26T16:52:19Z</time>
      </trkpt>
      <trkpt lat="48.833096" lon="10.156478">
        <ele>677.6</ele>
        <time>2026-02-26T16:52:20Z</time>
      </trkpt>
      <trkpt lat="48.833043" lon="10.156470">
        <ele>677.7</ele>
        <time>2026-02-26T16:52:21Z</time>
      </trkpt>
      <trkpt lat="48.832982" lon="10.156457">
        <ele>677.8</ele>
        <time>2026-02-26T16:52:22Z</time>
      </trkpt>
      <trkpt lat="48.832900" lon="10.156470">
        <ele>677.8</ele>
        <time>2026-02-26T16:52:23Z</time>
      </trkpt>
      <trkpt lat="48.832852" lon="10.156446">
        <ele>677.9</ele>
        <time>2026-02-26T16:52:24Z</time>
      </trkpt>
      <trkpt lat="48.832797" lon="10.156442">
        <ele>677.9</ele>
        <time>2026-02-26T16:52:25Z</time>
      </trkpt>
      <trkpt lat="48.832737" lon="10.156442">
        <ele>677.9</ele>
        <time>2026-02-26T16:52:26Z</time>
      </trkpt>
      <trkpt lat="48.832684" lon="10.156444">
        <ele>677.9</ele>
        <time>2026-02-26T16:52:27Z</time>
      </trkpt>
      <trkpt lat="48.832613" lon="10.156443">
        <ele>677.9</ele>
        <time>2026-02-26T16:52:28Z</time>
      </trkpt>
      <trkpt lat="48.832562" lon="10.156437">
        <ele>677.9</ele>
        <time>2026-02-26T16:52:29Z</time>
      </trkpt>
      <trkpt lat="48.832509" lon="10.156424">
        <ele>677.8</ele>
        <time>2026-02-26T16:52:30Z</time>
      </trkpt>
      <trkpt lat="48.832463" lon="10.156416">
        <ele>677.8</ele>
        <time>2026-02-26T16:52:31Z</time>
      </trkpt>
      <trkpt lat="48.832405" lon="10.156406">
        <ele>677.8</ele>
        <time>2026-02-26T16:52:32Z</time>
      </trkpt>
      <trkpt lat="48.832351" lon="10.156396">
        <ele>677.8</ele>
        <time>2026-02-26T16:52:33Z</time>
      </trkpt>
      <trkpt lat="48.832298" lon="10.156391">
        <ele>677.8</ele>
        <time>2026-02-26T16:52:34Z</time>
      </trkpt>
      <trkpt lat="48.832246" lon="10.156393">
        <ele>677.7</ele>
        <time>2026-02-26T16:52:35Z</time>
      </trkpt>
      <trkpt lat="48.832195" lon="10.156394">
        <ele>677.7</ele>
        <time>2026-02-26T16:52:36Z</time>
      </trkpt>
      <trkpt lat="48.832145" lon="10.156390">
        <ele>677.7</ele>
        <time>2026-02-26T16:52:37Z</time>
      </trkpt>
      <trkpt lat="48.832097" lon="10.156389">
        <ele>677.6</ele>
        <time>2026-02-26T16:52:38Z</time>
      </trkpt>
      <trkpt lat="48.832050" lon="10.156387">
        <ele>677.6</ele>
        <time>2026-02-26T16:52:39Z</time>
      </trkpt>
      <trkpt lat="48.832004" lon="10.156381">
        <ele>677.5</ele>
        <time>2026-02-26T16:52:40Z</time>
      </trkpt>
      <trkpt lat="48.831960" lon="10.156375">
        <ele>677.5</ele>
        <time>2026-02-26T16:52:41Z</time>
      </trkpt>
      <trkpt lat="48.831919" lon="10.156369">
        <ele>677.5</ele>
        <time>2026-02-26T16:52:42Z</time>
      </trkpt>
      <trkpt lat="48.831875" lon="10.156368">
        <ele>677.4</ele>
        <time>2026-02-26T16:52:43Z</time>
      </trkpt>
      <trkpt lat="48.831827" lon="10.156359">
        <ele>677.4</ele>
        <time>2026-02-26T16:52:44Z</time>
      </trkpt>
      <trkpt lat="48.831783" lon="10.156357">
        <ele>677.4</ele>
        <time>2026-02-26T16:52:45Z</time>
      </trkpt>
      <trkpt lat="48.831746" lon="10.156355">
        <ele>677.4</ele>
        <time>2026-02-26T16:52:46Z</time>
      </trkpt>
      <trkpt lat="48.831707" lon="10.156350">
        <ele>677.3</ele>
        <time>2026-02-26T16:52:47Z</time>
      </trkpt>
      <trkpt lat="48.831675" lon="10.156336">
        <ele>677.3</ele>
        <time>2026-02-26T16:52:48Z</time>
      </trkpt>
      <trkpt lat="48.831637" lon="10.156336">
        <ele>677.3</ele>
        <time>2026-02-26T16:52:49Z</time>
      </trkpt>
      <trkpt lat="48.831612" lon="10.156370">
        <ele>677.3</ele>
        <time>2026-02-26T16:52:50Z</time>
      </trkpt>
      <trkpt lat="48.831589" lon="10.156413">
        <ele>677.2</ele>
        <time>2026-02-26T16:52:51Z</time>
      </trkpt>
      <trkpt lat="48.831582" lon="10.156424">
        <ele>676.9</ele>
        <time>2026-02-26T16:52:52Z</time>
      </trkpt>
      <trkpt lat="48.831571" lon="10.156440">
        <ele>676.6</ele>
        <time>2026-02-26T16:52:53Z</time>
      </trkpt>
      <trkpt lat="48.831560" lon="10.156460">
        <ele>676.1</ele>
        <time>2026-02-26T16:52:54Z</time>
      </trkpt>
      <trkpt lat="48.831562" lon="10.156519">
        <ele>675.2</ele>
        <time>2026-02-26T16:52:55Z</time>
      </trkpt>
      <trkpt lat="48.831562" lon="10.156538">
        <ele>674.9</ele>
        <time>2026-02-26T16:52:56Z</time>
      </trkpt>
      <trkpt lat="48.831547" lon="10.156588">
        <ele>674</ele>
        <time>2026-02-26T16:52:57Z</time>
      </trkpt>
      <trkpt lat="48.831537" lon="10.156607">
        <ele>673.7</ele>
        <time>2026-02-26T16:52:58Z</time>
      </trkpt>
      <trkpt lat="48.831519" lon="10.156618">
        <ele>673.6</ele>
        <time>2026-02-26T16:52:59Z</time>
      </trkpt>
      <trkpt lat="48.831509" lon="10.156616">
        <ele>673.5</ele>
        <time>2026-02-26T16:53:00Z</time>
      </trkpt>
      <trkpt lat="48.831504" lon="10.156612">
        <ele>673.5</ele>
        <time>2026-02-26T16:53:01Z</time>
      </trkpt>
      <trkpt lat="48.831500" lon="10.156615">
        <ele>673.5</ele>
        <time>2026-02-26T16:53:02Z</time>
      </trkpt>
      <trkpt lat="48.831494" lon="10.156616">
        <ele>673.4</ele>
        <time>2026-02-26T16:53:03Z</time>
      </trkpt>
      <trkpt lat="48.831482" lon="10.156624">
        <ele>673.4</ele>
        <time>2026-02-26T16:53:04Z</time>
      </trkpt>
      <trkpt lat="48.831468" lon="10.156637">
        <ele>673.3</ele>
        <time>2026-02-26T16:53:05Z</time>
      </trkpt>
      <trkpt lat="48.831451" lon="10.156652">
        <ele>673.2</ele>
        <time>2026-02-26T16:53:06Z</time>
      </trkpt>
      <trkpt lat="48.831424" lon="10.156683">
        <ele>673</ele>
        <time>2026-02-26T16:53:07Z</time>
      </trkpt>
      <trkpt lat="48.831413" lon="10.156705">
        <ele>672.9</ele>
        <time>2026-02-26T16:53:08Z</time>
      </trkpt>
      <trkpt lat="48.831389" lon="10.156746">
        <ele>672.8</ele>
        <time>2026-02-26T16:53:09Z</time>
      </trkpt>
      <trkpt lat="48.831376" lon="10.156793">
        <ele>672.6</ele>
        <time>2026-02-26T16:53:10Z</time>
      </trkpt>
      <trkpt lat="48.831372" lon="10.156811">
        <ele>672.6</ele>
        <time>2026-02-26T16:53:11Z</time>
      </trkpt>
      <trkpt lat="48.831363" lon="10.156853">
        <ele>672.5</ele>
        <time>2026-02-26T16:53:12Z</time>
      </trkpt>
      <trkpt lat="48.831349" lon="10.156913">
        <ele>672.3</ele>
        <time>2026-02-26T16:53:13Z</time>
      </trkpt>
      <trkpt lat="48.831320" lon="10.156977">
        <ele>672.1</ele>
        <time>2026-02-26T16:53:14Z</time>
      </trkpt>
      <trkpt lat="48.831286" lon="10.157043">
        <ele>671.9</ele>
        <time>2026-02-26T16:53:15Z</time>
      </trkpt>
      <trkpt lat="48.831233" lon="10.157154">
        <ele>671.6</ele>
        <time>2026-02-26T16:53:16Z</time>
      </trkpt>
      <trkpt lat="48.831221" lon="10.157196">
        <ele>671.5</ele>
        <time>2026-02-26T16:53:17Z</time>
      </trkpt>
      <trkpt lat="48.831207" lon="10.157224">
        <ele>671.4</ele>
        <time>2026-02-26T16:53:18Z</time>
      </trkpt>
      <trkpt lat="48.831176" lon="10.157302">
        <ele>671.2</ele>
        <time>2026-02-26T16:53:19Z</time>
      </trkpt>
      <trkpt lat="48.831149" lon="10.157380">
        <ele>671</ele>
        <time>2026-02-26T16:53:20Z</time>
      </trkpt>
      <trkpt lat="48.831130" lon="10.157444">
        <ele>670.9</ele>
        <time>2026-02-26T16:53:21Z</time>
      </trkpt>
      <trkpt lat="48.831132" lon="10.157514">
        <ele>670.7</ele>
        <time>2026-02-26T16:53:22Z</time>
      </trkpt>
      <trkpt lat="48.831140" lon="10.157578">
        <ele>670.6</ele>
        <time>2026-02-26T16:53:23Z</time>
      </trkpt>
      <trkpt lat="48.831139" lon="10.157646">
        <ele>670.5</ele>
        <time>2026-02-26T16:53:24Z</time>
      </trkpt>
      <trkpt lat="48.831129" lon="10.157725">
        <ele>670.3</ele>
        <time>2026-02-26T16:53:25Z</time>
      </trkpt>
      <trkpt lat="48.831106" lon="10.157798">
        <ele>670.2</ele>
        <time>2026-02-26T16:53:26Z</time>
      </trkpt>
      <trkpt lat="48.831084" lon="10.157874">
        <ele>670</ele>
        <time>2026-02-26T16:53:27Z</time>
      </trkpt>
      <trkpt lat="48.831068" lon="10.157945">
        <ele>669.8</ele>
        <time>2026-02-26T16:53:28Z</time>
      </trkpt>
      <trkpt lat="48.831053" lon="10.157999">
        <ele>669.7</ele>
        <time>2026-02-26T16:53:29Z</time>
      </trkpt>
      <trkpt lat="48.831042" lon="10.158067">
        <ele>669.5</ele>
        <time>2026-02-26T16:53:30Z</time>
      </trkpt>
      <trkpt lat="48.831034" lon="10.158127">
        <ele>669.4</ele>
        <time>2026-02-26T16:53:31Z</time>
      </trkpt>
      <trkpt lat="48.831028" lon="10.158180">
        <ele>669.2</ele>
        <time>2026-02-26T16:53:32Z</time>
      </trkpt>
      <trkpt lat="48.831026" lon="10.158221">
        <ele>669.1</ele>
        <time>2026-02-26T16:53:33Z</time>
      </trkpt>
      <trkpt lat="48.831022" lon="10.158274">
        <ele>669</ele>
        <time>2026-02-26T16:53:34Z</time>
      </trkpt>
      <trkpt lat="48.831011" lon="10.158350">
        <ele>668.8</ele>
        <time>2026-02-26T16:53:35Z</time>
      </trkpt>
      <trkpt lat="48.830997" lon="10.158437">
        <ele>668.6</ele>
        <time>2026-02-26T16:53:36Z</time>
      </trkpt>
      <trkpt lat="48.830981" lon="10.158500">
        <ele>668.5</ele>
        <time>2026-02-26T16:53:37Z</time>
      </trkpt>
      <trkpt lat="48.830971" lon="10.158569">
        <ele>668.4</ele>
        <time>2026-02-26T16:53:38Z</time>
      </trkpt>
      <trkpt lat="48.830951" lon="10.158653">
        <ele>668.2</ele>
        <time>2026-02-26T16:53:39Z</time>
      </trkpt>
      <trkpt lat="48.830884" lon="10.158855">
        <ele>667.7</ele>
        <time>2026-02-26T16:53:40Z</time>
      </trkpt>
      <trkpt lat="48.830845" lon="10.158985">
        <ele>667.4</ele>
        <time>2026-02-26T16:53:41Z</time>
      </trkpt>
      <trkpt lat="48.830807" lon="10.159080">
        <ele>667.1</ele>
        <time>2026-02-26T16:53:42Z</time>
      </trkpt>
      <trkpt lat="48.830779" lon="10.159144">
        <ele>667</ele>
        <time>2026-02-26T16:53:43Z</time>
      </trkpt>
      <trkpt lat="48.830744" lon="10.159229">
        <ele>666.8</ele>
        <time>2026-02-26T16:53:44Z</time>
      </trkpt>
      <trkpt lat="48.830691" lon="10.159366">
        <ele>666.5</ele>
        <time>2026-02-26T16:53:45Z</time>
      </trkpt>
      <trkpt lat="48.830639" lon="10.159442">
        <ele>666.4</ele>
        <time>2026-02-26T16:53:46Z</time>
      </trkpt>
      <trkpt lat="48.830593" lon="10.159623">
        <ele>666.1</ele>
        <time>2026-02-26T16:53:47Z</time>
      </trkpt>
      <trkpt lat="48.830547" lon="10.159719">
        <ele>666</ele>
        <time>2026-02-26T16:53:48Z</time>
      </trkpt>
      <trkpt lat="48.830533" lon="10.159821">
        <ele>665.9</ele>
        <time>2026-02-26T16:53:49Z</time>
      </trkpt>
      <trkpt lat="48.830524" lon="10.159953">
        <ele>665.8</ele>
        <time>2026-02-26T16:53:50Z</time>
      </trkpt>
      <trkpt lat="48.830500" lon="10.160031">
        <ele>665.7</ele>
        <time>2026-02-26T16:53:51Z</time>
      </trkpt>
      <trkpt lat="48.830480" lon="10.160102">
        <ele>665.7</ele>
        <time>2026-02-26T16:53:52Z</time>
      </trkpt>
      <trkpt lat="48.830461" lon="10.160178">
        <ele>665.6</ele>
        <time>2026-02-26T16:53:53Z</time>
      </trkpt>
      <trkpt lat="48.830448" lon="10.160265">
        <ele>665.6</ele>
        <time>2026-02-26T16:53:54Z</time>
      </trkpt>
      <trkpt lat="48.830428" lon="10.160343">
        <ele>665.6</ele>
        <time>2026-02-26T16:53:55Z</time>
      </trkpt>
      <trkpt lat="48.830402" lon="10.160420">
        <ele>665.5</ele>
        <time>2026-02-26T16:53:56Z</time>
      </trkpt>
      <trkpt lat="48.830387" lon="10.160506">
        <ele>665.5</ele>
        <time>2026-02-26T16:53:57Z</time>
      </trkpt>
      <trkpt lat="48.830366" lon="10.160598">
        <ele>665.5</ele>
        <time>2026-02-26T16:53:58Z</time>
      </trkpt>
      <trkpt lat="48.830349" lon="10.160651">
        <ele>665.5</ele>
        <time>2026-02-26T16:53:59Z</time>
      </trkpt>
      <trkpt lat="48.830334" lon="10.160718">
        <ele>665.5</ele>
        <time>2026-02-26T16:54:00Z</time>
      </trkpt>
      <trkpt lat="48.830313" lon="10.160785">
        <ele>665.5</ele>
        <time>2026-02-26T16:54:01Z</time>
      </trkpt>
      <trkpt lat="48.830292" lon="10.160862">
        <ele>665.6</ele>
        <time>2026-02-26T16:54:02Z</time>
      </trkpt>
      <trkpt lat="48.830277" lon="10.160933">
        <ele>665.6</ele>
        <time>2026-02-26T16:54:03Z</time>
      </trkpt>
      <trkpt lat="48.830263" lon="10.160998">
        <ele>665.6</ele>
        <time>2026-02-26T16:54:04Z</time>
      </trkpt>
      <trkpt lat="48.830248" lon="10.161063">
        <ele>665.6</ele>
        <time>2026-02-26T16:54:05Z</time>
      </trkpt>
      <trkpt lat="48.830237" lon="10.161120">
        <ele>665.6</ele>
        <time>2026-02-26T16:54:06Z</time>
      </trkpt>
      <trkpt lat="48.830231" lon="10.161174">
        <ele>665.6</ele>
        <time>2026-02-26T16:54:07Z</time>
      </trkpt>
      <trkpt lat="48.830219" lon="10.161227">
        <ele>665.6</ele>
        <time>2026-02-26T16:54:08Z</time>
      </trkpt>
      <trkpt lat="48.830216" lon="10.161245">
        <ele>665.6</ele>
        <time>2026-02-26T16:54:09Z</time>
      </trkpt>
      <trkpt lat="48.830213" lon="10.161269">
        <ele>665.7</ele>
        <time>2026-02-26T16:54:10Z</time>
      </trkpt>
      <trkpt lat="48.830215" lon="10.161289">
        <ele>665.7</ele>
        <time>2026-02-26T16:54:11Z</time>
      </trkpt>
      <trkpt lat="48.830210" lon="10.161307">
        <ele>665.7</ele>
        <time>2026-02-26T16:54:12Z</time>
      </trkpt>
      <trkpt lat="48.830206" lon="10.161321">
        <ele>665.7</ele>
        <time>2026-02-26T16:54:13Z</time>
      </trkpt>
      <trkpt lat="48.830204" lon="10.161330">
        <ele>665.7</ele>
        <time>2026-02-26T16:54:14Z</time>
      </trkpt>
      <trkpt lat="48.830195" lon="10.161334">
        <ele>665.6</ele>
        <time>2026-02-26T16:54:15Z</time>
      </trkpt>
      <trkpt lat="48.830187" lon="10.161339">
        <ele>665.6</ele>
        <time>2026-02-26T16:54:16Z</time>
      </trkpt>
      <trkpt lat="48.830178" lon="10.161343">
        <ele>665.5</ele>
        <time>2026-02-26T16:54:17Z</time>
      </trkpt>
      <trkpt lat="48.830169" lon="10.161347">
        <ele>665.5</ele>
        <time>2026-02-26T16:54:18Z</time>
      </trkpt>
      <trkpt lat="48.830134" lon="10.161343">
        <ele>665.3</ele>
        <time>2026-02-26T16:54:19Z</time>
      </trkpt>
      <trkpt lat="48.830121" lon="10.161339">
        <ele>665.3</ele>
        <time>2026-02-26T16:54:20Z</time>
      </trkpt>
      <trkpt lat="48.830094" lon="10.161322">
        <ele>665.1</ele>
        <time>2026-02-26T16:54:21Z</time>
      </trkpt>
      <trkpt lat="48.830066" lon="10.161311">
        <ele>665</ele>
        <time>2026-02-26T16:54:22Z</time>
      </trkpt>
      <trkpt lat="48.830033" lon="10.161315">
        <ele>664.9</ele>
        <time>2026-02-26T16:54:23Z</time>
      </trkpt>
      <trkpt lat="48.830000" lon="10.161338">
        <ele>664.6</ele>
        <time>2026-02-26T16:54:24Z</time>
      </trkpt>
      <trkpt lat="48.829972" lon="10.161362">
        <ele>664.6</ele>
        <time>2026-02-26T16:54:25Z</time>
      </trkpt>
      <trkpt lat="48.829984" lon="10.161516">
        <ele>664.4</ele>
        <time>2026-02-26T16:54:26Z</time>
      </trkpt>
      <trkpt lat="48.829969" lon="10.161593">
        <ele>664.3</ele>
        <time>2026-02-26T16:54:27Z</time>
      </trkpt>
      <trkpt lat="48.829958" lon="10.161669">
        <ele>664.3</ele>
        <time>2026-02-26T16:54:28Z</time>
      </trkpt>
      <trkpt lat="48.829938" lon="10.161762">
        <ele>664.3</ele>
        <time>2026-02-26T16:54:29Z</time>
      </trkpt>
      <trkpt lat="48.829923" lon="10.161837">
        <ele>664.3</ele>
        <time>2026-02-26T16:54:30Z</time>
      </trkpt>
      <trkpt lat="48.829901" lon="10.161918">
        <ele>664.3</ele>
        <time>2026-02-26T16:54:31Z</time>
      </trkpt>
      <trkpt lat="48.829894" lon="10.161991">
        <ele>664.4</ele>
        <time>2026-02-26T16:54:32Z</time>
      </trkpt>
      <trkpt lat="48.829881" lon="10.162090">
        <ele>664.4</ele>
        <time>2026-02-26T16:54:33Z</time>
      </trkpt>
      <trkpt lat="48.829863" lon="10.162172">
        <ele>664.4</ele>
        <time>2026-02-26T16:54:34Z</time>
      </trkpt>
      <trkpt lat="48.829870" lon="10.162258">
        <ele>664.5</ele>
        <time>2026-02-26T16:54:35Z</time>
      </trkpt>
      <trkpt lat="48.829839" lon="10.162341">
        <ele>664.5</ele>
        <time>2026-02-26T16:54:36Z</time>
      </trkpt>
      <trkpt lat="48.829818" lon="10.162422">
        <ele>664.6</ele>
        <time>2026-02-26T16:54:37Z</time>
      </trkpt>
      <trkpt lat="48.829798" lon="10.162499">
        <ele>664.6</ele>
        <time>2026-02-26T16:54:38Z</time>
      </trkpt>
      <trkpt lat="48.829739" lon="10.162564">
        <ele>664.7</ele>
        <time>2026-02-26T16:54:39Z</time>
      </trkpt>
      <trkpt lat="48.829727" lon="10.162661">
        <ele>664.8</ele>
        <time>2026-02-26T16:54:40Z</time>
      </trkpt>
      <trkpt lat="48.829703" lon="10.162740">
        <ele>664.8</ele>
        <time>2026-02-26T16:54:41Z</time>
      </trkpt>
      <trkpt lat="48.829683" lon="10.162831">
        <ele>664.9</ele>
        <time>2026-02-26T16:54:42Z</time>
      </trkpt>
      <trkpt lat="48.829662" lon="10.162906">
        <ele>665</ele>
        <time>2026-02-26T16:54:43Z</time>
      </trkpt>
      <trkpt lat="48.829646" lon="10.162974">
        <ele>665</ele>
        <time>2026-02-26T16:54:44Z</time>
      </trkpt>
      <trkpt lat="48.829628" lon="10.163071">
        <ele>665.1</ele>
        <time>2026-02-26T16:54:45Z</time>
      </trkpt>
      <trkpt lat="48.829620" lon="10.163147">
        <ele>665.1</ele>
        <time>2026-02-26T16:54:46Z</time>
      </trkpt>
      <trkpt lat="48.829601" lon="10.163227">
        <ele>665.2</ele>
        <time>2026-02-26T16:54:47Z</time>
      </trkpt>
      <trkpt lat="48.829582" lon="10.163309">
        <ele>665.3</ele>
        <time>2026-02-26T16:54:48Z</time>
      </trkpt>
      <trkpt lat="48.829554" lon="10.163388">
        <ele>665.4</ele>
        <time>2026-02-26T16:54:49Z</time>
      </trkpt>
      <trkpt lat="48.829539" lon="10.163464">
        <ele>665.4</ele>
        <time>2026-02-26T16:54:50Z</time>
      </trkpt>
      <trkpt lat="48.829526" lon="10.163544">
        <ele>665.5</ele>
        <time>2026-02-26T16:54:51Z</time>
      </trkpt>
      <trkpt lat="48.829506" lon="10.163620">
        <ele>665.6</ele>
        <time>2026-02-26T16:54:52Z</time>
      </trkpt>
      <trkpt lat="48.829492" lon="10.163696">
        <ele>665.6</ele>
        <time>2026-02-26T16:54:53Z</time>
      </trkpt>
      <trkpt lat="48.829484" lon="10.163777">
        <ele>665.7</ele>
        <time>2026-02-26T16:54:54Z</time>
      </trkpt>
      <trkpt lat="48.829463" lon="10.163853">
        <ele>665.8</ele>
        <time>2026-02-26T16:54:55Z</time>
      </trkpt>
      <trkpt lat="48.829452" lon="10.163927">
        <ele>665.9</ele>
        <time>2026-02-26T16:54:56Z</time>
      </trkpt>
      <trkpt lat="48.829446" lon="10.163999">
        <ele>665.9</ele>
        <time>2026-02-26T16:54:57Z</time>
      </trkpt>
      <trkpt lat="48.829433" lon="10.164077">
        <ele>666</ele>
        <time>2026-02-26T16:54:58Z</time>
      </trkpt>
      <trkpt lat="48.829408" lon="10.164160">
        <ele>666</ele>
        <time>2026-02-26T16:54:59Z</time>
      </trkpt>
      <trkpt lat="48.829384" lon="10.164225">
        <ele>666.1</ele>
        <time>2026-02-26T16:55:00Z</time>
      </trkpt>
      <trkpt lat="48.829367" lon="10.164298">
        <ele>666.1</ele>
        <time>2026-02-26T16:55:01Z</time>
      </trkpt>
      <trkpt lat="48.829382" lon="10.164382">
        <ele>666.2</ele>
        <time>2026-02-26T16:55:02Z</time>
      </trkpt>
      <trkpt lat="48.829359" lon="10.164451">
        <ele>666.2</ele>
        <time>2026-02-26T16:55:03Z</time>
      </trkpt>
      <trkpt lat="48.829354" lon="10.164509">
        <ele>666.3</ele>
        <time>2026-02-26T16:55:04Z</time>
      </trkpt>
      <trkpt lat="48.829337" lon="10.164582">
        <ele>666.3</ele>
        <time>2026-02-26T16:55:05Z</time>
      </trkpt>
      <trkpt lat="48.829320" lon="10.164652">
        <ele>666.4</ele>
        <time>2026-02-26T16:55:06Z</time>
      </trkpt>
      <trkpt lat="48.829287" lon="10.164729">
        <ele>666.5</ele>
        <time>2026-02-26T16:55:07Z</time>
      </trkpt>
      <trkpt lat="48.829254" lon="10.164789">
        <ele>666.5</ele>
        <time>2026-02-26T16:55:08Z</time>
      </trkpt>
      <trkpt lat="48.829215" lon="10.164849">
        <ele>666.6</ele>
        <time>2026-02-26T16:55:09Z</time>
      </trkpt>
      <trkpt lat="48.829176" lon="10.164912">
        <ele>666.7</ele>
        <time>2026-02-26T16:55:10Z</time>
      </trkpt>
      <trkpt lat="48.829142" lon="10.164963">
        <ele>666.7</ele>
        <time>2026-02-26T16:55:11Z</time>
      </trkpt>
      <trkpt lat="48.829110" lon="10.165008">
        <ele>666.8</ele>
        <time>2026-02-26T16:55:12Z</time>
      </trkpt>
      <trkpt lat="48.829081" lon="10.165069">
        <ele>666.9</ele>
        <time>2026-02-26T16:55:13Z</time>
      </trkpt>
      <trkpt lat="48.829061" lon="10.165133">
        <ele>666.8</ele>
        <time>2026-02-26T16:55:14Z</time>
      </trkpt>
      <trkpt lat="48.829042" lon="10.165182">
        <ele>666.8</ele>
        <time>2026-02-26T16:55:15Z</time>
      </trkpt>
      <trkpt lat="48.829030" lon="10.165224">
        <ele>666.7</ele>
        <time>2026-02-26T16:55:16Z</time>
      </trkpt>
      <trkpt lat="48.829020" lon="10.165284">
        <ele>666.6</ele>
        <time>2026-02-26T16:55:17Z</time>
      </trkpt>
      <trkpt lat="48.829015" lon="10.165362">
        <ele>666.5</ele>
        <time>2026-02-26T16:55:18Z</time>
      </trkpt>
      <trkpt lat="48.829010" lon="10.165440">
        <ele>666.4</ele>
        <time>2026-02-26T16:55:19Z</time>
      </trkpt>
      <trkpt lat="48.829005" lon="10.165516">
        <ele>666.2</ele>
        <time>2026-02-26T16:55:20Z</time>
      </trkpt>
      <trkpt lat="48.829000" lon="10.165595">
        <ele>666.1</ele>
        <time>2026-02-26T16:55:21Z</time>
      </trkpt>
      <trkpt lat="48.828990" lon="10.165673">
        <ele>665.9</ele>
        <time>2026-02-26T16:55:22Z</time>
      </trkpt>
      <trkpt lat="48.828978" lon="10.165750">
        <ele>665.7</ele>
        <time>2026-02-26T16:55:23Z</time>
      </trkpt>
      <trkpt lat="48.828968" lon="10.165828">
        <ele>665.5</ele>
        <time>2026-02-26T16:55:24Z</time>
      </trkpt>
      <trkpt lat="48.828963" lon="10.165910">
        <ele>665.3</ele>
        <time>2026-02-26T16:55:25Z</time>
      </trkpt>
      <trkpt lat="48.828944" lon="10.165991">
        <ele>665.1</ele>
        <time>2026-02-26T16:55:26Z</time>
      </trkpt>
      <trkpt lat="48.828927" lon="10.166072">
        <ele>664.9</ele>
        <time>2026-02-26T16:55:27Z</time>
      </trkpt>
      <trkpt lat="48.828904" lon="10.166147">
        <ele>664.7</ele>
        <time>2026-02-26T16:55:28Z</time>
      </trkpt>
      <trkpt lat="48.828879" lon="10.166223">
        <ele>664.5</ele>
        <time>2026-02-26T16:55:29Z</time>
      </trkpt>
      <trkpt lat="48.828852" lon="10.166300">
        <ele>664.2</ele>
        <time>2026-02-26T16:55:30Z</time>
      </trkpt>
      <trkpt lat="48.828824" lon="10.166384">
        <ele>663.9</ele>
        <time>2026-02-26T16:55:31Z</time>
      </trkpt>
      <trkpt lat="48.828798" lon="10.166469">
        <ele>663.6</ele>
        <time>2026-02-26T16:55:32Z</time>
      </trkpt>
      <trkpt lat="48.828772" lon="10.166526">
        <ele>663.3</ele>
        <time>2026-02-26T16:55:33Z</time>
      </trkpt>
      <trkpt lat="48.828746" lon="10.166638">
        <ele>662.8</ele>
        <time>2026-02-26T16:55:34Z</time>
      </trkpt>
      <trkpt lat="48.828722" lon="10.166729">
        <ele>662.3</ele>
        <time>2026-02-26T16:55:35Z</time>
      </trkpt>
      <trkpt lat="48.828696" lon="10.166822">
        <ele>661.7</ele>
        <time>2026-02-26T16:55:36Z</time>
      </trkpt>
      <trkpt lat="48.828672" lon="10.166919">
        <ele>661</ele>
        <time>2026-02-26T16:55:37Z</time>
      </trkpt>
      <trkpt lat="48.828654" lon="10.167037">
        <ele>660.1</ele>
        <time>2026-02-26T16:55:38Z</time>
      </trkpt>
      <trkpt lat="48.828644" lon="10.167155">
        <ele>659.1</ele>
        <time>2026-02-26T16:55:39Z</time>
      </trkpt>
      <trkpt lat="48.828636" lon="10.167285">
        <ele>658</ele>
        <time>2026-02-26T16:55:40Z</time>
      </trkpt>
      <trkpt lat="48.828626" lon="10.167422">
        <ele>656.8</ele>
        <time>2026-02-26T16:55:41Z</time>
      </trkpt>
      <trkpt lat="48.828614" lon="10.167569">
        <ele>655.5</ele>
        <time>2026-02-26T16:55:42Z</time>
      </trkpt>
      <trkpt lat="48.828599" lon="10.167721">
        <ele>654.2</ele>
        <time>2026-02-26T16:55:43Z</time>
      </trkpt>
      <trkpt lat="48.828577" lon="10.167882">
        <ele>652.9</ele>
        <time>2026-02-26T16:55:44Z</time>
      </trkpt>
      <trkpt lat="48.828548" lon="10.168042">
        <ele>651.7</ele>
        <time>2026-02-26T16:55:45Z</time>
      </trkpt>
      <trkpt lat="48.828517" lon="10.168210">
        <ele>650.5</ele>
        <time>2026-02-26T16:55:46Z</time>
      </trkpt>
      <trkpt lat="48.828484" lon="10.168383">
        <ele>649.6</ele>
        <time>2026-02-26T16:55:47Z</time>
      </trkpt>
      <trkpt lat="48.828450" lon="10.168555">
        <ele>648.8</ele>
        <time>2026-02-26T16:55:48Z</time>
      </trkpt>
      <trkpt lat="48.828416" lon="10.168721">
        <ele>648.1</ele>
        <time>2026-02-26T16:55:49Z</time>
      </trkpt>
      <trkpt lat="48.828383" lon="10.168885">
        <ele>647.6</ele>
        <time>2026-02-26T16:55:50Z</time>
      </trkpt>
      <trkpt lat="48.828359" lon="10.169050">
        <ele>647.1</ele>
        <time>2026-02-26T16:55:51Z</time>
      </trkpt>
      <trkpt lat="48.828340" lon="10.169202">
        <ele>646.7</ele>
        <time>2026-02-26T16:55:52Z</time>
      </trkpt>
      <trkpt lat="48.828304" lon="10.169358">
        <ele>646.3</ele>
        <time>2026-02-26T16:55:53Z</time>
      </trkpt>
      <trkpt lat="48.828267" lon="10.169513">
        <ele>645.9</ele>
        <time>2026-02-26T16:55:54Z</time>
      </trkpt>
      <trkpt lat="48.828232" lon="10.169662">
        <ele>645.6</ele>
        <time>2026-02-26T16:55:55Z</time>
      </trkpt>
      <trkpt lat="48.828199" lon="10.169804">
        <ele>645.4</ele>
        <time>2026-02-26T16:55:56Z</time>
      </trkpt>
      <trkpt lat="48.828168" lon="10.169941">
        <ele>645.1</ele>
        <time>2026-02-26T16:55:57Z</time>
      </trkpt>
      <trkpt lat="48.828136" lon="10.170073">
        <ele>644.9</ele>
        <time>2026-02-26T16:55:58Z</time>
      </trkpt>
      <trkpt lat="48.828106" lon="10.170199">
        <ele>644.8</ele>
        <time>2026-02-26T16:55:59Z</time>
      </trkpt>
      <trkpt lat="48.828083" lon="10.170321">
        <ele>644.6</ele>
        <time>2026-02-26T16:56:00Z</time>
      </trkpt>
      <trkpt lat="48.828055" lon="10.170440">
        <ele>644.5</ele>
        <time>2026-02-26T16:56:01Z</time>
      </trkpt>
      <trkpt lat="48.828032" lon="10.170549">
        <ele>644.3</ele>
        <time>2026-02-26T16:56:02Z</time>
      </trkpt>
      <trkpt lat="48.828007" lon="10.170657">
        <ele>644.3</ele>
        <time>2026-02-26T16:56:03Z</time>
      </trkpt>
      <trkpt lat="48.827981" lon="10.170764">
        <ele>644.2</ele>
        <time>2026-02-26T16:56:04Z</time>
      </trkpt>
      <trkpt lat="48.827953" lon="10.170866">
        <ele>644.2</ele>
        <time>2026-02-26T16:56:05Z</time>
      </trkpt>
      <trkpt lat="48.827934" lon="10.170964">
        <ele>644.2</ele>
        <time>2026-02-26T16:56:06Z</time>
      </trkpt>
      <trkpt lat="48.827907" lon="10.171064">
        <ele>644.2</ele>
        <time>2026-02-26T16:56:07Z</time>
      </trkpt>
      <trkpt lat="48.827885" lon="10.171178">
        <ele>644.1</ele>
        <time>2026-02-26T16:56:08Z</time>
      </trkpt>
      <trkpt lat="48.827860" lon="10.171257">
        <ele>644.1</ele>
        <time>2026-02-26T16:56:09Z</time>
      </trkpt>
      <trkpt lat="48.827832" lon="10.171364">
        <ele>644.1</ele>
        <time>2026-02-26T16:56:10Z</time>
      </trkpt>
      <trkpt lat="48.827808" lon="10.171462">
        <ele>644.1</ele>
        <time>2026-02-26T16:56:11Z</time>
      </trkpt>
      <trkpt lat="48.827775" lon="10.171565">
        <ele>644.1</ele>
        <time>2026-02-26T16:56:12Z</time>
      </trkpt>
      <trkpt lat="48.827755" lon="10.171657">
        <ele>644.1</ele>
        <time>2026-02-26T16:56:13Z</time>
      </trkpt>
      <trkpt lat="48.827732" lon="10.171746">
        <ele>644</ele>
        <time>2026-02-26T16:56:14Z</time>
      </trkpt>
      <trkpt lat="48.827719" lon="10.171846">
        <ele>643.9</ele>
        <time>2026-02-26T16:56:15Z</time>
      </trkpt>
      <trkpt lat="48.827692" lon="10.171941">
        <ele>643.8</ele>
        <time>2026-02-26T16:56:16Z</time>
      </trkpt>
      <trkpt lat="48.827667" lon="10.172040">
        <ele>643.6</ele>
        <time>2026-02-26T16:56:17Z</time>
      </trkpt>
      <trkpt lat="48.827643" lon="10.172151">
        <ele>643.4</ele>
        <time>2026-02-26T16:56:18Z</time>
      </trkpt>
      <trkpt lat="48.827629" lon="10.172254">
        <ele>643.3</ele>
        <time>2026-02-26T16:56:19Z</time>
      </trkpt>
      <trkpt lat="48.827607" lon="10.172344">
        <ele>643.1</ele>
        <time>2026-02-26T16:56:20Z</time>
      </trkpt>
      <trkpt lat="48.827585" lon="10.172448">
        <ele>642.9</ele>
        <time>2026-02-26T16:56:21Z</time>
      </trkpt>
      <trkpt lat="48.827562" lon="10.172548">
        <ele>642.6</ele>
        <time>2026-02-26T16:56:22Z</time>
      </trkpt>
      <trkpt lat="48.827536" lon="10.172646">
        <ele>642.3</ele>
        <time>2026-02-26T16:56:23Z</time>
      </trkpt>
      <trkpt lat="48.827510" lon="10.172748">
        <ele>642</ele>
        <time>2026-02-26T16:56:24Z</time>
      </trkpt>
      <trkpt lat="48.827482" lon="10.172855">
        <ele>641.7</ele>
        <time>2026-02-26T16:56:25Z</time>
      </trkpt>
      <trkpt lat="48.827454" lon="10.172963">
        <ele>641.4</ele>
        <time>2026-02-26T16:56:26Z</time>
      </trkpt>
      <trkpt lat="48.827428" lon="10.173062">
        <ele>641.2</ele>
        <time>2026-02-26T16:56:27Z</time>
      </trkpt>
      <trkpt lat="48.827395" lon="10.173165">
        <ele>640.9</ele>
        <time>2026-02-26T16:56:28Z</time>
      </trkpt>
      <trkpt lat="48.827357" lon="10.173262">
        <ele>640.7</ele>
        <time>2026-02-26T16:56:29Z</time>
      </trkpt>
      <trkpt lat="48.827315" lon="10.173361">
        <ele>640.5</ele>
        <time>2026-02-26T16:56:30Z</time>
      </trkpt>
      <trkpt lat="48.827273" lon="10.173460">
        <ele>640.2</ele>
        <time>2026-02-26T16:56:31Z</time>
      </trkpt>
      <trkpt lat="48.827232" lon="10.173552">
        <ele>640</ele>
        <time>2026-02-26T16:56:32Z</time>
      </trkpt>
      <trkpt lat="48.827189" lon="10.173641">
        <ele>639.7</ele>
        <time>2026-02-26T16:56:33Z</time>
      </trkpt>
      <trkpt lat="48.827140" lon="10.173736">
        <ele>639.4</ele>
        <time>2026-02-26T16:56:34Z</time>
      </trkpt>
      <trkpt lat="48.827097" lon="10.173822">
        <ele>639.1</ele>
        <time>2026-02-26T16:56:35Z</time>
      </trkpt>
      <trkpt lat="48.827041" lon="10.173909">
        <ele>638.7</ele>
        <time>2026-02-26T16:56:36Z</time>
      </trkpt>
      <trkpt lat="48.826990" lon="10.174003">
        <ele>638.3</ele>
        <time>2026-02-26T16:56:37Z</time>
      </trkpt>
      <trkpt lat="48.826933" lon="10.174081">
        <ele>637.8</ele>
        <time>2026-02-26T16:56:38Z</time>
      </trkpt>
      <trkpt lat="48.826889" lon="10.174183">
        <ele>637.3</ele>
        <time>2026-02-26T16:56:39Z</time>
      </trkpt>
      <trkpt lat="48.826827" lon="10.174279">
        <ele>636.7</ele>
        <time>2026-02-26T16:56:40Z</time>
      </trkpt>
      <trkpt lat="48.826773" lon="10.174377">
        <ele>636.2</ele>
        <time>2026-02-26T16:56:41Z</time>
      </trkpt>
      <trkpt lat="48.826709" lon="10.174473">
        <ele>635.5</ele>
        <time>2026-02-26T16:56:42Z</time>
      </trkpt>
      <trkpt lat="48.826653" lon="10.174575">
        <ele>635</ele>
        <time>2026-02-26T16:56:43Z</time>
      </trkpt>
      <trkpt lat="48.826589" lon="10.174674">
        <ele>634.5</ele>
        <time>2026-02-26T16:56:44Z</time>
      </trkpt>
      <trkpt lat="48.826531" lon="10.174774">
        <ele>634</ele>
        <time>2026-02-26T16:56:45Z</time>
      </trkpt>
      <trkpt lat="48.826472" lon="10.174866">
        <ele>633.6</ele>
        <time>2026-02-26T16:56:46Z</time>
      </trkpt>
      <trkpt lat="48.826406" lon="10.174963">
        <ele>633.1</ele>
        <time>2026-02-26T16:56:47Z</time>
      </trkpt>
      <trkpt lat="48.826348" lon="10.175060">
        <ele>632.7</ele>
        <time>2026-02-26T16:56:48Z</time>
      </trkpt>
      <trkpt lat="48.826295" lon="10.175151">
        <ele>632.4</ele>
        <time>2026-02-26T16:56:49Z</time>
      </trkpt>
      <trkpt lat="48.826245" lon="10.175240">
        <ele>632.1</ele>
        <time>2026-02-26T16:56:50Z</time>
      </trkpt>
      <trkpt lat="48.826198" lon="10.175335">
        <ele>631.8</ele>
        <time>2026-02-26T16:56:51Z</time>
      </trkpt>
      <trkpt lat="48.826151" lon="10.175432">
        <ele>631.5</ele>
        <time>2026-02-26T16:56:52Z</time>
      </trkpt>
      <trkpt lat="48.826108" lon="10.175536">
        <ele>631.3</ele>
        <time>2026-02-26T16:56:53Z</time>
      </trkpt>
      <trkpt lat="48.826061" lon="10.175635">
        <ele>631.1</ele>
        <time>2026-02-26T16:56:54Z</time>
      </trkpt>
      <trkpt lat="48.826022" lon="10.175745">
        <ele>630.8</ele>
        <time>2026-02-26T16:56:55Z</time>
      </trkpt>
      <trkpt lat="48.825985" lon="10.175851">
        <ele>630.6</ele>
        <time>2026-02-26T16:56:56Z</time>
      </trkpt>
      <trkpt lat="48.825952" lon="10.175957">
        <ele>630.5</ele>
        <time>2026-02-26T16:56:57Z</time>
      </trkpt>
      <trkpt lat="48.825917" lon="10.176062">
        <ele>630.3</ele>
        <time>2026-02-26T16:56:58Z</time>
      </trkpt>
      <trkpt lat="48.825880" lon="10.176168">
        <ele>630.1</ele>
        <time>2026-02-26T16:56:59Z</time>
      </trkpt>
      <trkpt lat="48.825838" lon="10.176268">
        <ele>629.9</ele>
        <time>2026-02-26T16:57:00Z</time>
      </trkpt>
      <trkpt lat="48.825795" lon="10.176364">
        <ele>629.7</ele>
        <time>2026-02-26T16:57:01Z</time>
      </trkpt>
      <trkpt lat="48.825757" lon="10.176460">
        <ele>629.6</ele>
        <time>2026-02-26T16:57:02Z</time>
      </trkpt>
      <trkpt lat="48.825719" lon="10.176549">
        <ele>629.4</ele>
        <time>2026-02-26T16:57:03Z</time>
      </trkpt>
      <trkpt lat="48.825679" lon="10.176636">
        <ele>629.2</ele>
        <time>2026-02-26T16:57:04Z</time>
      </trkpt>
      <trkpt lat="48.825636" lon="10.176715">
        <ele>629.1</ele>
        <time>2026-02-26T16:57:05Z</time>
      </trkpt>
      <trkpt lat="48.825597" lon="10.176801">
        <ele>629</ele>
        <time>2026-02-26T16:57:06Z</time>
      </trkpt>
      <trkpt lat="48.825573" lon="10.176897">
        <ele>628.9</ele>
        <time>2026-02-26T16:57:07Z</time>
      </trkpt>
      <trkpt lat="48.825539" lon="10.176981">
        <ele>628.8</ele>
        <time>2026-02-26T16:57:08Z</time>
      </trkpt>
      <trkpt lat="48.825515" lon="10.177078">
        <ele>628.7</ele>
        <time>2026-02-26T16:57:09Z</time>
      </trkpt>
      <trkpt lat="48.825487" lon="10.177172">
        <ele>628.6</ele>
        <time>2026-02-26T16:57:10Z</time>
      </trkpt>
      <trkpt lat="48.825476" lon="10.177298">
        <ele>628.4</ele>
        <time>2026-02-26T16:57:11Z</time>
      </trkpt>
      <trkpt lat="48.825451" lon="10.177398">
        <ele>628.2</ele>
        <time>2026-02-26T16:57:12Z</time>
      </trkpt>
      <trkpt lat="48.825447" lon="10.177522">
        <ele>628.1</ele>
        <time>2026-02-26T16:57:13Z</time>
      </trkpt>
      <trkpt lat="48.825456" lon="10.177642">
        <ele>627.9</ele>
        <time>2026-02-26T16:57:14Z</time>
      </trkpt>
      <trkpt lat="48.825440" lon="10.177756">
        <ele>627.7</ele>
        <time>2026-02-26T16:57:15Z</time>
      </trkpt>
      <trkpt lat="48.825441" lon="10.177880">
        <ele>627.6</ele>
        <time>2026-02-26T16:57:16Z</time>
      </trkpt>
      <trkpt lat="48.825450" lon="10.177994">
        <ele>627.4</ele>
        <time>2026-02-26T16:57:17Z</time>
      </trkpt>
      <trkpt lat="48.825439" lon="10.178121">
        <ele>627.3</ele>
        <time>2026-02-26T16:57:18Z</time>
      </trkpt>
      <trkpt lat="48.825431" lon="10.178242">
        <ele>627.1</ele>
        <time>2026-02-26T16:57:19Z</time>
      </trkpt>
      <trkpt lat="48.825445" lon="10.178370">
        <ele>627</ele>
        <time>2026-02-26T16:57:20Z</time>
      </trkpt>
      <trkpt lat="48.825465" lon="10.178494">
        <ele>626.9</ele>
        <time>2026-02-26T16:57:21Z</time>
      </trkpt>
      <trkpt lat="48.825461" lon="10.178617">
        <ele>626.7</ele>
        <time>2026-02-26T16:57:22Z</time>
      </trkpt>
      <trkpt lat="48.825472" lon="10.178748">
        <ele>626.6</ele>
        <time>2026-02-26T16:57:23Z</time>
      </trkpt>
      <trkpt lat="48.825473" lon="10.178886">
        <ele>626.5</ele>
        <time>2026-02-26T16:57:24Z</time>
      </trkpt>
      <trkpt lat="48.825484" lon="10.179014">
        <ele>626.3</ele>
        <time>2026-02-26T16:57:25Z</time>
      </trkpt>
      <trkpt lat="48.825490" lon="10.179141">
        <ele>626.2</ele>
        <time>2026-02-26T16:57:26Z</time>
      </trkpt>
      <trkpt lat="48.825500" lon="10.179273">
        <ele>626.1</ele>
        <time>2026-02-26T16:57:27Z</time>
      </trkpt>
      <trkpt lat="48.825513" lon="10.179392">
        <ele>626.1</ele>
        <time>2026-02-26T16:57:28Z</time>
      </trkpt>
      <trkpt lat="48.825522" lon="10.179520">
        <ele>626</ele>
        <time>2026-02-26T16:57:29Z</time>
      </trkpt>
      <trkpt lat="48.825522" lon="10.179648">
        <ele>626</ele>
        <time>2026-02-26T16:57:30Z</time>
      </trkpt>
      <trkpt lat="48.825561" lon="10.179770">
        <ele>625.9</ele>
        <time>2026-02-26T16:57:31Z</time>
      </trkpt>
      <trkpt lat="48.825601" lon="10.179877">
        <ele>625.9</ele>
        <time>2026-02-26T16:57:32Z</time>
      </trkpt>
      <trkpt lat="48.825628" lon="10.179989">
        <ele>625.8</ele>
        <time>2026-02-26T16:57:33Z</time>
      </trkpt>
      <trkpt lat="48.825657" lon="10.180104">
        <ele>625.8</ele>
        <time>2026-02-26T16:57:34Z</time>
      </trkpt>
      <trkpt lat="48.825659" lon="10.180245">
        <ele>625.8</ele>
        <time>2026-02-26T16:57:35Z</time>
      </trkpt>
      <trkpt lat="48.825683" lon="10.180361">
        <ele>625.7</ele>
        <time>2026-02-26T16:57:36Z</time>
      </trkpt>
      <trkpt lat="48.825722" lon="10.180479">
        <ele>625.7</ele>
        <time>2026-02-26T16:57:37Z</time>
      </trkpt>
      <trkpt lat="48.825754" lon="10.180614">
        <ele>625.7</ele>
        <time>2026-02-26T16:57:38Z</time>
      </trkpt>
      <trkpt lat="48.825823" lon="10.180698">
        <ele>625.7</ele>
        <time>2026-02-26T16:57:39Z</time>
      </trkpt>
      <trkpt lat="48.825862" lon="10.180796">
        <ele>625.6</ele>
        <time>2026-02-26T16:57:40Z</time>
      </trkpt>
      <trkpt lat="48.825885" lon="10.180877">
        <ele>625.6</ele>
        <time>2026-02-26T16:57:41Z</time>
      </trkpt>
      <trkpt lat="48.825920" lon="10.180981">
        <ele>625.6</ele>
        <time>2026-02-26T16:57:42Z</time>
      </trkpt>
      <trkpt lat="48.826001" lon="10.181108">
        <ele>625.5</ele>
        <time>2026-02-26T16:57:43Z</time>
      </trkpt>
      <trkpt lat="48.826031" lon="10.181209">
        <ele>625.4</ele>
        <time>2026-02-26T16:57:44Z</time>
      </trkpt>
      <trkpt lat="48.826069" lon="10.181318">
        <ele>625.4</ele>
        <time>2026-02-26T16:57:45Z</time>
      </trkpt>
      <trkpt lat="48.826101" lon="10.181419">
        <ele>625.3</ele>
        <time>2026-02-26T16:57:46Z</time>
      </trkpt>
      <trkpt lat="48.826140" lon="10.181534">
        <ele>625.1</ele>
        <time>2026-02-26T16:57:47Z</time>
      </trkpt>
      <trkpt lat="48.826185" lon="10.181630">
        <ele>625</ele>
        <time>2026-02-26T16:57:48Z</time>
      </trkpt>
      <trkpt lat="48.826213" lon="10.181754">
        <ele>624.8</ele>
        <time>2026-02-26T16:57:49Z</time>
      </trkpt>
      <trkpt lat="48.826245" lon="10.181852">
        <ele>624.7</ele>
        <time>2026-02-26T16:57:50Z</time>
      </trkpt>
      <trkpt lat="48.826281" lon="10.181969">
        <ele>624.5</ele>
        <time>2026-02-26T16:57:51Z</time>
      </trkpt>
      <trkpt lat="48.826320" lon="10.182085">
        <ele>624.3</ele>
        <time>2026-02-26T16:57:52Z</time>
      </trkpt>
      <trkpt lat="48.826354" lon="10.182204">
        <ele>624.1</ele>
        <time>2026-02-26T16:57:53Z</time>
      </trkpt>
      <trkpt lat="48.826376" lon="10.182327">
        <ele>623.9</ele>
        <time>2026-02-26T16:57:54Z</time>
      </trkpt>
      <trkpt lat="48.826405" lon="10.182445">
        <ele>623.7</ele>
        <time>2026-02-26T16:57:55Z</time>
      </trkpt>
      <trkpt lat="48.826435" lon="10.182562">
        <ele>623.5</ele>
        <time>2026-02-26T16:57:56Z</time>
      </trkpt>
      <trkpt lat="48.826451" lon="10.182685">
        <ele>623.3</ele>
        <time>2026-02-26T16:57:57Z</time>
      </trkpt>
      <trkpt lat="48.826472" lon="10.182808">
        <ele>623</ele>
        <time>2026-02-26T16:57:58Z</time>
      </trkpt>
      <trkpt lat="48.826493" lon="10.182936">
        <ele>622.8</ele>
        <time>2026-02-26T16:57:59Z</time>
      </trkpt>
      <trkpt lat="48.826506" lon="10.183071">
        <ele>622.6</ele>
        <time>2026-02-26T16:58:00Z</time>
      </trkpt>
      <trkpt lat="48.826513" lon="10.183204">
        <ele>622.3</ele>
        <time>2026-02-26T16:58:01Z</time>
      </trkpt>
      <trkpt lat="48.826514" lon="10.183335">
        <ele>622.2</ele>
        <time>2026-02-26T16:58:02Z</time>
      </trkpt>
      <trkpt lat="48.826521" lon="10.183460">
        <ele>622.1</ele>
        <time>2026-02-26T16:58:03Z</time>
      </trkpt>
      <trkpt lat="48.826515" lon="10.183583">
        <ele>622</ele>
        <time>2026-02-26T16:58:04Z</time>
      </trkpt>
      <trkpt lat="48.826507" lon="10.183711">
        <ele>621.9</ele>
        <time>2026-02-26T16:58:05Z</time>
      </trkpt>
      <trkpt lat="48.826502" lon="10.183836">
        <ele>621.7</ele>
        <time>2026-02-26T16:58:06Z</time>
      </trkpt>
      <trkpt lat="48.826507" lon="10.183956">
        <ele>621.6</ele>
        <time>2026-02-26T16:58:07Z</time>
      </trkpt>
      <trkpt lat="48.826512" lon="10.184084">
        <ele>621.4</ele>
        <time>2026-02-26T16:58:08Z</time>
      </trkpt>
      <trkpt lat="48.826514" lon="10.184209">
        <ele>621.3</ele>
        <time>2026-02-26T16:58:09Z</time>
      </trkpt>
      <trkpt lat="48.826505" lon="10.184338">
        <ele>621.1</ele>
        <time>2026-02-26T16:58:10Z</time>
      </trkpt>
      <trkpt lat="48.826495" lon="10.184464">
        <ele>621</ele>
        <time>2026-02-26T16:58:11Z</time>
      </trkpt>
      <trkpt lat="48.826493" lon="10.184583">
        <ele>620.9</ele>
        <time>2026-02-26T16:58:12Z</time>
      </trkpt>
      <trkpt lat="48.826485" lon="10.184705">
        <ele>620.8</ele>
        <time>2026-02-26T16:58:13Z</time>
      </trkpt>
      <trkpt lat="48.826442" lon="10.184833">
        <ele>620.7</ele>
        <time>2026-02-26T16:58:14Z</time>
      </trkpt>
      <trkpt lat="48.826425" lon="10.184942">
        <ele>620.7</ele>
        <time>2026-02-26T16:58:15Z</time>
      </trkpt>
      <trkpt lat="48.826408" lon="10.185053">
        <ele>620.6</ele>
        <time>2026-02-26T16:58:16Z</time>
      </trkpt>
      <trkpt lat="48.826388" lon="10.185172">
        <ele>620.5</ele>
        <time>2026-02-26T16:58:17Z</time>
      </trkpt>
      <trkpt lat="48.826372" lon="10.185283">
        <ele>620.4</ele>
        <time>2026-02-26T16:58:18Z</time>
      </trkpt>
      <trkpt lat="48.826334" lon="10.185379">
        <ele>620.4</ele>
        <time>2026-02-26T16:58:19Z</time>
      </trkpt>
      <trkpt lat="48.826313" lon="10.185481">
        <ele>620.3</ele>
        <time>2026-02-26T16:58:20Z</time>
      </trkpt>
      <trkpt lat="48.826291" lon="10.185588">
        <ele>620.2</ele>
        <time>2026-02-26T16:58:21Z</time>
      </trkpt>
      <trkpt lat="48.826271" lon="10.185701">
        <ele>620.2</ele>
        <time>2026-02-26T16:58:22Z</time>
      </trkpt>
      <trkpt lat="48.826241" lon="10.185804">
        <ele>620.1</ele>
        <time>2026-02-26T16:58:23Z</time>
      </trkpt>
      <trkpt lat="48.826206" lon="10.185917">
        <ele>620</ele>
        <time>2026-02-26T16:58:24Z</time>
      </trkpt>
      <trkpt lat="48.826170" lon="10.186024">
        <ele>619.9</ele>
        <time>2026-02-26T16:58:25Z</time>
      </trkpt>
      <trkpt lat="48.826145" lon="10.186137">
        <ele>619.9</ele>
        <time>2026-02-26T16:58:26Z</time>
      </trkpt>
      <trkpt lat="48.826104" lon="10.186246">
        <ele>619.8</ele>
        <time>2026-02-26T16:58:27Z</time>
      </trkpt>
      <trkpt lat="48.826086" lon="10.186350">
        <ele>619.7</ele>
        <time>2026-02-26T16:58:28Z</time>
      </trkpt>
      <trkpt lat="48.826066" lon="10.186457">
        <ele>619.6</ele>
        <time>2026-02-26T16:58:29Z</time>
      </trkpt>
      <trkpt lat="48.826042" lon="10.186562">
        <ele>619.6</ele>
        <time>2026-02-26T16:58:30Z</time>
      </trkpt>
      <trkpt lat="48.826017" lon="10.186668">
        <ele>619.5</ele>
        <time>2026-02-26T16:58:31Z</time>
      </trkpt>
      <trkpt lat="48.825993" lon="10.186769">
        <ele>619.4</ele>
        <time>2026-02-26T16:58:32Z</time>
      </trkpt>
      <trkpt lat="48.825955" lon="10.186880">
        <ele>619.4</ele>
        <time>2026-02-26T16:58:33Z</time>
      </trkpt>
      <trkpt lat="48.825922" lon="10.186978">
        <ele>619.3</ele>
        <time>2026-02-26T16:58:34Z</time>
      </trkpt>
      <trkpt lat="48.825895" lon="10.187075">
        <ele>619.3</ele>
        <time>2026-02-26T16:58:35Z</time>
      </trkpt>
      <trkpt lat="48.825847" lon="10.187168">
        <ele>619.3</ele>
        <time>2026-02-26T16:58:36Z</time>
      </trkpt>
      <trkpt lat="48.825822" lon="10.187269">
        <ele>619.2</ele>
        <time>2026-02-26T16:58:37Z</time>
      </trkpt>
      <trkpt lat="48.825817" lon="10.187370">
        <ele>619.2</ele>
        <time>2026-02-26T16:58:38Z</time>
      </trkpt>
      <trkpt lat="48.825796" lon="10.187477">
        <ele>619.2</ele>
        <time>2026-02-26T16:58:39Z</time>
      </trkpt>
      <trkpt lat="48.825778" lon="10.187594">
        <ele>619.3</ele>
        <time>2026-02-26T16:58:40Z</time>
      </trkpt>
      <trkpt lat="48.825742" lon="10.187682">
        <ele>619.3</ele>
        <time>2026-02-26T16:58:41Z</time>
      </trkpt>
      <trkpt lat="48.825704" lon="10.187764">
        <ele>619.3</ele>
        <time>2026-02-26T16:58:42Z</time>
      </trkpt>
      <trkpt lat="48.825678" lon="10.187857">
        <ele>619.3</ele>
        <time>2026-02-26T16:58:43Z</time>
      </trkpt>
      <trkpt lat="48.825652" lon="10.187963">
        <ele>619.3</ele>
        <time>2026-02-26T16:58:44Z</time>
      </trkpt>
      <trkpt lat="48.825627" lon="10.188062">
        <ele>619.4</ele>
        <time>2026-02-26T16:58:45Z</time>
      </trkpt>
      <trkpt lat="48.825598" lon="10.188159">
        <ele>619.3</ele>
        <time>2026-02-26T16:58:46Z</time>
      </trkpt>
      <trkpt lat="48.825572" lon="10.188250">
        <ele>619.2</ele>
        <time>2026-02-26T16:58:47Z</time>
      </trkpt>
      <trkpt lat="48.825543" lon="10.188346">
        <ele>619.2</ele>
        <time>2026-02-26T16:58:48Z</time>
      </trkpt>
      <trkpt lat="48.825524" lon="10.188439">
        <ele>619.2</ele>
        <time>2026-02-26T16:58:49Z</time>
      </trkpt>
      <trkpt lat="48.825498" lon="10.188537">
        <ele>619.1</ele>
        <time>2026-02-26T16:58:50Z</time>
      </trkpt>
      <trkpt lat="48.825477" lon="10.188629">
        <ele>619.1</ele>
        <time>2026-02-26T16:58:51Z</time>
      </trkpt>
      <trkpt lat="48.825446" lon="10.188728">
        <ele>619.1</ele>
        <time>2026-02-26T16:58:52Z</time>
      </trkpt>
      <trkpt lat="48.825423" lon="10.188821">
        <ele>619.1</ele>
        <time>2026-02-26T16:58:53Z</time>
      </trkpt>
      <trkpt lat="48.825397" lon="10.188909">
        <ele>619</ele>
        <time>2026-02-26T16:58:54Z</time>
      </trkpt>
      <trkpt lat="48.825369" lon="10.188999">
        <ele>619</ele>
        <time>2026-02-26T16:58:55Z</time>
      </trkpt>
      <trkpt lat="48.825347" lon="10.189094">
        <ele>618.9</ele>
        <time>2026-02-26T16:58:56Z</time>
      </trkpt>
      <trkpt lat="48.825324" lon="10.189195">
        <ele>618.9</ele>
        <time>2026-02-26T16:58:57Z</time>
      </trkpt>
      <trkpt lat="48.825304" lon="10.189289">
        <ele>618.9</ele>
        <time>2026-02-26T16:58:58Z</time>
      </trkpt>
      <trkpt lat="48.825274" lon="10.189383">
        <ele>618.8</ele>
        <time>2026-02-26T16:58:59Z</time>
      </trkpt>
      <trkpt lat="48.825250" lon="10.189471">
        <ele>618.8</ele>
        <time>2026-02-26T16:59:00Z</time>
      </trkpt>
      <trkpt lat="48.825253" lon="10.189559">
        <ele>618.7</ele>
        <time>2026-02-26T16:59:01Z</time>
      </trkpt>
      <trkpt lat="48.825209" lon="10.189656">
        <ele>618.6</ele>
        <time>2026-02-26T16:59:02Z</time>
      </trkpt>
      <trkpt lat="48.825193" lon="10.189754">
        <ele>618.5</ele>
        <time>2026-02-26T16:59:03Z</time>
      </trkpt>
      <trkpt lat="48.825187" lon="10.189842">
        <ele>618.5</ele>
        <time>2026-02-26T16:59:04Z</time>
      </trkpt>
      <trkpt lat="48.825171" lon="10.189934">
        <ele>618.4</ele>
        <time>2026-02-26T16:59:05Z</time>
      </trkpt>
      <trkpt lat="48.825158" lon="10.190032">
        <ele>618.4</ele>
        <time>2026-02-26T16:59:06Z</time>
      </trkpt>
      <trkpt lat="48.825142" lon="10.190139">
        <ele>618.3</ele>
        <time>2026-02-26T16:59:07Z</time>
      </trkpt>
      <trkpt lat="48.825119" lon="10.190229">
        <ele>618.3</ele>
        <time>2026-02-26T16:59:08Z</time>
      </trkpt>
      <trkpt lat="48.825098" lon="10.190322">
        <ele>618.2</ele>
        <time>2026-02-26T16:59:09Z</time>
      </trkpt>
      <trkpt lat="48.825072" lon="10.190408">
        <ele>618.2</ele>
        <time>2026-02-26T16:59:10Z</time>
      </trkpt>
      <trkpt lat="48.825063" lon="10.190516">
        <ele>618.1</ele>
        <time>2026-02-26T16:59:11Z</time>
      </trkpt>
      <trkpt lat="48.825046" lon="10.190613">
        <ele>618.1</ele>
        <time>2026-02-26T16:59:12Z</time>
      </trkpt>
      <trkpt lat="48.825043" lon="10.190704">
        <ele>618.1</ele>
        <time>2026-02-26T16:59:13Z</time>
      </trkpt>
      <trkpt lat="48.825035" lon="10.190790">
        <ele>618</ele>
        <time>2026-02-26T16:59:14Z</time>
      </trkpt>
      <trkpt lat="48.825012" lon="10.190882">
        <ele>618</ele>
        <time>2026-02-26T16:59:15Z</time>
      </trkpt>
      <trkpt lat="48.824990" lon="10.190971">
        <ele>617.9</ele>
        <time>2026-02-26T16:59:16Z</time>
      </trkpt>
      <trkpt lat="48.824942" lon="10.191062">
        <ele>617.9</ele>
        <time>2026-02-26T16:59:17Z</time>
      </trkpt>
      <trkpt lat="48.824934" lon="10.191147">
        <ele>617.8</ele>
        <time>2026-02-26T16:59:18Z</time>
      </trkpt>
      <trkpt lat="48.824921" lon="10.191230">
        <ele>617.8</ele>
        <time>2026-02-26T16:59:19Z</time>
      </trkpt>
      <trkpt lat="48.824907" lon="10.191306">
        <ele>617.8</ele>
        <time>2026-02-26T16:59:20Z</time>
      </trkpt>
      <trkpt lat="48.824891" lon="10.191387">
        <ele>617.8</ele>
        <time>2026-02-26T16:59:21Z</time>
      </trkpt>
      <trkpt lat="48.824872" lon="10.191466">
        <ele>617.8</ele>
        <time>2026-02-26T16:59:22Z</time>
      </trkpt>
      <trkpt lat="48.824860" lon="10.191541">
        <ele>617.8</ele>
        <time>2026-02-26T16:59:23Z</time>
      </trkpt>
      <trkpt lat="48.824854" lon="10.191617">
        <ele>617.8</ele>
        <time>2026-02-26T16:59:24Z</time>
      </trkpt>
      <trkpt lat="48.824845" lon="10.191691">
        <ele>617.9</ele>
        <time>2026-02-26T16:59:25Z</time>
      </trkpt>
      <trkpt lat="48.824830" lon="10.191762">
        <ele>617.9</ele>
        <time>2026-02-26T16:59:26Z</time>
      </trkpt>
      <trkpt lat="48.824815" lon="10.191831">
        <ele>617.9</ele>
        <time>2026-02-26T16:59:27Z</time>
      </trkpt>
      <trkpt lat="48.824806" lon="10.191897">
        <ele>618</ele>
        <time>2026-02-26T16:59:28Z</time>
      </trkpt>
      <trkpt lat="48.824794" lon="10.191961">
        <ele>618</ele>
        <time>2026-02-26T16:59:29Z</time>
      </trkpt>
      <trkpt lat="48.824783" lon="10.192031">
        <ele>618.1</ele>
        <time>2026-02-26T16:59:30Z</time>
      </trkpt>
      <trkpt lat="48.824769" lon="10.192097">
        <ele>618.1</ele>
        <time>2026-02-26T16:59:31Z</time>
      </trkpt>
      <trkpt lat="48.824759" lon="10.192163">
        <ele>618.1</ele>
        <time>2026-02-26T16:59:32Z</time>
      </trkpt>
      <trkpt lat="48.824748" lon="10.192229">
        <ele>618.1</ele>
        <time>2026-02-26T16:59:33Z</time>
      </trkpt>
      <trkpt lat="48.824743" lon="10.192292">
        <ele>618</ele>
        <time>2026-02-26T16:59:34Z</time>
      </trkpt>
      <trkpt lat="48.824727" lon="10.192350">
        <ele>618</ele>
        <time>2026-02-26T16:59:35Z</time>
      </trkpt>
      <trkpt lat="48.824715" lon="10.192415">
        <ele>618</ele>
        <time>2026-02-26T16:59:36Z</time>
      </trkpt>
      <trkpt lat="48.824707" lon="10.192476">
        <ele>618</ele>
        <time>2026-02-26T16:59:37Z</time>
      </trkpt>
      <trkpt lat="48.824698" lon="10.192533">
        <ele>618</ele>
        <time>2026-02-26T16:59:38Z</time>
      </trkpt>
      <trkpt lat="48.824679" lon="10.192589">
        <ele>618</ele>
        <time>2026-02-26T16:59:39Z</time>
      </trkpt>
      <trkpt lat="48.824647" lon="10.192638">
        <ele>618</ele>
        <time>2026-02-26T16:59:40Z</time>
      </trkpt>
      <trkpt lat="48.824607" lon="10.192668">
        <ele>618</ele>
        <time>2026-02-26T16:59:41Z</time>
      </trkpt>
      <trkpt lat="48.824573" lon="10.192701">
        <ele>617.9</ele>
        <time>2026-02-26T16:59:42Z</time>
      </trkpt>
      <trkpt lat="48.824543" lon="10.192745">
        <ele>617.9</ele>
        <time>2026-02-26T16:59:43Z</time>
      </trkpt>
      <trkpt lat="48.824521" lon="10.192802">
        <ele>617.9</ele>
        <time>2026-02-26T16:59:44Z</time>
      </trkpt>
      <trkpt lat="48.824516" lon="10.192866">
        <ele>617.9</ele>
        <time>2026-02-26T16:59:45Z</time>
      </trkpt>
      <trkpt lat="48.824511" lon="10.192934">
        <ele>617.8</ele>
        <time>2026-02-26T16:59:46Z</time>
      </trkpt>
      <trkpt lat="48.824511" lon="10.192996">
        <ele>617.8</ele>
        <time>2026-02-26T16:59:47Z</time>
      </trkpt>
      <trkpt lat="48.824537" lon="10.193062">
        <ele>617.7</ele>
        <time>2026-02-26T16:59:48Z</time>
      </trkpt>
      <trkpt lat="48.824549" lon="10.193129">
        <ele>617.7</ele>
        <time>2026-02-26T16:59:49Z</time>
      </trkpt>
      <trkpt lat="48.824549" lon="10.193195">
        <ele>617.6</ele>
        <time>2026-02-26T16:59:50Z</time>
      </trkpt>
      <trkpt lat="48.824533" lon="10.193273">
        <ele>617.5</ele>
        <time>2026-02-26T16:59:51Z</time>
      </trkpt>
      <trkpt lat="48.824521" lon="10.193339">
        <ele>617.4</ele>
        <time>2026-02-26T16:59:52Z</time>
      </trkpt>
      <trkpt lat="48.824509" lon="10.193405">
        <ele>617.4</ele>
        <time>2026-02-26T16:59:53Z</time>
      </trkpt>
      <trkpt lat="48.824485" lon="10.193480">
        <ele>617.3</ele>
        <time>2026-02-26T16:59:54Z</time>
      </trkpt>
      <trkpt lat="48.824474" lon="10.193543">
        <ele>617.3</ele>
        <time>2026-02-26T16:59:55Z</time>
      </trkpt>
      <trkpt lat="48.824480" lon="10.193605">
        <ele>617.2</ele>
        <time>2026-02-26T16:59:56Z</time>
      </trkpt>
      <trkpt lat="48.824472" lon="10.193668">
        <ele>617.2</ele>
        <time>2026-02-26T16:59:57Z</time>
      </trkpt>
      <trkpt lat="48.824458" lon="10.193735">
        <ele>617.1</ele>
        <time>2026-02-26T16:59:58Z</time>
      </trkpt>
      <trkpt lat="48.824446" lon="10.193801">
        <ele>617.1</ele>
        <time>2026-02-26T16:59:59Z</time>
      </trkpt>
      <trkpt lat="48.824429" lon="10.193868">
        <ele>617</ele>
        <time>2026-02-26T17:00:00Z</time>
      </trkpt>
      <trkpt lat="48.824418" lon="10.193932">
        <ele>617</ele>
        <time>2026-02-26T17:00:01Z</time>
      </trkpt>
      <trkpt lat="48.824405" lon="10.193996">
        <ele>616.9</ele>
        <time>2026-02-26T17:00:02Z</time>
      </trkpt>
      <trkpt lat="48.824405" lon="10.194060">
        <ele>616.9</ele>
        <time>2026-02-26T17:00:03Z</time>
      </trkpt>
      <trkpt lat="48.824393" lon="10.194124">
        <ele>616.8</ele>
        <time>2026-02-26T17:00:04Z</time>
      </trkpt>
      <trkpt lat="48.824385" lon="10.194195">
        <ele>616.8</ele>
        <time>2026-02-26T17:00:05Z</time>
      </trkpt>
      <trkpt lat="48.824375" lon="10.194262">
        <ele>616.8</ele>
        <time>2026-02-26T17:00:06Z</time>
      </trkpt>
      <trkpt lat="48.824361" lon="10.194324">
        <ele>616.7</ele>
        <time>2026-02-26T17:00:07Z</time>
      </trkpt>
      <trkpt lat="48.824352" lon="10.194392">
        <ele>616.7</ele>
        <time>2026-02-26T17:00:08Z</time>
      </trkpt>
      <trkpt lat="48.824341" lon="10.194458">
        <ele>616.7</ele>
        <time>2026-02-26T17:00:09Z</time>
      </trkpt>
      <trkpt lat="48.824330" lon="10.194522">
        <ele>616.6</ele>
        <time>2026-02-26T17:00:10Z</time>
      </trkpt>
      <trkpt lat="48.824314" lon="10.194589">
        <ele>616.6</ele>
        <time>2026-02-26T17:00:11Z</time>
      </trkpt>
      <trkpt lat="48.824294" lon="10.194658">
        <ele>616.5</ele>
        <time>2026-02-26T17:00:12Z</time>
      </trkpt>
      <trkpt lat="48.824271" lon="10.194717">
        <ele>616.4</ele>
        <time>2026-02-26T17:00:13Z</time>
      </trkpt>
      <trkpt lat="48.824233" lon="10.194769">
        <ele>616.3</ele>
        <time>2026-02-26T17:00:14Z</time>
      </trkpt>
      <trkpt lat="48.824182" lon="10.194786">
        <ele>616.1</ele>
        <time>2026-02-26T17:00:15Z</time>
      </trkpt>
      <trkpt lat="48.824133" lon="10.194794">
        <ele>616</ele>
        <time>2026-02-26T17:00:16Z</time>
      </trkpt>
      <trkpt lat="48.824088" lon="10.194793">
        <ele>615.8</ele>
        <time>2026-02-26T17:00:17Z</time>
      </trkpt>
      <trkpt lat="48.824040" lon="10.194792">
        <ele>615.6</ele>
        <time>2026-02-26T17:00:18Z</time>
      </trkpt>
      <trkpt lat="48.823990" lon="10.194794">
        <ele>615.5</ele>
        <time>2026-02-26T17:00:19Z</time>
      </trkpt>
      <trkpt lat="48.823940" lon="10.194812">
        <ele>615.3</ele>
        <time>2026-02-26T17:00:20Z</time>
      </trkpt>
      <trkpt lat="48.823889" lon="10.194831">
        <ele>615.1</ele>
        <time>2026-02-26T17:00:21Z</time>
      </trkpt>
      <trkpt lat="48.823839" lon="10.194851">
        <ele>615</ele>
        <time>2026-02-26T17:00:22Z</time>
      </trkpt>
      <trkpt lat="48.823789" lon="10.194873">
        <ele>614.8</ele>
        <time>2026-02-26T17:00:23Z</time>
      </trkpt>
      <trkpt lat="48.823738" lon="10.194907">
        <ele>614.6</ele>
        <time>2026-02-26T17:00:24Z</time>
      </trkpt>
      <trkpt lat="48.823689" lon="10.194943">
        <ele>614.4</ele>
        <time>2026-02-26T17:00:25Z</time>
      </trkpt>
      <trkpt lat="48.823641" lon="10.194983">
        <ele>614.2</ele>
        <time>2026-02-26T17:00:26Z</time>
      </trkpt>
      <trkpt lat="48.823601" lon="10.195018">
        <ele>614.1</ele>
        <time>2026-02-26T17:00:27Z</time>
      </trkpt>
      <trkpt lat="48.823557" lon="10.195072">
        <ele>613.9</ele>
        <time>2026-02-26T17:00:28Z</time>
      </trkpt>
      <trkpt lat="48.823516" lon="10.195128">
        <ele>613.8</ele>
        <time>2026-02-26T17:00:29Z</time>
      </trkpt>
      <trkpt lat="48.823477" lon="10.195198">
        <ele>613.6</ele>
        <time>2026-02-26T17:00:30Z</time>
      </trkpt>
      <trkpt lat="48.823446" lon="10.195240">
        <ele>613.5</ele>
        <time>2026-02-26T17:00:31Z</time>
      </trkpt>
      <trkpt lat="48.823415" lon="10.195299">
        <ele>613.3</ele>
        <time>2026-02-26T17:00:32Z</time>
      </trkpt>
      <trkpt lat="48.823384" lon="10.195378">
        <ele>613.2</ele>
        <time>2026-02-26T17:00:33Z</time>
      </trkpt>
      <trkpt lat="48.823353" lon="10.195449">
        <ele>613.1</ele>
        <time>2026-02-26T17:00:34Z</time>
      </trkpt>
      <trkpt lat="48.823327" lon="10.195533">
        <ele>612.9</ele>
        <time>2026-02-26T17:00:35Z</time>
      </trkpt>
      <trkpt lat="48.823310" lon="10.195621">
        <ele>612.8</ele>
        <time>2026-02-26T17:00:36Z</time>
      </trkpt>
      <trkpt lat="48.823295" lon="10.195708">
        <ele>612.7</ele>
        <time>2026-02-26T17:00:37Z</time>
      </trkpt>
      <trkpt lat="48.823282" lon="10.195794">
        <ele>612.6</ele>
        <time>2026-02-26T17:00:38Z</time>
      </trkpt>
      <trkpt lat="48.823258" lon="10.195884">
        <ele>612.5</ele>
        <time>2026-02-26T17:00:39Z</time>
      </trkpt>
      <trkpt lat="48.823239" lon="10.195968">
        <ele>612.4</ele>
        <time>2026-02-26T17:00:40Z</time>
      </trkpt>
      <trkpt lat="48.823224" lon="10.196062">
        <ele>612.3</ele>
        <time>2026-02-26T17:00:41Z</time>
      </trkpt>
      <trkpt lat="48.823200" lon="10.196160">
        <ele>612.2</ele>
        <time>2026-02-26T17:00:42Z</time>
      </trkpt>
      <trkpt lat="48.823175" lon="10.196269">
        <ele>612.1</ele>
        <time>2026-02-26T17:00:43Z</time>
      </trkpt>
      <trkpt lat="48.823151" lon="10.196379">
        <ele>611.9</ele>
        <time>2026-02-26T17:00:44Z</time>
      </trkpt>
      <trkpt lat="48.823127" lon="10.196482">
        <ele>611.8</ele>
        <time>2026-02-26T17:00:45Z</time>
      </trkpt>
      <trkpt lat="48.823108" lon="10.196588">
        <ele>611.6</ele>
        <time>2026-02-26T17:00:46Z</time>
      </trkpt>
      <trkpt lat="48.823084" lon="10.196696">
        <ele>611.5</ele>
        <time>2026-02-26T17:00:47Z</time>
      </trkpt>
      <trkpt lat="48.823066" lon="10.196797">
        <ele>611.4</ele>
        <time>2026-02-26T17:00:48Z</time>
      </trkpt>
      <trkpt lat="48.823044" lon="10.196893">
        <ele>611.3</ele>
        <time>2026-02-26T17:00:49Z</time>
      </trkpt>
      <trkpt lat="48.823020" lon="10.197000">
        <ele>611.2</ele>
        <time>2026-02-26T17:00:50Z</time>
      </trkpt>
      <trkpt lat="48.823012" lon="10.197092">
        <ele>611.1</ele>
        <time>2026-02-26T17:00:51Z</time>
      </trkpt>
      <trkpt lat="48.823000" lon="10.197190">
        <ele>611</ele>
        <time>2026-02-26T17:00:52Z</time>
      </trkpt>
      <trkpt lat="48.822983" lon="10.197288">
        <ele>611</ele>
        <time>2026-02-26T17:00:53Z</time>
      </trkpt>
      <trkpt lat="48.822969" lon="10.197380">
        <ele>610.9</ele>
        <time>2026-02-26T17:00:54Z</time>
      </trkpt>
      <trkpt lat="48.822956" lon="10.197472">
        <ele>610.9</ele>
        <time>2026-02-26T17:00:55Z</time>
      </trkpt>
      <trkpt lat="48.822938" lon="10.197562">
        <ele>610.8</ele>
        <time>2026-02-26T17:00:56Z</time>
      </trkpt>
      <trkpt lat="48.822916" lon="10.197643">
        <ele>610.7</ele>
        <time>2026-02-26T17:00:57Z</time>
      </trkpt>
      <trkpt lat="48.822896" lon="10.197730">
        <ele>610.6</ele>
        <time>2026-02-26T17:00:58Z</time>
      </trkpt>
      <trkpt lat="48.822881" lon="10.197812">
        <ele>610.6</ele>
        <time>2026-02-26T17:00:59Z</time>
      </trkpt>
      <trkpt lat="48.822862" lon="10.197899">
        <ele>610.5</ele>
        <time>2026-02-26T17:01:00Z</time>
      </trkpt>
      <trkpt lat="48.822842" lon="10.197978">
        <ele>610.4</ele>
        <time>2026-02-26T17:01:01Z</time>
      </trkpt>
      <trkpt lat="48.822820" lon="10.198058">
        <ele>610.3</ele>
        <time>2026-02-26T17:01:02Z</time>
      </trkpt>
      <trkpt lat="48.822801" lon="10.198136">
        <ele>610.3</ele>
        <time>2026-02-26T17:01:03Z</time>
      </trkpt>
      <trkpt lat="48.822779" lon="10.198212">
        <ele>610.3</ele>
        <time>2026-02-26T17:01:04Z</time>
      </trkpt>
      <trkpt lat="48.822759" lon="10.198293">
        <ele>610.2</ele>
        <time>2026-02-26T17:01:05Z</time>
      </trkpt>
      <trkpt lat="48.822737" lon="10.198369">
        <ele>610.2</ele>
        <time>2026-02-26T17:01:06Z</time>
      </trkpt>
      <trkpt lat="48.822719" lon="10.198444">
        <ele>610.1</ele>
        <time>2026-02-26T17:01:07Z</time>
      </trkpt>
      <trkpt lat="48.822695" lon="10.198514">
        <ele>610.1</ele>
        <time>2026-02-26T17:01:08Z</time>
      </trkpt>
      <trkpt lat="48.822672" lon="10.198583">
        <ele>610.1</ele>
        <time>2026-02-26T17:01:09Z</time>
      </trkpt>
      <trkpt lat="48.822651" lon="10.198650">
        <ele>610.1</ele>
        <time>2026-02-26T17:01:10Z</time>
      </trkpt>
      <trkpt lat="48.822622" lon="10.198713">
        <ele>610.1</ele>
        <time>2026-02-26T17:01:11Z</time>
      </trkpt>
      <trkpt lat="48.822595" lon="10.198769">
        <ele>610.1</ele>
        <time>2026-02-26T17:01:12Z</time>
      </trkpt>
      <trkpt lat="48.822565" lon="10.198825">
        <ele>610.1</ele>
        <time>2026-02-26T17:01:13Z</time>
      </trkpt>
      <trkpt lat="48.822540" lon="10.198882">
        <ele>610.1</ele>
        <time>2026-02-26T17:01:14Z</time>
      </trkpt>
      <trkpt lat="48.822509" lon="10.198947">
        <ele>610</ele>
        <time>2026-02-26T17:01:15Z</time>
      </trkpt>
      <trkpt lat="48.822480" lon="10.199008">
        <ele>610</ele>
        <time>2026-02-26T17:01:16Z</time>
      </trkpt>
      <trkpt lat="48.822454" lon="10.199069">
        <ele>609.9</ele>
        <time>2026-02-26T17:01:17Z</time>
      </trkpt>
      <trkpt lat="48.822416" lon="10.199113">
        <ele>609.8</ele>
        <time>2026-02-26T17:01:18Z</time>
      </trkpt>
      <trkpt lat="48.822377" lon="10.199176">
        <ele>609.7</ele>
        <time>2026-02-26T17:01:19Z</time>
      </trkpt>
      <trkpt lat="48.822343" lon="10.199233">
        <ele>609.7</ele>
        <time>2026-02-26T17:01:20Z</time>
      </trkpt>
      <trkpt lat="48.822308" lon="10.199288">
        <ele>609.6</ele>
        <time>2026-02-26T17:01:21Z</time>
      </trkpt>
      <trkpt lat="48.822264" lon="10.199354">
        <ele>609.5</ele>
        <time>2026-02-26T17:01:22Z</time>
      </trkpt>
      <trkpt lat="48.822233" lon="10.199417">
        <ele>609.4</ele>
        <time>2026-02-26T17:01:23Z</time>
      </trkpt>
      <trkpt lat="48.822196" lon="10.199484">
        <ele>609.2</ele>
        <time>2026-02-26T17:01:24Z</time>
      </trkpt>
      <trkpt lat="48.822164" lon="10.199550">
        <ele>609.1</ele>
        <time>2026-02-26T17:01:25Z</time>
      </trkpt>
      <trkpt lat="48.822133" lon="10.199630">
        <ele>609</ele>
        <time>2026-02-26T17:01:26Z</time>
      </trkpt>
      <trkpt lat="48.822103" lon="10.199700">
        <ele>608.9</ele>
        <time>2026-02-26T17:01:27Z</time>
      </trkpt>
    </trkseg>
  </trk>
</gpx>